# Wetter Temperatur Luftdruck Luftfeuchtigkeit Sichtweite Windgeschwindigkeit Windrichtung Zeit
1 Clouds 3 997 69 10000 6.2 250 21:57 28.01.2020
2 Clouds 3 997 69 10000 6.2 250 21:38 28.01.2020
3 Clouds 3 997 74 10000 5.7 240 21:19 28.01.2020
4 Clouds 3 997 74 10000 6.2 240 20:46 28.01.2020
5 Clouds 3 997 69 10000 6.7 250 20:26 28.01.2020
6 Snow 3 996 74 10000 6.7 240 19:56 28.01.2020
7 Snow 3 996 74 10000 6.7 240 19:37 28.01.2020
8 Snow 3 996 74 10000 6.7 250 19:19 28.01.2020
9 Clouds 3 996 74 10000 6.7 250 18:54 28.01.2020
10 Clouds 3 996 72 10000 5.7 250 18:36 28.01.2020
11 Clouds 3 996 72 10000 5.7 250 18:18 28.01.2020
12 Rain 3 995 72 10000 5.1 230 17:54 28.01.2020
13 Rain 3 995 72 10000 8.2 260 17:36 28.01.2020
14 Rain 4 995 72 10000 8.2 260 17:18 28.01.2020
15 Rain 4 995 80 10000 8.2 250 16:44 28.01.2020
16 Clouds 4 994 75 10000 6.7 260 16:25 28.01.2020
17 Rain 5 993 70 10000 7.2 250 15:59 28.01.2020
18 Rain 5 993 70 10000 7.2 250 15:40 28.01.2020
19 Rain 5 993 75 10000 7.2 240 15:18 28.01.2020
20 Rain 5 992 80 10000 6.7 240 14:44 28.01.2020
21 Rain 6 992 70 10000 7.2 190 14:20 28.01.2020
22 Clouds 6 992 75 10000 6.2 170 13:43 28.01.2020
23 Clouds 6 993 75 10000 5.7 170 13:25 28.01.2020
24 Rain 7 993 75 10000 5.7 170 12:56 28.01.2020
25 Clouds 7 994 75 10000 5.7 170 12:38 28.01.2020
26 Clouds 7 994 75 10000 5.7 170 12:20 28.01.2020
27 Clouds 7 994 70 10000 7.2 200 11:41 28.01.2020
28 Clouds 7 994 70 10000 7.2 200 11:41 28.01.2020
29 Clouds 7 995 75 10000 8.7 200 11:22 28.01.2020
30 Clouds 7 995 70 10000 7.7 200 10:55 28.01.2020
31 Clouds 6 996 81 10000 6.2 200 10:37 28.01.2020
32 Clouds 7 996 81 10000 6.2 200 10:18 28.01.2020
33 Clouds 6 996 81 10000 6.2 200 09:42 28.01.2020
34 Clouds 5 996 81 10000 8.2 190 09:20 28.01.2020
35 Clouds 5 997 81 10000 7.2 200 08:46 28.01.2020
36 Rain 5 997 81 10000 7.2 200 08:26 28.01.2020
37 Rain 6 997 93 10000 5.7 210 07:57 28.01.2020
38 Rain 6 997 86 10000 7.2 190 07:36 28.01.2020
39 Rain 6 997 80 10000 7.2 180 06:49 28.01.2020
40 Rain 6 997 80 10000 8.2 180 06:25 28.01.2020
41 Clouds 6 997 80 10000 8.7 180 05:53 28.01.2020
42 Clouds 6 998 75 10000 8.2 180 05:24 28.01.2020
43 Clouds 5 1000 86 10000 6.7 160 03:57 28.01.2020
44 Clouds 5 1001 80 10000 5.1 160 02:58 28.01.2020
45 Clouds 5 1001 80 10000 5.1 170 02:25 28.01.2020
46 Clouds 5 1002 80 10000 4.1 160 01:57 28.01.2020
47 Clouds 5 1002 80 10000 3.6 140 01:23 28.01.2020
48 Clouds 5 1003 80 10000 4.6 160 00:45 28.01.2020
49 Clouds 5 1004 80 10000 4.6 160 00:24 28.01.2020
50 Clouds 5 1004 80 10000 5.1 170 23:48 27.01.2020
51 Clouds 5 1004 80 10000 4.1 150 23:29 27.01.2020
52 Clouds 5 1005 80 10000 5.7 160 22:55 27.01.2020
53 Clouds 5 1005 80 10000 6.7 160 22:36 27.01.2020
54 Clouds 5 1005 80 10000 6.7 160 22:18 27.01.2020
55 Clouds 5 1006 80 10000 6.7 150 21:54 27.01.2020
56 Rain 5 1006 80 10000 6.2 160 21:36 27.01.2020
57 Rain 5 1006 80 10000 6.2 160 21:18 27.01.2020
58 Rain 5 1007 80 10000 5.7 160 20:42 27.01.2020
59 Rain 5 1007 80 10000 6.7 170 20:22 27.01.2020
60 Clouds 5 1008 86 10000 5.7 160 19:59 27.01.2020
61 Clouds 5 1008 86 10000 5.7 160 19:40 27.01.2020
62 Clouds 5 1008 86 10000 5.1 150 19:22 27.01.2020
63 Clouds 4 1008 80 10000 5.7 150 18:56 27.01.2020
64 Clouds 5 1009 80 10000 5.1 150 18:37 27.01.2020
65 Clouds 5 1009 80 10000 5.1 150 18:37 27.01.2020
66 Clouds 5 1009 80 10000 5.1 150 18:19 27.01.2020
67 Clouds 4 1009 80 10000 5.7 160 17:39 27.01.2020
68 Clouds 4 1009 80 10000 5.7 160 17:39 27.01.2020
69 Clouds 5 1010 75 10000 5.1 150 17:20 27.01.2020
70 Clouds 5 1010 75 10000 5.1 150 16:59 27.01.2020
71 Clouds 5 1010 75 10000 5.1 150 16:40 27.01.2020
72 Clouds 5 1010 75 10000 5.7 150 16:22 27.01.2020
73 Clouds 5 1010 75 10000 4.6 150 15:55 27.01.2020
74 Clouds 6 1010 70 10000 5.1 150 15:36 27.01.2020
75 Clouds 6 1010 70 10000 5.1 150 15:36 27.01.2020
76 Clouds 6 1010 70 10000 5.1 150 15:18 27.01.2020
77 Clouds 6 1011 70 10000 5.1 150 14:42 27.01.2020
78 Clouds 7 1011 70 10000 5.1 150 14:22 27.01.2020
79 Clouds 8 1011 70 10000 5.1 140 13:58 27.01.2020
80 Clouds 8 1012 70 10000 3.6 150 13:39 27.01.2020
81 Clouds 8 1012 70 10000 3.6 150 13:19 27.01.2020
82 Clouds 8 1012 70 10000 3.1 130 12:54 27.01.2020
83 Clouds 7 1012 75 10000 2.6 180 12:36 27.01.2020
84 Clouds 7 1012 75 10000 2.6 180 12:18 27.01.2020
85 Clouds 7 1013 75 10000 3.6 150 11:41 27.01.2020
86 Clouds 5 1013 80 10000 4.1 160 11:20 27.01.2020
87 Clouds 5 1013 75 10000 4.1 160 10:43 27.01.2020
88 Clouds 4 1013 86 10000 4.1 160 10:24 27.01.2020
89 Clouds 3 1014 77 10000 3.6 160 09:56 27.01.2020
90 Clouds 3 1014 77 10000 3.1 140 09:38 27.01.2020
91 Clouds 2 1014 77 10000 3.1 140 09:18 27.01.2020
92 Clouds 2 1014 77 10000 2.1 190 08:42 27.01.2020
93 Clouds 2 1014 83 10000 1.5 0 08:20 27.01.2020
94 Clouds 2 1014 83 10000 1.5 150 07:54 27.01.2020
95 Clouds 2 1014 83 10000 1.5 150 07:54 27.01.2020
96 Clouds 2 1015 83 10000 2.6 180 07:33 27.01.2020
97 Clouds 2 1014 83 10000 3.6 150 06:53 27.01.2020
98 Rain 2 1014 83 10000 3.1 170 06:25 27.01.2020
99 Clouds 2 1015 83 10000 2.1 160 05:23 27.01.2020
100 Clouds 1 1015 87 10000 1.5 180 03:49 27.01.2020
101 Clouds 1 1015 87 9000 2.6 160 02:38 27.01.2020
102 Clouds 2 1016 85 9000 1 0 01:29 27.01.2020
103 Clouds 2 1016 84 9000 2.6 160 00:58 27.01.2020
104 Drizzle 2 1016 84 9000 2.6 170 00:37 27.01.2020
105 Drizzle 2 1016 84 9000 2.6 170 00:18 27.01.2020
106 Drizzle 2 1016 86 9000 3.6 160 23:41 26.01.2020
107 Drizzle 2 1016 86 9000 3.6 160 23:41 26.01.2020
108 Clouds 2 1016 86 10000 2.6 180 23:19 26.01.2020
109 Clouds 2 1017 86 10000 2.6 200 22:55 26.01.2020
110 Rain 2 1017 86 10000 2.6 160 22:37 26.01.2020
111 Rain 2 1017 86 10000 2.6 160 22:18 26.01.2020
112 Clouds 1 1017 86 10000 3.1 160 21:56 26.01.2020
113 Clouds 2 1017 86 10000 3.1 160 21:38 26.01.2020
114 Clouds 2 1017 86 10000 3.1 170 21:19 26.01.2020
115 Clouds 1 1017 86 10000 3.1 180 20:55 26.01.2020
116 Clouds 2 1017 80 10000 2.6 160 20:36 26.01.2020
117 Clouds 2 1017 80 10000 2.6 160 20:18 26.01.2020
118 Clouds 1 1017 79 10000 2.1 190 19:56 26.01.2020
119 Clouds 1 1017 79 10000 2.1 160 19:37 26.01.2020
120 Clouds 1 1017 79 10000 2.1 160 19:18 26.01.2020
121 Clouds 1 1017 79 10000 3.1 170 18:41 26.01.2020
122 Clouds 2 1017 86 10000 2.6 170 18:22 26.01.2020
123 Clouds 2 1017 86 10000 2.6 180 17:59 26.01.2020
124 Clouds 2 1017 86 10000 2.6 180 17:39 26.01.2020
125 Clouds 2 1017 86 10000 2.1 170 17:20 26.01.2020
126 Clouds 1 1017 86 10000 2.1 160 16:58 26.01.2020
127 Clouds 1 1017 86 10000 2.1 160 16:40 26.01.2020
128 Clouds 2 1017 80 10000 3.1 160 16:21 26.01.2020
129 Clouds 2 1019 83 0 0.45 202 15:58 26.01.2020
130 Clouds 2 1019 83 0 0.45 202 15:58 26.01.2020
131 Clouds 2 979 91 0 0.84 213 15:40 26.01.2020
132 Clouds 2 979 93 0 0.89 109 15:19 26.01.2020
133 Clouds 2 1018 90 0 0.89 337 14:41 26.01.2020
134 Clouds 2 1019 83 0 0.45 186 14:23 26.01.2020
135 Clouds 2 980 93 0 0.45 111 13:59 26.01.2020
136 Clouds 2 980 92 0 1.06 215 13:38 26.01.2020
137 Clouds 2 980 91 0 0.89 107 13:18 26.01.2020
138 Clouds 2 981 91 0 1.27 218 12:43 26.01.2020
139 Clouds 2 981 89 0 0.45 214 12:24 26.01.2020
140 Clouds 2 981 88 0 0.45 188 11:59 26.01.2020
141 Clouds 2 981 91 0 1.27 218 11:40 26.01.2020
142 Clouds 1 1019 92 8000 2.6 160 11:19 26.01.2020
143 Clouds 0 1019 92 8000 2.6 160 10:59 26.01.2020
144 Clouds 0 1019 92 8000 2.6 160 10:39 26.01.2020
145 Clouds -1 1019 92 8000 2.6 160 10:21 26.01.2020
146 Clouds -1 1019 92 7000 1 0 09:59 26.01.2020
147 Clouds 0 1019 92 7000 1 0 09:41 26.01.2020
148 Clouds -1 1019 92 7000 2.1 200 09:22 26.01.2020
149 Clouds -2 1019 100 6000 1.5 220 08:45 26.01.2020
150 Mist -3 1019 92 5000 1.5 180 08:24 26.01.2020
151 Clouds -3 1019 92 6000 2.1 190 07:59 26.01.2020
152 Clouds -3 1019 92 6000 2.1 190 07:41 26.01.2020
153 Clouds -3 1019 92 8000 2.1 220 07:22 26.01.2020
154 Clouds -4 1019 100 9000 1 240 06:32 26.01.2020
155 Clouds -4 1019 92 10000 1.5 170 05:37 26.01.2020
156 Clouds -4 1019 100 7000 1 0 04:58 26.01.2020
157 Mist -4 1020 100 4000 2.1 190 02:59 26.01.2020
158 Mist -4 1020 92 3500 1 0 01:59 26.01.2020
159 Mist -4 1020 100 3200 1 200 01:39 26.01.2020
160 Mist -4 1020 100 3200 1 200 01:19 26.01.2020
161 Mist -4 1020 100 4000 1 0 00:39 26.01.2020
162 Mist -4 1021 100 4000 1.5 120 00:20 26.01.2020
163 Clouds -4 1022 87 0 1.4 205 23:38 25.01.2020
164 Clouds -4 981 99 0 0.89 166 23:20 25.01.2020
165 Clouds -3 1022 87 0 1.82 218 22:43 25.01.2020
166 Clouds -3 981 99 0 1.82 218 22:20 25.01.2020
167 Clouds -3 1022 86 0 1.82 218 21:59 25.01.2020
168 Clouds -3 1022 86 0 1.82 218 21:41 25.01.2020
169 Clouds -3 1022 86 0 1.82 218 21:22 25.01.2020
170 Clouds -3 981 99 0 1.82 218 20:54 25.01.2020
171 Clouds 0 1023 68 0 1.82 218 20:36 25.01.2020
172 Clear -3 981 99 0 1.51 198 20:18 25.01.2020
173 Clear -2 1022 85 0 1.51 198 19:41 25.01.2020
174 Clear -2 982 99 0 1.51 198 19:20 25.01.2020
175 Clear -2 982 99 0 1.51 198 18:56 25.01.2020
176 Clear -2 981 99 0 1.51 198 18:38 25.01.2020
177 Clear -2 982 99 0 1.51 198 18:20 25.01.2020
178 Clear -1 1022 83 0 1.54 202 17:40 25.01.2020
179 Clear -1 1022 82 0 1.43 300 17:19 25.01.2020
180 Clear -1 1022 81 0 1.54 305 16:57 25.01.2020
181 Clear -1 1020 93 0 1.43 300 16:38 25.01.2020
182 Clear 0 981 93 0 1.43 300 16:19 25.01.2020
183 Clear 0 1022 81 0 1.43 300 15:47 25.01.2020
184 Clear 0 1022 82 0 1.43 300 15:25 25.01.2020
185 Clear 0 1022 82 0 1.43 300 14:59 25.01.2020
186 Clear 0 1022 82 0 1.43 300 14:40 25.01.2020
187 Clear 0 981 90 0 0.45 132 14:18 25.01.2020
188 Clear 0 1023 83 0 0.45 87 13:42 25.01.2020
189 Clear 0 1023 83 0 0.45 87 13:42 25.01.2020
190 Clear 0 982 91 0 0.45 119 13:23 25.01.2020
191 Mist -1 1023 92 4500 2.1 200 12:45 25.01.2020
192 Mist -1 1023 92 4500 2.1 200 12:26 25.01.2020
193 Mist -2 1023 92 4500 2.1 200 11:45 25.01.2020
194 Mist -1 1023 92 4500 2.6 190 11:22 25.01.2020
195 Mist -2 1022 92 4500 3.1 200 10:59 25.01.2020
196 Mist -2 1022 92 4500 2.6 210 10:40 25.01.2020
197 Mist -2 1022 92 4500 2.6 210 10:20 25.01.2020
198 Mist -3 1022 92 4500 1 220 09:54 25.01.2020
199 Mist -3 1022 92 4500 2.6 190 09:36 25.01.2020
200 Mist -3 1022 92 4500 2.6 190 09:18 25.01.2020
201 Mist -3 1021 92 4500 2.6 210 08:42 25.01.2020
202 Clouds -4 1021 92 6000 1.5 250 07:50 25.01.2020
203 Clouds -4 1021 92 8000 1.5 220 06:54 25.01.2020
204 Clouds -4 1021 92 8000 2.1 210 06:29 25.01.2020
205 Clouds -4 1021 92 9000 2.1 230 05:48 25.01.2020
206 Clouds -4 1021 92 9000 2.1 240 05:23 25.01.2020
207 Clouds -4 1021 92 9000 2.6 210 03:54 25.01.2020
208 Clouds -4 1021 92 10000 3.1 220 03:23 25.01.2020
209 Clouds -4 1021 92 10000 2.6 240 02:23 25.01.2020
210 Clouds -4 1021 92 10000 3.1 210 01:53 25.01.2020
211 Clouds -3 1022 92 10000 2.6 200 00:52 25.01.2020
212 Clouds -3 1022 92 10000 2.6 220 00:26 25.01.2020
213 Clouds -3 1022 92 10000 2.6 220 00:26 25.01.2020
214 Clouds -3 1022 92 10000 3.1 210 23:59 24.01.2020
215 Clouds -3 1022 92 10000 3.1 210 23:41 24.01.2020
216 Clouds -3 1022 92 10000 3.1 210 23:41 24.01.2020
217 Clouds -3 1021 86 10000 3.1 200 23:23 24.01.2020
218 Clouds -3 1022 86 10000 2.1 180 22:46 24.01.2020
219 Clouds -3 1022 86 10000 2.1 180 22:46 24.01.2020
220 Clouds -3 1022 92 10000 0.5 0 22:25 24.01.2020
221 Clouds -3 1021 92 10000 1.5 190 21:57 24.01.2020
222 Clouds -2 1021 92 10000 1.5 190 21:39 24.01.2020
223 Clouds -2 1021 92 10000 2.6 180 21:18 24.01.2020
224 Clouds -2 1021 86 10000 3.1 180 20:43 24.01.2020
225 Clouds -2 1021 86 10000 3.1 180 20:21 24.01.2020
226 Clouds -2 1021 86 10000 3.6 170 19:58 24.01.2020
227 Clouds -2 1021 86 10000 3.6 170 19:39 24.01.2020
228 Clouds -1 1021 80 10000 1 0 19:21 24.01.2020
229 Clouds -1 1021 80 10000 1.5 170 18:44 24.01.2020
230 Clouds -1 1021 86 10000 2.1 170 18:25 24.01.2020
231 Clouds -1 1021 80 10000 3.1 180 17:59 24.01.2020
232 Clouds -1 1021 80 10000 3.1 180 17:41 24.01.2020
233 Clouds 0 1021 68 10000 2.6 190 17:20 24.01.2020
234 Clouds 0 1021 74 10000 2.6 180 16:40 24.01.2020
235 Clouds 1 1021 69 10000 2.6 200 16:21 24.01.2020
236 Clouds 2 1021 64 10000 2.1 210 15:56 24.01.2020
237 Clouds 2 1021 64 10000 2.1 210 15:38 24.01.2020
238 Clouds 3 1021 60 10000 2.6 220 15:19 24.01.2020
239 Clouds 3 1021 60 10000 2.1 220 14:41 24.01.2020
240 Clouds 3 1021 60 10000 2.1 220 14:41 24.01.2020
241 Clouds 3 1022 60 10000 1.5 230 14:23 24.01.2020
242 Clear 3 1022 60 10000 2.6 200 13:57 24.01.2020
243 Clear 3 1022 64 10000 3.6 190 13:39 24.01.2020
244 Clear 3 1022 64 10000 3.6 190 13:19 24.01.2020
245 Clear 3 1022 64 10000 4.1 190 12:41 24.01.2020
246 Clear 2 1022 69 10000 3.6 180 12:18 24.01.2020
247 Clear 2 1023 74 10000 3.6 180 11:43 24.01.2020
248 Clear 2 1023 74 10000 3.6 170 11:19 24.01.2020
249 Clear 1 1023 58 10000 3.1 170 10:43 24.01.2020
250 Clear 0 1023 80 10000 4.1 160 10:23 24.01.2020
251 Clear -1 1023 86 10000 5.1 160 09:57 24.01.2020
252 Clear -1 1023 86 10000 5.1 160 09:57 24.01.2020
253 Clear -2 1023 86 10000 5.1 160 09:39 24.01.2020
254 Clear -2 1023 86 10000 4.6 160 09:21 24.01.2020
255 Clear -2 1023 86 10000 4.6 160 08:41 24.01.2020
256 Clouds -4 1023 92 10000 3.6 160 08:20 24.01.2020
257 Clear -4 1023 92 10000 3.6 160 07:53 24.01.2020
258 Clear -4 1023 92 10000 4.6 150 07:34 24.01.2020
259 Clear -4 1023 86 10000 5.1 160 06:48 24.01.2020
260 Clear -4 1023 92 10000 4.6 160 06:29 24.01.2020
261 Clear -4 1023 92 10000 2.6 140 05:59 24.01.2020
262 Clear -4 1023 92 10000 1.5 160 05:18 24.01.2020
263 Clear -4 1025 86 10000 2.1 160 02:54 24.01.2020
264 Clear -4 1025 86 10000 3.1 160 02:26 24.01.2020
265 Clear -4 1025 92 10000 4.6 160 01:49 24.01.2020
266 Clear -4 1026 86 10000 2.6 150 01:31 24.01.2020
267 Clear -3 1026 100 10000 0.5 140 00:26 24.01.2020
268 Clear -3 1027 92 10000 0.5 0 23:56 23.01.2020
269 Clear -3 1027 92 10000 0.5 0 23:37 23.01.2020
270 Clear -3 1027 92 10000 3.6 160 23:18 23.01.2020
271 Clear -3 1027 86 10000 2.6 140 22:39 23.01.2020
272 Clear -3 1027 86 10000 2.6 140 22:20 23.01.2020
273 Clear -3 1027 92 10000 2.1 130 21:58 23.01.2020
274 Clear -3 1027 92 10000 2.1 130 21:58 23.01.2020
275 Clear -2 1027 92 10000 2.1 130 21:40 23.01.2020
276 Clear -2 1027 80 10000 1 0 21:21 23.01.2020
277 Clear -2 1028 80 10000 1.5 140 20:59 23.01.2020
278 Clear -2 1028 80 10000 1.5 140 20:39 23.01.2020
279 Clear -2 1028 86 10000 2.1 150 20:21 23.01.2020
280 Clear -2 1028 79 10000 3.1 150 19:57 23.01.2020
281 Clear -2 1028 79 10000 3.1 150 19:38 23.01.2020
282 Clear -2 1028 79 10000 3.1 150 19:38 23.01.2020
283 Clear -1 1028 79 10000 3.1 160 19:20 23.01.2020
284 Clouds -1 1029 79 10000 1 120 18:56 23.01.2020
285 Clouds -1 1029 79 10000 1 120 18:37 23.01.2020
286 Clouds 0 1029 74 10000 1 110 18:19 23.01.2020
287 Clouds 0 1029 74 10000 1 0 17:44 23.01.2020
288 Clouds 1 1029 74 10000 1 110 17:21 23.01.2020
289 Clouds 1 1030 74 10000 1 130 16:59 23.01.2020
290 Clouds 2 1030 69 10000 1.5 150 16:39 23.01.2020
291 Clouds 2 1030 69 10000 1.5 150 16:19 23.01.2020
292 Clouds 3 1031 69 10000 2.6 150 15:58 23.01.2020
293 Clouds 3 1031 69 10000 2.6 150 15:38 23.01.2020
294 Clouds 3 1031 69 10000 2.1 160 15:38 23.01.2020
295 Clouds 3 1031 69 10000 2.1 160 15:19 23.01.2020
296 Clouds 3 1031 69 10000 3.1 160 14:58 23.01.2020
297 Clouds 3 1031 69 10000 3.1 160 14:40 23.01.2020
298 Clouds 3 1031 69 10000 3.6 150 14:21 23.01.2020
299 Clouds 3 1032 74 10000 3.1 160 13:46 23.01.2020
300 Clouds 3 1033 74 10000 1.5 170 13:21 23.01.2020
301 Clouds 3 1033 64 10000 2.6 200 12:57 23.01.2020
302 Clouds 3 1033 64 10000 2.6 200 12:57 23.01.2020
303 Clouds 3 1033 64 10000 2.6 200 12:39 23.01.2020
304 Clouds 3 1033 62 10000 2.1 190 12:21 23.01.2020
305 Clouds 3 1033 86 10000 2.1 190 11:54 23.01.2020
306 Clouds 3 1034 93 10000 2.1 180 11:36 23.01.2020
307 Clouds 2 1034 93 10000 2.1 180 11:18 23.01.2020
308 Clouds 2 1034 93 10000 2.6 200 10:41 23.01.2020
309 Clouds 2 1034 93 10000 2.6 190 10:19 23.01.2020
310 Clouds 2 1034 81 10000 2.1 180 09:41 23.01.2020
311 Clouds 2 1034 93 6000 0.5 0 09:23 23.01.2020
312 Mist 1 1034 100 4500 1.5 160 08:57 23.01.2020
313 Mist 1 1034 100 4500 1.5 160 08:38 23.01.2020
314 Mist 1 1034 100 3500 2.1 200 08:20 23.01.2020
315 Mist 1 1034 100 4500 1.5 220 07:42 23.01.2020
316 Mist 1 1034 100 5000 0.5 230 07:24 23.01.2020
317 Clouds 1 1034 100 6000 1 210 06:46 23.01.2020
318 Clouds 1 1034 93 6000 1 0 06:19 23.01.2020
319 Clouds 1 1034 93 6000 1.5 240 04:58 23.01.2020
320 Clouds 1 1034 93 6000 1 0 04:22 23.01.2020
321 Clouds 1 1035 93 7000 1.5 240 02:31 23.01.2020
322 Clouds 1 1035 93 6000 1.5 260 00:58 23.01.2020
323 Clouds 1 1034 93 6000 1 0 00:27 23.01.2020
324 Mist 2 1034 93 5000 1.5 280 23:47 22.01.2020
325 Mist 2 1034 93 5000 2.1 280 23:29 22.01.2020
326 Clouds 2 1034 93 6000 2.1 260 22:59 22.01.2020
327 Clouds 2 1034 93 6000 2.1 260 22:40 22.01.2020
328 Clouds 2 1034 93 6000 2.1 260 22:22 22.01.2020
329 Clouds 1 1034 93 6000 1.5 260 21:40 22.01.2020
330 Clouds 1 1034 93 6000 3.1 270 21:22 22.01.2020
331 Drizzle 2 1034 93 5000 2.6 250 20:57 22.01.2020
332 Drizzle 2 1034 93 5000 2.6 250 20:37 22.01.2020
333 Drizzle 1 1033 93 5000 3.1 260 20:19 22.01.2020
334 Mist 1 1033 93 5000 3.1 260 19:56 22.01.2020
335 Mist 1 1033 93 5000 3.1 260 19:37 22.01.2020
336 Mist 1 1033 93 5000 3.1 260 19:18 22.01.2020
337 Mist 1 1033 100 5000 3.1 280 18:56 22.01.2020
338 Mist 1 1033 100 5000 3.1 280 18:38 22.01.2020
339 Mist 1 1032 100 5000 3.1 280 18:19 22.01.2020
340 Mist 1 1032 100 5000 3.1 270 17:54 22.01.2020
341 Mist 1 1032 100 5000 3.1 270 17:54 22.01.2020
342 Mist 1 1032 100 4300 3.6 280 17:36 22.01.2020
343 Mist 1 1032 100 4300 3.6 280 17:18 22.01.2020
344 Mist 1 1031 100 4000 2.6 270 16:42 22.01.2020
345 Mist 1 1031 100 3700 3.6 270 16:22 22.01.2020
346 Drizzle 1 1031 100 2000 3.6 270 15:58 22.01.2020
347 Drizzle 1 1031 100 2000 3.6 270 15:39 22.01.2020
348 Drizzle 1 1031 81 2200 4.1 280 15:21 22.01.2020
349 Mist 1 1031 81 2500 4.1 290 14:54 22.01.2020
350 Drizzle 1 1031 81 2000 4.1 280 14:36 22.01.2020
351 Drizzle 1 1031 81 2000 4.1 280 14:36 22.01.2020
352 Drizzle 1 1031 70 2000 4.1 280 14:18 22.01.2020
353 Mist 1 1031 70 2300 3.6 270 13:54 22.01.2020
354 Mist 1 1031 70 2500 3.6 250 13:36 22.01.2020
355 Mist 1 1031 76 2500 3.6 250 13:18 22.01.2020
356 Mist 1 1032 76 2200 4.1 250 12:54 22.01.2020
357 Mist 1 1032 76 3200 2.6 260 12:36 22.01.2020
358 Mist 1 1032 76 3200 2.6 260 12:18 22.01.2020
359 Mist 1 1032 76 4200 3.1 260 11:54 22.01.2020
360 Clouds 0 1032 76 7000 3.1 260 11:36 22.01.2020
361 Clouds 1 1032 61 7000 3.1 260 11:18 22.01.2020
362 Clouds 0 1032 61 9000 2.6 230 10:41 22.01.2020
363 Clouds 0 1032 86 10000 5.1 220 10:19 22.01.2020
364 Clouds -1 1032 80 10000 4.1 220 09:43 22.01.2020
365 Clouds -2 1033 86 10000 4.1 250 09:24 22.01.2020
366 Clouds -2 1033 79 10000 2.6 320 08:57 22.01.2020
367 Clouds -2 1033 79 10000 2.6 320 08:57 22.01.2020
368 Clouds -2 1033 79 10000 2.6 320 08:39 22.01.2020
369 Clear -3 1032 79 10000 2.6 290 08:20 22.01.2020
370 Clear -3 1031 86 10000 3.1 220 07:48 22.01.2020
371 Clear -4 1032 86 10000 2.6 230 07:30 22.01.2020
372 Clear -3 1032 92 10000 3.6 220 06:50 22.01.2020
373 Clear -4 1032 85 10000 3.6 220 06:26 22.01.2020
374 Clear -4 1033 92 10000 4.1 220 05:33 22.01.2020
375 Clear -4 1034 92 10000 3.6 200 04:18 22.01.2020
376 Clear -3 1034 92 10000 4.1 210 03:21 22.01.2020
377 Clear -3 1035 92 10000 3.6 210 01:44 22.01.2020
378 Clear -3 1035 92 10000 1.5 200 00:44 22.01.2020
379 Clear -3 1035 92 10000 3.1 210 00:26 22.01.2020
380 Clear -2 1036 86 10000 2.6 220 23:38 21.01.2020
381 Clear -2 1036 86 10000 3.1 210 23:38 21.01.2020
382 Clear -2 1036 86 10000 3.1 210 23:20 21.01.2020
383 Clear -2 1036 86 10000 4.1 210 22:59 21.01.2020
384 Clear -2 1036 86 10000 4.1 210 22:39 21.01.2020
385 Clear -2 1036 86 10000 3.1 210 22:20 21.01.2020
386 Clear -2 1036 92 10000 3.6 200 21:56 21.01.2020
387 Clear -2 1037 92 10000 3.6 200 21:37 21.01.2020
388 Clear -2 1037 92 10000 3.6 200 21:19 21.01.2020
389 Clear -2 1037 92 10000 3.6 200 21:19 21.01.2020
390 Clear -2 1037 86 10000 4.6 200 20:55 21.01.2020
391 Clear -2 1037 86 10000 4.6 200 20:37 21.01.2020
392 Clouds -2 1037 86 10000 4.6 200 20:18 21.01.2020
393 Clouds -1 1038 68 10000 2.6 200 19:55 21.01.2020
394 Clouds -1 1038 68 10000 2.6 200 19:37 21.01.2020
395 Clouds -1 1038 68 10000 2.6 200 19:18 21.01.2020
396 Clouds -1 1038 74 10000 1.5 250 18:55 21.01.2020
397 Clouds 0 1038 69 0 2.1 240 18:36 21.01.2020
398 Clouds 0 1038 69 0 2.1 240 18:18 21.01.2020
399 Clouds 1 1038 69 10000 1.5 250 17:42 21.01.2020
400 Clouds 1 1038 69 10000 1.5 270 17:20 21.01.2020
401 Clouds 1 998 77 0 2.97 237 16:58 21.01.2020
402 Clouds 2 1039 64 10000 2.1 280 16:37 21.01.2020
403 Clouds 3 1039 64 10000 2.1 280 16:18 21.01.2020
404 Clouds 4 1039 60 10000 2.6 260 15:42 21.01.2020
405 Clouds 4 1039 60 10000 3.1 230 15:21 21.01.2020
406 Clouds 5 1039 56 10000 4.1 240 14:59 21.01.2020
407 Clouds 5 1039 64 10000 4.6 220 14:37 21.01.2020
408 Clouds 5 1039 64 10000 4.6 220 14:19 21.01.2020
409 Clouds 4 1040 64 10000 3.6 250 13:40 21.01.2020
410 Clouds 4 1040 64 10000 3.6 240 13:19 21.01.2020
411 Clouds 4 1041 64 10000 3.1 260 12:43 21.01.2020
412 Clouds 3 1041 69 10000 2.6 270 12:25 21.01.2020
413 Clouds 3 1041 69 10000 2.6 250 11:57 21.01.2020
414 Clouds 3 1041 69 10000 2.6 250 11:39 21.01.2020
415 Clouds 2 1041 74 10000 3.1 210 11:21 21.01.2020
416 Clouds 1 1042 60 10000 3.1 210 10:55 21.01.2020
417 Clouds 0 1041 86 10000 3.6 200 10:37 21.01.2020
418 Clouds 0 1041 86 10000 3.6 200 10:18 21.01.2020
419 Clouds -2 1041 86 10000 4.1 200 09:41 21.01.2020
420 Clouds -2 1041 92 10000 5.1 200 09:22 21.01.2020
421 Clouds -3 1041 92 10000 4.1 200 08:49 21.01.2020
422 Clear -3 1041 92 10000 3.6 200 08:29 21.01.2020
423 Clouds -4 1042 92 10000 4.1 200 07:59 21.01.2020
424 Clouds -4 1042 92 10000 4.1 200 07:40 21.01.2020
425 Clouds -4 1042 92 10000 3.1 210 07:21 21.01.2020
426 Clouds -4 1042 92 10000 3.1 200 06:49 21.01.2020
427 Clouds -4 1042 100 10000 3.1 200 06:26 21.01.2020
428 Clouds -4 1042 92 10000 3.6 210 05:42 21.01.2020
429 Clear -4 1042 92 10000 2.6 190 04:40 21.01.2020
430 Clear -3 1044 92 10000 3.1 190 02:56 21.01.2020
431 Clear -3 1044 92 10000 3.1 190 01:53 21.01.2020
432 Clear -3 1044 92 10000 3.1 190 01:18 21.01.2020
433 Clear -3 1045 86 10000 2.6 180 00:37 21.01.2020
434 Clear -2 1045 86 10000 2.6 180 23:59 20.01.2020
435 Clear -2 1045 86 10000 2.6 180 23:39 20.01.2020
436 Clear -2 1045 86 10000 2.6 180 23:39 20.01.2020
437 Clear -2 1045 92 10000 3.6 190 23:19 20.01.2020
438 Clouds -2 1045 92 10000 4.1 190 22:56 20.01.2020
439 Clouds -2 1045 92 10000 2.1 190 22:38 20.01.2020
440 Clouds -1 1045 92 10000 2.1 190 22:20 20.01.2020
441 Clouds -1 1045 89 10000 2.1 190 21:57 20.01.2020
442 Clouds -1 1045 86 10000 1.5 220 21:37 20.01.2020
443 Clouds -1 1045 86 10000 1.5 220 21:19 20.01.2020
444 Clouds -1 1045 89 10000 1.5 230 20:56 20.01.2020
445 Clouds 0 1045 89 10000 1.5 230 20:56 20.01.2020
446 Clouds 0 1045 89 10000 1 0 20:38 20.01.2020
447 Clouds 0 1045 91 10000 1 0 20:18 20.01.2020
448 Clouds 0 1046 91 10000 1 0 19:56 20.01.2020
449 Clouds 0 1046 91 10000 1 0 19:56 20.01.2020
450 Clouds 0 1046 91 10000 1 0 19:38 20.01.2020
451 Clouds 0 1046 86 10000 1.5 300 19:18 20.01.2020
452 Clouds 0 1046 86 10000 1.5 300 19:18 20.01.2020
453 Clouds 0 1045 80 10000 1 280 18:44 20.01.2020
454 Clouds 0 1005 93 0 0.45 199 18:22 20.01.2020
455 Clouds 1 1045 80 10000 1.5 270 17:42 20.01.2020
456 Clouds 2 1045 74 10000 1.5 290 17:20 20.01.2020
457 Clouds 2 1045 69 10000 2.1 290 16:59 20.01.2020
458 Clouds 2 1045 69 10000 2.1 290 16:39 20.01.2020
459 Clouds 3 1045 83 10000 2.1 280 16:19 20.01.2020
460 Clouds 3 1045 83 10000 2.1 280 16:19 20.01.2020
461 Clouds 3 1045 83 10000 2.1 280 16:19 20.01.2020
462 Clouds 4 1045 69 10000 3.1 260 15:57 20.01.2020
463 Clouds 4 1045 69 10000 3.1 260 15:39 20.01.2020
464 Clouds 4 1046 83 10000 3.1 260 15:20 20.01.2020
465 Clouds 4 1046 69 10000 3.1 230 14:41 20.01.2020
466 Clouds 4 1046 69 10000 2.6 270 14:23 20.01.2020
467 Clouds 4 1046 69 10000 2.6 250 13:58 20.01.2020
468 Clouds 4 1046 75 10000 2.1 250 13:40 20.01.2020
469 Clouds 4 1046 75 10000 2.1 250 13:22 20.01.2020
470 Clouds 4 1046 80 10000 2.1 270 12:47 20.01.2020
471 Clouds 4 1046 80 10000 1.5 280 12:28 20.01.2020
472 Clouds 3 1046 86 10000 2.1 230 11:59 20.01.2020
473 Clouds 3 1046 86 10000 2.1 230 11:39 20.01.2020
474 Clouds 3 1046 93 10000 1.5 260 11:21 20.01.2020
475 Clouds 3 1046 93 9000 1.5 290 10:55 20.01.2020
476 Clouds 2 1045 100 9000 2.1 280 10:37 20.01.2020
477 Clouds 2 1045 100 9000 2.1 280 10:18 20.01.2020
478 Clouds 2 1045 93 9000 1.5 300 09:40 20.01.2020
479 Clouds 2 1045 93 9000 1.5 300 09:40 20.01.2020
480 Clouds 2 1045 93 9000 1.5 290 09:20 20.01.2020
481 Clouds 2 1044 93 9000 1.5 280 08:46 20.01.2020
482 Clouds 2 1044 93 10000 1.5 280 08:28 20.01.2020
483 Clouds 2 1044 93 10000 1.5 260 07:46 20.01.2020
484 Clouds 2 1044 93 10000 1.5 260 07:26 20.01.2020
485 Clouds 2 1044 93 10000 1.5 290 06:59 20.01.2020
486 Clouds 2 1044 93 10000 1 0 06:28 20.01.2020
487 Clouds 2 1043 93 10000 1.5 280 05:44 20.01.2020
488 Clouds 2 1043 93 10000 1 0 05:23 20.01.2020
489 Clouds 2 1043 93 8000 1.5 290 04:49 20.01.2020
490 Mist 2 1042 100 4500 1.5 300 02:59 20.01.2020
491 Mist 2 1042 100 4500 1.5 300 02:59 20.01.2020
492 Mist 2 1042 93 5000 1.5 280 01:57 20.01.2020
493 Clouds 2 1042 93 6000 1 300 01:37 20.01.2020
494 Clouds 2 1041 93 6000 1.5 310 00:45 20.01.2020
495 Clouds 2 1041 93 7000 2.1 300 00:25 20.01.2020
496 Clouds 2 1041 100 7000 1.5 290 23:54 19.01.2020
497 Clouds 2 1040 100 8000 1.5 300 23:36 19.01.2020
498 Clouds 2 1040 100 8000 1.5 300 23:18 19.01.2020
499 Clouds 2 1040 93 9000 2.1 290 22:54 19.01.2020
500 Clouds 2 1040 100 9000 1 290 22:36 19.01.2020
501 Clouds 2 1040 100 9000 1 290 22:18 19.01.2020
502 Clouds 2 1040 100 8000 1 310 21:54 19.01.2020
503 Clouds 2 1039 100 8000 1.5 300 21:36 19.01.2020
504 Clouds 2 1039 100 8000 1.5 300 21:18 19.01.2020
505 Clouds 2 1039 100 9000 2.1 290 20:54 19.01.2020
506 Clouds 3 1038 93 10000 1.5 290 20:36 19.01.2020
507 Clouds 3 1038 93 10000 1.5 290 20:18 19.01.2020
508 Clouds 3 1038 100 10000 1.5 300 19:54 19.01.2020
509 Clouds 3 1038 100 10000 1.5 320 19:36 19.01.2020
510 Clouds 3 1038 100 10000 1.5 320 19:18 19.01.2020
511 Clouds 3 1037 93 10000 1.5 320 18:54 19.01.2020
512 Clouds 3 1037 100 10000 2.1 290 18:36 19.01.2020
513 Clouds 3 1037 100 10000 2.1 290 18:18 19.01.2020
514 Clouds 3 1037 93 10000 1.5 300 17:56 19.01.2020
515 Clouds 3 1036 93 10000 1 0 17:38 19.01.2020
516 Clouds 3 1036 93 10000 1 0 17:18 19.01.2020
517 Clouds 3 1035 93 10000 1 0 16:54 19.01.2020
518 Clouds 3 1035 93 10000 2.1 290 16:36 19.01.2020
519 Rain 3 1035 93 10000 2.1 290 16:18 19.01.2020
520 Rain 3 1035 93 10000 2.6 290 15:41 19.01.2020
521 Rain 3 1034 93 10000 3.6 300 15:22 19.01.2020
522 Rain 3 1034 86 10000 3.1 310 14:59 19.01.2020
523 Rain 3 1034 86 10000 3.1 310 14:40 19.01.2020
524 Rain 3 1033 93 10000 3.6 300 14:20 19.01.2020
525 Clouds 3 1033 86 10000 2.6 290 13:59 19.01.2020
526 Clouds 3 1033 93 10000 3.1 300 13:40 19.01.2020
527 Clouds 3 1033 93 10000 3.1 300 13:21 19.01.2020
528 Clouds 3 1033 93 10000 4.1 300 12:59 19.01.2020
529 Clouds 3 1033 93 10000 4.1 300 12:41 19.01.2020
530 Clouds 3 1033 93 10000 3.6 300 12:21 19.01.2020
531 Clouds 3 1032 86 10000 3.1 290 11:57 19.01.2020
532 Clouds 3 1032 86 10000 3.1 290 11:38 19.01.2020
533 Clouds 3 1032 86 10000 3.1 300 11:18 19.01.2020
534 Clouds 2 1032 93 10000 3.1 290 10:41 19.01.2020
535 Clouds 2 1031 93 10000 2.6 290 10:21 19.01.2020
536 Clouds 2 1031 93 10000 3.1 290 09:57 19.01.2020
537 Clouds 2 1031 93 10000 3.1 290 09:38 19.01.2020
538 Clouds 2 1030 93 10000 2.6 280 09:20 19.01.2020
539 Clouds 2 1030 93 10000 2.6 280 08:56 19.01.2020
540 Clouds 2 1030 93 10000 2.6 290 08:38 19.01.2020
541 Clouds 2 1030 93 10000 2.6 290 08:19 19.01.2020
542 Clouds 2 1029 96 10000 2.1 270 07:30 19.01.2020
543 Clouds 2 1028 96 10000 2.1 270 06:56 19.01.2020
544 Rain 2 1028 96 10000 2.6 280 06:23 19.01.2020
545 Clouds 2 1027 96 10000 2.6 280 04:39 19.01.2020
546 Clouds 2 1026 96 10000 2.6 280 02:36 19.01.2020
547 Clouds 3 1026 95 10000 2.1 260 01:58 19.01.2020
548 Clouds 3 1026 95 10000 1.5 240 01:24 19.01.2020
549 Clouds 3 1026 96 10000 1.5 250 00:45 19.01.2020
550 Clouds 3 1025 96 10000 2.1 260 00:27 19.01.2020
551 Clouds 3 1025 96 10000 2.1 260 23:55 18.01.2020
552 Clouds 3 1025 96 10000 2.1 250 23:37 18.01.2020
553 Clouds 3 1025 88 10000 2.1 250 23:18 18.01.2020
554 Clouds 3 1025 88 10000 2.1 250 22:54 18.01.2020
555 Clouds 4 1025 88 10000 1.5 240 22:36 18.01.2020
556 Clouds 3 1025 88 10000 1.5 240 22:18 18.01.2020
557 Clouds 4 1025 88 10000 3.1 250 21:56 18.01.2020
558 Clouds 3 1025 88 10000 2.6 210 21:36 18.01.2020
559 Clouds 3 1025 88 10000 2.6 210 21:18 18.01.2020
560 Clouds 3 1024 86 10000 2.6 220 20:42 18.01.2020
561 Clouds 3 1025 82 10000 3.1 210 20:20 18.01.2020
562 Clouds 3 1024 86 10000 3.1 200 19:55 18.01.2020
563 Clouds 3 1024 86 10000 3.6 190 19:37 18.01.2020
564 Clouds 3 1024 86 10000 3.6 190 19:37 18.01.2020
565 Clouds 3 1024 86 10000 3.6 190 19:18 18.01.2020
566 Clouds 4 1024 82 10000 2.6 230 18:41 18.01.2020
567 Clouds 4 1024 82 10000 2.6 230 18:21 18.01.2020
568 Clouds 4 1024 82 10000 2.1 230 17:54 18.01.2020
569 Clouds 4 1024 82 10000 1.5 230 17:36 18.01.2020
570 Rain 5 1024 74 10000 1.5 230 17:18 18.01.2020
571 Rain 5 1023 74 10000 2.1 240 16:41 18.01.2020
572 Clouds 5 1023 74 10000 2.6 250 16:23 18.01.2020
573 Clouds 5 1023 70 10000 3.1 260 15:59 18.01.2020
574 Clouds 6 1023 70 10000 3.1 260 15:40 18.01.2020
575 Clouds 6 1023 74 10000 2.6 260 15:22 18.01.2020
576 Clouds 6 1023 70 10000 3.1 260 14:54 18.01.2020
577 Clouds 6 1023 74 10000 3.1 270 14:36 18.01.2020
578 Clouds 6 1023 73 10000 3.1 270 14:18 18.01.2020
579 Clouds 6 1023 70 10000 3.1 260 13:43 18.01.2020
580 Clouds 6 1023 70 10000 2.6 260 13:24 18.01.2020
581 Clouds 6 1023 70 10000 3.1 260 12:56 18.01.2020
582 Clouds 6 1024 70 10000 3.6 260 12:38 18.01.2020
583 Clouds 6 1024 70 10000 3.6 260 12:19 18.01.2020
584 Clouds 5 1024 75 10000 4.1 260 11:44 18.01.2020
585 Clouds 5 1024 75 10000 3.1 260 11:21 18.01.2020
586 Clouds 5 1024 75 10000 3.6 250 10:56 18.01.2020
587 Clouds 5 1024 75 10000 3.1 260 10:38 18.01.2020
588 Clouds 4 1024 75 10000 3.1 260 10:19 18.01.2020
589 Clouds 4 1023 76 10000 3.6 250 09:42 18.01.2020
590 Clouds 4 1023 75 10000 3.1 260 09:24 18.01.2020
591 Clouds 4 1023 75 10000 3.6 260 08:55 18.01.2020
592 Clouds 4 1022 75 10000 3.1 250 08:37 18.01.2020
593 Clouds 3 1022 75 10000 3.1 250 08:18 18.01.2020
594 Clouds 3 1022 86 10000 2.1 230 07:44 18.01.2020
595 Clouds 3 1022 80 10000 2.6 230 07:25 18.01.2020
596 Clouds 4 1021 86 10000 3.6 210 06:47 18.01.2020
597 Clouds 4 1021 93 10000 3.6 200 05:58 18.01.2020
598 Clouds 5 1020 93 10000 4.1 200 05:19 18.01.2020
599 Rain 4 1019 93 10000 3.6 200 02:53 18.01.2020
600 Rain 4 1019 93 10000 3.6 200 02:53 18.01.2020
601 Rain 5 1018 86 10000 3.1 190 01:52 18.01.2020
602 Clouds 5 1018 80 10000 3.1 190 01:29 18.01.2020
603 Clouds 5 1018 80 10000 2.6 190 00:36 18.01.2020
604 Clouds 5 1018 80 10000 2.6 190 00:18 18.01.2020
605 Clouds 5 1018 80 10000 4.1 170 23:41 17.01.2020
606 Clouds 5 1018 80 10000 3.1 180 23:20 17.01.2020
607 Clouds 5 1017 80 10000 2.1 170 22:44 17.01.2020
608 Clouds 4 1017 86 10000 2.1 170 22:22 17.01.2020
609 Clouds 4 1017 83 10000 2.1 160 21:59 17.01.2020
610 Clouds 4 1017 83 10000 2.1 160 21:41 17.01.2020
611 Clouds 4 1017 83 10000 2.1 160 21:22 17.01.2020
612 Clouds 3 1017 83 10000 3.6 160 20:57 17.01.2020
613 Clouds 3 1017 83 10000 3.6 160 20:38 17.01.2020
614 Clear 3 1017 80 10000 4.1 160 20:20 17.01.2020
615 Clear 3 1016 80 10000 5.1 160 19:55 17.01.2020
616 Clear 3 1016 80 10000 5.1 160 19:55 17.01.2020
617 Clear 3 1016 80 10000 5.7 170 19:37 17.01.2020
618 Clear 3 1016 80 10000 5.7 170 19:37 17.01.2020
619 Clear 2 1016 80 10000 5.7 170 19:18 17.01.2020
620 Clear 3 1017 80 10000 5.7 160 18:47 17.01.2020
621 Clear 3 1016 80 10000 5.7 160 18:29 17.01.2020
622 Clear 3 1017 80 10000 6.2 160 17:58 17.01.2020
623 Clear 3 1017 80 10000 6.2 160 17:39 17.01.2020
624 Clear 3 1016 74 10000 7.2 160 17:20 17.01.2020
625 Clear 4 1016 74 10000 6.7 160 16:43 17.01.2020
626 Clear 5 1017 74 10000 8.2 160 16:21 17.01.2020
627 Clear 5 1017 75 10000 7.7 160 15:58 17.01.2020
628 Clear 6 1017 75 10000 7.7 160 15:39 17.01.2020
629 Clear 6 1017 75 10000 7.7 160 15:20 17.01.2020
630 Clear 6 1017 75 10000 9.3 170 14:43 17.01.2020
631 Clear 7 1018 75 10000 10.3 170 14:24 17.01.2020
632 Clouds 6 1018 75 10000 10.8 170 13:43 17.01.2020
633 Clouds 6 1019 70 10000 10.3 170 13:23 17.01.2020
634 Clouds 6 1019 70 10000 9.3 170 12:47 17.01.2020
635 Clouds 6 1019 70 10000 8.7 160 12:23 17.01.2020
636 Clouds 6 1020 70 10000 7.2 160 11:43 17.01.2020
637 Clear 6 1021 70 10000 5.7 160 11:20 17.01.2020
638 Clear 6 1021 70 10000 5.7 160 11:20 17.01.2020
639 Clear 6 1021 70 10000 5.7 160 11:20 17.01.2020
640 Clear 6 1021 75 10000 5.1 140 10:58 17.01.2020
641 Clear 5 1021 75 10000 6.7 140 10:40 17.01.2020
642 Clear 4 1021 75 10000 6.7 140 10:21 17.01.2020
643 Clear 4 1021 80 0 5.7 140 09:56 17.01.2020
644 Clear 4 1022 80 10000 6.2 150 09:37 17.01.2020
645 Clear 2 1022 80 10000 6.2 150 09:18 17.01.2020
646 Clear 3 1022 86 10000 7.2 150 08:42 17.01.2020
647 Clear 2 1022 86 10000 6.7 150 08:23 17.01.2020
648 Clear 2 1023 86 10000 6.2 140 07:51 17.01.2020
649 Clear 2 1023 86 10000 4.6 140 07:31 17.01.2020
650 Clear 2 1023 86 10000 5.1 150 06:57 17.01.2020
651 Clear 2 1023 86 10000 5.7 150 06:37 17.01.2020
652 Clear 2 1024 86 10000 5.1 150 05:28 17.01.2020
653 Clear 2 1025 85 0 4.49 163 03:39 17.01.2020
654 Clear 2 986 92 0 3.58 103 02:44 17.01.2020
655 Clear 2 1027 83 0 4.72 167 01:46 17.01.2020
656 Clear 2 1027 83 0 0.45 179 01:27 17.01.2020
657 Clear 3 987 90 0 1.79 107 00:46 17.01.2020
658 Clear 3 1027 80 10000 4.6 150 00:21 17.01.2020
659 Clear 3 1027 80 10000 4.6 150 23:43 16.01.2020
660 Clear 3 1027 80 10000 4.6 150 23:25 16.01.2020
661 Clear 3 1027 80 10000 5.7 160 22:55 16.01.2020
662 Clear 3 1028 80 10000 5.7 150 22:37 16.01.2020
663 Clear 3 1028 80 10000 5.7 150 22:18 16.01.2020
664 Clear 3 1028 80 10000 5.7 150 21:54 16.01.2020
665 Clear 3 1028 86 10000 5.7 150 21:36 16.01.2020
666 Clear 3 1028 86 10000 5.7 150 21:18 16.01.2020
667 Clear 3 1028 80 10000 5.1 150 20:40 16.01.2020
668 Clouds 3 1028 86 10000 4.6 150 20:21 16.01.2020
669 Clouds 3 1028 86 10000 5.1 150 19:58 16.01.2020
670 Clouds 3 1028 86 10000 5.1 150 19:40 16.01.2020
671 Clouds 3 1028 86 10000 5.1 150 19:22 16.01.2020
672 Clouds 3 1028 86 10000 4.6 150 18:57 16.01.2020
673 Clouds 3 1028 86 10000 4.6 150 18:38 16.01.2020
674 Clouds 4 1028 80 10000 4.1 150 18:19 16.01.2020
675 Clouds 4 1028 75 10000 2.6 140 17:58 16.01.2020
676 Clouds 5 1028 75 10000 2.6 140 17:39 16.01.2020
677 Clouds 5 1028 75 10000 3.1 140 17:20 16.01.2020
678 Clouds 6 1028 70 10000 3.6 140 16:42 16.01.2020
679 Clouds 7 1028 70 10000 2.6 150 16:24 16.01.2020
680 Clouds 7 1028 70 10000 3.1 150 15:59 16.01.2020
681 Clouds 7 1028 70 10000 3.1 150 15:39 16.01.2020
682 Clouds 9 1028 65 10000 2.1 170 15:20 16.01.2020
683 Clouds 9 1028 65 10000 2.1 180 14:45 16.01.2020
684 Clouds 9 1029 65 10000 2.1 150 14:24 16.01.2020
685 Clouds 9 1029 61 10000 2.1 190 13:56 16.01.2020
686 Clouds 9 1029 65 10000 2.1 180 13:37 16.01.2020
687 Clouds 9 1029 65 10000 2.1 180 13:19 16.01.2020
688 Clouds 9 1029 70 10000 3.6 180 12:43 16.01.2020
689 Clouds 9 1029 70 10000 2.6 160 12:25 16.01.2020
690 Clouds 8 1029 76 10000 2.6 150 11:54 16.01.2020
691 Clouds 9 1029 76 10000 3.1 180 11:36 16.01.2020
692 Clouds 6 1029 87 10000 3.1 180 11:18 16.01.2020
693 Clouds 5 1029 74 10000 3.6 180 10:38 16.01.2020
694 Clouds 4 1029 74 10000 3.6 180 10:20 16.01.2020
695 Clouds 4 1029 80 10000 2.6 190 09:56 16.01.2020
696 Clouds 5 1029 80 10000 3.1 190 09:38 16.01.2020
697 Clouds 4 1029 80 10000 3.1 190 09:19 16.01.2020
698 Clouds 4 1028 80 10000 2.6 170 08:51 16.01.2020
699 Clouds 4 1028 80 10000 3.6 190 08:30 16.01.2020
700 Clouds 4 1028 80 10000 4.6 150 07:58 16.01.2020
701 Clouds 4 1028 80 10000 4.6 150 07:38 16.01.2020
702 Clouds 4 1027 86 10000 3.1 140 07:19 16.01.2020
703 Clouds 5 1027 80 10000 1.5 40 06:42 16.01.2020
704 Clouds 6 1026 80 10000 3.1 180 05:59 16.01.2020
705 Clouds 6 1025 74 10000 3.1 170 05:40 16.01.2020
706 Clouds 6 1024 82 10000 3.1 180 04:37 16.01.2020
707 Clouds 6 1024 82 10000 3.1 180 04:37 16.01.2020
708 Clouds 6 1024 82 10000 4.1 170 03:28 16.01.2020
709 Clouds 6 1024 82 10000 3.6 170 02:43 16.01.2020
710 Clouds 7 1022 78 10000 5.7 150 00:54 16.01.2020
711 Clouds 6 1021 78 10000 5.7 160 00:24 16.01.2020
712 Clouds 6 1021 74 10000 4.6 160 23:50 15.01.2020
713 Clouds 4 1021 74 10000 5.7 180 23:23 15.01.2020
714 Clouds 4 1020 69 10000 4.6 160 22:59 15.01.2020
715 Clouds 4 1020 69 10000 4.6 160 22:41 15.01.2020
716 Clouds 4 1021 69 10000 5.7 160 22:20 15.01.2020
717 Clouds 4 1021 69 10000 5.7 160 22:20 15.01.2020
718 Clouds 4 1020 69 10000 7.2 160 21:59 15.01.2020
719 Clouds 4 1020 69 10000 7.2 160 21:40 15.01.2020
720 Clouds 4 1020 69 10000 7.7 160 21:22 15.01.2020
721 Clouds 3 1020 69 10000 7.7 160 20:58 15.01.2020
722 Clouds 3 1020 69 10000 7.7 160 20:40 15.01.2020
723 Clear 3 1020 69 10000 7.2 160 20:22 15.01.2020
724 Clouds 3 1020 69 10000 6.7 150 19:56 15.01.2020
725 Clouds 3 1020 69 10000 6.7 150 19:38 15.01.2020
726 Clouds 3 1019 69 10000 7.2 160 19:20 15.01.2020
727 Clouds 4 1019 64 10000 7.2 170 18:57 15.01.2020
728 Clouds 4 1019 64 10000 7.2 170 18:38 15.01.2020
729 Clouds 4 1018 64 10000 8.7 160 18:20 15.01.2020
730 Clouds 4 1017 64 10000 9.3 160 17:58 15.01.2020
731 Clouds 4 1017 64 10000 9.3 160 17:40 15.01.2020
732 Clouds 4 1017 60 10000 8.2 160 17:21 15.01.2020
733 Clouds 4 1017 60 10000 7.7 160 16:56 15.01.2020
734 Clouds 5 1017 60 10000 7.7 160 16:38 15.01.2020
735 Clouds 6 1017 60 10000 5.7 150 16:20 15.01.2020
736 Clouds 6 1017 60 10000 5.7 150 16:20 15.01.2020
737 Clouds 6 1017 56 10000 3.6 140 15:43 15.01.2020
738 Clouds 7 1016 56 10000 3.6 140 15:21 15.01.2020
739 Clouds 5 1016 56 10000 4.6 140 14:56 15.01.2020
740 Clouds 4 1016 60 10000 6.2 130 14:37 15.01.2020
741 Clouds 8 1016 60 10000 6.2 130 14:18 15.01.2020
742 Clouds 8 1017 60 10000 5.1 140 13:44 15.01.2020
743 Clouds 8 1017 60 10000 6.2 150 13:23 15.01.2020
744 Clouds 8 1017 64 10000 7.2 150 12:55 15.01.2020
745 Clouds 8 1018 60 10000 7.7 150 12:37 15.01.2020
746 Clouds 8 1018 60 10000 7.7 150 12:37 15.01.2020
747 Clouds 8 1018 60 10000 7.7 150 12:18 15.01.2020
748 Clouds 8 1018 64 10000 6.7 150 11:54 15.01.2020
749 Clouds 8 1018 56 10000 6.7 150 11:36 15.01.2020
750 Clouds 7 1018 56 10000 6.7 150 11:18 15.01.2020
751 Clouds 6 1018 56 10000 7.2 150 10:41 15.01.2020
752 Rain 6 1018 60 10000 5.1 140 10:21 15.01.2020
753 Clouds 7 1018 65 10000 5.1 150 09:41 15.01.2020
754 Rain 6 1017 65 10000 5.7 150 09:22 15.01.2020
755 Clouds 6 1017 65 10000 5.7 150 08:45 15.01.2020
756 Rain 6 1017 65 10000 5.7 140 08:27 15.01.2020
757 Clouds 6 1017 60 10000 4.6 150 07:59 15.01.2020
758 Clouds 6 1017 60 10000 4.6 150 07:40 15.01.2020
759 Clouds 6 1017 60 10000 5.1 140 07:21 15.01.2020
760 Clouds 5 1016 60 10000 7.2 150 06:43 15.01.2020
761 Clouds 6 1016 50 10000 5.7 160 05:52 15.01.2020
762 Clouds 4 1016 70 10000 5.7 150 03:44 15.01.2020
763 Clouds 4 1015 53 10000 5.1 160 02:28 15.01.2020
764 Clouds 7 1015 48 10000 5.7 150 01:22 15.01.2020
765 Clouds 6 1015 48 10000 5.7 150 00:45 15.01.2020
766 Clouds 7 1015 48 10000 6.2 140 00:26 15.01.2020
767 Clouds 7 1015 48 10000 5.1 150 23:47 14.01.2020
768 Clouds 7 1014 48 10000 6.7 160 23:29 14.01.2020
769 Clouds 7 1014 52 10000 7.2 160 22:59 14.01.2020
770 Clouds 7 1014 70 10000 6.7 150 22:40 14.01.2020
771 Clouds 6 1014 70 10000 6.7 150 22:19 14.01.2020
772 Clouds 7 1014 70 10000 6.7 150 21:58 14.01.2020
773 Clouds 7 1015 52 10000 7.2 160 21:39 14.01.2020
774 Clouds 7 1015 52 10000 7.2 160 21:20 14.01.2020
775 Clouds 7 1015 70 10000 7.7 160 20:56 14.01.2020
776 Clouds 7 1015 70 10000 9.3 170 20:38 14.01.2020
777 Clouds 7 1015 70 10000 9.3 170 20:19 14.01.2020
778 Clouds 7 1015 70 10000 9.3 170 19:55 14.01.2020
779 Clouds 7 1015 70 10000 8.7 170 19:37 14.01.2020
780 Clouds 7 1015 70 10000 8.7 170 19:18 14.01.2020
781 Clouds 7 1015 70 10000 8.2 160 18:41 14.01.2020
782 Clouds 7 1014 75 10000 8.7 170 18:20 14.01.2020
783 Clouds 7 1014 75 10000 8.7 170 17:59 14.01.2020
784 Clouds 6 1014 57 10000 9.3 170 17:37 14.01.2020
785 Clouds 6 1014 57 10000 9.3 170 17:18 14.01.2020
786 Clouds 6 1014 57 10000 9.3 170 17:18 14.01.2020
787 Clouds 7 1014 70 10000 8.7 170 16:55 14.01.2020
788 Clouds 7 1014 65 10000 7.7 160 16:37 14.01.2020
789 Clouds 7 1014 65 10000 7.7 160 16:18 14.01.2020
790 Clouds 7 1014 57 10000 7.7 170 15:42 14.01.2020
791 Clouds 7 1014 57 10000 8.2 180 15:19 14.01.2020
792 Clouds 7 1013 57 10000 8.2 180 14:47 14.01.2020
793 Clouds 8 1013 57 10000 8.7 170 14:23 14.01.2020
794 Clouds 8 1013 54 10000 7.7 170 13:59 14.01.2020
795 Clouds 8 1013 54 10000 7.7 170 13:40 14.01.2020
796 Clouds 8 1013 61 10000 7.2 170 13:19 14.01.2020
797 Clouds 9 1014 57 10000 6.2 150 12:42 14.01.2020
798 Clouds 9 1014 61 10000 5.7 160 12:23 14.01.2020
799 Clouds 8 1014 61 10000 8.2 160 11:57 14.01.2020
800 Clouds 8 1014 61 10000 8.2 160 11:39 14.01.2020
801 Clouds 8 1014 65 10000 6.2 150 11:20 14.01.2020
802 Clouds 7 1014 70 10000 6.7 160 10:56 14.01.2020
803 Clouds 7 1014 70 10000 7.7 170 10:37 14.01.2020
804 Clouds 6 1014 70 10000 7.7 170 10:19 14.01.2020
805 Clouds 5 1014 75 10000 8.2 170 09:43 14.01.2020
806 Clouds 5 1014 75 10000 8.2 160 09:24 14.01.2020
807 Clouds 5 1014 80 10000 6.7 160 08:58 14.01.2020
808 Clouds 4 1014 80 10000 6.7 160 08:39 14.01.2020
809 Clouds 4 1014 80 10000 6.7 160 08:20 14.01.2020
810 Clouds 4 1014 80 10000 6.2 160 07:46 14.01.2020
811 Clouds 3 1014 80 10000 6.2 150 07:18 14.01.2020
812 Clouds 3 1013 80 10000 5.7 150 06:42 14.01.2020
813 Clouds 3 1014 80 10000 4.1 140 05:58 14.01.2020
814 Clouds 3 1014 80 10000 5.1 160 04:50 14.01.2020
815 Clouds 3 1014 80 10000 5.7 150 03:46 14.01.2020
816 Clouds 3 1016 86 10000 4.6 170 02:33 14.01.2020
817 Clouds 3 1016 80 10000 5.1 170 01:19 14.01.2020
818 Clouds 3 1016 86 10000 5.7 170 00:47 14.01.2020
819 Clouds 3 1016 80 10000 5.7 180 00:21 14.01.2020
820 Clouds 3 1016 80 10000 5.1 170 23:44 13.01.2020
821 Clouds 3 1017 80 10000 5.1 170 23:19 13.01.2020
822 Clear 4 1017 75 10000 5.7 170 22:57 13.01.2020
823 Clear 3 1017 75 10000 5.7 170 22:39 13.01.2020
824 Clear 4 1017 75 10000 5.1 170 22:19 13.01.2020
825 Clear 4 1017 75 10000 3.6 160 21:55 13.01.2020
826 Clear 4 1018 75 10000 4.1 170 21:37 13.01.2020
827 Clear 4 1018 75 10000 4.1 170 21:18 13.01.2020
828 Clear 4 1018 80 10000 3.1 160 20:56 13.01.2020
829 Clear 4 1018 80 10000 3.1 160 20:38 13.01.2020
830 Clouds 4 1018 80 10000 3.1 180 20:19 13.01.2020
831 Clouds 3 1018 80 10000 5.7 170 19:41 13.01.2020
832 Clouds 4 1018 80 10000 6.2 160 19:21 13.01.2020
833 Clouds 4 1018 75 10000 5.7 160 18:59 13.01.2020
834 Clouds 4 1018 75 10000 5.7 150 18:40 13.01.2020
835 Clouds 4 1018 75 10000 5.7 150 18:20 13.01.2020
836 Clouds 4 1018 75 10000 4.6 150 17:59 13.01.2020
837 Clouds 4 1019 80 10000 3.1 140 17:40 13.01.2020
838 Clouds 5 1019 80 10000 3.1 140 17:21 13.01.2020
839 Clouds 5 1019 80 10000 3.6 150 16:56 13.01.2020
840 Clouds 5 980 88 0 1.79 118 16:37 13.01.2020
841 Clouds 5 980 91 0 2.68 126 16:18 13.01.2020
842 Clouds 5 1020 78 0 0.45 168 15:43 13.01.2020
843 Clouds 5 981 90 0 1.79 107 15:22 13.01.2020
844 Clouds 5 981 90 0 1.79 107 15:22 13.01.2020
845 Clouds 6 1021 78 0 2.94 201 14:57 13.01.2020
846 Clouds 6 981 88 0 2.94 201 14:37 13.01.2020
847 Clouds 6 981 86 0 4.39 248 14:18 13.01.2020
848 Clouds 6 1021 77 0 4.39 248 13:41 13.01.2020
849 Clouds 6 982 79 0 4.42 242 13:23 13.01.2020
850 Clouds 6 1022 78 0 0.45 178 12:58 13.01.2020
851 Clouds 6 1022 75 10000 3.1 200 12:40 13.01.2020
852 Clouds 6 1022 75 10000 3.1 200 12:22 13.01.2020
853 Clouds 6 1022 75 10000 3.1 200 11:57 13.01.2020
854 Clouds 5 1022 75 10000 4.1 210 11:37 13.01.2020
855 Clouds 5 1022 75 10000 4.1 210 11:19 13.01.2020
856 Clouds 5 1022 75 10000 3.1 190 10:55 13.01.2020
857 Clouds 5 1022 75 10000 4.1 220 10:37 13.01.2020
858 Clouds 5 1022 75 10000 4.1 220 10:19 13.01.2020
859 Clouds 4 1022 80 10000 3.1 220 09:43 13.01.2020
860 Clouds 4 1022 80 10000 4.1 220 09:23 13.01.2020
861 Clouds 4 1022 80 10000 4.1 230 08:56 13.01.2020
862 Clouds 4 1022 80 10000 4.1 240 08:36 13.01.2020
863 Clouds 4 1022 80 10000 4.1 240 08:18 13.01.2020
864 Clouds 4 1022 80 10000 4.1 240 07:42 13.01.2020
865 Clouds 4 1022 80 10000 4.6 250 07:21 13.01.2020
866 Clouds 4 1022 80 10000 5.7 240 06:37 13.01.2020
867 Clouds 4 1022 80 10000 5.7 240 06:37 13.01.2020
868 Clouds 4 1022 75 10000 4.6 250 05:37 13.01.2020
869 Clouds 4 1022 75 10000 5.1 240 04:56 13.01.2020
870 Clouds 4 1023 75 10000 5.7 260 03:41 13.01.2020
871 Clouds 4 1022 80 10000 5.7 240 02:50 13.01.2020
872 Clouds 4 1022 80 10000 5.7 240 02:30 13.01.2020
873 Clouds 3 1022 80 10000 6.7 240 01:33 13.01.2020
874 Clouds 3 1022 84 10000 6.7 230 00:46 13.01.2020
875 Clouds 3 1022 84 10000 5.7 230 00:26 13.01.2020
876 Clouds 3 1022 84 10000 5.7 230 23:59 12.01.2020
877 Clouds 3 1022 84 10000 7.2 220 23:40 12.01.2020
878 Clouds 3 1022 83 10000 7.2 220 23:21 12.01.2020
879 Clouds 3 1022 83 10000 7.2 220 23:21 12.01.2020
880 Clouds 4 1022 83 10000 5.1 230 22:56 12.01.2020
881 Clouds 3 1022 83 10000 5.1 240 22:37 12.01.2020
882 Rain 4 1022 83 10000 5.1 240 22:19 12.01.2020
883 Rain 4 1022 83 10000 5.7 250 21:54 12.01.2020
884 Rain 4 1022 83 10000 5.7 240 21:36 12.01.2020
885 Rain 3 1022 83 10000 5.7 240 21:18 12.01.2020
886 Clouds 3 1021 83 10000 4.1 250 20:54 12.01.2020
887 Clouds 3 1021 69 10000 3.6 230 20:36 12.01.2020
888 Clouds 3 1021 69 10000 3.6 230 20:18 12.01.2020
889 Clouds 3 1021 69 10000 4.1 230 19:54 12.01.2020
890 Clouds 3 1021 64 10000 3.1 220 19:36 12.01.2020
891 Clouds 3 1021 64 10000 3.1 220 19:18 12.01.2020
892 Clouds 3 1021 69 10000 3.1 230 18:54 12.01.2020
893 Clouds 2 1021 69 10000 4.1 240 18:36 12.01.2020
894 Clouds 2 1021 69 10000 4.1 240 18:18 12.01.2020
895 Clouds 2 1021 74 10000 1.5 260 17:42 12.01.2020
896 Clouds 2 1021 74 10000 1.5 180 17:21 12.01.2020
897 Clouds 3 1020 74 10000 1 0 16:57 12.01.2020
898 Clouds 3 1020 74 10000 1 0 16:38 12.01.2020
899 Clouds 4 1020 74 10000 1 0 16:20 12.01.2020
900 Clouds 4 1020 74 10000 2.1 0 15:55 12.01.2020
901 Clouds 4 1020 74 10000 2.1 0 15:55 12.01.2020
902 Clouds 5 1020 69 10000 2.6 180 15:36 12.01.2020
903 Clouds 5 1020 69 10000 2.6 180 15:18 12.01.2020
904 Clouds 5 1020 69 10000 2.6 160 14:42 12.01.2020
905 Clouds 6 1020 65 10000 3.1 160 14:22 12.01.2020
906 Clouds 6 1021 56 10000 3.6 160 13:56 12.01.2020
907 Clouds 6 1021 56 10000 3.6 160 13:38 12.01.2020
908 Clouds 6 1021 55 10000 3.6 160 13:20 12.01.2020
909 Clouds 6 1022 55 10000 2.6 160 12:55 12.01.2020
910 Clouds 5 1022 55 10000 1 0 12:37 12.01.2020
911 Clouds 5 1022 55 10000 1 0 12:18 12.01.2020
912 Clouds 4 1023 80 10000 1.5 120 11:41 12.01.2020
913 Clouds 4 1023 86 10000 1.5 160 11:22 12.01.2020
914 Clouds 3 1024 61 10000 2.1 190 10:56 12.01.2020
915 Clouds 2 1024 61 10000 2.1 200 10:37 12.01.2020
916 Clouds 2 1024 61 10000 2.1 200 10:19 12.01.2020
917 Clouds 0 1024 92 10000 2.6 160 09:42 12.01.2020
918 Clouds 0 1024 92 10000 3.1 170 09:23 12.01.2020
919 Clouds 0 1024 92 10000 4.6 150 08:48 12.01.2020
920 Clouds 0 1024 92 10000 4.6 150 08:24 12.01.2020
921 Clouds -1 1025 92 10000 3.6 160 07:56 12.01.2020
922 Clouds -1 1025 92 10000 2.1 190 07:37 12.01.2020
923 Clouds 0 1025 92 10000 2.1 190 07:19 12.01.2020
924 Clouds 0 1025 92 10000 1 0 06:40 12.01.2020
925 Clouds -1 1025 92 10000 1.5 190 05:58 12.01.2020
926 Clouds -1 1025 92 10000 1.5 180 05:18 12.01.2020
927 Clouds 0 1026 100 10000 2.6 180 03:44 12.01.2020
928 Clouds 0 1027 92 10000 3.1 170 02:55 12.01.2020
929 Clouds 0 1027 92 10000 3.6 170 02:30 12.01.2020
930 Clouds 0 1027 92 10000 2.1 200 01:40 12.01.2020
931 Clouds -1 1027 79 10000 2.1 190 01:21 12.01.2020
932 Clouds 0 1028 79 10000 1.5 170 00:40 12.01.2020
933 Clouds 0 1028 79 10000 2.1 170 00:18 12.01.2020
934 Clouds 0 1028 79 10000 2.1 170 23:41 11.01.2020
935 Clouds 0 1029 80 10000 2.6 190 23:19 11.01.2020
936 Clouds 0 1029 86 10000 3.1 210 22:57 11.01.2020
937 Clouds 0 1029 86 10000 3.1 210 22:38 11.01.2020
938 Clouds 0 1029 86 10000 3.1 220 22:20 11.01.2020
939 Clouds 0 1029 86 10000 3.1 210 21:54 11.01.2020
940 Clouds 0 1030 86 10000 2.6 200 21:36 11.01.2020
941 Clouds 0 1030 86 10000 2.6 200 21:18 11.01.2020
942 Clouds 0 1030 80 10000 3.1 200 20:39 11.01.2020
943 Clouds 1 1030 82 10000 2.6 210 20:20 11.01.2020
944 Clouds 1 1030 86 10000 3.1 210 19:58 11.01.2020
945 Clouds 1 1030 86 10000 3.1 210 19:38 11.01.2020
946 Clouds 1 1030 80 10000 3.6 190 19:20 11.01.2020
947 Clouds 1 1030 80 10000 3.6 200 18:57 11.01.2020
948 Clouds 2 1030 80 10000 3.6 180 18:37 11.01.2020
949 Clouds 2 1030 80 10000 3.6 180 18:19 11.01.2020
950 Clouds 2 1031 80 10000 3.1 200 17:57 11.01.2020
951 Clouds 3 1031 74 10000 3.1 220 17:39 11.01.2020
952 Clouds 3 1031 74 10000 3.1 220 17:19 11.01.2020
953 Clouds 4 1031 76 10000 2.6 240 16:44 11.01.2020
954 Clouds 4 1031 76 10000 3.1 250 16:26 11.01.2020
955 Clouds 4 1031 76 10000 2.1 260 15:58 11.01.2020
956 Clouds 5 1031 76 10000 3.1 270 15:40 11.01.2020
957 Clouds 5 1031 76 10000 3.1 270 15:20 11.01.2020
958 Clouds 5 1031 76 10000 2.1 270 14:56 11.01.2020
959 Clouds 5 1031 76 10000 2.1 270 14:38 11.01.2020
960 Clouds 5 1031 75 10000 2.6 260 14:19 11.01.2020
961 Clouds 5 1031 75 10000 2.6 260 13:39 11.01.2020
962 Clouds 5 1031 80 10000 2.1 290 13:20 11.01.2020
963 Clouds 5 1032 86 10000 3.1 280 12:58 11.01.2020
964 Clouds 5 1032 86 10000 3.1 280 12:39 11.01.2020
965 Drizzle 5 1032 86 10000 3.1 290 12:21 11.01.2020
966 Drizzle 4 1032 93 10000 3.1 280 11:47 11.01.2020
967 Rain 4 1032 93 8000 2.6 270 11:26 11.01.2020
968 Drizzle 4 1031 93 9000 3.6 280 10:50 11.01.2020
969 Drizzle 4 1031 93 9000 3.1 270 10:30 11.01.2020
970 Drizzle 4 1030 93 8000 2.6 280 09:57 11.01.2020
971 Drizzle 3 1030 93 8000 3.1 280 09:37 11.01.2020
972 Drizzle 3 1030 93 8000 3.1 280 09:37 11.01.2020
973 Drizzle 3 1030 93 8000 3.1 280 09:19 11.01.2020
974 Drizzle 3 1030 93 8000 3.6 290 08:42 11.01.2020
975 Drizzle 3 1030 93 6000 3.6 300 08:21 11.01.2020
976 Rain 3 1030 93 10000 4.6 300 07:44 11.01.2020
977 Clouds 3 1030 93 10000 3.1 290 07:25 11.01.2020
978 Rain 3 1029 93 10000 5.1 310 06:50 11.01.2020
979 Rain 3 1028 86 10000 5.1 290 05:48 11.01.2020
980 Clouds 3 1027 86 10000 4.6 290 04:47 11.01.2020
981 Rain 3 1027 93 10000 4.1 310 04:28 11.01.2020
982 Rain 3 1026 86 10000 6.2 300 02:58 11.01.2020
983 Rain 4 1026 86 10000 6.2 300 02:38 11.01.2020
984 Rain 4 1025 80 10000 7.7 300 01:43 11.01.2020
985 Clouds 4 1025 80 10000 6.2 290 01:20 11.01.2020
986 Clouds 4 1024 80 10000 5.7 280 00:40 11.01.2020
987 Clouds 4 1024 80 10000 6.2 300 00:18 11.01.2020
988 Clouds 5 1023 80 10000 6.2 290 23:40 10.01.2020
989 Clouds 5 1023 80 10000 6.2 290 23:40 10.01.2020
990 Clouds 5 1022 80 10000 7.7 300 23:22 10.01.2020
991 Clouds 5 1022 81 10000 8.7 300 22:59 10.01.2020
992 Clouds 5 1022 81 10000 8.7 300 22:40 10.01.2020
993 Rain 6 1021 87 10000 5.1 260 22:20 10.01.2020
994 Clouds 6 1021 87 10000 4.6 270 21:57 10.01.2020
995 Rain 7 1020 93 10000 5.7 270 21:37 10.01.2020
996 Rain 7 1020 93 10000 5.7 270 21:19 10.01.2020
997 Rain 7 1020 93 10000 5.1 280 20:43 10.01.2020
998 Rain 7 1019 87 10000 7.7 260 20:24 10.01.2020
999 Rain 7 1019 87 10000 7.7 260 20:24 10.01.2020
1000 Rain 8 1018 76 10000 5.7 250 19:59 10.01.2020
1001 Clouds 8 1018 76 10000 5.7 250 19:38 10.01.2020
1002 Clouds 8 1018 70 10000 5.7 240 19:19 10.01.2020
1003 Clouds 8 1018 81 10000 5.7 240 18:43 10.01.2020
1004 Rain 8 1018 76 10000 7.2 240 18:19 10.01.2020
1005 Clouds 8 1017 70 10000 6.7 240 17:58 10.01.2020
1006 Clouds 9 1017 66 10000 5.1 240 17:39 10.01.2020
1007 Clouds 9 1017 66 10000 5.1 240 17:21 10.01.2020
1008 Clouds 9 1017 71 10000 5.1 240 16:59 10.01.2020
1009 Clouds 9 1017 66 10000 4.6 240 16:40 10.01.2020
1010 Clouds 9 1017 66 10000 4.6 240 16:21 10.01.2020
1011 Clouds 10 1017 66 10000 5.7 240 15:56 10.01.2020
1012 Clouds 9 1016 66 10000 4.6 240 15:37 10.01.2020
1013 Clouds 10 1016 66 10000 4.6 240 15:19 10.01.2020
1014 Clouds 10 1016 71 10000 5.7 250 14:56 10.01.2020
1015 Clouds 10 1016 71 10000 4.1 230 14:38 10.01.2020
1016 Clouds 10 1016 71 10000 4.1 230 14:19 10.01.2020
1017 Clouds 10 1016 71 10000 6.7 240 13:45 10.01.2020
1018 Clouds 10 1016 71 10000 4.6 250 13:26 10.01.2020
1019 Clouds 10 1016 71 10000 5.7 240 12:59 10.01.2020
1020 Clouds 10 1016 71 10000 6.2 240 12:40 10.01.2020
1021 Clouds 10 1016 71 10000 6.2 240 12:21 10.01.2020
1022 Clouds 10 1016 76 10000 5.1 240 11:58 10.01.2020
1023 Clouds 9 1016 76 10000 5.1 240 11:40 10.01.2020
1024 Clouds 9 1016 81 10000 5.1 240 11:19 10.01.2020
1025 Clouds 9 1016 81 10000 5.1 240 10:59 10.01.2020
1026 Clouds 9 1015 81 10000 6.2 240 10:38 10.01.2020
1027 Clouds 8 1015 81 10000 6.2 240 10:19 10.01.2020
1028 Rain 8 1015 81 10000 5.1 230 09:46 10.01.2020
1029 Rain 8 1015 81 10000 5.7 230 09:26 10.01.2020
1030 Clouds 8 1014 81 10000 5.7 230 08:58 10.01.2020
1031 Clouds 8 1014 81 10000 5.7 230 08:38 10.01.2020
1032 Clouds 8 1014 81 10000 5.7 230 08:20 10.01.2020
1033 Rain 8 1014 76 10000 4.1 230 07:41 10.01.2020
1034 Rain 8 1014 87 10000 5.1 230 07:22 10.01.2020
1035 Rain 9 1013 76 10000 6.2 220 06:42 10.01.2020
1036 Rain 8 1013 81 10000 6.2 210 06:24 10.01.2020
1037 Rain 9 1013 87 10000 4.6 190 05:33 10.01.2020
1038 Clouds 9 1013 87 10000 3.6 170 03:32 10.01.2020
1039 Rain 9 1013 93 10000 4.1 170 02:54 10.01.2020
1040 Rain 9 1013 93 10000 4.1 170 02:33 10.01.2020
1041 Rain 9 1013 87 10000 4.1 180 01:34 10.01.2020
1042 Rain 9 1013 87 10000 2.1 180 00:57 10.01.2020
1043 Rain 9 1013 87 10000 2.1 180 00:38 10.01.2020
1044 Rain 10 1013 81 10000 1 0 23:57 09.01.2020
1045 Rain 10 1013 81 10000 3.6 180 23:38 09.01.2020
1046 Rain 10 1013 81 10000 3.6 180 23:38 09.01.2020
1047 Rain 10 1013 81 10000 3.6 180 23:19 09.01.2020
1048 Rain 9 1013 87 10000 5.7 190 22:57 09.01.2020
1049 Clouds 9 1013 87 10000 4.1 180 22:37 09.01.2020
1050 Clouds 9 1013 87 10000 4.1 180 22:37 09.01.2020
1051 Clouds 9 1013 87 10000 4.1 180 22:18 09.01.2020
1052 Clouds 9 1014 87 10000 3.6 170 21:56 09.01.2020
1053 Clouds 9 1014 87 10000 3.6 170 21:37 09.01.2020
1054 Clouds 9 1014 87 10000 3.6 170 21:37 09.01.2020
1055 Clouds 9 1014 87 10000 3.6 170 21:37 09.01.2020
1056 Clouds 9 1014 87 10000 3.6 170 21:37 09.01.2020
1057 Clouds 9 1014 87 10000 3.6 170 21:18 09.01.2020
1058 Rain 9 1014 87 10000 3.6 170 20:56 09.01.2020
1059 Rain 9 1014 87 10000 3.6 170 20:38 09.01.2020
1060 Rain 9 1014 87 10000 3.6 180 20:19 09.01.2020
1061 Rain 9 1014 87 10000 3.6 180 19:55 09.01.2020
1062 Rain 9 1014 93 10000 4.1 180 19:36 09.01.2020
1063 Rain 9 1014 93 10000 4.1 180 19:18 09.01.2020
1064 Rain 9 1014 93 10000 1 0 18:54 09.01.2020
1065 Rain 9 1014 93 10000 1 0 18:36 09.01.2020
1066 Rain 9 1015 87 10000 1 0 18:18 09.01.2020
1067 Clouds 9 1015 87 10000 3.1 170 17:41 09.01.2020
1068 Rain 9 1015 87 10000 2.1 180 17:18 09.01.2020
1069 Rain 9 1015 87 10000 2.1 180 17:18 09.01.2020
1070 Rain 8 1015 93 10000 2.6 180 16:47 09.01.2020
1071 Rain 8 1015 93 10000 2.6 180 16:23 09.01.2020
1072 Rain 8 1015 93 10000 2.6 180 16:23 09.01.2020
1073 Rain 8 1015 93 10000 2.6 180 16:23 09.01.2020
1074 Rain 8 1015 87 10000 3.6 150 15:57 09.01.2020
1075 Rain 8 1015 93 10000 5.1 150 15:39 09.01.2020
1076 Drizzle 8 1016 93 10000 3.1 150 15:18 09.01.2020
1077 Drizzle 8 1016 93 10000 2.6 150 14:42 09.01.2020
1078 Drizzle 8 1016 93 10000 2.6 150 14:22 09.01.2020
1079 Drizzle 8 1016 93 10000 2.6 150 13:57 09.01.2020
1080 Drizzle 8 1017 100 10000 3.6 150 13:39 09.01.2020
1081 Drizzle 8 1017 100 9000 4.1 150 13:20 09.01.2020
1082 Drizzle 8 1017 100 9000 4.1 150 12:58 09.01.2020
1083 Drizzle 8 1018 100 10000 3.1 150 12:39 09.01.2020
1084 Drizzle 8 1018 93 10000 3.6 160 12:19 09.01.2020
1085 Drizzle 8 1018 93 10000 3.6 160 11:57 09.01.2020
1086 Rain 7 1019 93 10000 4.6 150 11:38 09.01.2020
1087 Rain 7 1019 100 10000 4.1 150 11:20 09.01.2020
1088 Rain 7 1019 100 10000 5.7 150 10:43 09.01.2020
1089 Rain 7 1019 100 10000 5.7 150 10:22 09.01.2020
1090 Rain 6 1020 100 10000 5.7 150 09:58 09.01.2020
1091 Clouds 6 1020 100 10000 4.6 140 09:38 09.01.2020
1092 Rain 6 1020 100 10000 4.1 150 09:19 09.01.2020
1093 Rain 6 1020 100 10000 4.1 150 08:55 09.01.2020
1094 Rain 6 1020 100 4500 4.1 150 08:37 09.01.2020
1095 Rain 6 1020 100 2500 5.7 150 08:19 09.01.2020
1096 Drizzle 6 1021 100 1500 1.5 170 07:42 09.01.2020
1097 Drizzle 6 1021 100 1500 1.5 170 07:23 09.01.2020
1098 Rain 6 1022 100 1200 2.6 170 06:38 09.01.2020
1099 Rain 6 1022 100 2000 3.1 170 06:20 09.01.2020
1100 Rain 6 1022 100 1400 3.6 180 05:48 09.01.2020
1101 Rain 6 1023 100 2000 2.6 190 04:44 09.01.2020
1102 Rain 6 1023 100 3500 2.1 210 03:38 09.01.2020
1103 Rain 6 1024 93 3500 3.6 190 02:53 09.01.2020
1104 Rain 6 1024 93 3500 3.6 190 02:24 09.01.2020
1105 Drizzle 6 1024 93 4500 2.6 190 01:39 09.01.2020
1106 Drizzle 6 1024 93 4500 2.6 190 01:39 09.01.2020
1107 Rain 6 1024 93 10000 2.1 210 00:43 09.01.2020
1108 Clouds 6 1024 93 10000 2.6 220 00:21 09.01.2020
1109 Clouds 6 1024 87 10000 3.1 220 23:44 08.01.2020
1110 Clouds 6 1024 87 10000 3.1 220 23:25 08.01.2020
1111 Clouds 6 1024 87 10000 2.6 220 22:59 08.01.2020
1112 Rain 6 1024 87 10000 3.6 200 22:39 08.01.2020
1113 Clouds 6 1024 87 10000 3.1 220 22:21 08.01.2020
1114 Clouds 6 1024 87 10000 3.1 220 21:57 08.01.2020
1115 Clouds 7 1024 81 10000 3.1 230 21:38 08.01.2020
1116 Rain 7 1024 81 10000 3.6 240 21:20 08.01.2020
1117 Rain 6 1024 81 10000 3.6 240 20:58 08.01.2020
1118 Rain 7 1024 81 10000 3.1 240 20:39 08.01.2020
1119 Clouds 7 1024 81 10000 3.6 250 20:20 08.01.2020
1120 Clouds 7 1024 81 10000 3.6 250 19:56 08.01.2020
1121 Clouds 7 1024 81 10000 3.6 250 19:56 08.01.2020
1122 Clouds 6 1024 87 10000 3.1 220 19:37 08.01.2020
1123 Clouds 7 1024 87 10000 4.1 220 19:19 08.01.2020
1124 Clouds 7 1024 87 10000 4.1 220 18:56 08.01.2020
1125 Clouds 7 1024 87 10000 2.6 210 18:37 08.01.2020
1126 Clouds 7 1024 87 10000 3.1 200 18:18 08.01.2020
1127 Clouds 7 1024 87 10000 3.1 200 17:55 08.01.2020
1128 Clouds 6 1024 87 10000 3.6 220 17:36 08.01.2020
1129 Clouds 7 1024 81 10000 3.1 220 17:18 08.01.2020
1130 Clouds 7 1024 81 10000 3.1 220 16:54 08.01.2020
1131 Clouds 7 1024 81 10000 3.6 200 16:36 08.01.2020
1132 Drizzle 7 1023 81 10000 4.1 210 16:18 08.01.2020
1133 Drizzle 6 1023 81 10000 3.6 220 15:40 08.01.2020
1134 Rain 6 1024 81 10000 3.1 210 15:20 08.01.2020
1135 Rain 6 1024 81 10000 3.1 210 14:56 08.01.2020
1136 Clouds 6 1023 75 10000 4.1 220 14:38 08.01.2020
1137 Drizzle 6 1023 75 10000 3.1 210 14:19 08.01.2020
1138 Rain 6 1024 81 10000 2.6 210 13:40 08.01.2020
1139 Rain 6 1024 81 10000 3.6 210 13:19 08.01.2020
1140 Rain 5 1023 81 10000 5.7 190 12:42 08.01.2020
1141 Rain 5 1024 80 10000 6.2 180 12:19 08.01.2020
1142 Rain 5 1024 80 10000 6.2 180 11:55 08.01.2020
1143 Rain 5 1024 80 10000 5.1 180 11:37 08.01.2020
1144 Rain 5 1024 80 10000 4.6 170 11:19 08.01.2020
1145 Rain 5 1024 80 10000 4.6 170 11:19 08.01.2020
1146 Rain 5 1024 80 10000 4.6 170 10:55 08.01.2020
1147 Rain 5 1025 75 10000 4.6 190 10:37 08.01.2020
1148 Rain 5 1025 75 10000 4.6 190 10:37 08.01.2020
1149 Clouds 5 1025 80 10000 4.6 180 10:19 08.01.2020
1150 Rain 4 1025 68 10000 3.6 200 09:42 08.01.2020
1151 Clouds 4 1025 80 10000 3.6 190 09:20 08.01.2020
1152 Clouds 4 1025 80 10000 3.6 190 08:57 08.01.2020
1153 Rain 4 1025 68 10000 3.1 190 08:37 08.01.2020
1154 Clouds 4 1025 70 10000 3.1 180 08:19 08.01.2020
1155 Rain 4 1024 70 10000 3.6 180 07:49 08.01.2020
1156 Rain 4 1024 70 10000 3.6 180 07:30 08.01.2020
1157 Rain 4 1024 74 10000 3.6 180 06:49 08.01.2020
1158 Rain 3 1024 74 10000 3.6 180 06:25 08.01.2020
1159 Clouds 3 1024 74 10000 4.1 170 05:53 08.01.2020
1160 Clouds 2 1025 80 10000 3.6 160 04:59 08.01.2020
1161 Clouds 2 1026 80 10000 2.6 180 04:26 08.01.2020
1162 Clouds 2 1027 80 10000 5.1 170 02:45 08.01.2020
1163 Clouds 2 1027 80 10000 5.1 170 02:45 08.01.2020
1164 Clouds 2 1027 80 10000 5.1 170 02:23 08.01.2020
1165 Clouds 2 1027 83 10000 5.7 180 01:50 08.01.2020
1166 Clouds 2 1027 83 10000 5.7 180 01:25 08.01.2020
1167 Clouds 2 1028 86 10000 5.1 190 00:42 08.01.2020
1168 Clouds 2 1028 93 10000 5.1 180 00:21 08.01.2020
1169 Clouds 2 1028 86 10000 4.1 190 23:44 07.01.2020
1170 Clouds 2 1028 93 10000 4.1 200 23:20 07.01.2020
1171 Clouds 2 1028 86 10000 3.6 200 22:41 07.01.2020
1172 Clouds 3 1028 80 10000 3.1 220 22:21 07.01.2020
1173 Clouds 3 1028 80 10000 3.1 220 21:58 07.01.2020
1174 Clouds 3 1028 86 10000 3.1 210 21:40 07.01.2020
1175 Clouds 3 1028 86 10000 2.6 220 21:21 07.01.2020
1176 Clouds 3 1028 86 10000 2.6 220 21:21 07.01.2020
1177 Clouds 3 1028 86 10000 2.6 220 20:57 07.01.2020
1178 Clouds 3 1028 86 10000 3.1 220 20:38 07.01.2020
1179 Clouds 3 1028 86 10000 2.6 230 20:20 07.01.2020
1180 Clouds 3 1028 86 10000 2.6 230 19:56 07.01.2020
1181 Clouds 3 1028 86 10000 3.6 230 19:37 07.01.2020
1182 Clouds 3 1029 86 10000 3.6 240 19:18 07.01.2020
1183 Clouds 3 1029 86 10000 3.6 240 19:18 07.01.2020
1184 Clouds 3 1029 86 10000 3.6 240 18:55 07.01.2020
1185 Clouds 3 1028 86 10000 2.1 230 18:37 07.01.2020
1186 Clouds 3 1028 93 10000 2.6 220 18:18 07.01.2020
1187 Clouds 3 1028 93 10000 2.6 220 18:18 07.01.2020
1188 Clouds 3 1028 93 10000 2.6 220 18:18 07.01.2020
1189 Clouds 3 1028 93 10000 3.1 220 17:41 07.01.2020
1190 Clouds 3 1027 93 10000 2.1 230 17:22 07.01.2020
1191 Clouds 3 1027 93 10000 2.1 230 16:58 07.01.2020
1192 Clouds 3 1027 93 10000 2.6 230 16:38 07.01.2020
1193 Drizzle 3 1027 93 9000 3.1 250 16:19 07.01.2020
1194 Drizzle 3 1027 93 9000 3.1 250 15:59 07.01.2020
1195 Clouds 3 1027 93 8000 2.6 250 15:41 07.01.2020
1196 Clouds 3 1027 93 8000 2.6 250 15:23 07.01.2020
1197 Clouds 3 1027 93 8000 2.6 250 14:57 07.01.2020
1198 Drizzle 3 1026 93 5000 3.1 240 14:37 07.01.2020
1199 Drizzle 3 1026 100 2800 3.1 250 14:19 07.01.2020
1200 Drizzle 3 1026 100 2800 3.1 250 14:19 07.01.2020
1201 Drizzle 3 1026 100 2400 3.6 250 13:40 07.01.2020
1202 Drizzle 3 1026 100 2600 3.6 260 13:20 07.01.2020
1203 Drizzle 2 1026 100 2600 3.6 260 12:55 07.01.2020
1204 Drizzle 2 1026 93 3000 4.1 250 12:36 07.01.2020
1205 Clouds 2 1026 87 10000 4.1 250 12:18 07.01.2020
1206 Clouds 2 1026 87 10000 3.6 260 11:41 07.01.2020
1207 Clouds 2 1025 79 10000 3.6 250 11:22 07.01.2020
1208 Clouds 2 1025 79 10000 3.6 250 10:56 07.01.2020
1209 Clouds 2 1025 80 10000 3.6 250 10:37 07.01.2020
1210 Clouds 2 1025 80 10000 3.6 250 10:37 07.01.2020
1211 Clouds 2 1025 80 10000 4.1 250 10:19 07.01.2020
1212 Clouds 2 1024 80 10000 4.1 250 09:39 07.01.2020
1213 Clouds 1 1023 79 10000 3.1 210 09:21 07.01.2020
1214 Clouds 0 1023 79 10000 3.1 210 08:57 07.01.2020
1215 Clouds 1 1023 79 10000 3.1 230 08:38 07.01.2020
1216 Clouds 0 1023 86 10000 3.6 220 08:18 07.01.2020
1217 Clouds 0 1022 92 10000 3.6 210 07:42 07.01.2020
1218 Clouds 0 1022 92 10000 4.1 210 07:18 07.01.2020
1219 Clouds 0 1021 92 10000 4.1 220 06:49 07.01.2020
1220 Clouds 0 1021 92 10000 4.1 220 06:29 07.01.2020
1221 Clouds 0 1021 86 10000 3.6 210 05:41 07.01.2020
1222 Clouds 0 1020 86 10000 2.1 180 03:47 07.01.2020
1223 Clouds 0 1020 86 10000 2.1 180 03:25 07.01.2020
1224 Clear 0 1021 73 10000 2.1 180 02:20 07.01.2020
1225 Clear 0 1021 73 10000 2.6 160 01:40 07.01.2020
1226 Clear 0 1021 73 10000 2.6 160 01:40 07.01.2020
1227 Clear 0 1021 72 10000 2.1 160 00:59 07.01.2020
1228 Clear 0 1021 72 10000 3.1 170 00:21 07.01.2020
1229 Clear -1 1021 72 10000 3.1 170 23:57 06.01.2020
1230 Clear -1 1022 72 10000 4.1 150 23:38 06.01.2020
1231 Clear -1 1022 83 10000 5.1 150 23:20 06.01.2020
1232 Clear -1 1023 83 10000 4.1 150 22:55 06.01.2020
1233 Clear -1 1023 83 10000 4.1 150 22:37 06.01.2020
1234 Clear -1 1023 83 10000 4.1 150 22:18 06.01.2020
1235 Clear 0 1023 83 10000 4.1 150 21:54 06.01.2020
1236 Clouds 0 1023 86 10000 4.1 150 21:36 06.01.2020
1237 Clouds 0 1023 86 10000 3.6 160 21:18 06.01.2020
1238 Clouds 0 1023 86 10000 3.6 160 20:54 06.01.2020
1239 Clouds 0 1024 80 10000 4.1 170 20:36 06.01.2020
1240 Clouds 1 1024 74 10000 3.6 170 20:18 06.01.2020
1241 Clouds 1 1024 74 10000 3.6 170 20:18 06.01.2020
1242 Clouds 1 1024 74 10000 3.6 170 19:54 06.01.2020
1243 Clouds 1 1024 74 10000 3.1 170 19:36 06.01.2020
1244 Clouds 1 1025 87 10000 2.6 200 19:18 06.01.2020
1245 Clouds 2 1025 87 10000 2.1 210 18:41 06.01.2020
1246 Clouds 2 1025 87 10000 3.1 220 18:19 06.01.2020
1247 Clouds 3 1026 87 10000 2.6 200 17:39 06.01.2020
1248 Clouds 3 1026 80 10000 3.1 210 17:20 06.01.2020
1249 Clouds 4 1026 80 10000 3.1 210 16:57 06.01.2020
1250 Clouds 4 1026 85 10000 2.1 210 16:38 06.01.2020
1251 Clouds 4 1026 80 10000 2.1 210 16:19 06.01.2020
1252 Clouds 3 1026 80 10000 1.5 220 15:43 06.01.2020
1253 Clouds 4 1026 80 10000 1.5 230 15:22 06.01.2020
1254 Clouds 4 1026 80 10000 1.5 230 14:59 06.01.2020
1255 Clouds 4 1027 80 10000 2.1 230 14:41 06.01.2020
1256 Clouds 4 1027 80 10000 2.1 230 14:22 06.01.2020
1257 Clouds 4 1027 80 10000 2.6 220 13:59 06.01.2020
1258 Clouds 4 1027 80 10000 2.1 230 13:39 06.01.2020
1259 Clouds 4 1027 80 10000 2.6 250 13:20 06.01.2020
1260 Clouds 4 1027 80 10000 2.6 250 12:55 06.01.2020
1261 Clouds 4 1028 80 10000 2.6 250 12:37 06.01.2020
1262 Clouds 3 1028 80 10000 2.1 230 12:18 06.01.2020
1263 Clouds 4 1029 80 10000 2.1 230 11:42 06.01.2020
1264 Clouds 4 1029 80 10000 2.1 220 11:24 06.01.2020
1265 Clouds 4 1029 80 10000 2.1 220 10:59 06.01.2020
1266 Clouds 3 1029 86 10000 3.1 200 10:40 06.01.2020
1267 Clouds 3 1029 86 10000 3.6 200 10:20 06.01.2020
1268 Clouds 3 1029 86 10000 3.6 200 10:20 06.01.2020
1269 Clouds 3 1029 86 10000 3.1 220 09:39 06.01.2020
1270 Clouds 3 1030 86 10000 2.6 220 09:21 06.01.2020
1271 Clouds 3 1030 86 10000 2.6 220 08:52 06.01.2020
1272 Rain 3 1030 86 10000 2.6 220 08:34 06.01.2020
1273 Rain 3 1030 86 10000 3.1 210 07:57 06.01.2020
1274 Clouds 3 1030 93 10000 3.1 210 07:38 06.01.2020
1275 Rain 2 1030 84 10000 3.6 200 06:51 06.01.2020
1276 Rain 2 1030 84 10000 3.6 200 06:32 06.01.2020
1277 Rain 2 1030 84 10000 4.1 210 05:48 06.01.2020
1278 Clouds 2 1030 85 10000 3.6 210 04:58 06.01.2020
1279 Clouds 2 1030 85 10000 3.1 200 04:22 06.01.2020
1280 Clouds 2 1031 85 10000 3.6 200 03:30 06.01.2020
1281 Clouds 2 1031 85 10000 2.6 210 02:27 06.01.2020
1282 Clouds 2 1031 84 10000 2.6 210 01:53 06.01.2020
1283 Clouds 2 1031 84 10000 2.6 210 01:30 06.01.2020
1284 Clouds 2 1032 80 10000 3.6 210 00:46 06.01.2020
1285 Clouds 2 1032 80 10000 3.6 210 00:27 06.01.2020
1286 Clouds 2 1032 80 10000 3.6 200 23:57 05.01.2020
1287 Clouds 2 1032 74 10000 3.1 210 23:38 05.01.2020
1288 Clouds 2 1033 80 10000 3.6 220 23:19 05.01.2020
1289 Clouds 2 1033 74 10000 3.1 200 22:40 05.01.2020
1290 Clouds 2 1033 74 10000 3.1 210 22:20 05.01.2020
1291 Clouds 2 1033 74 10000 3.1 210 22:20 05.01.2020
1292 Clouds 2 1033 74 10000 3.1 210 21:57 05.01.2020
1293 Clouds 1 1033 74 10000 3.6 210 21:39 05.01.2020
1294 Clouds 1 1033 74 10000 3.1 200 21:20 05.01.2020
1295 Clouds 1 1033 74 10000 3.1 200 20:56 05.01.2020
1296 Clouds 1 1033 74 10000 3.1 210 20:38 05.01.2020
1297 Clouds 1 1033 74 10000 3.1 210 20:19 05.01.2020
1298 Clouds 1 1033 74 10000 3.1 210 19:58 05.01.2020
1299 Clouds 1 1033 74 10000 3.1 200 19:39 05.01.2020
1300 Clouds 1 1034 74 10000 3.6 210 19:20 05.01.2020
1301 Clouds 1 1034 74 10000 3.6 210 18:56 05.01.2020
1302 Clouds 1 1034 83 10000 3.1 220 18:37 05.01.2020
1303 Clouds 1 1034 83 10000 2.6 220 18:19 05.01.2020
1304 Clouds 1 1034 83 10000 2.6 220 17:58 05.01.2020
1305 Clouds 1 1034 74 10000 1.5 230 17:39 05.01.2020
1306 Clouds 1 1034 69 10000 1.5 240 17:20 05.01.2020
1307 Clouds 2 1034 69 10000 1.5 240 16:57 05.01.2020
1308 Clouds 2 1034 74 10000 2.6 260 16:38 05.01.2020
1309 Clouds 2 1033 69 10000 2.1 260 16:19 05.01.2020
1310 Clouds 2 1033 69 10000 2.1 260 16:19 05.01.2020
1311 Clouds 2 1034 69 10000 2.1 260 15:39 05.01.2020
1312 Clouds 2 1034 69 10000 2.1 260 15:39 05.01.2020
1313 Clouds 3 1034 69 10000 2.1 270 15:20 05.01.2020
1314 Clouds 3 1034 69 10000 2.1 270 14:56 05.01.2020
1315 Clouds 3 1034 69 10000 2.1 290 14:38 05.01.2020
1316 Clouds 3 1034 64 10000 3.1 310 14:20 05.01.2020
1317 Clouds 3 1034 64 10000 3.1 310 13:56 05.01.2020
1318 Clouds 3 1034 64 10000 3.1 300 13:38 05.01.2020
1319 Clouds 3 1034 69 10000 2.1 290 13:19 05.01.2020
1320 Clouds 3 1034 69 10000 2.1 290 13:19 05.01.2020
1321 Clouds 3 1034 69 10000 2.1 290 12:56 05.01.2020
1322 Clouds 3 1034 69 10000 2.1 280 12:37 05.01.2020
1323 Clouds 3 1034 74 10000 2.1 270 12:19 05.01.2020
1324 Clouds 2 1034 74 10000 1.5 260 11:44 05.01.2020
1325 Clouds 2 1034 74 10000 2.6 270 11:20 05.01.2020
1326 Clouds 2 1034 74 10000 2.6 270 10:59 05.01.2020
1327 Clouds 1 1034 80 10000 2.6 260 10:40 05.01.2020
1328 Clouds 1 1034 80 10000 2.1 270 10:19 05.01.2020
1329 Clouds 1 1033 85 10000 3.1 260 09:42 05.01.2020
1330 Clouds 0 1033 92 10000 2.1 270 09:22 05.01.2020
1331 Clouds 0 1033 92 10000 2.1 260 08:52 05.01.2020
1332 Clouds 0 1033 92 10000 2.1 260 08:32 05.01.2020
1333 Clouds -1 1032 92 10000 2.1 290 07:59 05.01.2020
1334 Clouds 0 1032 94 10000 3.6 290 07:39 05.01.2020
1335 Clouds 0 1032 92 10000 3.6 290 07:20 05.01.2020
1336 Clouds 0 1032 94 10000 3.1 290 06:44 05.01.2020
1337 Clouds 0 1031 94 10000 4.1 290 05:39 05.01.2020
1338 Snow 0 1031 92 10000 3.1 290 04:56 05.01.2020
1339 Clouds 1 1030 92 10000 4.1 290 04:18 05.01.2020
1340 Clouds 1 1030 86 10000 3.6 280 03:31 05.01.2020
1341 Clouds 1 1029 86 10000 5.7 290 02:33 05.01.2020
1342 Clouds 1 1028 86 10000 5.7 300 01:49 05.01.2020
1343 Clouds 2 1027 86 10000 6.7 280 01:20 05.01.2020
1344 Clouds 2 1027 86 10000 6.7 280 00:57 05.01.2020
1345 Clouds 2 1027 86 10000 5.1 290 00:39 05.01.2020
1346 Clouds 2 1026 86 10000 6.2 290 00:19 05.01.2020
1347 Clouds 2 1026 86 10000 5.1 300 23:41 04.01.2020
1348 Clouds 2 1026 85 10000 5.7 300 23:21 04.01.2020
1349 Clouds 2 1026 85 10000 5.7 300 22:59 04.01.2020
1350 Clouds 2 1025 85 10000 5.7 290 22:38 04.01.2020
1351 Clouds 2 1025 85 10000 5.7 290 22:20 04.01.2020
1352 Clouds 2 1025 85 10000 5.7 290 21:56 04.01.2020
1353 Clouds 2 1024 85 10000 6.2 300 21:37 04.01.2020
1354 Clouds 2 1024 93 10000 6.7 300 21:19 04.01.2020
1355 Clouds 2 1024 93 10000 6.7 300 20:55 04.01.2020
1356 Clouds 2 1023 86 10000 7.2 300 20:36 04.01.2020
1357 Clouds 2 1023 86 10000 7.2 300 20:36 04.01.2020
1358 Clouds 3 1022 86 10000 7.2 310 20:18 04.01.2020
1359 Clouds 3 1021 86 10000 6.7 310 19:41 04.01.2020
1360 Rain 3 1021 86 10000 6.7 310 19:23 04.01.2020
1361 Rain 3 1021 86 10000 7.2 310 18:58 04.01.2020
1362 Rain 3 1020 93 10000 8.7 300 18:39 04.01.2020
1363 Rain 4 1019 86 10000 7.7 290 18:20 04.01.2020
1364 Rain 4 1019 86 10000 7.7 290 17:57 04.01.2020
1365 Rain 4 1019 93 10000 9.3 280 17:39 04.01.2020
1366 Rain 4 1018 86 10000 7.7 270 17:21 04.01.2020
1367 Rain 4 1018 86 10000 7.2 270 16:42 04.01.2020
1368 Rain 4 1018 86 10000 7.2 270 16:24 04.01.2020
1369 Rain 4 1018 86 10000 6.2 260 15:57 04.01.2020
1370 Rain 3 1018 93 9000 7.2 260 15:39 04.01.2020
1371 Rain 3 1018 93 10000 8.2 260 15:19 04.01.2020
1372 Rain 3 1018 93 10000 8.2 260 14:57 04.01.2020
1373 Rain 3 1018 86 10000 6.7 250 14:39 04.01.2020
1374 Rain 4 1019 80 10000 7.2 260 14:19 04.01.2020
1375 Rain 4 1019 80 10000 7.2 260 13:56 04.01.2020
1376 Clouds 4 1019 80 10000 7.2 260 13:37 04.01.2020
1377 Clouds 4 1019 80 10000 7.2 260 13:37 04.01.2020
1378 Rain 4 1019 80 10000 7.7 260 13:18 04.01.2020
1379 Rain 4 1019 80 10000 7.7 260 13:18 04.01.2020
1380 Rain 4 1020 80 10000 7.7 260 12:42 04.01.2020
1381 Rain 4 1021 89 10000 6.2 260 12:20 04.01.2020
1382 Rain 4 1021 89 10000 6.2 260 12:20 04.01.2020
1383 Rain 4 1021 89 10000 6.2 260 12:20 04.01.2020
1384 Rain 4 1021 89 10000 6.2 260 11:59 04.01.2020
1385 Rain 4 1021 89 10000 8.7 260 11:40 04.01.2020
1386 Clouds 4 1022 78 10000 8.2 270 11:19 04.01.2020
1387 Clouds 4 1022 78 10000 8.2 270 10:55 04.01.2020
1388 Clouds 4 1022 78 10000 7.2 270 10:37 04.01.2020
1389 Clouds 4 1022 78 10000 7.2 270 10:19 04.01.2020
1390 Clouds 3 1022 78 10000 5.7 260 09:42 04.01.2020
1391 Clouds 3 1022 78 10000 5.7 260 09:23 04.01.2020
1392 Clouds 3 1023 80 10000 5.1 260 08:44 04.01.2020
1393 Clouds 3 1023 80 10000 4.6 260 08:25 04.01.2020
1394 Clouds 4 1023 80 10000 4.1 260 07:51 04.01.2020
1395 Clouds 4 1023 80 10000 4.1 260 07:32 04.01.2020
1396 Clouds 4 1022 80 10000 4.6 280 06:39 04.01.2020
1397 Clouds 4 1022 86 10000 5.1 280 05:52 04.01.2020
1398 Clouds 4 1022 86 10000 3.6 280 04:48 04.01.2020
1399 Clouds 4 1022 86 10000 3.6 280 04:28 04.01.2020
1400 Clouds 4 1022 86 10000 5.7 300 03:20 04.01.2020
1401 Clouds 5 1021 93 10000 6.2 310 02:46 04.01.2020
1402 Rain 5 1021 86 10000 6.2 320 02:18 04.01.2020
1403 Drizzle 5 1020 93 8000 9.8 310 01:37 04.01.2020
1404 Drizzle 6 1018 93 4000 5.7 290 01:19 04.01.2020
1405 Drizzle 7 1018 93 6000 7.2 290 00:29 04.01.2020
1406 Rain 7 1017 93 10000 6.7 270 23:57 03.01.2020
1407 Rain 7 1017 93 9000 7.2 270 23:29 03.01.2020
1408 Rain 7 1016 81 10000 7.7 250 22:57 03.01.2020
1409 Rain 7 1016 81 10000 7.7 250 22:57 03.01.2020
1410 Rain 7 1016 81 10000 7.7 250 22:39 03.01.2020
1411 Rain 7 1016 87 10000 7.2 250 22:19 03.01.2020
1412 Rain 7 1016 87 10000 7.2 250 21:57 03.01.2020
1413 Rain 7 1016 87 10000 7.2 250 21:38 03.01.2020
1414 Rain 7 1016 81 10000 6.2 240 21:19 03.01.2020
1415 Rain 6 1016 81 10000 6.2 240 20:55 03.01.2020
1416 Clouds 6 1017 81 10000 6.7 240 20:55 03.01.2020
1417 Clouds 6 1017 81 10000 6.7 240 20:36 03.01.2020
1418 Clouds 6 1017 75 10000 7.2 240 20:18 03.01.2020
1419 Clouds 6 1017 75 10000 7.2 240 19:54 03.01.2020
1420 Clouds 6 1017 75 10000 7.2 240 19:36 03.01.2020
1421 Clouds 6 1017 75 10000 7.2 240 19:18 03.01.2020
1422 Clouds 6 1017 75 10000 7.2 230 18:39 03.01.2020
1423 Clouds 6 1017 75 10000 7.2 230 18:39 03.01.2020
1424 Clouds 6 1017 75 10000 6.7 240 18:20 03.01.2020
1425 Clouds 6 1017 75 10000 6.2 240 17:54 03.01.2020
1426 Clouds 6 1017 75 10000 6.2 240 17:36 03.01.2020
1427 Clouds 6 1017 75 10000 5.7 240 17:18 03.01.2020
1428 Clouds 6 1017 70 10000 5.7 230 16:42 03.01.2020
1429 Clouds 6 1017 70 10000 4.6 220 16:22 03.01.2020
1430 Clouds 6 1017 70 10000 4.6 230 15:43 03.01.2020
1431 Clouds 6 1017 70 10000 5.1 220 15:19 03.01.2020
1432 Clouds 6 1017 70 10000 5.1 220 15:19 03.01.2020
1433 Clouds 6 1017 70 10000 5.1 220 14:57 03.01.2020
1434 Clouds 6 1018 70 10000 6.2 220 14:37 03.01.2020
1435 Clouds 6 1018 70 10000 6.2 230 14:19 03.01.2020
1436 Clouds 6 1018 75 10000 7.2 230 13:43 03.01.2020
1437 Clouds 5 1019 75 10000 7.2 230 13:23 03.01.2020
1438 Clouds 5 1019 75 10000 7.2 230 12:57 03.01.2020
1439 Clouds 5 1019 75 10000 6.2 230 12:38 03.01.2020
1440 Clouds 5 1020 75 10000 5.7 230 12:20 03.01.2020
1441 Clouds 5 1020 75 10000 5.7 230 11:44 03.01.2020
1442 Clouds 5 1020 75 10000 4.1 230 11:20 03.01.2020
1443 Rain 4 1020 80 10000 5.1 200 10:44 03.01.2020
1444 Rain 4 1020 80 10000 5.1 200 10:25 03.01.2020
1445 Rain 4 1020 80 10000 5.1 200 10:25 03.01.2020
1446 Rain 4 1020 74 10000 6.7 190 09:58 03.01.2020
1447 Rain 4 1020 74 10000 6.2 190 09:39 03.01.2020
1448 Rain 3 1021 74 10000 6.2 190 09:21 03.01.2020
1449 Rain 3 1021 74 10000 6.2 190 08:56 03.01.2020
1450 Clouds 3 1021 86 10000 6.2 170 08:38 03.01.2020
1451 Clouds 2 1021 86 10000 1.5 0 08:19 03.01.2020
1452 Clouds 2 1021 92 10000 6.2 170 07:40 03.01.2020
1453 Clouds 1 1021 92 10000 4.1 170 07:18 03.01.2020
1454 Clear 1 1021 92 10000 6.2 190 06:49 03.01.2020
1455 Clear 1 1021 92 10000 6.2 190 06:30 03.01.2020
1456 Clear 1 1022 86 10000 1.5 220 05:45 03.01.2020
1457 Clear 0 1022 92 10000 6.2 170 04:22 03.01.2020
1458 Clouds -1 1023 86 10000 4.1 170 02:56 03.01.2020
1459 Clouds -1 1024 92 10000 4.6 180 02:33 03.01.2020
1460 Clouds 0 1024 92 10000 5.1 190 01:44 03.01.2020
1461 Clouds -1 1025 92 10000 3.6 210 00:50 03.01.2020
1462 Clouds 0 1025 92 10000 3.6 210 00:31 03.01.2020
1463 Clouds -1 1025 86 10000 3.6 210 23:56 02.01.2020
1464 Clear 0 1025 86 10000 3.6 230 23:38 02.01.2020
1465 Clear 0 1025 86 10000 3.1 230 23:19 02.01.2020
1466 Clear -1 1025 86 10000 3.1 230 22:57 02.01.2020
1467 Clear 0 1025 80 10000 2.6 260 22:38 02.01.2020
1468 Clear 0 1025 74 10000 2.6 250 22:18 02.01.2020
1469 Clear 0 1025 81 10000 3.6 230 21:41 02.01.2020
1470 Clear 0 1025 81 10000 3.6 230 21:23 02.01.2020
1471 Clear 1 1025 74 10000 2.6 240 20:59 02.01.2020
1472 Clear 1 1025 74 10000 2.6 240 20:59 02.01.2020
1473 Clear 1 1025 74 10000 2.6 240 20:59 02.01.2020
1474 Clear 1 1025 74 10000 2.6 240 20:59 02.01.2020
1475 Clear 1 1025 74 10000 2.6 240 20:59 02.01.2020
1476 Clear 1 1025 81 10000 1.5 310 20:39 02.01.2020
1477 Clear 1 1025 74 10000 3.1 210 20:21 02.01.2020
1478 Clear 1 1025 74 10000 3.1 210 20:21 02.01.2020
1479 Clear 1 1025 74 10000 3.1 210 19:56 02.01.2020
1480 Clear 2 1025 59 10000 2.6 170 19:38 02.01.2020
1481 Clear 2 1025 59 10000 2.1 170 19:19 02.01.2020
1482 Clear 2 1025 59 10000 2.1 170 18:58 02.01.2020
1483 Clear 2 1025 64 10000 3.1 200 18:40 02.01.2020
1484 Clear 1 1025 64 10000 2.1 190 18:22 02.01.2020
1485 Clear 2 1025 64 10000 2.6 210 17:57 02.01.2020
1486 Clear 2 1025 64 10000 2.6 210 17:37 02.01.2020
1487 Clear 2 1025 64 10000 3.6 200 17:19 02.01.2020
1488 Clear 3 1025 64 10000 3.6 200 16:57 02.01.2020
1489 Clear 3 1024 59 10000 1.5 210 16:38 02.01.2020
1490 Clear 4 1024 60 10000 3.1 160 16:20 02.01.2020
1491 Clear 4 1024 60 10000 3.1 160 15:56 02.01.2020
1492 Clear 5 1024 60 10000 4.6 150 15:37 02.01.2020
1493 Clear 5 1025 60 10000 4.6 160 15:19 02.01.2020
1494 Clear 5 1025 56 10000 5.1 150 14:54 02.01.2020
1495 Clear 5 1025 56 10000 5.1 150 14:54 02.01.2020
1496 Clear 5 1025 56 10000 5.1 150 14:36 02.01.2020
1497 Clear 6 1025 52 10000 4.6 140 14:18 02.01.2020
1498 Clear 6 1026 56 10000 2.6 140 13:47 02.01.2020
1499 Clear 7 1026 56 10000 2.6 140 13:29 02.01.2020
1500 Clear 6 1027 64 10000 2.1 210 12:44 02.01.2020
1501 Clear 6 1027 64 10000 2.1 210 12:25 02.01.2020
1502 Clear 4 1028 69 10000 2.1 210 11:44 02.01.2020
1503 Clear 3 1028 69 10000 2.1 210 11:26 02.01.2020
1504 Clear 2 1028 74 10000 2.6 200 10:58 02.01.2020
1505 Clear 2 1028 45 10000 1.5 160 10:39 02.01.2020
1506 Clear 0 1028 86 10000 2.1 140 10:19 02.01.2020
1507 Clear -1 1028 92 10000 2.6 170 09:42 02.01.2020
1508 Clear -2 1028 86 10000 2.6 170 09:24 02.01.2020
1509 Clear -1 1028 92 10000 2.6 150 08:45 02.01.2020
1510 Clear -3 1028 92 10000 3.6 150 08:27 02.01.2020
1511 Clear -4 1028 92 10000 2.6 160 07:50 02.01.2020
1512 Clear -3 1028 92 10000 2.6 160 07:30 02.01.2020
1513 Clear -4 1029 92 10000 2.1 180 06:45 02.01.2020
1514 Clear -4 1029 92 10000 2.1 180 06:26 02.01.2020
1515 Clear -4 1029 92 10000 1.5 180 04:53 02.01.2020
1516 Clear -4 1029 92 10000 3.1 170 04:30 02.01.2020
1517 Clear -4 1030 86 10000 1 0 02:32 02.01.2020
1518 Clear -3 1030 86 10000 1 0 01:58 02.01.2020
1519 Clear -3 1029 86 10000 1.5 170 01:33 02.01.2020
1520 Clear -3 1030 86 10000 1 170 00:57 02.01.2020
1521 Clear -4 1030 92 10000 1 0 00:33 02.01.2020
1522 Clear -3 1030 92 10000 1.5 230 23:52 01.01.2020
1523 Clear -3 1030 92 10000 1.5 170 23:28 01.01.2020
1524 Clear -3 1030 92 10000 0.5 0 22:56 01.01.2020
1525 Clear -3 1030 92 10000 0.5 0 22:38 01.01.2020
1526 Clear -3 1030 92 10000 1.5 170 22:19 01.01.2020
1527 Clear -2 1030 92 10000 1.5 170 21:56 01.01.2020
1528 Clear -2 1031 92 10000 1.5 140 21:37 01.01.2020
1529 Clear -2 1031 100 10000 2.1 180 21:19 01.01.2020
1530 Clear -2 1031 100 10000 2.1 180 20:55 01.01.2020
1531 Clear -1 1031 92 10000 2.6 190 20:36 01.01.2020
1532 Clear -2 1031 92 10000 1.5 160 20:18 01.01.2020
1533 Clear -1 1031 92 10000 1.5 160 19:54 01.01.2020
1534 Clear -1 1032 49 10000 2.1 170 19:36 01.01.2020
1535 Clear -1 1032 86 10000 3.1 150 19:18 01.01.2020
1536 Clear -1 1032 86 10000 3.1 150 18:55 01.01.2020
1537 Clear 0 1032 86 10000 2.6 150 18:36 01.01.2020
1538 Clear -1 992 91 0 0.89 107 18:18 01.01.2020
1539 Clear 0 1033 81 0 2.31 208 17:55 01.01.2020
1540 Clear 0 1032 49 10000 2.1 160 17:37 01.01.2020
1541 Clear 1 1032 73 10000 1 0 17:18 01.01.2020
1542 Clear 2 1032 73 10000 0.5 0 16:39 01.01.2020
1543 Clear 2 1032 73 10000 0.5 0 16:39 01.01.2020
1544 Clear 3 1032 73 10000 1 270 16:20 01.01.2020
1545 Clear 3 1032 73 10000 1 270 15:57 01.01.2020
1546 Clear 4 1032 73 10000 1.5 260 15:39 01.01.2020
1547 Clear 5 1032 73 10000 1.5 260 15:20 01.01.2020
1548 Clear 5 1032 73 10000 1.5 260 14:58 01.01.2020
1549 Clear 5 1032 73 10000 1.5 260 14:58 01.01.2020
1550 Clear 5 1033 75 10000 2.1 270 14:40 01.01.2020
1551 Clouds 5 1033 75 10000 2.1 280 14:21 01.01.2020
1552 Clouds 5 1033 71 10000 2.1 270 13:56 01.01.2020
1553 Clouds 5 1033 71 10000 2.1 270 13:37 01.01.2020
1554 Clouds 5 1033 71 10000 2.1 270 13:37 01.01.2020
1555 Clouds 5 1033 71 10000 2.1 270 13:37 01.01.2020
1556 Clouds 5 1034 71 10000 3.1 260 13:18 01.01.2020
1557 Clouds 5 1034 67 10000 3.1 260 12:55 01.01.2020
1558 Clouds 5 1034 67 10000 3.6 270 12:37 01.01.2020
1559 Clouds 5 1034 67 10000 2.6 280 12:18 01.01.2020
1560 Clouds 4 1034 67 10000 2.6 290 11:43 01.01.2020
1561 Clouds 4 1034 82 10000 1.5 290 11:22 01.01.2020
1562 Clouds 4 1034 82 10000 1.5 290 10:59 01.01.2020
1563 Clouds 3 1034 82 10000 2.1 270 10:40 01.01.2020
1564 Clouds 3 1034 82 10000 2.6 260 10:20 01.01.2020
1565 Clouds 3 1034 82 10000 2.6 260 10:20 01.01.2020
1566 Clouds 3 1034 82 10000 2.6 260 09:57 01.01.2020
1567 Clouds 2 1034 82 10000 2.6 270 09:37 01.01.2020
1568 Clouds 2 1034 82 10000 2.1 260 09:18 01.01.2020
1569 Clouds 2 1034 82 10000 2.1 260 08:55 01.01.2020
1570 Clouds 1 1034 82 10000 2.1 270 08:36 01.01.2020
1571 Clouds 1 1034 82 10000 2.1 270 08:36 01.01.2020
1572 Clouds 1 1034 93 10000 2.6 290 08:18 01.01.2020
1573 Clouds 1 1034 93 10000 2.6 290 07:51 01.01.2020
1574 Clouds 1 1034 93 10000 2.6 290 07:32 01.01.2020
1575 Clouds 1 1033 93 10000 3.6 300 06:44 01.01.2020
1576 Clouds 2 1033 93 10000 2.6 290 06:20 01.01.2020
1577 Clouds 3 1033 92 10000 3.6 290 05:21 01.01.2020
1578 Clouds 3 1033 92 10000 2.6 290 03:43 01.01.2020
1579 Clouds 3 1033 92 10000 2.6 290 03:23 01.01.2020
1580 Clouds 3 1033 80 10000 3.1 280 02:57 01.01.2020
1581 Clouds 3 1034 80 10000 3.1 290 02:35 01.01.2020
1582 Clouds 4 1033 80 10000 3.1 280 01:56 01.01.2020
1583 Clouds 4 1033 80 10000 2.6 280 01:38 01.01.2020
1584 Clouds 4 1034 80 10000 3.1 290 01:20 01.01.2020
1585 Clouds 4 1034 80 10000 3.1 290 00:44 01.01.2020
1586 Clouds 4 1034 80 10000 3.6 290 00:25 01.01.2020
1587 Clouds 4 1034 80 10000 3.1 280 23:41 31.12.2019
1588 Clouds 4 1034 80 10000 3.6 280 23:21 31.12.2019
1589 Clouds 4 1034 80 10000 3.6 280 22:57 31.12.2019
1590 Clouds 4 1033 86 10000 3.6 290 22:39 31.12.2019
1591 Clouds 4 1033 80 10000 4.1 290 22:20 31.12.2019
1592 Clouds 4 1033 80 10000 4.1 290 21:57 31.12.2019
1593 Clouds 4 1033 80 10000 4.6 290 21:39 31.12.2019
1594 Clouds 4 1033 80 10000 3.1 300 21:20 31.12.2019
1595 Clouds 4 1033 80 10000 3.1 300 20:55 31.12.2019
1596 Clouds 5 1032 80 10000 5.1 290 20:37 31.12.2019
1597 Clouds 5 1032 80 10000 4.1 290 20:19 31.12.2019
1598 Clouds 5 1032 80 10000 4.1 290 19:54 31.12.2019
1599 Clouds 5 1032 80 10000 4.1 280 19:36 31.12.2019
1600 Clouds 4 1032 75 10000 5.1 290 19:18 31.12.2019
1601 Clouds 4 1032 75 10000 5.1 290 18:54 31.12.2019
1602 Clouds 4 1031 80 10000 4.1 290 18:36 31.12.2019
1603 Clouds 5 1032 80 10000 3.6 290 18:18 31.12.2019
1604 Clouds 5 1032 80 10000 3.6 290 18:18 31.12.2019
1605 Clouds 5 1032 80 10000 3.6 290 17:54 31.12.2019
1606 Clouds 5 1031 80 10000 3.1 280 17:36 31.12.2019
1607 Clouds 5 1031 80 10000 3.6 280 17:18 31.12.2019
1608 Clouds 5 1031 80 10000 3.6 280 17:18 31.12.2019
1609 Clouds 5 1031 80 10000 3.6 280 16:55 31.12.2019
1610 Clouds 5 1031 80 10000 4.1 300 16:36 31.12.2019
1611 Clouds 5 1030 80 10000 4.6 290 16:18 31.12.2019
1612 Clouds 5 1030 80 10000 4.6 290 15:55 31.12.2019
1613 Clouds 5 1030 80 10000 5.1 290 15:37 31.12.2019
1614 Clouds 5 1029 80 10000 5.7 290 15:18 31.12.2019
1615 Clouds 5 1029 80 10000 5.7 290 14:55 31.12.2019
1616 Clouds 5 1029 80 10000 6.2 290 14:36 31.12.2019
1617 Clouds 5 1029 80 10000 6.2 290 14:18 31.12.2019
1618 Clouds 5 1029 80 10000 6.2 290 13:54 31.12.2019
1619 Clouds 5 1029 80 10000 6.7 300 13:36 31.12.2019
1620 Clouds 5 1029 80 10000 6.7 300 13:18 31.12.2019
1621 Clouds 5 1029 80 10000 6.7 300 12:54 31.12.2019
1622 Clouds 5 1029 80 10000 6.7 300 12:36 31.12.2019
1623 Clouds 5 1029 80 10000 6.7 300 12:36 31.12.2019
1624 Clouds 5 1029 80 10000 6.2 300 12:18 31.12.2019
1625 Clouds 5 1029 75 10000 5.7 300 11:54 31.12.2019
1626 Clouds 4 1029 75 10000 5.7 300 11:36 31.12.2019
1627 Clouds 4 1028 75 10000 5.1 290 11:18 31.12.2019
1628 Clouds 4 1028 75 10000 5.7 270 10:54 31.12.2019
1629 Clouds 4 1028 75 10000 5.7 270 10:36 31.12.2019
1630 Clouds 4 1028 75 10000 5.7 270 10:36 31.12.2019
1631 Clouds 3 1027 71 10000 5.1 270 10:18 31.12.2019
1632 Clouds 3 1027 71 10000 5.1 270 10:18 31.12.2019
1633 Clouds 3 1027 71 10000 5.1 270 09:54 31.12.2019
1634 Clouds 3 1027 71 10000 4.6 260 09:36 31.12.2019
1635 Drizzle 4 1027 86 9000 5.1 270 09:18 31.12.2019
1636 Clouds 4 1027 69 10000 6.2 290 08:42 31.12.2019
1637 Clouds 4 1027 69 10000 6.2 290 08:42 31.12.2019
1638 Clouds 4 1026 52 10000 6.2 290 08:22 31.12.2019
1639 Clouds 4 1026 44 10000 4.6 280 07:45 31.12.2019
1640 Clouds 5 1025 38 10000 5.1 250 07:22 31.12.2019
1641 Clouds 3 1024 38 10000 5.7 270 06:51 31.12.2019
1642 Clouds 4 1024 38 10000 5.7 270 06:27 31.12.2019
1643 Clear 3 1024 26 10000 4.1 250 04:55 31.12.2019
1644 Clear 4 1024 26 10000 4.1 250 04:25 31.12.2019
1645 Clear 3 1023 31 10000 4.1 240 02:58 31.12.2019
1646 Clouds 3 1023 39 10000 4.1 230 02:21 31.12.2019
1647 Clouds 3 1023 42 10000 4.1 230 01:51 31.12.2019
1648 Clouds 3 1023 42 10000 4.1 230 01:32 31.12.2019
1649 Clouds 4 1024 42 10000 4.6 230 00:54 31.12.2019
1650 Clouds 3 1024 42 10000 5.7 220 00:36 31.12.2019
1651 Clouds 3 1024 48 10000 4.1 230 00:18 31.12.2019
1652 Clouds 4 1024 48 10000 4.1 230 23:54 30.12.2019
1653 Clouds 4 1025 45 10000 6.2 220 23:36 30.12.2019
1654 Clouds 4 1025 55 10000 5.7 210 23:18 30.12.2019
1655 Clouds 4 1025 55 10000 5.7 210 22:54 30.12.2019
1656 Clouds 4 1025 64 10000 3.6 210 22:36 30.12.2019
1657 Clouds 4 1026 64 10000 4.6 210 22:18 30.12.2019
1658 Clouds 4 1026 64 10000 4.6 210 21:55 30.12.2019
1659 Clouds 3 1026 64 10000 3.6 210 21:36 30.12.2019
1660 Clouds 4 1026 64 10000 4.1 220 21:18 30.12.2019
1661 Clouds 4 1027 60 10000 4.6 220 20:41 30.12.2019
1662 Clouds 4 1027 56 10000 4.1 210 20:21 30.12.2019
1663 Clouds 4 1027 56 10000 4.1 210 19:59 30.12.2019
1664 Clouds 4 1027 56 10000 4.1 210 19:59 30.12.2019
1665 Clouds 4 1027 60 10000 1 0 19:40 30.12.2019
1666 Clouds 4 1027 60 10000 2.6 210 19:20 30.12.2019
1667 Clouds 4 1027 60 10000 2.6 210 19:20 30.12.2019
1668 Clouds 4 1027 60 10000 2.6 210 18:59 30.12.2019
1669 Clouds 2 1027 64 10000 4.1 190 18:41 30.12.2019
1670 Clouds 2 1028 64 10000 3.1 210 18:21 30.12.2019
1671 Clouds 3 1028 64 10000 3.1 210 17:59 30.12.2019
1672 Clouds 4 1028 64 10000 4.1 210 17:41 30.12.2019
1673 Clouds 4 1028 60 10000 4.1 210 17:20 30.12.2019
1674 Clouds 2 1028 60 10000 4.1 210 16:59 30.12.2019
1675 Clouds 3 1028 60 10000 4.1 200 16:40 30.12.2019
1676 Clouds 4 1029 60 10000 3.6 200 16:20 30.12.2019
1677 Clouds 4 1029 60 10000 3.6 200 15:57 30.12.2019
1678 Clouds 3 1029 60 10000 3.6 200 15:38 30.12.2019
1679 Clouds 5 1029 56 10000 3.1 190 15:19 30.12.2019
1680 Clouds 5 1029 56 10000 3.1 190 14:55 30.12.2019
1681 Clouds 5 1029 56 10000 2.6 190 14:37 30.12.2019
1682 Clouds 5 1029 56 10000 3.1 190 14:18 30.12.2019
1683 Rain 5 1030 56 10000 3.1 180 13:42 30.12.2019
1684 Rain 5 1030 56 10000 3.1 180 13:24 30.12.2019
1685 Rain 5 1030 56 10000 3.1 180 13:24 30.12.2019
1686 Clouds 5 1030 56 10000 3.1 180 12:59 30.12.2019
1687 Clouds 6 1031 55 10000 3.1 190 12:41 30.12.2019
1688 Clouds 6 1031 55 10000 2.6 180 12:19 30.12.2019
1689 Clouds 5 1031 55 10000 2.6 180 11:56 30.12.2019
1690 Clouds 5 1031 55 10000 3.1 190 11:38 30.12.2019
1691 Clouds 4 1032 55 10000 2.6 200 11:18 30.12.2019
1692 Clouds 3 1032 59 10000 3.1 170 10:43 30.12.2019
1693 Clouds 1 1032 59 10000 4.6 170 10:20 30.12.2019
1694 Clouds 1 1032 59 10000 4.6 170 09:55 30.12.2019
1695 Clouds 1 1032 64 10000 3.6 180 09:37 30.12.2019
1696 Clouds 1 1032 64 10000 4.1 180 09:18 30.12.2019
1697 Clouds 1 1032 50 10000 4.6 180 08:46 30.12.2019
1698 Clouds 1 1032 46 10000 4.6 180 08:23 30.12.2019
1699 Clouds 1 1032 64 10000 3.6 200 07:53 30.12.2019
1700 Clouds 1 1032 64 10000 3.1 190 07:33 30.12.2019
1701 Clouds 0 1032 39 10000 2.6 190 06:50 30.12.2019
1702 Clouds 1 1033 33 10000 5.1 180 04:50 30.12.2019
1703 Clouds 0 1034 33 10000 3.6 200 03:52 30.12.2019
1704 Clouds 0 1035 74 10000 2.6 170 02:50 30.12.2019
1705 Clouds -1 1035 74 10000 2.6 170 02:32 30.12.2019
1706 Clouds -1 1034 74 10000 5.1 170 01:50 30.12.2019
1707 Clouds -1 1035 74 10000 2.1 180 01:20 30.12.2019
1708 Clouds -1 1035 74 10000 3.1 170 00:43 30.12.2019
1709 Clouds -1 1035 74 10000 4.1 180 00:18 30.12.2019
1710 Clouds -1 1035 74 10000 2.6 180 23:39 29.12.2019
1711 Clouds -1 1036 74 10000 3.1 190 23:21 29.12.2019
1712 Clouds -1 1036 74 10000 3.1 180 22:43 29.12.2019
1713 Clouds -1 1036 74 10000 3.1 180 22:24 29.12.2019
1714 Clouds -1 1036 74 10000 2.6 180 21:59 29.12.2019
1715 Clouds -1 1036 74 10000 1.5 160 21:41 29.12.2019
1716 Clouds -1 1036 74 10000 1.5 140 21:21 29.12.2019
1717 Clouds -1 1036 74 10000 1.5 140 20:57 29.12.2019
1718 Clouds -1 1036 79 10000 1.5 150 20:39 29.12.2019
1719 Clouds -1 1036 74 10000 1.5 160 20:20 29.12.2019
1720 Clouds -1 1036 74 10000 1.5 160 20:20 29.12.2019
1721 Clouds -1 1036 74 10000 1.5 160 20:20 29.12.2019
1722 Clouds -1 1036 74 10000 1.5 160 19:59 29.12.2019
1723 Clouds -1 1036 74 10000 2.1 160 19:40 29.12.2019
1724 Clouds -1 1036 74 10000 3.1 160 19:21 29.12.2019
1725 Clouds -1 1036 74 10000 3.1 160 18:58 29.12.2019
1726 Clouds -1 1037 74 10000 2.1 150 18:38 29.12.2019
1727 Clouds -1 1037 74 10000 2.1 160 18:20 29.12.2019
1728 Clouds -1 1037 74 10000 2.1 160 17:58 29.12.2019
1729 Clouds -1 1037 48 10000 1 150 17:39 29.12.2019
1730 Clouds -1 1037 60 10000 2.1 150 17:20 29.12.2019
1731 Clouds 0 1037 60 10000 2.1 150 16:57 29.12.2019
1732 Clouds 0 1037 60 10000 2.1 170 16:38 29.12.2019
1733 Clouds 0 1037 60 10000 2.1 170 16:38 29.12.2019
1734 Clouds 0 1037 60 10000 2.1 170 16:20 29.12.2019
1735 Clouds 1 1037 60 10000 2.1 170 15:58 29.12.2019
1736 Clouds 1 1037 60 10000 2.1 170 15:58 29.12.2019
1737 Clouds 1 1038 64 10000 1.5 180 15:39 29.12.2019
1738 Clouds 1 1038 59 10000 1.5 200 15:20 29.12.2019
1739 Clouds 2 1038 59 10000 1.5 200 14:58 29.12.2019
1740 Clouds 2 1038 55 10000 1.5 190 14:39 29.12.2019
1741 Clouds 2 1038 59 10000 1.5 230 14:18 29.12.2019
1742 Clouds 2 1038 59 10000 1.5 230 13:58 29.12.2019
1743 Clouds 2 1038 55 10000 1.5 190 13:39 29.12.2019
1744 Clouds 2 1038 59 10000 2.1 200 13:21 29.12.2019
1745 Clouds 2 1038 59 10000 2.1 200 12:56 29.12.2019
1746 Clouds 1 1039 55 10000 2.1 200 12:38 29.12.2019
1747 Clouds 1 1039 59 10000 2.1 170 12:20 29.12.2019
1748 Clouds 1 1039 64 10000 3.1 150 11:41 29.12.2019
1749 Clear 0 1039 70 10000 3.1 140 11:21 29.12.2019
1750 Clear 0 1039 70 10000 3.1 140 10:57 29.12.2019
1751 Clear -1 1039 74 10000 2.1 170 10:38 29.12.2019
1752 Clear -1 1039 80 10000 2.6 210 10:18 29.12.2019
1753 Clear -1 1039 80 10000 2.6 210 10:18 29.12.2019
1754 Clear -2 1039 86 10000 2.1 220 09:45 29.12.2019
1755 Clear -3 1039 86 10000 2.1 220 09:27 29.12.2019
1756 Clear -3 1039 86 10000 2.6 180 08:55 29.12.2019
1757 Clear -3 1039 86 10000 2.1 220 08:37 29.12.2019
1758 Clouds -3 1040 92 10000 1.5 190 08:18 29.12.2019
1759 Clouds -3 1039 86 10000 2.1 160 07:43 29.12.2019
1760 Clouds -3 1040 86 10000 1.5 150 07:25 29.12.2019
1761 Clouds -3 1040 86 10000 1 0 06:28 29.12.2019
1762 Clouds -3 1040 86 10000 0.5 260 05:55 29.12.2019
1763 Clouds -3 1040 80 10000 0.5 0 04:59 29.12.2019
1764 Clouds -2 1040 80 10000 1 360 04:30 29.12.2019
1765 Clouds -2 1040 74 10000 0.5 0 03:35 29.12.2019
1766 Clouds -2 1040 74 10000 1 210 02:27 29.12.2019
1767 Clouds -2 1040 80 10000 1.5 280 01:52 29.12.2019
1768 Clouds -2 1040 80 10000 1.5 280 01:29 29.12.2019
1769 Clouds -2 1040 80 10000 1.5 280 01:29 29.12.2019
1770 Clouds -1 1041 88 10000 1.5 0 00:45 29.12.2019
1771 Clouds -1 1041 88 10000 1.5 0 00:45 29.12.2019
1772 Clouds -1 1041 88 10000 1.5 0 00:25 29.12.2019
1773 Clouds -1 1041 88 10000 1.5 0 00:25 29.12.2019
1774 Clouds -1 1041 88 10000 2.1 280 23:55 28.12.2019
1775 Clouds -1 1042 88 10000 1 0 23:37 28.12.2019
1776 Clouds -1 1041 91 10000 1 0 23:18 28.12.2019
1777 Clouds -1 1042 91 10000 2.1 280 22:37 28.12.2019
1778 Clouds -1 1042 91 10000 2.1 300 22:18 28.12.2019
1779 Clouds -1 1042 91 10000 2.1 300 21:56 28.12.2019
1780 Clouds -1 1041 91 10000 1.5 310 21:37 28.12.2019
1781 Clouds -1 1041 91 10000 1.5 310 21:19 28.12.2019
1782 Clouds -1 1041 91 10000 1.5 330 20:54 28.12.2019
1783 Clouds -1 1041 91 10000 1.5 310 20:54 28.12.2019
1784 Clouds -1 1041 91 10000 1.5 330 20:36 28.12.2019
1785 Clouds 0 1041 90 10000 1.5 310 20:18 28.12.2019
1786 Clouds 0 1041 90 10000 2.1 310 19:43 28.12.2019
1787 Clouds 0 1041 90 10000 2.1 310 19:24 28.12.2019
1788 Clouds 0 1041 90 10000 2.1 310 18:59 28.12.2019
1789 Clouds 0 1041 90 10000 2.6 320 18:41 28.12.2019
1790 Clouds 0 1041 90 10000 2.1 330 18:20 28.12.2019
1791 Clouds 0 1041 90 10000 2.1 330 17:59 28.12.2019
1792 Clouds 0 1041 90 10000 3.1 330 17:40 28.12.2019
1793 Clouds 0 1041 81 10000 3.1 330 17:21 28.12.2019
1794 Clouds 0 1041 81 10000 2.6 330 16:51 28.12.2019
1795 Clouds 1 1041 81 10000 2.6 330 16:27 28.12.2019
1796 Clouds 1 1040 74 10000 3.1 330 15:59 28.12.2019
1797 Clouds 1 1040 74 10000 3.1 330 15:41 28.12.2019
1798 Clouds 1 1040 74 10000 2.6 340 15:21 28.12.2019
1799 Clouds 1 1040 74 10000 2.6 340 15:21 28.12.2019
1800 Clouds 1 1040 74 10000 3.1 340 14:48 28.12.2019
1801 Clouds 1 1040 74 10000 3.1 340 14:26 28.12.2019
1802 Clouds 1 1039 74 10000 3.1 340 13:58 28.12.2019
1803 Clouds 1 1040 74 10000 3.1 340 13:39 28.12.2019
1804 Rain 1 1040 74 10000 3.6 340 13:20 28.12.2019
1805 Rain 1 1040 74 10000 3.6 340 12:57 28.12.2019
1806 Clouds 1 1040 74 10000 4.1 350 12:39 28.12.2019
1807 Clouds 1 1040 74 10000 4.1 350 12:20 28.12.2019
1808 Clouds 1 1040 74 10000 3.6 340 11:40 28.12.2019
1809 Clouds 1 1040 83 10000 3.1 340 11:21 28.12.2019
1810 Clouds 1 1040 83 10000 3.1 340 10:56 28.12.2019
1811 Clouds 0 1040 83 10000 3.1 330 10:37 28.12.2019
1812 Clouds 1 1039 83 10000 3.1 330 10:19 28.12.2019
1813 Clouds 0 1039 83 10000 2.6 350 09:54 28.12.2019
1814 Clouds 0 1039 83 10000 2.6 350 09:36 28.12.2019
1815 Clouds 0 1039 83 10000 3.1 360 09:18 28.12.2019
1816 Snow 0 1038 100 2400 3.6 360 08:42 28.12.2019
1817 Clouds 0 1038 88 10000 3.1 340 08:23 28.12.2019
1818 Clouds 0 1038 90 10000 3.1 340 07:47 28.12.2019
1819 Clouds 0 1038 90 10000 3.1 340 07:22 28.12.2019
1820 Clouds 1 1037 90 10000 4.1 340 05:46 28.12.2019
1821 Clouds 1 1036 96 10000 3.6 340 03:48 28.12.2019
1822 Clouds 1 1036 96 10000 3.1 340 02:51 28.12.2019
1823 Clouds 1 1036 96 10000 3.1 350 02:20 28.12.2019
1824 Clouds 1 1036 96 10000 3.1 350 01:56 28.12.2019
1825 Clouds 1 1035 96 10000 4.6 350 01:23 28.12.2019
1826 Clouds 1 1035 96 10000 4.1 350 00:50 28.12.2019
1827 Clouds 1 1035 96 10000 4.1 350 00:30 28.12.2019
1828 Clouds 1 1035 100 10000 4.6 350 23:58 27.12.2019
1829 Clouds 1 1035 100 10000 4.6 350 23:58 27.12.2019
1830 Clouds 1 1035 100 10000 3.1 330 23:39 27.12.2019
1831 Clouds 1 1035 100 10000 4.1 340 23:19 27.12.2019
1832 Clouds 2 1035 100 10000 4.1 340 22:57 27.12.2019
1833 Clouds 2 1034 93 10000 4.1 330 22:38 27.12.2019
1834 Rain 2 1034 93 10000 3.6 330 22:19 27.12.2019
1835 Drizzle 2 1033 93 9000 4.1 330 21:43 27.12.2019
1836 Drizzle 2 1033 93 9000 4.1 330 21:43 27.12.2019
1837 Drizzle 2 1033 93 9000 4.1 330 21:25 27.12.2019
1838 Drizzle 2 1033 93 10000 4.1 320 20:58 27.12.2019
1839 Drizzle 2 1032 93 10000 3.6 320 20:40 27.12.2019
1840 Clouds 2 1032 93 10000 4.1 310 20:21 27.12.2019
1841 Rain 2 1032 92 10000 3.1 320 19:41 27.12.2019
1842 Clouds 2 1031 92 10000 3.1 320 19:20 27.12.2019
1843 Clouds 2 1031 92 10000 3.1 320 19:20 27.12.2019
1844 Clouds 2 1031 92 10000 3.1 320 18:58 27.12.2019
1845 Clouds 2 1031 92 10000 3.1 330 18:37 27.12.2019
1846 Clouds 2 1031 92 10000 3.1 330 18:19 27.12.2019
1847 Clouds 2 1030 92 10000 2.6 320 17:56 27.12.2019
1848 Clouds 2 1030 92 10000 2.6 320 17:38 27.12.2019
1849 Clouds 2 1030 90 10000 2.6 310 17:18 27.12.2019
1850 Clouds 2 1030 90 10000 3.1 340 16:56 27.12.2019
1851 Clouds 2 1030 90 10000 3.1 340 16:37 27.12.2019
1852 Clouds 2 1029 90 10000 2.6 300 16:19 27.12.2019
1853 Clouds 3 1029 90 10000 2.6 360 15:43 27.12.2019
1854 Clouds 3 1029 90 10000 3.1 360 15:20 27.12.2019
1855 Clouds 3 1029 90 10000 3.1 360 14:57 27.12.2019
1856 Rain 3 1028 90 10000 3.6 10 14:39 27.12.2019
1857 Rain 3 1028 85 10000 3.6 10 14:20 27.12.2019
1858 Rain 3 1027 85 10000 4.1 360 13:48 27.12.2019
1859 Rain 3 1027 85 10000 4.1 360 13:25 27.12.2019
1860 Rain 3 1027 85 10000 4.1 360 13:25 27.12.2019
1861 Rain 3 1027 86 10000 4.6 360 12:58 27.12.2019
1862 Clouds 3 1027 85 10000 3.6 360 12:40 27.12.2019
1863 Clouds 3 1026 86 10000 4.1 360 12:21 27.12.2019
1864 Clouds 3 1026 93 10000 3.1 350 11:45 27.12.2019
1865 Clouds 3 1026 93 10000 3.1 350 11:26 27.12.2019
1866 Clouds 3 1026 93 10000 3.1 340 10:58 27.12.2019
1867 Clouds 3 1026 93 10000 2.6 340 10:39 27.12.2019
1868 Clouds 3 1025 86 10000 2.6 340 10:21 27.12.2019
1869 Clouds 2 1025 93 10000 1.5 330 09:44 27.12.2019
1870 Clouds 2 1024 93 10000 1.5 320 09:22 27.12.2019
1871 Clouds 2 1024 93 10000 1.5 320 09:22 27.12.2019
1872 Clouds 2 1024 93 10000 1.5 320 08:59 27.12.2019
1873 Clouds 2 1024 79 10000 1.5 340 08:36 27.12.2019
1874 Clouds 2 1023 84 10000 1 330 07:53 27.12.2019
1875 Clouds 2 1023 84 10000 1 330 07:34 27.12.2019
1876 Clouds 2 1023 84 10000 0.5 250 06:39 27.12.2019
1877 Clouds 2 1023 84 10000 0.5 290 05:52 27.12.2019
1878 Clouds 2 1023 84 10000 1.69 225 04:20 27.12.2019
1879 Clouds 2 1023 84 10000 1 0 02:25 27.12.2019
1880 Clouds 3 1023 82 10000 1.5 260 01:42 27.12.2019
1881 Clouds 3 1023 86 10000 1 0 01:20 27.12.2019
1882 Clouds 3 1023 80 0 1.5 270 00:46 27.12.2019
1883 Clouds 3 1023 80 0 1.5 270 00:25 27.12.2019
1884 Clouds 3 1023 80 0 1.5 270 00:25 27.12.2019
1885 Clouds 3 1023 80 10000 1.5 280 23:44 26.12.2019
1886 Clouds 3 1023 80 10000 1.5 270 23:24 26.12.2019
1887 Clouds 3 1023 80 10000 1.5 270 22:58 26.12.2019
1888 Clouds 3 1023 86 10000 2.1 270 22:38 26.12.2019
1889 Clouds 3 1023 86 10000 1.5 250 22:18 26.12.2019
1890 Clouds 3 1023 86 10000 1.5 270 21:39 26.12.2019
1891 Clouds 3 1023 80 10000 2.1 280 21:21 26.12.2019
1892 Clouds 3 1023 80 10000 2.1 280 20:57 26.12.2019
1893 Rain 3 1023 80 10000 2.1 280 20:38 26.12.2019
1894 Rain 3 1023 80 10000 1.5 260 20:19 26.12.2019
1895 Rain 4 1023 80 10000 1.5 260 19:55 26.12.2019
1896 Rain 4 1023 86 10000 2.1 250 19:37 26.12.2019
1897 Rain 4 1023 86 10000 2.1 250 19:19 26.12.2019
1898 Rain 4 1023 86 10000 2.1 250 19:19 26.12.2019
1899 Rain 4 1023 86 10000 2.1 250 18:55 26.12.2019
1900 Rain 4 1023 86 10000 2.6 250 18:36 26.12.2019
1901 Clouds 4 1023 86 10000 2.1 250 18:18 26.12.2019
1902 Clouds 4 1023 86 10000 2.6 270 17:41 26.12.2019
1903 Rain 4 1023 86 10000 3.6 280 17:21 26.12.2019
1904 Clouds 4 1022 86 10000 2.6 280 16:50 26.12.2019
1905 Clouds 4 1022 86 10000 2.6 280 16:27 26.12.2019
1906 Clouds 4 1023 80 10000 2.6 280 15:57 26.12.2019
1907 Clouds 5 1022 80 10000 2.1 280 15:39 26.12.2019
1908 Rain 5 1022 80 10000 3.1 290 15:19 26.12.2019
1909 Clouds 5 1022 80 10000 3.6 290 14:42 26.12.2019
1910 Clouds 5 1023 80 10000 4.1 280 14:23 26.12.2019
1911 Clouds 5 1023 80 10000 4.1 280 13:57 26.12.2019
1912 Clouds 5 1023 80 10000 4.1 280 13:39 26.12.2019
1913 Clouds 5 1023 80 10000 4.1 280 13:39 26.12.2019
1914 Clouds 5 1023 86 10000 4.6 270 13:18 26.12.2019
1915 Clouds 5 1023 86 10000 4.6 270 12:56 26.12.2019
1916 Clouds 5 1023 80 10000 3.6 280 12:36 26.12.2019
1917 Clouds 5 1023 80 10000 3.1 270 12:18 26.12.2019
1918 Clouds 4 1023 86 10000 3.6 270 11:42 26.12.2019
1919 Clouds 4 1023 86 10000 3.6 270 11:42 26.12.2019
1920 Clouds 4 1023 93 10000 4.1 270 11:23 26.12.2019
1921 Clouds 4 1023 93 10000 4.1 270 10:57 26.12.2019
1922 Rain 4 1023 93 10000 4.1 270 10:39 26.12.2019
1923 Clouds 4 1023 86 10000 3.1 260 10:18 26.12.2019
1924 Clouds 3 1023 86 10000 2.6 260 09:42 26.12.2019
1925 Clouds 3 1023 86 10000 2.6 260 09:24 26.12.2019
1926 Rain 3 1023 93 10000 3.1 270 08:40 26.12.2019
1927 Rain 3 1023 93 10000 3.1 270 08:40 26.12.2019
1928 Rain 3 1023 93 10000 3.1 270 08:40 26.12.2019
1929 Rain 3 1023 93 10000 3.1 270 08:22 26.12.2019
1930 Rain 3 1023 93 10000 2.6 270 07:50 26.12.2019
1931 Rain 3 1023 93 10000 2.6 270 07:26 26.12.2019
1932 Rain 3 1023 93 10000 2.1 270 06:48 26.12.2019
1933 Rain 3 1023 93 10000 2.1 270 06:30 26.12.2019
1934 Clouds 3 1022 100 10000 2.6 290 05:45 26.12.2019
1935 Rain 3 1022 93 10000 4.1 300 04:48 26.12.2019
1936 Rain 4 1022 93 10000 4.1 300 04:29 26.12.2019
1937 Drizzle 4 1022 93 10000 4.1 300 02:54 26.12.2019
1938 Drizzle 4 1022 93 10000 4.1 300 02:34 26.12.2019
1939 Rain 4 1021 93 10000 3.1 290 01:46 26.12.2019
1940 Rain 4 1021 93 10000 3.1 290 01:28 26.12.2019
1941 Clouds 4 1021 93 10000 3.1 300 00:49 26.12.2019
1942 Clouds 4 1021 93 10000 3.1 300 00:27 26.12.2019
1943 Rain 4 1021 93 10000 5.1 310 23:58 25.12.2019
1944 Rain 4 1021 93 10000 4.6 300 23:39 25.12.2019
1945 Rain 4 1021 100 10000 2.1 290 23:21 25.12.2019
1946 Clouds 4 1021 100 10000 2.1 290 22:59 25.12.2019
1947 Clouds 4 1020 93 10000 2.6 310 22:39 25.12.2019
1948 Clouds 4 1020 93 10000 3.6 310 22:20 25.12.2019
1949 Clouds 4 1020 93 10000 3.6 310 21:58 25.12.2019
1950 Clouds 4 1020 93 10000 4.1 320 21:39 25.12.2019
1951 Clouds 4 1019 93 10000 3.6 310 21:20 25.12.2019
1952 Clouds 4 1019 93 10000 3.6 310 20:56 25.12.2019
1953 Clouds 4 1019 93 10000 3.6 300 20:38 25.12.2019
1954 Clouds 4 1019 93 10000 4.6 310 20:18 25.12.2019
1955 Clouds 4 1019 93 10000 4.6 310 20:18 25.12.2019
1956 Rain 4 1019 93 10000 4.6 310 19:43 25.12.2019
1957 Rain 4 1018 93 9000 4.6 310 19:24 25.12.2019
1958 Rain 4 1018 93 9000 4.6 310 18:58 25.12.2019
1959 Rain 4 1018 100 8000 5.1 310 18:37 25.12.2019
1960 Drizzle 4 1018 100 7000 3.6 310 18:18 25.12.2019
1961 Rain 4 1017 100 8000 4.1 310 17:42 25.12.2019
1962 Drizzle 4 1017 100 8000 3.6 320 17:20 25.12.2019
1963 Drizzle 4 1017 100 8000 3.6 320 16:58 25.12.2019
1964 Drizzle 4 1016 100 4000 3.6 320 16:38 25.12.2019
1965 Rain 4 1016 93 8000 3.6 320 16:19 25.12.2019
1966 Rain 4 1016 93 8000 3.6 320 15:57 25.12.2019
1967 Rain 5 1015 86 10000 3.6 320 15:39 25.12.2019
1968 Clouds 5 1015 86 10000 4.1 320 15:20 25.12.2019
1969 Clouds 5 1015 86 10000 4.1 320 14:58 25.12.2019
1970 Clouds 5 1014 86 10000 3.6 330 14:39 25.12.2019
1971 Clouds 5 1014 86 10000 3.6 330 14:39 25.12.2019
1972 Clouds 5 1014 86 10000 3.6 330 14:39 25.12.2019
1973 Clouds 5 1013 86 10000 4.1 320 14:20 25.12.2019
1974 Clouds 5 1013 86 10000 4.1 320 13:55 25.12.2019
1975 Clouds 5 1013 86 10000 4.1 320 13:36 25.12.2019
1976 Clouds 5 1012 86 10000 4.1 330 13:18 25.12.2019
1977 Clouds 5 1012 86 10000 3.1 330 12:39 25.12.2019
1978 Clouds 5 1012 86 10000 4.1 340 12:20 25.12.2019
1979 Clouds 6 1012 93 10000 3.6 330 11:55 25.12.2019
1980 Clouds 6 1012 93 10000 3.6 330 11:37 25.12.2019
1981 Clouds 6 1011 93 10000 4.1 320 11:18 25.12.2019
1982 Rain 6 1011 100 9000 4.1 330 10:38 25.12.2019
1983 Rain 6 1011 100 9000 4.1 330 10:38 25.12.2019
1984 Drizzle 6 1011 100 6000 4.6 320 10:19 25.12.2019
1985 Drizzle 6 1011 100 6000 4.6 320 10:19 25.12.2019
1986 Rain 6 1010 93 5000 4.6 290 09:50 25.12.2019
1987 Rain 6 1010 93 5000 4.6 290 09:32 25.12.2019
1988 Drizzle 6 1010 93 10000 4.1 270 08:51 25.12.2019
1989 Drizzle 6 1010 93 10000 4.1 270 08:30 25.12.2019
1990 Clouds 6 1009 93 10000 5.1 260 07:50 25.12.2019
1991 Clouds 6 1009 93 10000 5.1 260 07:32 25.12.2019
1992 Clouds 6 1009 87 10000 4.1 270 06:52 25.12.2019
1993 Clouds 6 1009 87 10000 4.6 260 06:23 25.12.2019
1994 Clouds 6 1008 87 10000 4.1 260 05:18 25.12.2019
1995 Rain 6 1008 81 10000 5.7 260 04:39 25.12.2019
1996 Clouds 7 1008 81 10000 5.7 260 04:20 25.12.2019
1997 Rain 6 1008 81 10000 4.1 270 03:42 25.12.2019
1998 Rain 6 1008 81 10000 5.1 270 02:54 25.12.2019
1999 Rain 6 1008 87 10000 5.7 260 02:27 25.12.2019
2000 Clouds 7 1007 81 10000 5.7 260 01:26 25.12.2019
2001 Clouds 7 1007 81 10000 5.7 250 00:56 25.12.2019
2002 Clouds 7 1007 81 10000 5.1 260 00:33 25.12.2019
2003 Clouds 7 1007 81 10000 5.1 250 23:58 24.12.2019
2004 Clouds 6 1007 81 10000 5.1 260 23:39 24.12.2019
2005 Rain 6 1007 81 10000 5.7 250 23:20 24.12.2019
2006 Clouds 6 1007 81 10000 5.1 260 22:41 24.12.2019
2007 Clouds 6 1007 81 10000 5.1 260 22:23 24.12.2019
2008 Rain 6 1007 81 10000 6.7 260 21:55 24.12.2019
2009 Clouds 6 1006 87 10000 5.7 250 21:36 24.12.2019
2010 Drizzle 6 1007 87 8000 4.1 240 21:18 24.12.2019
2011 Rain 5 1007 93 10000 5.1 220 20:41 24.12.2019
2012 Rain 5 1007 86 10000 4.1 190 20:20 24.12.2019
2013 Drizzle 5 1007 93 10000 5.1 190 19:47 24.12.2019
2014 Drizzle 5 1007 93 10000 4.1 200 19:22 24.12.2019
2015 Drizzle 5 1007 93 10000 4.1 200 19:22 24.12.2019
2016 Drizzle 5 1007 93 10000 4.1 200 18:59 24.12.2019
2017 Drizzle 5 1007 93 9000 4.6 190 18:40 24.12.2019
2018 Rain 5 1007 86 10000 4.1 220 18:18 24.12.2019
2019 Rain 5 1008 81 10000 6.2 210 17:43 24.12.2019
2020 Rain 5 1007 75 10000 5.1 180 17:22 24.12.2019
2021 Clouds 5 1007 75 10000 5.1 180 16:58 24.12.2019
2022 Rain 5 1007 75 10000 3.6 160 16:39 24.12.2019
2023 Rain 6 1008 70 10000 4.1 170 16:20 24.12.2019
2024 Rain 6 1008 70 10000 4.1 170 15:57 24.12.2019
2025 Rain 6 1008 65 10000 4.1 180 15:37 24.12.2019
2026 Clouds 7 1009 65 10000 4.6 190 15:19 24.12.2019
2027 Clouds 7 1009 65 10000 4.6 190 14:58 24.12.2019
2028 Clouds 7 1009 65 10000 4.1 190 14:39 24.12.2019
2029 Clouds 7 1009 65 10000 3.1 220 14:21 24.12.2019
2030 Clouds 8 1009 65 10000 3.1 220 13:56 24.12.2019
2031 Clouds 8 1010 65 10000 4.1 220 13:38 24.12.2019
2032 Clouds 8 1011 61 10000 3.6 230 13:19 24.12.2019
2033 Clouds 8 1011 61 10000 3.6 230 12:56 24.12.2019
2034 Clouds 8 1011 61 10000 3.6 230 12:56 24.12.2019
2035 Clouds 8 1011 70 10000 3.6 240 12:37 24.12.2019
2036 Clouds 7 1012 70 10000 4.1 240 12:19 24.12.2019
2037 Clouds 7 1012 70 10000 4.1 240 11:56 24.12.2019
2038 Clouds 7 1012 70 10000 4.1 230 11:37 24.12.2019
2039 Clouds 7 1012 70 10000 4.1 230 11:37 24.12.2019
2040 Clouds 7 1012 70 10000 4.1 230 11:37 24.12.2019
2041 Clouds 7 1013 75 10000 4.1 230 11:19 24.12.2019
2042 Clouds 6 1013 75 10000 4.1 230 10:56 24.12.2019
2043 Clouds 6 1013 75 10000 4.1 230 10:56 24.12.2019
2044 Clouds 6 1013 75 10000 4.1 230 10:56 24.12.2019
2045 Clouds 6 1013 75 10000 4.1 240 10:38 24.12.2019
2046 Clouds 6 1014 75 10000 3.1 240 10:19 24.12.2019
2047 Clouds 6 1014 75 10000 3.1 240 09:55 24.12.2019
2048 Clouds 5 1014 75 10000 3.6 250 09:37 24.12.2019
2049 Clouds 5 1014 75 10000 4.1 260 09:19 24.12.2019
2050 Clouds 5 1014 75 10000 3.6 250 08:46 24.12.2019
2051 Rain 5 1014 75 10000 3.6 250 08:24 24.12.2019
2052 Clouds 5 1014 75 10000 4.6 260 07:54 24.12.2019
2053 Clouds 5 1014 81 10000 4.1 260 07:36 24.12.2019
2054 Clouds 5 1014 81 10000 3.6 260 07:18 24.12.2019
2055 Clouds 5 1014 81 10000 3.1 260 06:39 24.12.2019
2056 Clouds 5 1014 81 10000 4.1 260 06:19 24.12.2019
2057 Clouds 6 1014 81 10000 4.1 260 05:50 24.12.2019
2058 Clouds 6 1014 81 10000 5.1 260 05:19 24.12.2019
2059 Clouds 6 1013 81 10000 5.1 270 04:21 24.12.2019
2060 Clouds 6 1013 81 10000 4.6 280 03:45 24.12.2019
2061 Rain 6 1013 81 10000 4.1 260 02:28 24.12.2019
2062 Rain 6 1012 81 10000 4.6 270 01:54 24.12.2019
2063 Rain 6 1012 81 10000 4.6 270 01:54 24.12.2019
2064 Rain 6 1012 81 10000 4.1 270 01:25 24.12.2019
2065 Clouds 6 1012 81 10000 4.6 260 00:58 24.12.2019
2066 Clouds 6 1012 81 10000 4.6 270 00:39 24.12.2019
2067 Clouds 6 1011 81 10000 5.1 270 00:19 24.12.2019
2068 Rain 6 1011 81 10000 4.1 270 23:42 23.12.2019
2069 Rain 6 1011 81 10000 4.1 270 23:24 23.12.2019
2070 Clouds 6 1011 81 10000 5.1 270 22:57 23.12.2019
2071 Clouds 6 1011 81 10000 4.6 270 22:38 23.12.2019
2072 Clouds 6 1011 81 10000 4.6 270 22:38 23.12.2019
2073 Clouds 6 1011 81 10000 4.6 270 22:38 23.12.2019
2074 Clouds 6 1010 81 10000 4.6 260 22:20 23.12.2019
2075 Clouds 6 1010 81 10000 4.6 260 22:20 23.12.2019
2076 Clouds 6 1010 81 10000 4.6 260 21:56 23.12.2019
2077 Clouds 6 1010 81 10000 4.1 260 21:37 23.12.2019
2078 Clouds 6 1010 81 10000 3.6 270 21:19 23.12.2019
2079 Clouds 6 1010 81 10000 3.6 270 20:59 23.12.2019
2080 Clouds 6 1009 81 10000 4.1 280 20:40 23.12.2019
2081 Clouds 6 1009 81 10000 4.1 290 20:19 23.12.2019
2082 Clouds 6 1009 81 10000 4.1 290 20:19 23.12.2019
2083 Clouds 6 1009 81 10000 4.1 290 19:59 23.12.2019
2084 Clouds 6 1009 81 10000 4.6 290 19:40 23.12.2019
2085 Clouds 6 1009 81 10000 4.6 290 19:40 23.12.2019
2086 Clouds 6 1009 87 10000 4.6 270 19:21 23.12.2019
2087 Clouds 6 1009 87 10000 4.6 270 18:58 23.12.2019
2088 Rain 6 1008 87 10000 4.6 280 18:39 23.12.2019
2089 Clouds 6 1007 81 10000 4.1 280 18:21 23.12.2019
2090 Clouds 6 1007 81 10000 4.1 280 17:59 23.12.2019
2091 Rain 6 1007 93 10000 3.6 280 17:40 23.12.2019
2092 Rain 6 1006 81 10000 4.1 290 17:20 23.12.2019
2093 Rain 6 1006 81 10000 4.1 290 17:20 23.12.2019
2094 Rain 6 1006 81 10000 4.1 290 16:59 23.12.2019
2095 Rain 6 1006 87 10000 2.6 300 16:40 23.12.2019
2096 Rain 7 1006 93 10000 3.6 310 16:19 23.12.2019
2097 Rain 7 1006 93 10000 3.6 310 15:58 23.12.2019
2098 Rain 7 1005 87 10000 3.6 310 15:37 23.12.2019
2099 Rain 7 1005 81 10000 4.1 300 15:19 23.12.2019
2100 Rain 7 1005 81 10000 4.1 300 14:57 23.12.2019
2101 Rain 7 1004 81 10000 6.2 280 14:39 23.12.2019
2102 Clouds 7 1004 81 10000 4.6 280 14:20 23.12.2019
2103 Clouds 7 1004 81 10000 4.6 280 13:57 23.12.2019
2104 Clouds 7 1003 81 10000 5.1 280 13:39 23.12.2019
2105 Clouds 7 1003 75 10000 5.1 280 13:21 23.12.2019
2106 Clouds 7 1003 75 10000 5.1 280 12:55 23.12.2019
2107 Clouds 7 1003 75 10000 4.6 280 12:37 23.12.2019
2108 Clouds 7 1002 75 10000 6.2 280 12:18 23.12.2019
2109 Clouds 7 1002 75 10000 6.2 280 11:43 23.12.2019
2110 Clouds 7 1002 75 10000 6.2 280 11:25 23.12.2019
2111 Clouds 7 1001 75 10000 6.2 280 10:56 23.12.2019
2112 Clouds 6 1001 75 10000 6.2 280 10:38 23.12.2019
2113 Clouds 6 1001 87 10000 4.6 280 10:20 23.12.2019
2114 Clouds 6 1001 87 10000 4.6 280 09:59 23.12.2019
2115 Clouds 6 1000 87 10000 5.7 280 09:39 23.12.2019
2116 Clouds 6 1000 87 10000 4.6 280 09:20 23.12.2019
2117 Clouds 6 1000 87 10000 4.6 280 08:55 23.12.2019
2118 Clouds 6 999 87 10000 6.7 270 08:37 23.12.2019
2119 Rain 6 999 81 10000 5.1 270 08:19 23.12.2019
2120 Rain 6 998 81 10000 5.1 270 07:43 23.12.2019
2121 Rain 6 997 81 10000 4.6 270 07:20 23.12.2019
2122 Clouds 6 997 81 10000 4.6 270 06:52 23.12.2019
2123 Clouds 6 997 81 10000 4.6 270 06:25 23.12.2019
2124 Clouds 6 996 81 10000 5.7 270 05:50 23.12.2019
2125 Clouds 6 996 81 10000 5.7 270 05:26 23.12.2019
2126 Rain 6 995 93 10000 5.7 260 04:27 23.12.2019
2127 Clouds 6 994 81 10000 4.1 260 02:58 23.12.2019
2128 Clouds 5 993 93 10000 3.1 220 02:40 23.12.2019
2129 Clouds 5 993 93 10000 3.1 220 02:18 23.12.2019
2130 Clouds 5 992 93 10000 2.1 190 01:41 23.12.2019
2131 Rain 6 992 93 10000 2.6 200 01:19 23.12.2019
2132 Clouds 5 992 86 10000 2.6 190 00:43 23.12.2019
2133 Clouds 5 991 86 10000 2.6 180 00:21 23.12.2019
2134 Clouds 5 991 86 10000 1.5 170 23:39 22.12.2019
2135 Clouds 5 991 93 10000 1.5 180 23:21 22.12.2019
2136 Clouds 5 991 93 10000 1.5 180 22:58 22.12.2019
2137 Clouds 5 991 93 10000 2.1 170 22:40 22.12.2019
2138 Rain 5 991 86 10000 3.6 150 22:20 22.12.2019
2139 Rain 4 991 86 10000 3.6 150 21:58 22.12.2019
2140 Rain 4 991 86 10000 3.6 150 21:58 22.12.2019
2141 Clouds 4 991 93 10000 3.1 140 21:40 22.12.2019
2142 Clouds 4 990 93 10000 3.1 150 21:21 22.12.2019
2143 Clouds 5 990 93 10000 3.1 150 20:58 22.12.2019
2144 Clouds 4 990 93 10000 3.6 150 20:39 22.12.2019
2145 Clouds 5 990 86 10000 2.6 140 20:19 22.12.2019
2146 Clouds 5 990 86 10000 2.6 140 19:57 22.12.2019
2147 Rain 5 990 86 10000 2.6 160 19:38 22.12.2019
2148 Clouds 5 990 80 10000 4.6 150 19:19 22.12.2019
2149 Clouds 5 990 80 10000 4.1 150 18:42 22.12.2019
2150 Clouds 5 990 80 10000 3.1 140 18:23 22.12.2019
2151 Clouds 5 990 80 10000 3.1 140 17:56 22.12.2019
2152 Clouds 5 989 80 10000 3.6 140 17:38 22.12.2019
2153 Clouds 5 989 86 10000 3.6 150 17:19 22.12.2019
2154 Clouds 5 989 86 10000 3.1 170 16:57 22.12.2019
2155 Clouds 5 989 86 10000 3.1 170 16:38 22.12.2019
2156 Clouds 5 989 86 10000 3.6 150 16:20 22.12.2019
2157 Clouds 5 989 86 10000 3.6 150 15:56 22.12.2019
2158 Clouds 6 988 86 10000 4.1 140 15:38 22.12.2019
2159 Clouds 6 988 81 10000 3.1 140 15:19 22.12.2019
2160 Clouds 6 988 81 10000 3.1 140 14:55 22.12.2019
2161 Clouds 6 988 81 10000 3.1 140 14:55 22.12.2019
2162 Clouds 6 988 81 10000 4.1 150 14:37 22.12.2019
2163 Clouds 6 989 75 10000 5.7 170 14:18 22.12.2019
2164 Rain 6 989 75 10000 5.7 160 13:55 22.12.2019
2165 Rain 6 989 75 10000 5.7 160 13:37 22.12.2019
2166 Rain 6 989 75 10000 4.6 170 13:18 22.12.2019
2167 Rain 6 989 75 10000 4.6 170 12:56 22.12.2019
2168 Clouds 6 989 75 10000 6.2 170 12:37 22.12.2019
2169 Clouds 6 989 81 10000 4.6 160 12:18 22.12.2019
2170 Clouds 6 989 81 10000 4.6 160 11:56 22.12.2019
2171 Clouds 6 989 81 10000 4.6 150 11:38 22.12.2019
2172 Clouds 5 989 86 10000 4.6 150 11:18 22.12.2019
2173 Clouds 4 989 86 10000 3.1 150 10:55 22.12.2019
2174 Clouds 4 989 86 10000 3.1 150 10:36 22.12.2019
2175 Clouds 3 989 93 10000 2.1 140 10:18 22.12.2019
2176 Clouds 3 989 93 10000 2.1 140 09:56 22.12.2019
2177 Clouds 2 989 93 10000 1.5 100 09:37 22.12.2019
2178 Clouds 2 989 93 10000 2.1 130 09:19 22.12.2019
2179 Clouds 2 989 93 10000 2.6 160 08:42 22.12.2019
2180 Clouds 1 989 93 10000 1 0 08:21 22.12.2019
2181 Clouds 1 989 93 10000 2.6 170 07:42 22.12.2019
2182 Clouds 1 988 93 10000 4.6 170 07:21 22.12.2019
2183 Clouds 1 988 93 10000 4.6 170 06:52 22.12.2019
2184 Clouds 1 988 93 10000 3.6 140 06:22 22.12.2019
2185 Clouds 1 988 93 10000 2.6 120 05:29 22.12.2019
2186 Clouds 1 988 93 10000 3.1 110 04:46 22.12.2019
2187 Clouds 1 988 93 10000 3.1 110 04:46 22.12.2019
2188 Clouds 1 989 100 10000 2.6 160 04:24 22.12.2019
2189 Clouds 1 990 100 10000 2.1 150 02:43 22.12.2019
2190 Clouds 1 990 100 10000 3.6 170 02:20 22.12.2019
2191 Clouds 1 990 100 10000 3.6 160 01:31 22.12.2019
2192 Clouds 1 990 93 10000 4.1 150 00:54 22.12.2019
2193 Clouds 1 990 93 10000 3.6 140 00:36 22.12.2019
2194 Clouds 2 991 100 10000 2.6 150 00:18 22.12.2019
2195 Clouds 2 991 100 10000 3.6 150 23:40 21.12.2019
2196 Clouds 2 991 93 10000 3.6 150 23:21 21.12.2019
2197 Clouds 2 991 93 10000 3.6 150 22:56 21.12.2019
2198 Clouds 2 991 100 10000 1.5 130 22:37 21.12.2019
2199 Clouds 2 992 100 10000 1.5 150 22:18 21.12.2019
2200 Clouds 2 992 100 10000 1.5 150 21:54 21.12.2019
2201 Clouds 2 992 93 10000 3.1 150 21:36 21.12.2019
2202 Clouds 2 992 93 10000 2.6 160 21:18 21.12.2019
2203 Clouds 3 992 93 10000 2.6 160 20:55 21.12.2019
2204 Clouds 3 992 93 10000 2.6 150 20:37 21.12.2019
2205 Clouds 3 993 93 10000 2.1 140 20:18 21.12.2019
2206 Clouds 3 993 93 10000 2.1 140 19:55 21.12.2019
2207 Clouds 3 992 86 10000 2.1 160 19:36 21.12.2019
2208 Clouds 4 993 86 10000 1.5 110 19:18 21.12.2019
2209 Clouds 4 993 86 10000 2.1 140 18:41 21.12.2019
2210 Clouds 4 993 86 10000 1.5 150 18:23 21.12.2019
2211 Clouds 4 993 86 10000 1.5 150 17:56 21.12.2019
2212 Clouds 5 993 81 10000 2.1 150 17:38 21.12.2019
2213 Clouds 5 994 81 10000 3.1 150 17:19 21.12.2019
2214 Clouds 5 994 81 10000 3.1 150 16:57 21.12.2019
2215 Clouds 5 994 87 10000 3.6 160 16:38 21.12.2019
2216 Clouds 5 994 87 10000 2.6 140 16:18 21.12.2019
2217 Clouds 6 994 87 10000 2.6 140 15:55 21.12.2019
2218 Clouds 6 995 81 10000 2.6 130 15:37 21.12.2019
2219 Clouds 7 995 81 10000 1.5 140 15:18 21.12.2019
2220 Clouds 8 995 75 10000 1.5 170 14:42 21.12.2019
2221 Clouds 8 995 75 10000 1.5 170 14:23 21.12.2019
2222 Clouds 8 995 75 10000 1.5 200 13:58 21.12.2019
2223 Clouds 8 995 75 10000 2.6 210 13:39 21.12.2019
2224 Clouds 8 995 75 10000 4.1 210 13:19 21.12.2019
2225 Clouds 8 995 75 10000 4.1 210 12:57 21.12.2019
2226 Clouds 8 995 70 10000 3.1 220 12:38 21.12.2019
2227 Clouds 8 995 70 10000 3.1 250 12:20 21.12.2019
2228 Clouds 8 995 70 10000 3.1 250 11:55 21.12.2019
2229 Clouds 8 995 70 10000 2.6 270 11:37 21.12.2019
2230 Clouds 8 996 75 10000 2.6 260 11:19 21.12.2019
2231 Clouds 7 996 75 10000 4.1 220 10:41 21.12.2019
2232 Clouds 7 996 75 10000 4.1 220 10:23 21.12.2019
2233 Clouds 6 996 81 10000 3.6 220 09:58 21.12.2019
2234 Clouds 6 996 81 10000 3.6 220 09:40 21.12.2019
2235 Clouds 5 995 81 10000 2.6 220 09:20 21.12.2019
2236 Clouds 5 995 87 10000 3.6 220 08:52 21.12.2019
2237 Clouds 5 995 87 10000 3.6 220 08:27 21.12.2019
2238 Rain 6 995 87 10000 3.1 220 07:59 21.12.2019
2239 Rain 6 995 87 10000 3.1 230 07:41 21.12.2019
2240 Rain 6 995 87 10000 3.1 230 07:21 21.12.2019
2241 Rain 7 995 93 10000 3.6 230 06:42 21.12.2019
2242 Rain 7 995 93 10000 2.6 210 06:24 21.12.2019
2243 Rain 7 995 93 10000 3.1 210 05:43 21.12.2019
2244 Rain 7 995 93 10000 3.1 230 04:56 21.12.2019
2245 Rain 8 994 87 10000 4.1 240 03:56 21.12.2019
2246 Rain 8 993 93 10000 3.6 210 02:39 21.12.2019
2247 Rain 8 993 93 10000 4.6 180 01:53 21.12.2019
2248 Rain 8 993 93 10000 3.1 180 01:27 21.12.2019
2249 Rain 8 992 93 10000 1 0 00:50 21.12.2019
2250 Rain 8 992 93 10000 1 0 00:28 21.12.2019
2251 Rain 8 992 87 10000 4.6 170 23:55 20.12.2019
2252 Rain 8 992 87 10000 4.1 160 23:36 20.12.2019
2253 Rain 8 992 81 10000 4.1 170 23:18 20.12.2019
2254 Clouds 8 992 81 10000 6.2 160 22:40 20.12.2019
2255 Clouds 8 992 81 10000 6.7 160 22:21 20.12.2019
2256 Clouds 8 992 81 10000 6.7 160 21:57 20.12.2019
2257 Clouds 8 991 81 10000 7.2 160 21:39 20.12.2019
2258 Clouds 9 992 76 10000 6.7 160 21:18 20.12.2019
2259 Clouds 9 991 76 10000 6.2 160 20:39 20.12.2019
2260 Clouds 9 991 76 10000 7.2 160 20:19 20.12.2019
2261 Clouds 9 991 76 10000 7.2 160 19:58 20.12.2019
2262 Clouds 9 991 81 10000 7.7 160 19:40 20.12.2019
2263 Clouds 9 991 81 10000 8.7 160 19:19 20.12.2019
2264 Clouds 9 991 81 10000 8.7 160 18:54 20.12.2019
2265 Clouds 9 991 81 10000 8.7 160 18:36 20.12.2019
2266 Clouds 9 992 76 10000 9.8 160 18:18 20.12.2019
2267 Clouds 9 992 81 10000 8.7 160 17:42 20.12.2019
2268 Clouds 8 992 81 10000 8.7 160 17:21 20.12.2019
2269 Clouds 8 992 81 10000 8.2 150 16:59 20.12.2019
2270 Clouds 9 992 81 10000 8.2 150 16:39 20.12.2019
2271 Clouds 9 993 76 10000 8.2 160 16:20 20.12.2019
2272 Clouds 9 994 71 10000 8.7 170 15:57 20.12.2019
2273 Clouds 9 994 71 10000 8.7 170 15:38 20.12.2019
2274 Clouds 10 993 71 10000 8.7 160 15:19 20.12.2019
2275 Clouds 10 994 71 10000 8.2 150 14:57 20.12.2019
2276 Clouds 10 994 71 10000 8.2 150 14:39 20.12.2019
2277 Clear 11 994 66 10000 8.2 160 14:20 20.12.2019
2278 Clear 11 995 71 10000 8.7 160 13:42 20.12.2019
2279 Clear 11 995 71 10000 9.8 160 13:21 20.12.2019
2280 Clear 11 996 71 10000 10.8 170 12:59 20.12.2019
2281 Clear 10 996 71 10000 10.8 170 12:41 20.12.2019
2282 Clear 10 997 71 10000 9.3 170 12:19 20.12.2019
2283 Clear 10 997 71 10000 9.3 170 11:59 20.12.2019
2284 Clear 10 997 71 10000 9.3 170 11:40 20.12.2019
2285 Clear 10 997 71 10000 8.2 150 11:21 20.12.2019
2286 Clear 10 998 71 10000 8.2 150 10:59 20.12.2019
2287 Clear 10 998 71 10000 8.2 150 10:41 20.12.2019
2288 Clear 9 998 76 10000 7.7 150 10:20 20.12.2019
2289 Clear 9 998 76 10000 7.7 150 09:56 20.12.2019
2290 Clear 8 1000 81 10000 8.7 160 09:38 20.12.2019
2291 Clear 8 1000 81 10000 8.7 160 09:19 20.12.2019
2292 Clear 8 1000 76 10000 8.7 160 08:43 20.12.2019
2293 Clear 8 1000 76 10000 8.7 150 08:25 20.12.2019
2294 Clear 8 1000 76 10000 8.2 160 07:59 20.12.2019
2295 Clear 8 1000 76 10000 8.2 160 07:40 20.12.2019
2296 Clear 7 1001 76 10000 8.7 160 07:19 20.12.2019
2297 Clear 8 1001 76 10000 7.7 160 06:52 20.12.2019
2298 Clear 8 1002 81 10000 7.7 160 06:33 20.12.2019
2299 Clear 8 1002 81 10000 7.7 150 05:55 20.12.2019
2300 Clear 8 1003 81 10000 8.2 150 05:36 20.12.2019
2301 Clear 8 1004 81 10000 7.7 150 04:33 20.12.2019
2302 Clear 7 1005 87 10000 8.7 160 03:30 20.12.2019
2303 Clear 8 1005 81 10000 8.2 160 02:44 20.12.2019
2304 Clouds 7 1006 87 10000 8.7 160 01:54 20.12.2019
2305 Clouds 7 1006 81 10000 8.2 160 01:33 20.12.2019
2306 Clouds 7 1007 87 10000 8.7 160 00:48 20.12.2019
2307 Clouds 7 1007 87 10000 8.7 150 00:29 20.12.2019
2308 Clouds 7 1008 87 10000 9.8 150 23:56 19.12.2019
2309 Clouds 8 1008 81 10000 8.2 160 23:38 19.12.2019
2310 Clouds 7 1008 81 10000 8.2 160 23:18 19.12.2019
2311 Clouds 7 1009 81 10000 9.8 160 22:38 19.12.2019
2312 Clouds 7 1009 81 10000 9.8 160 22:20 19.12.2019
2313 Clouds 8 1009 81 10000 9.8 160 21:56 19.12.2019
2314 Clouds 7 1010 81 10000 8.7 160 21:38 19.12.2019
2315 Clouds 7 1010 81 10000 8.7 160 21:19 19.12.2019
2316 Clouds 7 1010 81 10000 8.2 160 20:56 19.12.2019
2317 Clouds 7 1011 81 10000 9.3 160 20:37 19.12.2019
2318 Clouds 7 1011 81 10000 9.3 160 20:19 19.12.2019
2319 Clouds 7 1011 81 10000 8.2 160 19:58 19.12.2019
2320 Clouds 7 1011 81 10000 6.2 140 19:39 19.12.2019
2321 Clouds 7 1011 81 10000 6.2 140 19:19 19.12.2019
2322 Clouds 7 1011 81 10000 6.2 140 19:19 19.12.2019
2323 Clouds 7 1011 81 10000 6.2 140 19:19 19.12.2019
2324 Clouds 7 1011 81 10000 5.1 150 18:56 19.12.2019
2325 Clouds 7 1011 81 10000 5.1 150 18:38 19.12.2019
2326 Clouds 8 1012 87 10000 6.2 160 18:19 19.12.2019
2327 Clouds 8 1012 81 10000 6.7 170 17:55 19.12.2019
2328 Clouds 8 1012 81 10000 8.2 160 17:37 19.12.2019
2329 Clouds 8 1012 81 10000 8.2 160 17:18 19.12.2019
2330 Clouds 8 1012 87 10000 8.2 160 16:55 19.12.2019
2331 Clouds 8 1012 87 10000 8.2 160 16:55 19.12.2019
2332 Clouds 8 1013 87 10000 7.2 150 16:37 19.12.2019
2333 Clouds 9 1013 87 10000 7.2 150 16:19 19.12.2019
2334 Clouds 8 1013 87 10000 8.2 150 15:55 19.12.2019
2335 Clouds 9 1014 87 10000 8.7 150 15:37 19.12.2019
2336 Clouds 9 1014 87 10000 8.7 150 15:18 19.12.2019
2337 Clouds 9 1014 87 10000 8.7 150 15:18 19.12.2019
2338 Clouds 9 1014 87 0 8.7 150 14:42 19.12.2019
2339 Clouds 9 1015 87 10000 8.7 160 14:20 19.12.2019
2340 Clouds 9 1015 87 10000 6.7 150 13:59 19.12.2019
2341 Clouds 9 1015 87 10000 6.7 150 13:38 19.12.2019
2342 Clouds 9 1015 87 10000 6.7 150 13:38 19.12.2019
2343 Clouds 9 1015 87 10000 7.2 150 13:19 19.12.2019
2344 Clouds 9 1016 81 10000 6.7 140 12:57 19.12.2019
2345 Clouds 9 1017 81 10000 7.2 150 12:39 19.12.2019
2346 Clouds 9 1017 81 10000 7.2 150 12:19 19.12.2019
2347 Clouds 9 1017 81 10000 6.2 140 11:58 19.12.2019
2348 Clouds 9 1018 81 10000 6.2 150 11:40 19.12.2019
2349 Clouds 9 1018 81 10000 6.2 150 11:18 19.12.2019
2350 Clouds 9 1018 81 10000 6.7 150 10:58 19.12.2019
2351 Clouds 8 1018 76 10000 6.2 150 10:38 19.12.2019
2352 Clouds 7 1018 76 10000 6.2 150 10:20 19.12.2019
2353 Clouds 7 1018 76 10000 5.7 150 09:55 19.12.2019
2354 Clouds 7 1018 81 10000 6.2 150 09:37 19.12.2019
2355 Clouds 6 1018 81 10000 6.2 150 09:18 19.12.2019
2356 Clouds 5 1018 81 10000 5.7 140 08:42 19.12.2019
2357 Clear 4 1018 87 10000 4.6 150 08:20 19.12.2019
2358 Clear 4 1018 87 10000 4.6 150 08:20 19.12.2019
2359 Clear 4 1018 87 10000 4.6 150 08:20 19.12.2019
2360 Rain 4 1019 87 10000 5.1 140 07:59 19.12.2019
2361 Clear 4 1019 87 10000 5.1 140 07:40 19.12.2019
2362 Clear 4 1019 87 10000 4.6 140 07:22 19.12.2019
2363 Clear 3 1019 93 10000 2.6 130 06:54 19.12.2019
2364 Clear 4 1019 93 10000 2.1 130 06:36 19.12.2019
2365 Clear 4 1019 93 10000 2.1 130 06:18 19.12.2019
2366 Clear 3 1019 100 9000 2.6 140 05:42 19.12.2019
2367 Clear 2 1019 93 10000 3.1 150 05:18 19.12.2019
2368 Clear 3 1020 100 10000 1.5 120 03:51 19.12.2019
2369 Clear 3 1020 93 10000 3.1 150 02:25 19.12.2019
2370 Clouds 3 1021 100 8000 2.1 90 01:24 19.12.2019
2371 Clouds 2 1021 100 10000 1 120 00:57 19.12.2019
2372 Clouds 2 1021 93 10000 1 0 00:38 19.12.2019
2373 Clouds 2 1021 93 10000 1 0 00:19 19.12.2019
2374 Clouds 2 1021 93 10000 1 0 00:19 19.12.2019
2375 Clouds 3 1021 100 10000 1 0 23:44 18.12.2019
2376 Clouds 4 1021 100 10000 1 0 23:19 18.12.2019
2377 Clouds 4 1021 93 10000 2.1 130 22:56 18.12.2019
2378 Clouds 4 1021 93 10000 3.1 150 22:38 18.12.2019
2379 Clouds 4 1021 93 10000 3.1 150 22:20 18.12.2019
2380 Clouds 4 1021 100 10000 2.6 140 21:58 18.12.2019
2381 Clouds 4 1021 93 10000 1 0 21:39 18.12.2019
2382 Clouds 4 1021 93 10000 1 0 21:39 18.12.2019
2383 Clouds 5 1021 93 10000 1 0 21:20 18.12.2019
2384 Clouds 5 1021 93 10000 1.5 150 20:57 18.12.2019
2385 Clouds 5 1021 93 10000 2.6 160 20:38 18.12.2019
2386 Clouds 6 1021 93 10000 2.6 160 20:20 18.12.2019
2387 Clouds 6 1021 100 10000 3.6 180 19:56 18.12.2019
2388 Clouds 6 1021 100 10000 3.6 180 19:56 18.12.2019
2389 Clouds 7 1021 93 10000 2.6 180 19:38 18.12.2019
2390 Clouds 7 1021 93 10000 2.6 180 19:19 18.12.2019
2391 Clouds 7 1021 93 10000 2.1 160 18:55 18.12.2019
2392 Clouds 7 1020 87 10000 2.1 170 18:37 18.12.2019
2393 Clouds 7 1020 87 10000 2.1 170 18:18 18.12.2019
2394 Clouds 8 1020 87 10000 1.5 240 17:55 18.12.2019
2395 Clouds 8 1020 87 10000 1.5 220 17:37 18.12.2019
2396 Clouds 8 1020 87 10000 1.5 220 17:18 18.12.2019
2397 Clouds 8 1020 81 10000 1 230 16:42 18.12.2019
2398 Clouds 8 1019 81 10000 0.5 140 16:24 18.12.2019
2399 Clouds 9 1019 81 10000 0.5 140 15:57 18.12.2019
2400 Rain 9 1019 81 10000 0.5 0 15:39 18.12.2019
2401 Clouds 9 1019 87 10000 2.1 330 15:21 18.12.2019
2402 Clouds 9 1019 87 10000 2.1 330 14:57 18.12.2019
2403 Clouds 9 1018 76 10000 2.1 340 14:39 18.12.2019
2404 Clouds 9 1018 76 10000 3.6 310 14:19 18.12.2019
2405 Clouds 10 1018 76 10000 3.6 310 13:55 18.12.2019
2406 Clouds 10 1018 76 10000 3.1 310 13:37 18.12.2019
2407 Clouds 10 1017 76 10000 4.1 300 13:19 18.12.2019
2408 Clouds 10 1017 76 10000 4.1 300 12:54 18.12.2019
2409 Clouds 10 1017 71 10000 3.6 290 12:36 18.12.2019
2410 Clouds 10 1017 71 10000 3.1 260 12:18 18.12.2019
2411 Clouds 10 1017 71 10000 3.1 260 11:54 18.12.2019
2412 Rain 10 1017 71 10000 1.5 250 11:36 18.12.2019
2413 Rain 10 1017 76 10000 2.6 220 11:18 18.12.2019
2414 Clouds 10 1016 71 10000 3.6 220 10:54 18.12.2019
2415 Clouds 10 1016 71 10000 3.6 220 10:36 18.12.2019
2416 Clouds 10 1016 66 10000 3.6 230 10:18 18.12.2019
2417 Clouds 10 1015 66 10000 3.6 240 09:21 18.12.2019
2418 Clouds 10 1015 66 10000 3.6 240 08:57 18.12.2019
2419 Clouds 10 1014 66 10000 4.6 240 08:39 18.12.2019
2420 Clouds 9 1014 62 10000 4.1 220 08:21 18.12.2019
2421 Clouds 8 1013 66 10000 5.1 220 07:43 18.12.2019
2422 Clouds 8 1012 70 10000 4.1 220 07:22 18.12.2019
2423 Clouds 8 1012 70 10000 4.1 220 06:53 18.12.2019
2424 Clouds 8 1011 70 10000 4.6 220 06:26 18.12.2019
2425 Clouds 8 1011 66 10000 6.2 210 05:43 18.12.2019
2426 Clouds 9 1011 66 10000 4.6 210 04:46 18.12.2019
2427 Clouds 8 1009 75 10000 4.1 140 02:51 18.12.2019
2428 Clouds 8 1009 75 10000 4.1 140 02:31 18.12.2019
2429 Clouds 8 1009 75 10000 6.2 150 01:57 18.12.2019
2430 Clouds 7 1008 70 10000 5.7 150 01:37 18.12.2019
2431 Clouds 7 1008 70 10000 6.7 150 01:19 18.12.2019
2432 Clouds 8 1008 61 10000 8.2 150 00:40 18.12.2019
2433 Clouds 7 1009 70 10000 8.7 150 00:21 18.12.2019
2434 Clouds 7 1009 70 10000 8.7 150 23:54 17.12.2019
2435 Clouds 7 1009 70 10000 7.2 150 23:36 17.12.2019
2436 Clouds 7 1009 70 10000 8.2 150 23:18 17.12.2019
2437 Clouds 7 1009 70 10000 7.7 150 22:54 17.12.2019
2438 Clouds 7 1009 70 10000 7.7 150 22:36 17.12.2019
2439 Clouds 7 1009 81 10000 5.7 150 22:18 17.12.2019
2440 Clouds 7 1009 81 10000 5.7 150 22:18 17.12.2019
2441 Clouds 7 1009 81 10000 5.7 150 21:55 17.12.2019
2442 Clouds 7 1009 81 10000 5.7 150 21:55 17.12.2019
2443 Clouds 7 1009 81 10000 5.7 150 21:37 17.12.2019
2444 Clouds 7 1009 75 10000 4.1 160 21:18 17.12.2019
2445 Clouds 7 1009 75 10000 3.6 150 20:55 17.12.2019
2446 Clouds 7 1009 75 10000 3.6 150 20:37 17.12.2019
2447 Clouds 7 1009 75 10000 2.6 150 20:18 17.12.2019
2448 Clouds 7 1009 75 10000 2.6 150 19:54 17.12.2019
2449 Clouds 7 1009 75 10000 3.6 140 19:36 17.12.2019
2450 Clouds 7 1009 75 10000 2.6 0 19:18 17.12.2019
2451 Clouds 7 1009 81 10000 5.1 160 18:41 17.12.2019
2452 Clouds 7 1009 75 10000 6.2 150 18:21 17.12.2019
2453 Clouds 7 1009 75 10000 5.1 160 17:58 17.12.2019
2454 Clouds 7 1009 75 10000 5.1 160 17:40 17.12.2019
2455 Clouds 7 1009 75 10000 6.2 150 17:19 17.12.2019
2456 Clouds 7 1009 75 10000 6.2 150 16:56 17.12.2019
2457 Clouds 8 1009 75 10000 8.2 150 16:37 17.12.2019
2458 Clouds 8 1008 75 10000 8.7 150 16:19 17.12.2019
2459 Clouds 8 1008 75 10000 7.2 150 15:56 17.12.2019
2460 Clouds 9 1008 75 10000 7.2 150 15:37 17.12.2019
2461 Clouds 9 1008 70 10000 7.2 140 15:18 17.12.2019
2462 Clouds 10 1008 70 10000 7.2 140 14:55 17.12.2019
2463 Clouds 9 1008 66 10000 6.7 150 14:36 17.12.2019
2464 Clouds 9 1007 66 10000 5.1 150 14:18 17.12.2019
2465 Clouds 10 1008 66 10000 7.2 150 13:55 17.12.2019
2466 Clouds 10 1007 66 10000 5.1 150 13:55 17.12.2019
2467 Clouds 9 1008 66 10000 7.2 150 13:37 17.12.2019
2468 Clouds 10 1008 70 10000 7.2 150 13:18 17.12.2019
2469 Clouds 9 1008 75 10000 7.2 150 12:41 17.12.2019
2470 Clouds 9 1008 75 10000 7.2 150 12:19 17.12.2019
2471 Clouds 8 1008 75 10000 7.2 150 12:19 17.12.2019
2472 Clouds 9 1008 75 10000 7.2 150 12:19 17.12.2019
2473 Clouds 9 1008 75 10000 7.2 150 11:59 17.12.2019
2474 Clouds 9 1008 70 10000 5.7 140 11:37 17.12.2019
2475 Clouds 9 1008 75 10000 5.7 150 11:19 17.12.2019
2476 Clouds 8 1008 75 10000 7.2 150 10:59 17.12.2019
2477 Clouds 8 1008 75 10000 7.2 150 10:41 17.12.2019
2478 Clouds 9 1008 70 10000 6.7 150 10:23 17.12.2019
2479 Clouds 8 1008 70 10000 6.7 150 09:59 17.12.2019
2480 Clouds 8 1008 70 10000 6.7 150 09:59 17.12.2019
2481 Clouds 7 1008 75 10000 8.2 140 09:41 17.12.2019
2482 Clouds 7 1007 75 10000 6.7 140 09:20 17.12.2019
2483 Clouds 6 1007 75 10000 6.7 140 08:56 17.12.2019
2484 Clouds 6 1008 75 10000 5.1 150 08:38 17.12.2019
2485 Clouds 6 1008 75 10000 5.1 150 08:38 17.12.2019
2486 Clouds 6 1008 75 10000 5.1 150 08:38 17.12.2019
2487 Clouds 6 1006 75 10000 7.7 150 08:20 17.12.2019
2488 Clouds 6 1006 75 10000 7.7 150 07:55 17.12.2019
2489 Clouds 7 1006 75 10000 6.2 140 07:36 17.12.2019
2490 Clouds 7 1006 75 10000 5.7 150 07:18 17.12.2019
2491 Clouds 7 1006 75 10000 7.2 150 06:35 17.12.2019
2492 Clouds 7 1006 75 10000 6.7 150 05:57 17.12.2019
2493 Clouds 6 1006 75 10000 6.7 150 05:38 17.12.2019
2494 Clouds 6 1007 81 10000 4.1 140 04:45 17.12.2019
2495 Clouds 5 1007 81 10000 7.7 150 02:47 17.12.2019
2496 Clouds 5 1007 81 10000 8.2 150 01:56 17.12.2019
2497 Clouds 5 1008 86 10000 4.6 140 01:20 17.12.2019
2498 Clouds 5 1008 86 10000 5.7 140 00:38 17.12.2019
2499 Clouds 5 1008 86 10000 6.2 150 00:20 17.12.2019
2500 Clouds 5 1008 86 10000 7.2 150 23:43 16.12.2019
2501 Clouds 5 1008 81 10000 6.7 150 23:19 16.12.2019
2502 Clouds 5 1008 81 10000 6.7 150 22:58 16.12.2019
2503 Clouds 5 1008 81 10000 7.2 160 22:38 16.12.2019
2504 Clouds 5 1008 81 10000 7.2 150 22:20 16.12.2019
2505 Clouds 5 1008 81 10000 7.2 150 21:57 16.12.2019
2506 Clouds 5 1008 87 10000 6.2 160 21:38 16.12.2019
2507 Clouds 5 1009 81 10000 6.2 160 21:20 16.12.2019
2508 Clouds 6 1009 81 10000 6.2 160 20:58 16.12.2019
2509 Clouds 6 1009 81 10000 5.7 160 20:39 16.12.2019
2510 Clouds 6 1009 81 10000 5.7 160 20:39 16.12.2019
2511 Clouds 6 1009 81 10000 6.2 170 20:19 16.12.2019
2512 Clouds 6 1009 81 10000 6.2 170 20:19 16.12.2019
2513 Clouds 6 1009 81 10000 6.2 170 19:57 16.12.2019
2514 Clouds 6 1009 75 10000 7.2 160 19:37 16.12.2019
2515 Clouds 6 1009 81 10000 7.2 160 19:19 16.12.2019
2516 Clouds 6 1009 81 10000 7.2 160 18:59 16.12.2019
2517 Clouds 7 1009 81 10000 6.7 160 18:41 16.12.2019
2518 Clouds 7 1009 81 10000 6.7 160 18:20 16.12.2019
2519 Clouds 7 1009 81 10000 6.7 160 17:59 16.12.2019
2520 Clouds 7 1009 81 10000 3.6 160 17:40 16.12.2019
2521 Clouds 7 1008 81 10000 5.1 150 17:21 16.12.2019
2522 Clouds 7 1008 81 10000 5.1 150 16:57 16.12.2019
2523 Clouds 8 1009 76 10000 5.1 150 16:39 16.12.2019
2524 Clouds 8 1009 81 10000 4.6 140 16:20 16.12.2019
2525 Clouds 8 1009 81 10000 4.6 140 15:59 16.12.2019
2526 Clouds 9 1009 76 10000 4.6 150 15:39 16.12.2019
2527 Clouds 9 1009 71 10000 5.1 150 15:21 16.12.2019
2528 Clouds 10 1009 71 10000 5.1 150 14:57 16.12.2019
2529 Clouds 10 1009 71 10000 4.6 150 14:37 16.12.2019
2530 Clouds 10 1009 71 10000 4.1 150 14:19 16.12.2019
2531 Clouds 10 1009 66 10000 4.6 160 13:57 16.12.2019
2532 Clouds 10 1009 66 10000 4.6 160 13:38 16.12.2019
2533 Clouds 11 1009 66 10000 5.7 160 13:20 16.12.2019
2534 Clouds 10 1009 66 10000 5.7 160 12:58 16.12.2019
2535 Rain 10 1010 71 10000 5.7 150 12:39 16.12.2019
2536 Clouds 10 1010 76 10000 5.1 160 12:20 16.12.2019
2537 Clouds 9 1010 76 10000 5.1 160 11:59 16.12.2019
2538 Clouds 9 1010 76 10000 4.6 160 11:41 16.12.2019
2539 Clouds 8 1011 87 10000 5.7 150 11:21 16.12.2019
2540 Clouds 8 1011 87 10000 5.7 150 10:58 16.12.2019
2541 Rain 7 1011 81 10000 4.1 160 10:40 16.12.2019
2542 Rain 7 1011 81 10000 4.1 160 10:40 16.12.2019
2543 Rain 7 1011 87 10000 5.1 160 10:20 16.12.2019
2544 Clouds 6 1011 81 10000 4.6 160 09:46 16.12.2019
2545 Rain 6 1011 81 10000 5.1 150 09:28 16.12.2019
2546 Rain 6 1011 81 10000 5.1 150 08:58 16.12.2019
2547 Rain 6 1011 81 10000 3.1 150 08:38 16.12.2019
2548 Clouds 5 1011 81 10000 4.1 150 08:19 16.12.2019
2549 Clouds 5 1011 75 10000 4.6 150 07:49 16.12.2019
2550 Clouds 5 1011 75 10000 4.6 150 07:30 16.12.2019
2551 Clouds 5 1011 81 10000 4.6 150 06:46 16.12.2019
2552 Clouds 5 1011 81 10000 4.1 160 06:26 16.12.2019
2553 Clouds 4 1011 70 10000 4.1 160 05:58 16.12.2019
2554 Clouds 4 1011 70 10000 4.1 160 05:39 16.12.2019
2555 Clouds 4 1011 75 10000 3.1 170 05:21 16.12.2019
2556 Clouds 4 1012 80 10000 4.1 180 02:50 16.12.2019
2557 Clouds 4 1011 80 10000 3.1 170 01:45 16.12.2019
2558 Clouds 4 1011 75 10000 1 0 00:56 16.12.2019
2559 Clouds 4 1011 75 10000 1 0 00:37 16.12.2019
2560 Clouds 5 1010 81 10000 3.1 210 00:18 16.12.2019
2561 Clouds 4 1010 81 10000 5.1 210 23:40 15.12.2019
2562 Clouds 4 1010 81 10000 5.1 210 23:40 15.12.2019
2563 Clouds 5 1010 75 10000 5.1 230 23:22 15.12.2019
2564 Clouds 5 1009 75 10000 4.6 230 22:57 15.12.2019
2565 Clouds 5 1009 75 10000 4.6 230 22:38 15.12.2019
2566 Clouds 5 1009 75 10000 4.6 230 22:19 15.12.2019
2567 Clouds 6 1009 75 10000 4.6 230 21:58 15.12.2019
2568 Clouds 5 1009 81 10000 5.1 210 21:38 15.12.2019
2569 Clouds 6 1009 81 10000 4.1 210 21:20 15.12.2019
2570 Clouds 5 1009 81 10000 4.1 210 20:58 15.12.2019
2571 Clouds 6 1008 81 10000 3.6 210 20:39 15.12.2019
2572 Clouds 6 1008 81 10000 3.6 210 20:39 15.12.2019
2573 Clouds 6 1008 81 10000 4.1 220 20:21 15.12.2019
2574 Clouds 6 1008 81 10000 4.1 220 19:58 15.12.2019
2575 Clouds 6 1007 75 10000 3.6 230 19:40 15.12.2019
2576 Clouds 7 1007 75 10000 4.1 240 19:20 15.12.2019
2577 Clouds 7 1007 75 10000 4.1 240 18:58 15.12.2019
2578 Clouds 7 1007 70 10000 4.1 260 18:39 15.12.2019
2579 Clouds 7 1006 70 10000 5.1 250 18:19 15.12.2019
2580 Clouds 7 1006 70 10000 4.6 260 17:57 15.12.2019
2581 Clouds 8 1006 70 10000 4.6 260 17:38 15.12.2019
2582 Rain 8 1005 70 10000 5.1 240 17:19 15.12.2019
2583 Rain 8 1005 70 10000 5.1 240 16:58 15.12.2019
2584 Rain 8 1005 70 10000 5.1 240 16:39 15.12.2019
2585 Clouds 8 1004 76 10000 5.7 230 16:21 15.12.2019
2586 Clouds 8 1004 76 10000 5.7 230 15:56 15.12.2019
2587 Rain 8 1003 76 10000 5.1 230 15:38 15.12.2019
2588 Rain 9 1003 76 10000 4.6 240 15:19 15.12.2019
2589 Rain 8 1002 81 10000 5.7 250 14:56 15.12.2019
2590 Rain 8 1002 81 10000 5.7 250 14:37 15.12.2019
2591 Rain 8 1002 76 10000 8.2 250 14:18 15.12.2019
2592 Rain 8 1002 76 10000 8.2 250 13:58 15.12.2019
2593 Clouds 9 1001 71 10000 5.7 240 13:38 15.12.2019
2594 Clouds 10 1001 71 10000 7.2 230 13:19 15.12.2019
2595 Clouds 10 1001 76 10000 7.2 220 12:57 15.12.2019
2596 Clouds 10 1001 76 10000 7.2 220 12:39 15.12.2019
2597 Clouds 10 1001 76 10000 7.2 220 12:39 15.12.2019
2598 Clouds 9 1001 76 10000 7.7 200 12:20 15.12.2019
2599 Clouds 8 1001 81 10000 8.2 190 11:56 15.12.2019
2600 Clouds 8 1001 81 10000 8.2 190 11:37 15.12.2019
2601 Clouds 7 1000 87 10000 6.7 170 11:18 15.12.2019
2602 Rain 7 1000 87 10000 7.7 170 10:55 15.12.2019
2603 Rain 6 1000 87 10000 7.7 170 10:37 15.12.2019
2604 Rain 6 1000 93 10000 7.2 170 10:18 15.12.2019
2605 Rain 6 1000 86 10000 6.7 160 09:41 15.12.2019
2606 Rain 5 1000 86 10000 7.2 160 09:20 15.12.2019
2607 Rain 5 1000 86 10000 7.2 160 08:59 15.12.2019
2608 Rain 5 1000 86 10000 7.7 160 08:41 15.12.2019
2609 Rain 5 1001 86 10000 7.2 160 08:22 15.12.2019
2610 Rain 5 1001 80 10000 6.2 170 07:56 15.12.2019
2611 Rain 5 1001 80 10000 6.2 170 07:35 15.12.2019
2612 Rain 4 1001 75 10000 6.7 170 06:56 15.12.2019
2613 Rain 4 1001 84 10000 4.6 140 06:21 15.12.2019
2614 Rain 4 1002 84 10000 4.6 160 05:37 15.12.2019
2615 Clouds 4 1002 77 10000 4.6 180 05:18 15.12.2019
2616 Clouds 3 1003 74 10000 4.6 180 03:54 15.12.2019
2617 Clouds 3 1003 69 10000 3.6 250 02:34 15.12.2019
2618 Rain 4 1003 75 10000 4.1 260 01:55 15.12.2019
2619 Rain 4 1002 72 10000 6.2 270 01:37 15.12.2019
2620 Rain 4 1002 75 10000 6.2 270 01:18 15.12.2019
2621 Rain 4 1002 72 10000 7.2 270 00:42 15.12.2019
2622 Clouds 5 1001 72 10000 8.7 270 00:23 15.12.2019
2623 Rain 5 1000 75 10000 8.7 260 23:40 14.12.2019
2624 Thunderstorm 5 999 86 10000 6.2 250 23:22 14.12.2019
2625 Thunderstorm 5 999 86 10000 6.2 250 22:59 14.12.2019
2626 Rain 5 998 70 10000 6.2 260 22:41 14.12.2019
2627 Clouds 5 998 86 10000 5.7 200 22:22 14.12.2019
2628 Clouds 5 998 86 10000 5.7 180 21:56 14.12.2019
2629 Clouds 5 998 86 10000 5.7 180 21:38 14.12.2019
2630 Rain 5 998 86 10000 4.6 210 21:19 14.12.2019
2631 Rain 5 998 86 10000 4.6 210 20:57 14.12.2019
2632 Rain 5 998 80 10000 8.2 240 20:39 14.12.2019
2633 Rain 5 997 70 10000 6.7 230 20:19 14.12.2019
2634 Rain 5 997 70 10000 6.7 230 19:57 14.12.2019
2635 Rain 5 997 70 10000 5.7 230 19:37 14.12.2019
2636 Rain 6 997 70 10000 5.1 240 19:19 14.12.2019
2637 Clouds 5 997 70 10000 5.1 240 18:56 14.12.2019
2638 Clouds 5 997 70 10000 7.2 250 18:37 14.12.2019
2639 Clouds 5 996 75 10000 5.1 260 18:19 14.12.2019
2640 Rain 5 996 80 10000 5.1 250 17:44 14.12.2019
2641 Clouds 5 995 75 10000 5.7 260 17:24 14.12.2019
2642 Clouds 6 995 75 10000 5.7 260 16:58 14.12.2019
2643 Clouds 6 994 70 10000 6.2 250 16:39 14.12.2019
2644 Clouds 6 993 75 10000 5.1 260 16:18 14.12.2019
2645 Clouds 5 993 70 10000 6.7 270 15:43 14.12.2019
2646 Clouds 6 992 70 10000 8.2 280 15:22 14.12.2019
2647 Clouds 6 992 70 10000 8.2 280 14:59 14.12.2019
2648 Clouds 6 991 75 10000 8.2 270 14:39 14.12.2019
2649 Rain 6 990 80 10000 8.7 280 14:20 14.12.2019
2650 Rain 5 990 80 10000 8.7 280 13:57 14.12.2019
2651 Rain 5 989 86 10000 9.8 270 13:39 14.12.2019
2652 Rain 5 987 81 10000 8.7 250 13:19 14.12.2019
2653 Rain 4 987 86 10000 7.2 190 12:55 14.12.2019
2654 Rain 4 987 86 10000 7.2 190 12:37 14.12.2019
2655 Rain 4 986 86 10000 5.7 170 12:18 14.12.2019
2656 Rain 4 986 86 10000 8.2 190 11:55 14.12.2019
2657 Rain 4 986 86 10000 8.2 190 11:37 14.12.2019
2658 Rain 4 986 80 10000 7.7 180 11:18 14.12.2019
2659 Rain 4 986 75 10000 7.2 160 10:55 14.12.2019
2660 Clouds 4 986 75 10000 7.2 160 10:37 14.12.2019
2661 Clouds 4 986 77 10000 6.2 170 10:18 14.12.2019
2662 Clouds 4 987 73 10000 5.7 170 09:40 14.12.2019
2663 Clouds 4 987 73 10000 4.1 160 09:21 14.12.2019
2664 Clouds 4 987 73 10000 3.6 160 08:45 14.12.2019
2665 Clouds 4 988 81 10000 5.7 190 08:21 14.12.2019
2666 Clouds 4 988 81 10000 5.7 190 07:58 14.12.2019
2667 Clouds 4 988 80 10000 4.6 200 07:38 14.12.2019
2668 Clouds 4 988 80 10000 7.2 210 07:19 14.12.2019
2669 Clouds 3 988 80 10000 6.2 210 06:42 14.12.2019
2670 Clouds 3 988 80 10000 4.6 210 06:22 14.12.2019
2671 Clouds 4 987 80 10000 5.7 220 05:35 14.12.2019
2672 Rain 4 987 86 10000 5.1 230 03:34 14.12.2019
2673 Clouds 4 986 86 10000 6.2 220 02:23 14.12.2019
2674 Rain 4 986 86 10000 5.7 220 01:44 14.12.2019
2675 Rain 4 986 80 10000 5.1 200 00:59 14.12.2019
2676 Rain 4 985 80 10000 5.1 190 00:40 14.12.2019
2677 Rain 4 985 86 10000 5.1 180 00:20 14.12.2019
2678 Rain 3 985 86 10000 4.6 170 23:41 13.12.2019
2679 Rain 3 985 86 10000 5.1 180 23:19 13.12.2019
2680 Rain 3 985 86 10000 5.1 180 22:57 13.12.2019
2681 Snow 3 984 81 10000 3.6 170 22:38 13.12.2019
2682 Snow 3 984 81 10000 2.6 160 22:18 13.12.2019
2683 Snow 3 984 81 10000 4.6 170 21:44 13.12.2019
2684 Snow 3 984 81 10000 4.6 170 21:22 13.12.2019
2685 Snow 3 984 81 10000 4.6 170 20:59 13.12.2019
2686 Clouds 2 984 80 10000 6.2 170 20:40 13.12.2019
2687 Clouds 2 983 80 10000 6.7 170 20:20 13.12.2019
2688 Clouds 2 983 80 10000 6.7 170 19:57 13.12.2019
2689 Clouds 2 983 80 10000 7.2 170 19:39 13.12.2019
2690 Clouds 2 983 80 10000 7.2 170 19:20 13.12.2019
2691 Clouds 2 982 80 10000 7.7 160 18:56 13.12.2019
2692 Clouds 2 982 86 10000 6.2 160 18:38 13.12.2019
2693 Clouds 2 982 86 10000 6.2 160 18:38 13.12.2019
2694 Clouds 2 982 86 10000 6.2 160 18:18 13.12.2019
2695 Clouds 2 982 86 10000 6.2 160 18:18 13.12.2019
2696 Clouds 2 982 86 10000 6.7 150 17:41 13.12.2019
2697 Clouds 2 982 86 10000 6.7 150 17:19 13.12.2019
2698 Clouds 2 982 86 10000 6.7 150 17:19 13.12.2019
2699 Clouds 2 982 86 10000 5.7 150 16:58 13.12.2019
2700 Snow 2 982 86 5000 6.2 150 16:39 13.12.2019
2701 Snow 2 982 86 5000 6.2 150 16:39 13.12.2019
2702 Snow 1 982 86 5000 6.2 150 16:20 13.12.2019
2703 Snow 2 982 80 4800 8.7 160 15:43 13.12.2019
2704 Clouds 2 982 74 10000 7.2 170 15:23 13.12.2019
2705 Snow 2 981 74 8000 7.2 160 14:58 13.12.2019
2706 Snow 2 981 74 8000 7.2 160 14:39 13.12.2019
2707 Snow 2 981 74 10000 7.7 150 14:20 13.12.2019
2708 Snow 2 981 74 10000 7.7 150 14:20 13.12.2019
2709 Snow 2 981 74 10000 7.7 150 14:20 13.12.2019
2710 Clouds 2 981 74 10000 7.7 150 13:56 13.12.2019
2711 Clouds 3 981 74 10000 8.2 150 13:37 13.12.2019
2712 Clouds 2 981 74 10000 8.2 150 13:19 13.12.2019
2713 Clouds 2 982 74 10000 6.2 160 12:42 13.12.2019
2714 Clouds 2 982 74 10000 6.2 160 12:20 13.12.2019
2715 Clouds 2 982 74 10000 6.7 150 11:57 13.12.2019
2716 Clouds 2 983 74 10000 6.7 150 11:39 13.12.2019
2717 Clouds 2 983 74 10000 6.7 150 11:19 13.12.2019
2718 Clouds 1 983 80 10000 6.7 150 10:42 13.12.2019
2719 Clouds 1 984 80 10000 7.7 160 10:22 13.12.2019
2720 Clouds 1 984 76 10000 8.2 160 09:55 13.12.2019
2721 Clouds 1 984 76 10000 7.7 160 09:36 13.12.2019
2722 Clouds 0 984 76 10000 7.7 160 09:18 13.12.2019
2723 Clouds 0 985 76 10000 5.7 140 08:41 13.12.2019
2724 Clouds 0 985 75 10000 5.7 140 08:23 13.12.2019
2725 Clear 0 986 82 10000 5.7 150 07:44 13.12.2019
2726 Clear 0 986 82 10000 6.2 150 07:21 13.12.2019
2727 Clear 0 987 82 10000 4.6 140 06:51 13.12.2019
2728 Clear 0 987 82 10000 6.7 150 06:28 13.12.2019
2729 Clear 0 988 82 10000 6.2 150 05:45 13.12.2019
2730 Clear 0 989 82 10000 5.1 150 05:24 13.12.2019
2731 Clouds 0 991 86 10000 5.7 150 04:35 13.12.2019
2732 Clouds 0 991 86 10000 4.6 140 03:39 13.12.2019
2733 Clouds 0 993 86 10000 4.6 140 02:33 13.12.2019
2734 Clouds 0 994 89 9000 3.6 140 01:44 13.12.2019
2735 Clouds 0 996 86 10000 3.1 140 00:56 13.12.2019
2736 Clouds 1 997 86 10000 4.1 140 00:37 13.12.2019
2737 Clouds 1 997 86 10000 3.6 140 23:57 12.12.2019
2738 Clouds 1 998 86 10000 2.6 140 23:39 12.12.2019
2739 Clouds 0 998 86 10000 2.6 140 23:20 12.12.2019
2740 Clouds 0 998 86 10000 3.1 140 22:55 12.12.2019
2741 Clouds 1 999 86 10000 4.6 150 22:37 12.12.2019
2742 Clouds 1 999 86 10000 4.6 150 22:18 12.12.2019
2743 Clouds 1 999 86 10000 5.7 160 21:54 12.12.2019
2744 Clouds 1 999 86 10000 5.7 150 21:36 12.12.2019
2745 Clouds 1 999 86 10000 5.7 150 21:18 12.12.2019
2746 Clouds 1 1000 86 10000 5.7 160 20:55 12.12.2019
2747 Clouds 1 1000 86 10000 6.2 160 20:37 12.12.2019
2748 Clouds 1 1000 86 10000 6.2 160 20:19 12.12.2019
2749 Clouds 1 1001 80 10000 6.2 150 19:42 12.12.2019
2750 Clouds 1 1001 80 10000 4.6 150 19:22 12.12.2019
2751 Clouds 1 1001 80 10000 4.6 150 18:58 12.12.2019
2752 Clouds 2 1001 74 10000 4.1 150 18:40 12.12.2019
2753 Clouds 2 1001 74 10000 4.1 150 18:20 12.12.2019
2754 Clouds 2 1002 74 10000 5.1 150 17:58 12.12.2019
2755 Clouds 2 1002 74 10000 5.1 150 17:40 12.12.2019
2756 Clouds 2 1002 74 10000 5.1 150 17:21 12.12.2019
2757 Clouds 2 1002 80 10000 3.6 150 16:58 12.12.2019
2758 Clouds 2 1002 80 10000 3.6 150 16:40 12.12.2019
2759 Clouds 2 1002 80 10000 3.6 140 16:21 12.12.2019
2760 Clouds 3 1002 80 10000 2.6 150 15:57 12.12.2019
2761 Clouds 3 1002 80 10000 2.6 150 15:39 12.12.2019
2762 Clouds 3 1003 74 10000 3.6 150 15:18 12.12.2019
2763 Clouds 4 1003 86 10000 2.6 180 14:56 12.12.2019
2764 Clouds 3 1003 74 10000 3.1 180 14:36 12.12.2019
2765 Clouds 3 1003 74 10000 3.1 180 14:18 12.12.2019
2766 Clouds 3 1003 74 10000 3.6 180 13:54 12.12.2019
2767 Clouds 3 1004 74 10000 3.1 190 13:36 12.12.2019
2768 Clouds 3 1004 74 10000 3.1 190 13:18 12.12.2019
2769 Clouds 3 1004 74 10000 4.1 180 12:41 12.12.2019
2770 Clouds 3 1004 74 10000 3.6 180 12:41 12.12.2019
2771 Clouds 3 1004 74 10000 3.6 180 12:22 12.12.2019
2772 Clouds 3 1004 80 10000 3.6 190 11:59 12.12.2019
2773 Clouds 2 1004 80 10000 3.6 190 11:40 12.12.2019
2774 Clouds 2 1004 80 10000 3.6 190 11:21 12.12.2019
2775 Clouds 3 1004 80 10000 3.1 180 10:58 12.12.2019
2776 Clouds 2 1004 80 10000 3.1 180 10:40 12.12.2019
2777 Rain 2 1004 86 10000 2.6 170 10:21 12.12.2019
2778 Snow 2 1004 86 10000 3.1 190 09:56 12.12.2019
2779 Snow 2 1004 86 10000 3.6 170 09:38 12.12.2019
2780 Snow 2 1004 86 10000 3.6 170 09:19 12.12.2019
2781 Snow 1 1004 86 10000 4.1 170 08:47 12.12.2019
2782 Snow 1 1004 96 9000 4.1 170 08:28 12.12.2019
2783 Snow 1 1004 80 9000 4.1 180 07:55 12.12.2019
2784 Snow 1 1004 74 10000 4.6 190 07:36 12.12.2019
2785 Snow 1 1004 74 10000 4.6 190 07:18 12.12.2019
2786 Snow 1 1004 74 10000 4.1 180 06:41 12.12.2019
2787 Snow 1 1004 74 10000 4.1 180 06:21 12.12.2019
2788 Clouds 1 1004 69 10000 2.1 180 05:28 12.12.2019
2789 Clouds 1 1004 69 10000 4.1 170 04:47 12.12.2019
2790 Clouds 2 1004 64 10000 3.6 140 02:43 12.12.2019
2791 Clouds 2 1005 64 10000 4.6 150 02:24 12.12.2019
2792 Clouds 1 1005 64 10000 6.7 160 01:59 12.12.2019
2793 Clouds 1 1005 64 10000 6.2 160 01:36 12.12.2019
2794 Clouds 1 1005 69 10000 6.2 160 00:50 12.12.2019
2795 Clouds 1 1005 64 10000 6.7 160 00:22 12.12.2019
2796 Clouds 1 1006 64 10000 6.7 160 23:58 11.12.2019
2797 Clouds 1 1006 64 10000 6.2 160 23:38 11.12.2019
2798 Clouds 1 1006 64 10000 6.2 160 23:18 11.12.2019
2799 Clouds 1 1006 64 10000 6.2 160 22:56 11.12.2019
2800 Clouds 1 1006 64 10000 6.7 150 22:38 11.12.2019
2801 Clouds 1 1006 64 10000 6.7 150 22:19 11.12.2019
2802 Clouds 1 1006 69 10000 7.2 160 21:55 11.12.2019
2803 Clouds 1 1006 64 10000 6.2 160 21:36 11.12.2019
2804 Clouds 1 1006 64 10000 6.2 160 21:18 11.12.2019
2805 Clouds 1 1006 74 10000 6.2 160 20:55 11.12.2019
2806 Clouds 1 1007 74 10000 5.7 170 20:37 11.12.2019
2807 Clouds 1 1007 74 10000 5.7 170 20:18 11.12.2019
2808 Clouds 1 1007 74 10000 4.1 160 19:43 11.12.2019
2809 Clouds 1 1007 74 10000 5.7 150 19:23 11.12.2019
2810 Clouds 1 1008 74 10000 5.7 150 19:00 11.12.2019
2811 Clouds 1 1008 74 10000 5.7 150 18:40 11.12.2019
2812 Clouds 1 1008 74 10000 5.7 150 18:40 11.12.2019
2813 Clouds 1 1008 69 10000 6.7 150 18:21 11.12.2019
2814 Clouds 1 1009 64 10000 6.2 150 17:57 11.12.2019
2815 Clouds 1 1009 64 10000 4.6 160 17:38 11.12.2019
2816 Clouds 2 1009 64 10000 4.6 160 17:18 11.12.2019
2817 Clouds 2 1009 59 10000 5.1 160 16:56 11.12.2019
2818 Clouds 2 1009 59 10000 5.1 160 16:56 11.12.2019
2819 Clouds 2 1009 51 10000 4.1 150 16:38 11.12.2019
2820 Clouds 2 1009 51 10000 4.1 150 16:19 11.12.2019
2821 Clouds 3 1009 55 10000 4.6 150 15:57 11.12.2019
2822 Clouds 3 1009 55 10000 4.6 150 15:38 11.12.2019
2823 Clouds 3 1009 55 10000 4.6 150 15:20 11.12.2019
2824 Clouds 4 1010 51 10000 6.2 150 14:55 11.12.2019
2825 Clouds 4 1010 51 10000 7.2 150 14:37 11.12.2019
2826 Clouds 4 1010 51 10000 7.2 150 14:19 11.12.2019
2827 Clouds 4 1010 51 10000 6.2 150 13:54 11.12.2019
2828 Clouds 4 1011 51 10000 5.1 150 13:36 11.12.2019
2829 Clouds 4 1011 51 10000 5.1 150 13:18 11.12.2019
2830 Clouds 4 1012 55 10000 6.2 150 12:54 11.12.2019
2831 Clouds 4 1012 51 10000 4.1 140 12:36 11.12.2019
2832 Clouds 4 1012 51 10000 4.1 140 12:18 11.12.2019
2833 Clouds 4 1013 51 10000 3.6 150 11:55 11.12.2019
2834 Clouds 3 1014 51 10000 5.1 150 11:37 11.12.2019
2835 Clouds 3 1014 51 10000 5.1 150 11:18 11.12.2019
2836 Clouds 3 1014 51 10000 5.7 150 10:44 11.12.2019
2837 Clouds 3 1015 55 10000 4.6 150 10:25 11.12.2019
2838 Clouds 2 1015 59 10000 3.6 150 09:58 11.12.2019
2839 Clouds 1 1015 59 10000 3.1 150 09:38 11.12.2019
2840 Clouds 1 1015 59 10000 3.1 150 09:20 11.12.2019
2841 Clouds 0 1015 59 10000 3.6 150 08:57 11.12.2019
2842 Clouds 0 1014 69 10000 6.2 160 08:37 11.12.2019
2843 Clouds 0 1014 69 10000 6.2 160 08:18 11.12.2019
2844 Clear 0 1014 69 10000 6.2 160 07:45 11.12.2019
2845 Clear -1 1015 69 10000 4.6 150 07:25 11.12.2019
2846 Clear -1 1015 69 10000 4.6 140 06:57 11.12.2019
2847 Clear -1 1015 69 10000 3.6 150 06:37 11.12.2019
2848 Clear -1 1015 69 10000 3.6 150 06:18 11.12.2019
2849 Clear -1 1016 67 10000 1.5 120 05:37 11.12.2019
2850 Clear -1 1017 80 10000 1.5 120 04:57 11.12.2019
2851 Clear -1 1018 73 10000 3.6 150 03:50 11.12.2019
2852 Clear -1 1019 73 10000 3.6 160 02:49 11.12.2019
2853 Clear -1 1021 80 10000 4.1 160 01:23 11.12.2019
2854 Clear -1 1021 78 10000 4.1 160 00:46 11.12.2019
2855 Clear -1 1022 78 10000 4.1 170 00:21 11.12.2019
2856 Clear -1 1022 86 10000 3.6 180 23:47 10.12.2019
2857 Clear -1 1023 78 10000 3.6 170 23:28 10.12.2019
2858 Clear -1 1023 76 10000 4.1 190 22:58 10.12.2019
2859 Clear -1 1023 76 10000 4.1 190 22:40 10.12.2019
2860 Clear -1 1023 76 10000 4.1 190 22:40 10.12.2019
2861 Clear -1 1023 76 10000 4.1 180 22:22 10.12.2019
2862 Clear -1 1023 76 10000 4.1 190 21:56 10.12.2019
2863 Clear 0 1024 76 10000 4.1 200 21:38 10.12.2019
2864 Clear 0 1024 76 10000 4.1 200 21:19 10.12.2019
2865 Clear 0 1024 86 10000 3.6 210 20:57 10.12.2019
2866 Clear 0 1024 86 10000 3.6 210 20:37 10.12.2019
2867 Clear 0 1024 86 10000 3.6 210 20:37 10.12.2019
2868 Clear 0 1024 86 10000 3.6 210 20:19 10.12.2019
2869 Clear 0 1024 86 10000 3.1 210 19:55 10.12.2019
2870 Clouds 0 1024 86 10000 3.6 210 19:37 10.12.2019
2871 Clouds 1 1024 86 10000 3.6 210 19:18 10.12.2019
2872 Clouds 1 1024 86 10000 2.1 230 18:40 10.12.2019
2873 Clouds 1 1024 86 10000 2.6 220 18:20 10.12.2019
2874 Clouds 2 1024 86 10000 1 220 17:58 10.12.2019
2875 Clouds 1 1024 86 10000 1 220 17:40 10.12.2019
2876 Clouds 2 1024 80 10000 1 0 17:20 10.12.2019
2877 Clouds 2 1024 80 10000 3.1 260 16:54 10.12.2019
2878 Clouds 3 1024 80 10000 2.6 280 16:36 10.12.2019
2879 Clouds 3 1024 80 10000 2.6 280 16:18 10.12.2019
2880 Clouds 4 1024 80 10000 4.1 260 15:38 10.12.2019
2881 Clouds 4 1024 80 10000 4.1 260 15:18 10.12.2019
2882 Clouds 4 1024 80 10000 4.6 280 14:56 10.12.2019
2883 Clouds 5 1024 75 10000 4.1 290 14:37 10.12.2019
2884 Clouds 4 1024 75 10000 4.1 290 14:19 10.12.2019
2885 Clouds 5 1023 80 10000 4.6 290 13:57 10.12.2019
2886 Clouds 5 1023 80 10000 4.6 290 13:57 10.12.2019
2887 Clouds 5 1023 75 10000 3.1 270 13:38 10.12.2019
2888 Clouds 5 1023 75 10000 3.1 270 13:19 10.12.2019
2889 Clouds 5 1023 75 10000 3.6 290 12:47 10.12.2019
2890 Clouds 4 1023 80 10000 4.1 290 12:28 10.12.2019
2891 Clouds 4 1023 80 10000 4.6 290 11:56 10.12.2019
2892 Clouds 4 1023 86 10000 5.7 290 11:38 10.12.2019
2893 Clouds 4 1023 86 10000 5.7 290 11:19 10.12.2019
2894 Clouds 4 1023 86 10000 5.7 290 11:19 10.12.2019
2895 Clouds 3 1023 86 10000 5.1 290 10:43 10.12.2019
2896 Clouds 3 1022 87 10000 5.7 300 10:24 10.12.2019
2897 Clouds 3 1021 87 10000 4.6 290 09:57 10.12.2019
2898 Clouds 3 1021 87 10000 4.6 290 09:57 10.12.2019
2899 Clouds 3 1021 87 10000 4.6 290 09:57 10.12.2019
2900 Clouds 3 1021 87 10000 4.6 290 09:39 10.12.2019
2901 Clouds 3 1021 87 10000 4.1 290 09:20 10.12.2019
2902 Clouds 3 1020 87 10000 4.6 290 08:58 10.12.2019
2903 Clouds 3 1020 87 10000 4.6 290 08:39 10.12.2019
2904 Clouds 2 1020 88 10000 5.1 290 08:20 10.12.2019
2905 Clouds 3 1019 88 10000 5.7 300 07:45 10.12.2019
2906 Clouds 3 1018 88 10000 6.2 300 07:27 10.12.2019
2907 Clouds 3 1018 88 10000 6.2 300 06:56 10.12.2019
2908 Clouds 3 1017 88 10000 6.2 300 06:38 10.12.2019
2909 Clouds 3 1017 88 10000 6.2 300 06:19 10.12.2019
2910 Clouds 3 1017 86 10000 6.2 300 05:51 10.12.2019
2911 Clouds 4 1015 80 10000 6.2 290 04:23 10.12.2019
2912 Clouds 4 1014 86 10000 5.1 290 03:27 10.12.2019
2913 Clouds 4 1012 93 10000 5.1 290 02:36 10.12.2019
2914 Clouds 4 1011 93 10000 6.2 310 01:40 10.12.2019
2915 Clouds 4 1011 93 10000 6.2 310 01:19 10.12.2019
2916 Rain 5 1009 86 10000 3.6 290 00:31 10.12.2019
2917 Rain 5 1008 81 10000 3.6 280 23:59 09.12.2019
2918 Rain 5 1007 81 10000 4.1 280 23:39 09.12.2019
2919 Clouds 5 1007 81 10000 4.1 280 23:21 09.12.2019
2920 Clouds 6 1007 81 10000 5.1 290 22:57 09.12.2019
2921 Clouds 6 1006 81 10000 5.1 280 22:39 09.12.2019
2922 Clouds 6 1006 81 10000 5.1 280 22:18 09.12.2019
2923 Clouds 6 1006 87 10000 5.1 270 21:56 09.12.2019
2924 Clouds 6 1005 81 10000 5.1 270 21:38 09.12.2019
2925 Clouds 6 1005 81 10000 5.1 270 21:18 09.12.2019
2926 Clouds 6 1004 81 10000 5.1 260 20:56 09.12.2019
2927 Rain 6 1004 81 10000 6.7 260 20:38 09.12.2019
2928 Rain 6 1004 81 10000 6.7 260 20:19 09.12.2019
2929 Clouds 6 1003 65 10000 5.1 230 19:55 09.12.2019
2930 Clouds 6 1003 70 10000 5.1 230 19:37 09.12.2019
2931 Clouds 6 1003 70 10000 5.1 230 19:19 09.12.2019
2932 Clouds 6 1002 65 10000 5.1 230 18:56 09.12.2019
2933 Clouds 7 1002 70 10000 4.6 190 18:37 09.12.2019
2934 Clouds 7 1002 70 10000 4.6 190 18:19 09.12.2019
2935 Clouds 6 1002 75 10000 4.1 180 17:57 09.12.2019
2936 Clouds 7 1002 75 10000 3.1 190 17:38 09.12.2019
2937 Clouds 7 1002 75 10000 3.1 190 17:20 09.12.2019
2938 Clouds 7 1001 70 10000 3.6 170 16:56 09.12.2019
2939 Clouds 7 1001 65 10000 4.1 190 16:37 09.12.2019
2940 Clouds 7 1001 65 10000 4.1 190 16:18 09.12.2019
2941 Clouds 8 1001 65 10000 5.7 200 15:55 09.12.2019
2942 Clouds 8 1001 61 10000 6.2 210 15:37 09.12.2019
2943 Clouds 8 1001 61 10000 6.7 220 15:19 09.12.2019
2944 Clouds 8 1001 61 10000 6.7 220 14:42 09.12.2019
2945 Clouds 8 1001 57 10000 5.1 220 14:19 09.12.2019
2946 Clouds 8 1001 61 10000 8.2 220 13:58 09.12.2019
2947 Clouds 9 1001 61 10000 8.2 220 13:38 09.12.2019
2948 Rain 9 1001 61 10000 6.7 220 13:19 09.12.2019
2949 Rain 9 1001 61 10000 6.7 220 12:57 09.12.2019
2950 Rain 9 1001 65 10000 6.7 230 12:38 09.12.2019
2951 -273 0 0 0 0 0 12:20 09.12.2019
2952 Clouds 8 1001 65 10000 5.1 240 11:58 09.12.2019
2953 Clouds 8 1001 65 10000 5.1 240 11:39 09.12.2019
2954 Clouds 8 1002 65 10000 6.7 220 11:21 09.12.2019
2955 Clouds 8 1002 65 10000 7.2 220 10:55 09.12.2019
2956 Clouds 8 1001 70 10000 6.2 220 10:37 09.12.2019
2957 Clouds 7 1001 70 10000 6.2 220 10:18 09.12.2019
2958 Clouds 7 1001 70 10000 3.6 210 09:41 09.12.2019
2959 Clouds 7 1001 75 10000 6.7 200 09:22 09.12.2019
2960 Clouds 6 1001 75 10000 6.2 190 08:55 09.12.2019
2961 Clouds 6 1001 81 10000 6.7 190 08:37 09.12.2019
2962 Clouds 6 1001 81 10000 6.7 190 08:19 09.12.2019
2963 Clouds 6 1001 81 10000 4.6 220 07:42 09.12.2019
2964 Clouds 6 1000 75 10000 2.6 240 07:24 09.12.2019
2965 Clouds 6 1001 81 10000 2.6 240 06:54 09.12.2019
2966 Clouds 6 1001 87 10000 3.1 240 06:27 09.12.2019
2967 Rain 6 1001 93 10000 5.1 290 05:30 09.12.2019
2968 Clouds 7 1001 81 10000 5.7 220 04:51 09.12.2019
2969 Clouds 7 1001 81 10000 5.7 220 04:23 09.12.2019
2970 Rain 7 1001 75 10000 5.1 230 02:27 09.12.2019
2971 Clouds 7 1000 81 10000 6.2 210 01:45 09.12.2019
2972 Rain 8 1000 70 10000 3.1 220 00:55 09.12.2019
2973 Rain 8 1000 76 10000 3.6 210 00:32 09.12.2019
2974 Rain 8 1000 76 10000 4.1 250 23:54 08.12.2019
2975 Rain 8 1000 87 10000 4.1 240 23:36 08.12.2019
2976 Rain 8 1000 87 10000 4.1 240 23:18 08.12.2019
2977 Rain 9 1000 76 10000 6.2 250 22:56 08.12.2019
2978 Clouds 9 1000 71 10000 5.1 240 22:37 08.12.2019
2979 Clouds 9 1000 71 10000 5.1 240 22:18 08.12.2019
2980 Clouds 9 1000 71 10000 6.2 220 21:55 08.12.2019
2981 Clouds 10 1001 71 10000 7.2 210 21:36 08.12.2019
2982 Clouds 10 1001 71 10000 7.2 210 21:18 08.12.2019
2983 Clouds 9 1001 71 10000 6.2 220 20:54 08.12.2019
2984 Clouds 9 1001 71 10000 7.7 220 20:36 08.12.2019
2985 Clouds 10 1001 71 10000 7.7 220 20:18 08.12.2019
2986 Clouds 10 1001 66 10000 7.7 220 19:54 08.12.2019
2987 Rain 10 1001 71 10000 8.2 220 19:36 08.12.2019
2988 Rain 9 1001 71 10000 8.2 220 19:18 08.12.2019
2989 Rain 9 1001 66 10000 9.3 220 18:54 08.12.2019
2990 Clouds 9 1002 71 10000 8.7 220 18:36 08.12.2019
2991 Clouds 9 1002 71 10000 8.7 220 18:18 08.12.2019
2992 Clouds 9 1002 71 10000 7.2 220 17:54 08.12.2019
2993 Clouds 9 1002 71 10000 8.2 230 17:36 08.12.2019
2994 Clouds 9 1002 71 10000 8.2 230 17:18 08.12.2019
2995 Clouds 9 1003 76 10000 6.7 220 16:42 08.12.2019
2996 Clouds 9 1003 76 10000 6.7 220 16:24 08.12.2019
2997 Rain 9 1003 76 10000 5.7 220 15:59 08.12.2019
2998 Rain 9 1003 66 10000 4.6 230 15:37 08.12.2019
2999 Rain 9 1003 66 10000 4.6 230 15:18 08.12.2019
3000 Clouds 9 1003 61 10000 2.6 220 14:57 08.12.2019
3001 Clouds 9 1003 61 10000 2.6 220 14:57 08.12.2019
3002 Clouds 9 1003 61 10000 6.2 180 14:37 08.12.2019
3003 Clouds 9 1003 61 10000 6.2 180 14:19 08.12.2019
3004 Clouds 9 1003 61 10000 6.2 180 14:19 08.12.2019
3005 Clouds 9 1003 61 10000 6.2 200 13:41 08.12.2019
3006 Clouds 9 1003 61 10000 6.2 200 13:41 08.12.2019
3007 Clouds 9 1004 61 10000 7.2 210 13:22 08.12.2019
3008 Clouds 10 1005 61 10000 7.7 220 12:59 08.12.2019
3009 Clouds 9 1005 61 10000 7.7 220 12:41 08.12.2019
3010 Clouds 9 1005 61 10000 7.2 220 12:22 08.12.2019
3011 Clouds 9 1006 66 10000 7.7 210 11:59 08.12.2019
3012 Clouds 9 1006 66 10000 6.2 210 11:38 08.12.2019
3013 Clouds 9 1006 66 10000 6.2 210 11:19 08.12.2019
3014 Clouds 9 1007 66 10000 5.1 220 10:57 08.12.2019
3015 Clouds 8 1007 66 10000 6.2 230 10:38 08.12.2019
3016 Clouds 8 1007 66 10000 6.2 230 10:38 08.12.2019
3017 Clouds 8 1007 66 10000 6.2 230 10:19 08.12.2019
3018 Clouds 8 1008 65 10000 6.2 220 09:55 08.12.2019
3019 Clouds 8 1008 70 10000 6.2 220 09:37 08.12.2019
3020 Clouds 7 1008 70 10000 6.2 220 09:19 08.12.2019
3021 Clouds 7 1008 70 10000 6.2 220 09:19 08.12.2019
3022 Clouds 7 1008 70 10000 5.1 230 08:57 08.12.2019
3023 Clouds 7 1009 65 10000 6.2 230 08:36 08.12.2019
3024 Clouds 7 1009 65 10000 6.2 230 08:18 08.12.2019
3025 Clouds 7 1010 65 10000 5.1 220 07:41 08.12.2019
3026 Clouds 7 1010 65 10000 5.1 220 07:19 08.12.2019
3027 Clouds 7 1010 70 10000 5.7 220 06:43 08.12.2019
3028 Clouds 7 1010 70 10000 5.1 230 06:21 08.12.2019
3029 Clouds 7 1011 70 10000 5.7 220 05:35 08.12.2019
3030 Clouds 7 1011 75 10000 5.7 220 04:59 08.12.2019
3031 Clouds 7 1012 75 10000 4.6 230 03:47 08.12.2019
3032 Clouds 7 1013 75 10000 4.1 230 03:20 08.12.2019
3033 Clouds 7 1013 70 10000 3.6 230 02:34 08.12.2019
3034 Clouds 7 1013 70 10000 3.6 230 01:54 08.12.2019
3035 Clouds 7 1014 70 10000 4.1 240 01:19 08.12.2019
3036 Clouds 7 1013 70 10000 4.6 240 00:40 08.12.2019
3037 Clouds 7 1014 75 10000 4.6 240 00:20 08.12.2019
3038 Clouds 7 1014 75 10000 4.6 250 23:41 07.12.2019
3039 Clouds 7 1014 75 10000 5.1 250 23:21 07.12.2019
3040 Clouds 7 1013 75 10000 5.1 250 22:57 07.12.2019
3041 Clouds 7 1013 75 10000 5.1 250 22:39 07.12.2019
3042 Clouds 7 1013 75 10000 5.1 250 22:21 07.12.2019
3043 Clouds 7 1014 81 10000 4.6 260 21:56 07.12.2019
3044 Clouds 7 1014 75 10000 5.7 270 21:38 07.12.2019
3045 Clouds 7 1014 75 10000 5.7 270 21:19 07.12.2019
3046 Rain 7 1013 75 10000 5.1 260 20:59 07.12.2019
3047 Clouds 7 1013 75 10000 5.7 260 20:37 07.12.2019
3048 Clouds 7 1013 75 10000 5.7 260 20:18 07.12.2019
3049 Clouds 7 1013 75 10000 6.2 260 19:56 07.12.2019
3050 Clouds 7 1012 75 10000 5.1 250 19:38 07.12.2019
3051 Clouds 7 1012 75 10000 5.1 250 19:20 07.12.2019
3052 Clouds 7 1012 75 10000 5.1 260 18:44 07.12.2019
3053 Rain 7 1012 75 10000 5.1 250 18:20 07.12.2019
3054 Clouds 7 1012 75 10000 5.1 250 17:58 07.12.2019
3055 Clouds 7 1012 75 10000 5.1 250 17:40 07.12.2019
3056 Rain 8 1012 75 10000 5.1 250 17:22 07.12.2019
3057 Rain 8 1011 75 10000 5.7 250 16:57 07.12.2019
3058 Rain 8 1011 75 10000 5.7 250 16:39 07.12.2019
3059 Rain 8 1011 70 10000 6.2 260 16:20 07.12.2019
3060 Clouds 8 1011 70 10000 6.7 260 15:57 07.12.2019
3061 Clouds 8 1011 70 10000 6.7 260 15:38 07.12.2019
3062 Clouds 8 1010 70 10000 6.2 260 15:20 07.12.2019
3063 Clouds 9 1010 70 10000 6.2 260 14:42 07.12.2019
3064 Clouds 9 1010 70 10000 6.7 270 14:19 07.12.2019
3065 Clouds 9 1010 70 10000 5.7 260 13:58 07.12.2019
3066 Clouds 9 1010 70 10000 5.7 260 13:58 07.12.2019
3067 Clouds 9 1010 70 10000 6.2 250 13:39 07.12.2019
3068 Clouds 9 1010 70 10000 6.2 250 13:19 07.12.2019
3069 Clouds 9 1010 70 10000 6.2 260 12:41 07.12.2019
3070 Clouds 9 1009 76 10000 6.2 260 12:23 07.12.2019
3071 Rain 9 1009 70 10000 7.2 260 11:59 07.12.2019
3072 Rain 9 1009 70 10000 7.2 260 11:41 07.12.2019
3073 Rain 9 1009 70 10000 7.7 260 11:22 07.12.2019
3074 Clouds 8 1009 70 10000 7.2 260 10:54 07.12.2019
3075 Clouds 8 1008 70 10000 6.7 250 10:36 07.12.2019
3076 Clouds 9 1008 70 10000 6.7 250 10:18 07.12.2019
3077 Clouds 8 1008 75 10000 8.2 260 09:39 07.12.2019
3078 Clouds 8 1008 75 10000 8.2 260 09:20 07.12.2019
3079 Clouds 8 1007 75 10000 7.2 260 08:45 07.12.2019
3080 Rain 8 1007 75 10000 8.7 260 08:24 07.12.2019
3081 Rain 8 1007 75 10000 8.7 260 08:24 07.12.2019
3082 Clouds 8 1007 75 10000 8.7 240 07:49 07.12.2019
3083 Clouds 7 1006 75 10000 9.3 240 07:28 07.12.2019
3084 Clouds 7 1006 75 10000 7.7 240 06:52 07.12.2019
3085 Clouds 6 1006 75 10000 10.3 230 06:26 07.12.2019
3086 Clouds 6 1006 75 10000 9.8 240 05:47 07.12.2019
3087 Clouds 5 1006 81 10000 7.7 240 04:44 07.12.2019
3088 Rain 4 1006 81 10000 7.2 240 03:50 07.12.2019
3089 Rain 4 1006 81 10000 6.2 240 02:23 07.12.2019
3090 Rain 4 1006 81 10000 6.2 240 02:23 07.12.2019
3091 Rain 4 1006 81 10000 5.7 210 01:42 07.12.2019
3092 Rain 4 1007 81 10000 5.7 220 01:24 07.12.2019
3093 Rain 4 1007 75 10000 6.2 200 00:36 07.12.2019
3094 Rain 4 1007 75 10000 6.2 200 00:18 07.12.2019
3095 Rain 4 1007 75 10000 6.2 200 00:18 07.12.2019
3096 Rain 4 1008 75 10000 7.7 200 23:42 06.12.2019
3097 Rain 5 1008 70 10000 5.7 190 23:20 06.12.2019
3098 Rain 5 1008 73 10000 4.1 180 22:57 06.12.2019
3099 Rain 5 1009 73 10000 4.6 190 22:36 06.12.2019
3100 Rain 5 1009 73 10000 4.6 190 22:18 06.12.2019
3101 Rain 5 1009 65 10000 5.1 190 21:41 06.12.2019
3102 Clouds 4 1009 65 10000 5.7 190 21:21 06.12.2019
3103 Clouds 4 1009 65 10000 5.7 190 21:21 06.12.2019
3104 Rain 4 1010 64 10000 5.1 180 20:59 06.12.2019
3105 Rain 4 1010 64 10000 5.1 180 20:41 06.12.2019
3106 Rain 4 1010 64 10000 5.1 180 20:41 06.12.2019
3107 Clouds 4 1010 64 10000 4.6 180 20:20 06.12.2019
3108 Clouds 4 1010 64 10000 2.6 160 19:54 06.12.2019
3109 Clouds 4 1011 64 10000 3.6 170 19:36 06.12.2019
3110 Clouds 4 1011 64 10000 3.6 170 19:18 06.12.2019
3111 Clouds 3 1011 64 10000 5.1 180 18:44 06.12.2019
3112 Clouds 3 1010 60 10000 5.1 180 18:22 06.12.2019
3113 Clouds 3 1011 60 10000 5.1 180 17:58 06.12.2019
3114 Clouds 3 1011 60 10000 5.1 180 17:40 06.12.2019
3115 Clouds 3 1011 60 10000 5.1 180 17:40 06.12.2019
3116 Clouds 3 1011 64 10000 5.7 190 17:22 06.12.2019
3117 Clouds 3 1011 60 10000 6.2 180 16:58 06.12.2019
3118 Clouds 3 1011 60 10000 6.2 180 16:40 06.12.2019
3119 Clouds 3 1011 60 10000 4.1 190 16:21 06.12.2019
3120 Clouds 4 1012 56 10000 3.1 170 15:42 06.12.2019
3121 Clouds 4 1012 52 10000 4.1 180 15:24 06.12.2019
3122 Clouds 5 1012 52 10000 4.1 170 14:59 06.12.2019
3123 Clouds 5 1012 52 10000 4.1 170 14:41 06.12.2019
3124 Clouds 6 1012 48 10000 4.1 190 14:20 06.12.2019
3125 Clouds 6 1013 48 10000 2.1 140 13:58 06.12.2019
3126 Clouds 6 1013 48 10000 2.1 140 13:40 06.12.2019
3127 Clouds 5 1013 52 10000 3.6 170 13:21 06.12.2019
3128 Clouds 5 1013 52 10000 3.6 190 12:39 06.12.2019
3129 Clouds 6 1013 52 10000 3.6 190 12:21 06.12.2019
3130 Clouds 5 1014 52 10000 4.6 160 11:43 06.12.2019
3131 Clouds 5 1015 55 10000 5.7 170 11:23 06.12.2019
3132 Clear 4 1015 59 10000 6.7 160 10:58 06.12.2019
3133 Clear 4 1015 59 10000 6.7 160 10:40 06.12.2019
3134 Clear 4 1015 64 10000 5.1 160 10:20 06.12.2019
3135 Clear 3 1015 69 10000 2.1 160 09:56 06.12.2019
3136 Clear 2 1014 39 10000 2.1 160 09:37 06.12.2019
3137 Clear 2 1014 39 10000 2.1 160 09:19 06.12.2019
3138 Clear 1 1015 68 10000 4.6 150 08:44 06.12.2019
3139 Clear 1 1015 68 10000 4.6 150 08:44 06.12.2019
3140 Clear 2 1014 74 10000 4.1 150 08:25 06.12.2019
3141 Clear 2 1014 68 10000 2.1 170 07:44 06.12.2019
3142 Clear 1 1014 68 10000 3.6 140 07:23 06.12.2019
3143 Clear 1 1014 68 10000 3.6 140 07:23 06.12.2019
3144 Clear 1 1014 68 10000 3.6 140 07:23 06.12.2019
3145 Clear 1 1014 68 10000 3.6 140 07:23 06.12.2019
3146 Clear 1 1014 68 10000 3.6 140 07:23 06.12.2019
3147 Clear 1 1014 68 10000 2.1 140 06:55 06.12.2019
3148 Clear 2 1014 37 10000 4.1 150 06:26 06.12.2019
3149 Clear 1 1015 68 10000 2.1 130 05:52 06.12.2019
3150 Clear -1 1016 80 10000 4.1 160 03:57 06.12.2019
3151 Clear -1 1017 80 10000 5.7 150 01:48 06.12.2019
3152 Clear -1 1018 80 10000 4.6 160 00:57 06.12.2019
3153 Clear -1 1018 80 10000 5.7 160 00:37 06.12.2019
3154 Clear -1 1018 80 10000 5.7 160 00:19 06.12.2019
3155 Clear -1 1018 80 10000 6.7 160 23:37 05.12.2019
3156 Clear -1 1018 80 10000 6.7 160 23:18 05.12.2019
3157 Clear -1 1018 80 10000 6.2 160 22:55 05.12.2019
3158 Clear -1 1019 80 10000 5.7 160 22:36 05.12.2019
3159 Clear -1 1019 80 10000 5.7 160 22:18 05.12.2019
3160 Clear -1 1019 80 10000 5.7 160 21:42 05.12.2019
3161 Clear -1 1019 80 10000 5.7 160 21:23 05.12.2019
3162 Clear -1 1019 80 10000 5.1 160 20:58 05.12.2019
3163 Clear -1 1019 80 10000 5.1 160 20:40 05.12.2019
3164 Clear -1 1019 80 10000 5.7 160 20:20 05.12.2019
3165 Clear -1 1020 80 10000 4.6 160 19:55 05.12.2019
3166 Clear -1 1020 80 10000 4.6 160 19:36 05.12.2019
3167 Clear -1 1019 80 10000 5.7 160 19:18 05.12.2019
3168 Clear -1 1019 80 10000 6.2 160 18:39 05.12.2019
3169 Clear -1 1019 80 10000 6.2 160 18:39 05.12.2019
3170 Clear -1 1020 80 10000 6.2 160 18:21 05.12.2019
3171 Clear -1 1020 80 10000 6.2 160 18:21 05.12.2019
3172 Clear -1 1020 80 10000 6.2 160 17:59 05.12.2019
3173 Clear -1 1020 80 10000 6.2 160 17:39 05.12.2019
3174 Clear 0 1020 80 9000 5.7 160 17:19 05.12.2019
3175 Clear 0 1020 80 9000 5.7 160 16:57 05.12.2019
3176 Clear 0 1020 72 10000 5.7 160 16:38 05.12.2019
3177 Clear 0 1020 72 10000 5.7 160 16:20 05.12.2019
3178 Clear 1 1020 72 10000 5.7 160 15:56 05.12.2019
3179 Clear 1 1020 74 10000 6.2 150 15:37 05.12.2019
3180 Clear 1 1020 74 10000 4.6 150 15:19 05.12.2019
3181 Clear 2 1020 74 10000 4.6 150 14:55 05.12.2019
3182 Clear 2 1020 69 10000 4.6 160 14:36 05.12.2019
3183 Clear 2 1021 69 10000 4.1 160 14:18 05.12.2019
3184 Clear 3 1021 69 10000 4.1 160 13:56 05.12.2019
3185 Clear 3 1020 69 10000 5.1 160 13:37 05.12.2019
3186 Clear 3 1020 64 10000 4.1 160 13:18 05.12.2019
3187 Clear 4 1020 69 10000 7.7 160 12:43 05.12.2019
3188 Clear 3 1020 69 10000 7.7 160 12:24 05.12.2019
3189 Clear 3 1021 69 10000 8.7 160 11:59 05.12.2019
3190 Clear 2 1021 69 10000 8.2 160 11:38 05.12.2019
3191 Clear 2 1021 69 10000 6.7 150 11:20 05.12.2019
3192 Clear 2 1021 69 10000 6.7 150 11:20 05.12.2019
3193 Clear 1 1021 69 10000 7.2 160 10:57 05.12.2019
3194 Clear 1 1021 69 10000 7.2 160 10:38 05.12.2019
3195 Clear 1 1021 69 10000 7.7 160 10:18 05.12.2019
3196 Clear 0 1021 69 10000 7.7 160 09:54 05.12.2019
3197 Clear -1 1021 65 10000 7.7 160 09:36 05.12.2019
3198 Clear -1 1021 65 10000 7.2 160 09:18 05.12.2019
3199 Clear -1 1021 80 10000 5.7 160 08:39 05.12.2019
3200 Clear -1 1021 80 10000 6.7 160 08:20 05.12.2019
3201 Clear -1 1021 80 10000 6.7 160 07:56 05.12.2019
3202 Clear -1 1021 80 10000 6.7 160 07:36 05.12.2019
3203 Clear -1 1021 80 10000 6.2 160 07:18 05.12.2019
3204 Clear -2 1021 80 10000 6.2 150 06:42 05.12.2019
3205 Clear -2 1021 80 10000 6.2 160 06:21 05.12.2019
3206 Clear -1 1021 80 10000 6.2 160 05:48 05.12.2019
3207 Clear -1 1021 74 10000 6.2 160 05:23 05.12.2019
3208 Clear -1 1020 73 10000 6.2 150 04:25 05.12.2019
3209 Clear -1 1020 73 10000 6.2 150 04:25 05.12.2019
3210 Clear -1 1021 73 10000 6.7 150 02:54 05.12.2019
3211 Clear -1 1021 69 10000 6.2 160 02:25 05.12.2019
3212 Clear 0 1021 69 10000 5.7 150 01:59 05.12.2019
3213 Clear 0 1021 69 10000 5.1 150 01:40 05.12.2019
3214 Clear 0 1021 69 10000 4.6 150 01:20 05.12.2019
3215 Clear 0 1021 74 10000 5.7 150 00:37 05.12.2019
3216 Clear 0 1022 74 10000 5.7 140 00:18 05.12.2019
3217 Clear 0 1022 74 10000 5.1 150 23:42 04.12.2019
3218 Clear 0 1022 69 10000 4.6 150 23:22 04.12.2019
3219 Clear 1 1022 69 10000 4.6 150 22:57 04.12.2019
3220 Clear 1 1022 69 10000 4.6 150 22:36 04.12.2019
3221 Clear 1 1022 69 10000 5.1 150 22:18 04.12.2019
3222 Clear 1 1022 69 10000 5.1 150 21:55 04.12.2019
3223 Clear 1 1022 69 10000 5.1 150 21:37 04.12.2019
3224 Clear 1 1022 69 10000 5.7 150 21:18 04.12.2019
3225 Clear 1 1022 69 10000 5.7 150 20:56 04.12.2019
3226 Clear 1 1022 69 10000 5.7 150 20:38 04.12.2019
3227 Clear 2 1023 74 10000 4.6 150 20:19 04.12.2019
3228 Clear 2 1023 74 10000 5.1 150 19:41 04.12.2019
3229 Clear 2 1023 74 10000 4.6 160 19:22 04.12.2019
3230 Clear 2 1023 74 10000 4.6 160 18:59 04.12.2019
3231 Clear 2 1022 74 10000 5.7 160 18:41 04.12.2019
3232 Clear 2 1023 74 10000 5.7 160 18:22 04.12.2019
3233 Clear 2 1023 74 10000 5.7 160 17:58 04.12.2019
3234 Clear 2 1023 74 10000 5.7 160 17:58 04.12.2019
3235 Clear 2 1023 74 10000 5.7 160 17:39 04.12.2019
3236 Clear 3 1023 64 10000 3.1 150 17:19 04.12.2019
3237 Clear 3 1023 64 10000 3.1 150 17:19 04.12.2019
3238 Clear 3 1023 69 10000 4.6 160 16:54 04.12.2019
3239 Clear 3 1023 69 10000 4.6 160 16:36 04.12.2019
3240 Clear 4 1023 65 10000 4.6 160 16:18 04.12.2019
3241 Clouds 4 1023 65 10000 4.6 150 15:54 04.12.2019
3242 Clouds 5 1023 65 10000 4.6 150 15:36 04.12.2019
3243 Clouds 6 1023 60 10000 4.1 150 15:18 04.12.2019
3244 Clouds 7 1023 56 10000 4.1 160 14:41 04.12.2019
3245 Clouds 7 1023 67 10000 3.6 180 14:23 04.12.2019
3246 Clouds 7 1023 67 10000 3.6 180 13:56 04.12.2019
3247 Clouds 7 1023 67 10000 2.6 160 13:37 04.12.2019
3248 Clouds 6 1024 68 10000 2.6 160 13:18 04.12.2019
3249 Clouds 6 1024 68 10000 2.1 180 12:43 04.12.2019
3250 Clouds 6 1024 68 10000 2.1 180 12:24 04.12.2019
3251 Clear 5 1025 75 10000 2.1 200 11:45 04.12.2019
3252 Clear 4 1025 77 10000 2.1 200 11:27 04.12.2019
3253 Clear 4 1025 77 10000 2.1 200 11:00 04.12.2019
3254 Clear 3 1025 77 10000 1 0 10:41 04.12.2019
3255 Clear 3 1025 77 10000 2.1 180 10:22 04.12.2019
3256 Clear 2 1025 77 10000 2.1 180 09:54 04.12.2019
3257 Clear 2 1025 77 10000 2.1 190 09:36 04.12.2019
3258 Clear 2 1025 77 10000 2.1 210 09:18 04.12.2019
3259 Clear 1 1025 86 10000 2.6 190 08:39 04.12.2019
3260 Clear 0 1025 86 10000 4.1 180 08:19 04.12.2019
3261 Clear 0 1024 86 10000 3.1 180 07:47 04.12.2019
3262 Clear 0 1024 86 10000 3.1 180 07:29 04.12.2019
3263 Clear 1 1024 80 10000 2.6 210 06:34 04.12.2019
3264 Clouds 1 1024 84 10000 2.1 220 05:48 04.12.2019
3265 Clouds 1 1024 88 10000 3.1 220 04:58 04.12.2019
3266 Clouds 2 1025 88 10000 3.6 220 03:54 04.12.2019
3267 Clouds 2 1025 88 10000 4.1 220 02:38 04.12.2019
3268 Clouds 3 1026 80 10000 3.1 230 00:51 04.12.2019
3269 Clouds 3 1026 80 10000 3.1 230 00:25 04.12.2019
3270 Clouds 3 1026 80 10000 2.6 240 23:58 03.12.2019
3271 Clouds 3 1026 86 10000 3.6 250 23:40 03.12.2019
3272 Clouds 3 1026 86 10000 3.6 250 23:19 03.12.2019
3273 Clouds 3 1026 86 10000 3.6 240 22:40 03.12.2019
3274 Clouds 3 1026 86 10000 3.1 250 22:19 03.12.2019
3275 Clouds 3 1026 86 10000 3.1 250 21:58 03.12.2019
3276 Clouds 3 1026 86 10000 3.6 250 21:38 03.12.2019
3277 Clouds 3 1026 86 10000 3.6 250 21:38 03.12.2019
3278 Clouds 4 1026 86 10000 2.1 230 21:19 03.12.2019
3279 Clouds 3 1026 86 10000 2.1 230 20:58 03.12.2019
3280 Clouds 3 1026 86 10000 2.1 230 20:39 03.12.2019
3281 Clouds 3 1026 86 10000 2.6 230 20:18 03.12.2019
3282 Clouds 3 1026 86 10000 2.6 230 19:55 03.12.2019
3283 Clouds 3 1026 86 10000 2.6 230 19:55 03.12.2019
3284 Clouds 3 1026 86 10000 3.1 210 19:37 03.12.2019
3285 Clouds 3 1026 86 10000 3.1 210 19:37 03.12.2019
3286 Clouds 3 1026 86 10000 2.6 200 19:18 03.12.2019
3287 Clouds 3 1026 86 10000 2.6 200 19:18 03.12.2019
3288 Clouds 2 1026 86 10000 2.6 200 18:56 03.12.2019
3289 Clouds 2 1026 86 10000 2.6 210 18:38 03.12.2019
3290 Clouds 2 1026 86 10000 2.6 210 18:19 03.12.2019
3291 Clouds 2 1026 86 10000 2.6 210 17:56 03.12.2019
3292 Clouds 2 1026 86 10000 2.1 240 17:36 03.12.2019
3293 Clouds 2 1026 80 10000 1.5 230 17:18 03.12.2019
3294 Clouds 2 1026 80 10000 1.5 230 16:56 03.12.2019
3295 Clouds 3 1026 80 10000 1.5 240 16:38 03.12.2019
3296 Clouds 3 1026 80 10000 1.5 250 16:19 03.12.2019
3297 Clouds 3 1026 80 10000 1.5 250 15:54 03.12.2019
3298 Clouds 3 1026 80 10000 2.1 260 15:36 03.12.2019
3299 Clouds 3 1026 80 10000 1.5 280 15:18 03.12.2019
3300 Clouds 3 1026 80 10000 3.1 270 14:42 03.12.2019
3301 Clouds 4 1026 80 10000 3.1 280 14:20 03.12.2019
3302 Clouds 4 1026 80 10000 3.1 280 13:56 03.12.2019
3303 Clouds 4 1026 75 10000 3.6 250 13:36 03.12.2019
3304 Clouds 4 1026 80 10000 3.1 260 13:18 03.12.2019
3305 Clouds 4 1026 86 10000 2.1 260 12:41 03.12.2019
3306 Clouds 3 1027 86 10000 2.6 240 12:18 03.12.2019
3307 Clouds 3 1027 86 10000 2.6 240 11:58 03.12.2019
3308 Clouds 3 1027 86 10000 3.1 230 11:39 03.12.2019
3309 Clouds 3 1027 86 10000 3.1 230 11:21 03.12.2019
3310 Clouds 3 1027 86 10000 3.1 230 10:59 03.12.2019
3311 Clouds 2 1027 93 10000 2.1 230 10:41 03.12.2019
3312 Clouds 2 1027 93 9000 2.6 200 10:19 03.12.2019
3313 Clouds 2 1027 100 8000 1.5 210 09:46 03.12.2019
3314 Clouds 1 1027 94 8000 1.5 210 09:25 03.12.2019
3315 Rain 1 1027 94 8000 1.5 210 08:59 03.12.2019
3316 Clouds 1 1026 100 6000 0.5 0 08:40 03.12.2019
3317 Mist 1 1026 96 3600 0.5 0 08:22 03.12.2019
3318 Mist 1 1026 96 3600 0.5 0 07:54 03.12.2019
3319 Mist 1 1026 96 4000 1 90 07:30 03.12.2019
3320 Clouds 1 1026 96 6000 1 0 06:59 03.12.2019
3321 Clouds 1 1026 96 10000 2.1 320 06:21 03.12.2019
3322 Clouds 1 1026 96 10000 2.1 320 05:56 03.12.2019
3323 Clouds 1 1025 96 10000 2.6 300 04:48 03.12.2019
3324 Clouds 2 1025 96 10000 2.6 300 03:36 03.12.2019
3325 Clouds 2 1024 93 10000 2.6 310 03:18 03.12.2019
3326 Clouds 2 1024 93 10000 3.6 320 02:43 03.12.2019
3327 Clouds 2 1024 93 10000 3.6 320 02:24 03.12.2019
3328 Clouds 2 1024 86 10000 5.7 310 01:41 03.12.2019
3329 Rain 2 1024 86 10000 6.7 300 01:21 03.12.2019
3330 Rain 2 1024 86 10000 5.7 300 00:44 03.12.2019
3331 Rain 2 1024 86 10000 5.7 300 00:44 03.12.2019
3332 Rain 3 1024 86 10000 5.7 300 00:26 03.12.2019
3333 Clouds 3 1023 86 10000 5.7 300 23:57 02.12.2019
3334 Clouds 3 1023 86 10000 5.1 290 23:39 02.12.2019
3335 Clouds 3 1023 86 10000 5.1 290 23:19 02.12.2019
3336 Clouds 3 1023 86 10000 5.1 290 23:19 02.12.2019
3337 Clouds 3 1023 86 10000 5.7 290 22:40 02.12.2019
3338 Clouds 3 1022 86 10000 5.7 290 22:21 02.12.2019
3339 Clouds 3 1022 86 10000 5.7 290 21:57 02.12.2019
3340 Clouds 3 1022 86 10000 5.7 280 21:36 02.12.2019
3341 Clouds 3 1022 86 10000 5.1 270 21:18 02.12.2019
3342 Clouds 3 1022 86 10000 5.1 270 20:56 02.12.2019
3343 Clouds 3 1022 86 10000 4.6 280 20:38 02.12.2019
3344 Clouds 3 1022 86 10000 5.1 280 20:19 02.12.2019
3345 Clouds 3 1022 86 10000 5.1 280 20:19 02.12.2019
3346 Clouds 3 1021 93 10000 5.1 270 19:42 02.12.2019
3347 Rain 3 1021 93 8000 5.1 270 19:22 02.12.2019
3348 Rain 2 1021 93 8000 5.1 270 18:59 02.12.2019
3349 Rain 3 1021 93 8000 5.1 270 18:59 02.12.2019
3350 Rain 3 1021 86 10000 5.7 260 18:39 02.12.2019
3351 Rain 3 1021 86 8000 4.6 260 18:19 02.12.2019
3352 Rain 3 1021 86 8000 4.6 260 17:57 02.12.2019
3353 Rain 3 1020 86 10000 4.6 260 17:39 02.12.2019
3354 Clouds 3 1020 86 10000 4.1 270 17:19 02.12.2019
3355 Clouds 3 1020 86 10000 4.1 260 16:40 02.12.2019
3356 Clouds 2 1020 86 10000 3.6 280 16:19 02.12.2019
3357 Clouds 3 1020 86 10000 3.6 280 15:58 02.12.2019
3358 Clouds 3 1020 86 10000 4.6 280 15:40 02.12.2019
3359 Clouds 3 1020 86 10000 3.6 280 15:22 02.12.2019
3360 Clouds 3 1020 86 10000 3.6 280 14:59 02.12.2019
3361 Clouds 3 1020 86 10000 5.1 290 14:38 02.12.2019
3362 Clouds 3 1020 86 10000 5.1 280 14:20 02.12.2019
3363 Clouds 3 1020 86 10000 5.1 280 13:57 02.12.2019
3364 Clouds 3 1020 86 10000 5.1 270 13:39 02.12.2019
3365 Clouds 3 1020 86 10000 5.1 270 13:39 02.12.2019
3366 -273 0 0 0 0 0 13:19 02.12.2019
3367 Clouds 3 1020 86 10000 4.1 280 12:55 02.12.2019
3368 Rain 3 1020 76 10000 4.6 280 12:37 02.12.2019
3369 Rain 3 1020 76 10000 4.6 280 12:19 02.12.2019
3370 Clouds 3 1020 76 10000 4.1 270 11:38 02.12.2019
3371 Clouds 3 1020 76 10000 4.1 270 11:38 02.12.2019
3372 Clouds 2 1020 84 10000 4.6 270 11:20 02.12.2019
3373 Clouds 2 1020 84 10000 4.6 270 10:59 02.12.2019
3374 Clouds 2 1020 93 9000 3.6 260 10:41 02.12.2019
3375 Clouds 1 1020 84 7000 3.6 270 10:22 02.12.2019
3376 Clouds 1 1020 84 7000 3.1 270 09:57 02.12.2019
3377 Clouds 1 1020 84 7000 3.1 270 09:39 02.12.2019
3378 Clouds 1 1019 84 6000 3.1 260 09:19 02.12.2019
3379 Clouds 1 1019 84 6000 3.1 260 08:55 02.12.2019
3380 Clouds 1 1019 84 6000 3.1 260 08:55 02.12.2019
3381 Clouds 1 1019 84 6000 3.1 260 08:37 02.12.2019
3382 Clouds 1 1019 86 7000 3.1 250 08:19 02.12.2019
3383 Clouds 0 1019 86 8000 2.6 250 07:42 02.12.2019
3384 Clouds 0 1019 86 7000 2.6 250 07:21 02.12.2019
3385 Clouds 0 1019 95 6000 1.5 250 06:52 02.12.2019
3386 Clouds 0 1019 95 6000 1.5 250 06:34 02.12.2019
3387 Clouds 0 1018 95 10000 2.1 290 05:25 02.12.2019
3388 Clouds 0 1018 87 10000 1 270 04:20 02.12.2019
3389 Clouds 0 1019 87 10000 0.5 290 02:51 02.12.2019
3390 Clouds 0 1019 86 10000 0.5 290 02:26 02.12.2019
3391 Clouds -1 1018 100 10000 0.5 350 01:25 02.12.2019
3392 Clouds 0 1018 92 10000 0.5 350 00:55 02.12.2019
3393 Clouds 0 1018 84 10000 1 0 00:24 02.12.2019
3394 Clouds 0 1018 84 10000 1 0 23:54 01.12.2019
3395 Clouds 0 1018 84 10000 0.5 10 23:36 01.12.2019
3396 Clouds 0 1018 86 10000 1 60 23:18 01.12.2019
3397 Clouds 0 1018 86 10000 1 60 22:54 01.12.2019
3398 Clouds 0 1019 86 10000 1 170 22:36 01.12.2019
3399 Clouds 0 1019 86 10000 1 0 22:18 01.12.2019
3400 Clouds 0 1019 86 10000 1 130 21:54 01.12.2019
3401 Clouds 0 1019 86 10000 1 130 21:36 01.12.2019
3402 Clouds 0 1019 86 10000 1.5 100 21:18 01.12.2019
3403 Clouds 0 1019 86 10000 1.5 60 20:42 01.12.2019
3404 Clouds 0 1019 86 10000 1.5 60 20:24 01.12.2019
3405 Clouds 0 1019 85 10000 1.5 50 19:59 01.12.2019
3406 Clouds 0 1019 85 10000 0.5 0 19:40 01.12.2019
3407 Clouds 0 1020 85 10000 0.5 0 19:22 01.12.2019
3408 Clouds 0 1020 85 10000 0.5 0 18:58 01.12.2019
3409 Clouds 0 1020 85 10000 0.5 0 18:39 01.12.2019
3410 Clouds 0 1020 85 10000 1 90 18:20 01.12.2019
3411 Clouds 0 1020 85 10000 1 90 18:00 01.12.2019
3412 Clouds 0 1020 85 10000 1.5 60 17:41 01.12.2019
3413 Clouds 1 1020 86 10000 1.5 130 17:23 01.12.2019
3414 Clouds 1 1020 86 10000 1.5 130 17:23 01.12.2019
3415 Clouds 1 1020 86 10000 1.5 130 17:23 01.12.2019
3416 Clouds 1 1020 86 10000 1.5 130 16:57 01.12.2019
3417 Clouds 1 1020 86 10000 2.1 150 16:39 01.12.2019
3418 Clouds 1 1020 86 10000 2.1 130 16:20 01.12.2019
3419 Clouds 2 1020 81 10000 3.1 120 15:50 01.12.2019
3420 Clouds 2 1020 81 10000 3.1 120 15:31 01.12.2019
3421 Clouds 3 1020 86 10000 3.1 150 14:44 01.12.2019
3422 Clouds 3 1020 67 10000 2.6 130 14:20 01.12.2019
3423 Clouds 3 1020 67 10000 2.6 130 13:59 01.12.2019
3424 Clouds 3 1021 80 10000 3.1 160 13:39 01.12.2019
3425 Clouds 4 1021 80 10000 3.1 160 13:20 01.12.2019
3426 Clouds 3 1021 86 10000 3.1 170 12:44 01.12.2019
3427 Clouds 3 1021 93 10000 2.6 140 11:59 01.12.2019
3428 Clouds 2 1021 93 10000 2.1 140 11:40 01.12.2019
3429 Clouds 2 1022 75 8000 2.1 130 11:21 01.12.2019
3430 Clouds 1 1022 75 7000 1.5 130 10:44 01.12.2019
3431 Mist 1 1022 75 4000 0.5 0 10:22 01.12.2019
3432 Mist 0 1022 75 4000 0.5 0 09:58 01.12.2019
3433 Mist 0 1022 100 3000 2.6 140 09:39 01.12.2019
3434 Fog 0 1022 100 800 2.1 160 09:20 01.12.2019
3435 Fog -1 1022 100 300 2.1 170 08:48 01.12.2019
3436 Fog -1 1022 100 250 2.6 190 08:20 01.12.2019
3437 Fog -1 1022 100 300 2.6 180 07:52 01.12.2019
3438 Fog -1 1022 100 300 2.6 180 07:31 01.12.2019
3439 Fog 0 1022 100 300 2.1 170 06:57 01.12.2019
3440 Mist 0 1022 100 1500 1 160 06:35 01.12.2019
3441 Clouds 0 1022 88 10000 1 0 05:49 01.12.2019
3442 Clouds 0 1022 89 10000 1.5 160 04:51 01.12.2019
3443 Clouds 1 1023 89 10000 2.1 210 03:31 01.12.2019
3444 Rain 0 1023 89 10000 1 220 02:37 01.12.2019
3445 Rain 1 1023 93 10000 1 190 02:18 01.12.2019
3446 Rain 0 1023 93 10000 0.5 150 01:52 01.12.2019
3447 Rain 0 1023 93 10000 0.5 150 01:25 01.12.2019
3448 Rain 1 1023 93 10000 2.1 220 00:42 01.12.2019
3449 Rain 1 1023 93 10000 2.1 220 00:24 01.12.2019
3450 Clouds 1 1023 93 10000 2.6 210 23:43 30.11.2019
3451 Clouds 1 1023 93 10000 2.6 210 23:24 30.11.2019
3452 Rain 1 1023 86 10000 1.5 230 22:57 30.11.2019
3453 Clouds 1 1023 86 10000 1.5 250 22:38 30.11.2019
3454 Clouds 1 1023 86 10000 2.6 240 22:19 30.11.2019
3455 Clouds 1 1023 86 10000 1.5 250 21:44 30.11.2019
3456 Clouds 2 1023 86 10000 1.5 250 21:25 30.11.2019
3457 Clouds 1 1023 86 10000 1 260 20:57 30.11.2019
3458 Clouds 2 1023 86 10000 1.5 260 20:38 30.11.2019
3459 Clouds 2 1023 93 10000 1.5 240 20:19 30.11.2019
3460 Clouds 2 1023 93 10000 1.5 240 20:19 30.11.2019
3461 Clouds 2 1023 93 10000 1.5 240 19:56 30.11.2019
3462 Clouds 2 1023 93 10000 1.5 270 19:38 30.11.2019
3463 Rain 2 1023 86 10000 2.1 240 19:19 30.11.2019
3464 Rain 2 1023 86 10000 2.1 240 18:57 30.11.2019
3465 Rain 3 1023 93 8000 2.6 280 18:38 30.11.2019
3466 Rain 3 1022 86 10000 2.6 270 18:19 30.11.2019
3467 Rain 3 1022 86 10000 2.6 270 17:57 30.11.2019
3468 Clouds 3 1022 80 10000 2.6 260 17:39 30.11.2019
3469 Clouds 3 1022 80 10000 2.1 260 17:20 30.11.2019
3470 Clouds 3 1022 80 10000 1.5 260 16:56 30.11.2019
3471 Clouds 4 1022 80 10000 1.5 260 16:38 30.11.2019
3472 Clouds 4 1022 80 10000 2.6 280 16:20 30.11.2019
3473 Clouds 4 1022 80 10000 3.1 270 15:42 30.11.2019
3474 Clouds 4 1022 80 10000 3.1 270 15:42 30.11.2019
3475 Clouds 4 1022 80 10000 3.1 270 15:19 30.11.2019
3476 Clouds 4 1022 80 10000 3.1 270 14:57 30.11.2019
3477 Clouds 4 1022 80 10000 3.1 270 14:38 30.11.2019
3478 Clouds 4 1022 80 10000 3.1 270 14:38 30.11.2019
3479 Clouds 4 1021 80 10000 4.1 270 14:19 30.11.2019
3480 Clouds 4 1021 80 10000 4.1 270 13:58 30.11.2019
3481 Clouds 4 1021 80 10000 2.6 280 13:38 30.11.2019
3482 Clouds 4 1021 93 10000 3.6 290 13:19 30.11.2019
3483 Clouds 4 1021 80 10000 3.1 270 12:47 30.11.2019
3484 Clouds 4 1021 86 10000 3.6 270 12:29 30.11.2019
3485 Clouds 3 1021 86 10000 3.6 270 11:58 30.11.2019
3486 Clouds 3 1021 86 10000 3.1 260 11:40 30.11.2019
3487 Clouds 3 1021 86 10000 2.6 250 11:18 30.11.2019
3488 Clouds 2 1021 93 10000 2.6 260 10:45 30.11.2019
3489 Clouds 2 1021 90 10000 2.1 250 10:21 30.11.2019
3490 Clouds 1 1021 90 10000 2.1 250 09:59 30.11.2019
3491 Clouds 1 1021 90 10000 2.1 240 09:41 30.11.2019
3492 Clouds 0 1020 90 10000 2.1 230 09:20 30.11.2019
3493 Clouds 0 1020 92 10000 2.1 210 08:41 30.11.2019
3494 Clouds 0 1020 92 10000 3.1 220 08:19 30.11.2019
3495 Snow 0 1019 92 10000 2.6 220 07:44 30.11.2019
3496 Snow 0 1019 92 10000 3.1 230 07:26 30.11.2019
3497 Clouds 0 1019 93 10000 2.6 220 06:49 30.11.2019
3498 Clouds 0 1019 93 10000 2.6 220 06:28 30.11.2019
3499 Clouds 0 1019 93 10000 2.6 220 06:28 30.11.2019
3500 Snow -1 1018 93 10000 1.5 260 05:33 30.11.2019
3501 Clouds -1 1017 92 10000 2.1 250 03:42 30.11.2019
3502 Clouds -1 1017 95 10000 2.1 240 02:39 30.11.2019
3503 Clouds -1 1016 92 10000 2.6 280 02:20 30.11.2019
3504 Clouds 0 1016 86 10000 2.6 270 01:25 30.11.2019
3505 Clouds 0 1015 86 10000 2.6 280 00:49 30.11.2019
3506 Clouds 0 1015 86 10000 2.6 280 00:30 30.11.2019
3507 Clouds 1 1015 86 10000 3.6 290 23:58 29.11.2019
3508 Clouds 1 1014 80 10000 3.6 290 23:40 29.11.2019
3509 Clouds 1 1014 86 10000 4.6 300 23:20 29.11.2019
3510 Clouds 2 1013 80 10000 3.6 290 22:42 29.11.2019
3511 Clouds 2 1013 74 10000 4.6 310 22:23 29.11.2019
3512 Clouds 2 1012 69 10000 5.1 320 21:44 29.11.2019
3513 Clouds 3 1012 69 10000 5.1 320 21:24 29.11.2019
3514 Clouds 3 1012 74 10000 6.2 310 20:57 29.11.2019
3515 Clouds 3 1011 83 10000 6.2 310 20:38 29.11.2019
3516 Clouds 3 1010 78 10000 6.7 300 20:19 29.11.2019
3517 Clouds 4 1010 78 10000 6.7 300 19:57 29.11.2019
3518 Clouds 4 1010 78 10000 7.7 290 19:38 29.11.2019
3519 Clouds 4 1009 80 10000 6.2 290 19:19 29.11.2019
3520 Clouds 4 1009 80 10000 6.2 290 18:55 29.11.2019
3521 Clouds 4 1009 80 10000 5.1 290 18:37 29.11.2019
3522 Clouds 4 1008 80 10000 6.7 290 18:19 29.11.2019
3523 Clouds 5 1008 75 10000 5.7 280 17:43 29.11.2019
3524 Clouds 5 1008 75 10000 5.7 280 17:24 29.11.2019
3525 Clouds 5 1007 75 10000 5.1 280 16:56 29.11.2019
3526 Rain 5 1007 70 10000 3.6 290 16:38 29.11.2019
3527 Rain 5 1006 82 10000 5.7 280 16:18 29.11.2019
3528 Clouds 5 1005 70 10000 6.7 280 15:40 29.11.2019
3529 Clouds 6 1005 82 10000 5.7 270 15:22 29.11.2019
3530 Clouds 6 1005 82 10000 5.7 270 14:56 29.11.2019
3531 Clouds 6 1005 82 10000 6.2 270 14:38 29.11.2019
3532 Clouds 6 1004 63 10000 7.7 270 14:19 29.11.2019
3533 Clouds 6 1004 63 10000 7.7 280 13:41 29.11.2019
3534 Clouds 7 1004 61 10000 7.7 280 13:21 29.11.2019
3535 Clouds 6 1004 61 10000 7.7 280 12:56 29.11.2019
3536 Clouds 6 1003 61 10000 7.7 290 12:38 29.11.2019
3537 Clouds 6 1003 61 10000 6.7 280 12:20 29.11.2019
3538 Clouds 7 1003 61 10000 7.2 280 11:54 29.11.2019
3539 Clouds 7 1003 61 10000 7.2 280 11:36 29.11.2019
3540 Clouds 6 1003 68 10000 6.7 280 11:18 29.11.2019
3541 Clouds 6 1003 68 10000 6.7 280 10:55 29.11.2019
3542 Clouds 6 1002 70 10000 6.7 280 10:36 29.11.2019
3543 Clouds 5 1002 75 10000 5.7 290 10:18 29.11.2019
3544 Clouds 5 1002 75 10000 5.1 290 09:54 29.11.2019
3545 Clouds 5 1002 75 10000 5.1 290 09:36 29.11.2019
3546 Clouds 5 1001 80 10000 4.1 290 09:18 29.11.2019
3547 Clouds 5 1001 86 10000 3.1 280 08:39 29.11.2019
3548 Rain 6 1000 81 10000 4.1 290 08:20 29.11.2019
3549 Rain 6 1000 81 10000 4.1 290 07:56 29.11.2019
3550 Rain 6 1000 87 10000 8.2 310 07:38 29.11.2019
3551 Rain 6 999 87 10000 4.6 290 07:19 29.11.2019
3552 Rain 7 998 93 10000 4.1 290 06:42 29.11.2019
3553 Rain 8 997 93 10000 5.1 270 05:48 29.11.2019
3554 Rain 8 997 93 10000 5.1 270 05:24 29.11.2019
3555 Rain 8 997 81 10000 6.2 240 04:31 29.11.2019
3556 Rain 9 996 76 10000 6.2 250 03:21 29.11.2019
3557 Clouds 9 996 76 10000 5.7 240 02:30 29.11.2019
3558 Rain 9 996 81 10000 5.7 240 01:51 29.11.2019
3559 Rain 9 996 81 10000 5.7 240 01:26 29.11.2019
3560 Clouds 9 995 76 10000 5.7 230 00:43 29.11.2019
3561 Clouds 9 995 76 10000 6.2 240 00:21 29.11.2019
3562 Clouds 9 995 76 10000 6.2 240 23:56 28.11.2019
3563 Clouds 9 995 76 10000 7.2 230 23:36 28.11.2019
3564 Clouds 9 995 76 10000 6.7 240 23:18 28.11.2019
3565 Rain 9 995 71 10000 7.2 240 22:38 28.11.2019
3566 Rain 9 995 71 10000 7.7 230 22:20 28.11.2019
3567 Rain 9 995 71 10000 7.7 230 21:59 28.11.2019
3568 Clouds 9 994 71 10000 8.2 230 21:40 28.11.2019
3569 Clouds 9 994 71 10000 7.7 230 21:20 28.11.2019
3570 Clouds 9 994 71 10000 7.7 230 20:57 28.11.2019
3571 Rain 10 994 62 10000 7.7 220 20:38 28.11.2019
3572 Clouds 10 994 62 10000 7.7 220 20:18 28.11.2019
3573 Clouds 10 994 62 10000 7.7 220 19:56 28.11.2019
3574 Rain 10 994 62 10000 8.2 230 19:36 28.11.2019
3575 Clouds 10 994 62 10000 8.2 220 19:18 28.11.2019
3576 Clouds 10 994 62 10000 8.2 220 18:56 28.11.2019
3577 Clouds 10 994 62 10000 8.2 220 18:38 28.11.2019
3578 Clouds 9 994 66 10000 8.2 220 18:18 28.11.2019
3579 Clouds 10 994 66 10000 7.7 210 17:42 28.11.2019
3580 Clouds 10 994 66 10000 7.7 210 17:24 28.11.2019
3581 Clouds 10 994 66 10000 7.7 220 16:59 28.11.2019
3582 Clouds 10 994 66 10000 7.7 220 16:59 28.11.2019
3583 Clouds 10 994 66 10000 7.2 220 16:40 28.11.2019
3584 Clouds 10 994 62 10000 7.7 220 16:19 28.11.2019
3585 Clouds 10 994 62 10000 7.7 220 15:57 28.11.2019
3586 Clouds 11 995 58 10000 9.3 220 15:38 28.11.2019
3587 Clouds 11 995 62 10000 6.7 230 15:19 28.11.2019
3588 Clouds 11 995 62 10000 6.7 230 14:57 28.11.2019
3589 Clouds 11 995 62 10000 6.2 230 14:38 28.11.2019
3590 Clouds 11 995 58 10000 6.7 220 14:19 28.11.2019
3591 Clouds 11 995 58 10000 7.2 220 13:41 28.11.2019
3592 Clouds 11 995 58 10000 8.2 220 13:23 28.11.2019
3593 Clouds 12 995 58 10000 8.2 220 12:55 28.11.2019
3594 Clouds 12 995 58 10000 8.2 220 12:55 28.11.2019
3595 Clouds 11 995 58 10000 8.2 220 12:36 28.11.2019
3596 Clouds 11 995 62 10000 9.3 220 12:18 28.11.2019
3597 Clouds 11 995 62 10000 9.3 220 11:54 28.11.2019
3598 Clouds 11 995 66 10000 5.7 210 11:36 28.11.2019
3599 Clouds 10 996 66 10000 6.2 210 11:18 28.11.2019
3600 Clouds 10 995 66 10000 6.7 200 10:41 28.11.2019
3601 Clouds 10 995 71 10000 6.2 190 10:20 28.11.2019
3602 Clouds 9 995 76 10000 5.1 190 09:55 28.11.2019
3603 Clouds 9 995 76 10000 5.1 190 09:37 28.11.2019
3604 Clouds 9 995 76 10000 5.1 180 09:18 28.11.2019
3605 Clouds 8 995 75 10000 4.6 170 08:40 28.11.2019
3606 Clouds 8 995 75 10000 5.7 180 08:21 28.11.2019
3607 Clouds 8 995 75 10000 5.7 180 07:43 28.11.2019
3608 Clouds 8 995 75 10000 5.7 180 07:25 28.11.2019
3609 Clouds 8 995 75 10000 5.1 170 06:58 28.11.2019
3610 Clouds 8 995 75 10000 5.7 180 06:37 28.11.2019
3611 Clouds 7 995 81 10000 4.6 170 05:53 28.11.2019
3612 -273 0 0 0 0 0 05:33 28.11.2019
3613 Clouds 8 995 81 10000 4.6 160 03:49 28.11.2019
3614 Clouds 8 996 81 10000 6.7 180 02:30 28.11.2019
3615 Clouds 8 995 81 10000 7.2 170 01:23 28.11.2019
3616 Clouds 8 996 75 10000 6.7 170 00:39 28.11.2019
3617 Clouds 7 996 81 10000 6.7 170 00:18 28.11.2019
3618 Clouds 7 996 81 10000 7.2 170 23:38 27.11.2019
3619 Clouds 6 996 87 10000 6.7 170 23:20 27.11.2019
3620 Clouds 7 997 87 10000 7.7 170 22:56 27.11.2019
3621 Clouds 6 997 87 10000 7.7 170 22:38 27.11.2019
3622 Clouds 6 997 87 10000 8.2 170 22:18 27.11.2019
3623 Clouds 6 997 87 10000 8.2 170 21:55 27.11.2019
3624 Clouds 6 997 87 10000 7.2 160 21:36 27.11.2019
3625 Clouds 6 997 87 10000 7.2 160 21:18 27.11.2019
3626 Clouds 6 997 87 10000 7.2 160 20:56 27.11.2019
3627 Clouds 6 997 87 10000 7.2 160 20:56 27.11.2019
3628 Clouds 5 997 93 10000 6.7 160 20:37 27.11.2019
3629 Rain 6 997 87 10000 6.7 160 20:19 27.11.2019
3630 Rain 6 997 87 10000 6.7 160 19:55 27.11.2019
3631 Rain 6 997 87 10000 7.2 150 19:37 27.11.2019
3632 Rain 6 997 93 10000 6.7 150 19:18 27.11.2019
3633 Rain 6 997 93 10000 6.7 150 18:55 27.11.2019
3634 Rain 6 998 87 10000 6.2 160 18:36 27.11.2019
3635 Rain 6 998 87 10000 6.7 160 18:18 27.11.2019
3636 Rain 6 998 87 10000 6.7 160 17:55 27.11.2019
3637 Rain 6 997 87 10000 6.7 160 17:36 27.11.2019
3638 Rain 6 997 93 10000 6.2 150 17:18 27.11.2019
3639 Rain 6 997 93 10000 6.2 160 16:55 27.11.2019
3640 Rain 6 997 93 10000 6.2 160 16:36 27.11.2019
3641 Rain 7 997 93 10000 6.7 160 16:18 27.11.2019
3642 Rain 7 997 93 10000 6.7 160 15:56 27.11.2019
3643 Rain 7 998 93 10000 4.6 160 15:37 27.11.2019
3644 Rain 7 998 100 10000 4.1 160 15:19 27.11.2019
3645 Rain 7 998 100 10000 4.1 160 14:56 27.11.2019
3646 Rain 7 998 87 10000 4.6 180 14:38 27.11.2019
3647 Rain 7 998 81 10000 5.7 160 14:19 27.11.2019
3648 Rain 7 998 81 10000 5.7 160 13:55 27.11.2019
3649 Clouds 8 998 81 10000 7.2 170 13:37 27.11.2019
3650 Clouds 8 998 81 10000 6.2 160 13:18 27.11.2019
3651 Clouds 8 998 81 10000 7.2 160 12:41 27.11.2019
3652 Clouds 7 998 81 10000 6.7 160 12:22 27.11.2019
3653 Clouds 7 998 81 10000 8.7 150 11:56 27.11.2019
3654 Clouds 7 998 81 10000 8.7 150 11:37 27.11.2019
3655 Clouds 7 997 81 10000 9.8 160 11:18 27.11.2019
3656 Clouds 7 997 87 10000 11.3 160 10:46 27.11.2019
3657 Clouds 7 997 87 10000 10.3 160 10:24 27.11.2019
3658 Clouds 6 997 87 10000 10.3 160 09:58 27.11.2019
3659 Clouds 6 997 81 10000 10.3 160 09:39 27.11.2019
3660 Clouds 6 998 86 10000 8.7 150 09:21 27.11.2019
3661 Clouds 5 998 86 10000 7.2 150 08:42 27.11.2019
3662 Clouds 5 999 86 10000 7.7 140 08:23 27.11.2019
3663 Clouds 5 999 86 10000 9.3 150 07:49 27.11.2019
3664 Clouds 5 999 86 10000 9.3 150 07:30 27.11.2019
3665 Clouds 5 999 86 10000 8.7 160 06:55 27.11.2019
3666 Clouds 5 999 86 10000 8.7 160 06:55 27.11.2019
3667 Clouds 5 999 86 10000 8.7 160 06:37 27.11.2019
3668 Clouds 5 1000 93 10000 7.2 160 05:53 27.11.2019
3669 Clouds 5 1001 93 10000 7.7 150 05:26 27.11.2019
3670 Clouds 5 1001 93 10000 7.2 160 04:49 27.11.2019
3671 Clouds 5 1001 93 10000 7.2 160 04:31 27.11.2019
3672 Clouds 5 1002 87 10000 7.7 160 03:45 27.11.2019
3673 Clouds 5 1003 87 10000 7.7 160 03:20 27.11.2019
3674 Clouds 5 1003 93 10000 7.7 160 02:42 27.11.2019
3675 Clouds 5 1004 87 10000 7.2 150 01:22 27.11.2019
3676 Clouds 6 1004 87 10000 7.2 150 00:40 27.11.2019
3677 Clouds 6 1005 87 10000 6.7 150 00:22 27.11.2019
3678 Clouds 5 1005 87 10000 6.2 160 23:42 26.11.2019
3679 Clouds 5 1005 87 10000 5.7 150 23:24 26.11.2019
3680 Clouds 5 1006 86 10000 6.2 160 22:55 26.11.2019
3681 Clouds 5 1006 86 10000 6.2 160 22:37 26.11.2019
3682 Clouds 5 1006 87 10000 5.7 160 22:18 26.11.2019
3683 Clouds 5 1006 81 10000 5.7 160 21:39 26.11.2019
3684 Clouds 5 1007 81 10000 4.6 150 21:21 26.11.2019
3685 Clouds 5 1007 81 10000 5.1 150 20:58 26.11.2019
3686 Clouds 5 1007 81 10000 5.1 150 20:39 26.11.2019
3687 Clouds 5 1007 86 10000 5.7 150 20:19 26.11.2019
3688 Clouds 5 1007 86 10000 5.1 150 19:56 26.11.2019
3689 Clouds 5 1007 86 10000 5.1 150 19:38 26.11.2019
3690 Clouds 5 1007 81 10000 6.2 150 19:20 26.11.2019
3691 Clouds 5 1007 81 10000 6.2 150 18:58 26.11.2019
3692 Clouds 5 1007 81 10000 5.7 150 18:39 26.11.2019
3693 Clouds 5 1007 81 10000 5.1 150 18:21 26.11.2019
3694 Clouds 5 1007 81 10000 5.7 150 17:59 26.11.2019
3695 Clouds 6 1007 81 10000 5.7 150 17:41 26.11.2019
3696 Clouds 6 1007 86 10000 3.6 150 17:23 26.11.2019
3697 Clouds 6 1007 81 10000 4.1 140 16:57 26.11.2019
3698 -273 0 0 0 0 0 16:38 26.11.2019
3699 Clouds 6 1007 81 10000 4.1 140 16:38 26.11.2019
3700 Clouds 6 1007 87 10000 3.1 150 16:20 26.11.2019
3701 Clouds 7 1007 87 10000 3.1 150 16:00 26.11.2019
3702 Clouds 7 1007 87 10000 3.1 150 16:00 26.11.2019
3703 Clouds 7 1007 81 10000 3.6 150 15:39 26.11.2019
3704 Clouds 7 1007 81 10000 4.1 140 15:21 26.11.2019
3705 Clouds 7 1007 81 10000 4.1 140 14:59 26.11.2019
3706 Clouds 7 1007 81 10000 4.6 150 14:41 26.11.2019
3707 Clouds 7 1007 81 10000 3.6 150 14:23 26.11.2019
3708 Clouds 7 1008 81 10000 3.6 170 13:43 26.11.2019
3709 Clouds 7 1008 81 10000 3.1 160 13:24 26.11.2019
3710 Clouds 7 1008 81 10000 3.1 160 12:56 26.11.2019
3711 Clouds 7 1008 87 0 2.6 170 12:36 26.11.2019
3712 Clouds 7 1008 87 10000 3.6 160 12:18 26.11.2019
3713 Clouds 6 1009 87 10000 4.6 160 11:55 26.11.2019
3714 Clouds 6 1009 87 10000 4.6 160 11:36 26.11.2019
3715 Clouds 6 1009 87 10000 4.6 160 11:36 26.11.2019
3716 Clouds 6 1009 86 10000 4.1 160 11:18 26.11.2019
3717 Clouds 6 1009 86 10000 4.1 160 11:18 26.11.2019
3718 Clouds 5 1009 93 10000 4.6 170 10:55 26.11.2019
3719 Clouds 5 1009 93 10000 4.6 170 10:37 26.11.2019
3720 Clouds 5 1009 93 10000 4.6 170 10:18 26.11.2019
3721 Clouds 5 971 95 0 3.58 126 09:42 26.11.2019
3722 Mist 4 1009 100 2400 4.1 160 09:23 26.11.2019
3723 Clouds 4 1009 86 0 0.89 139 08:50 26.11.2019
3724 Fog 3 1009 100 600 2.6 190 08:31 26.11.2019
3725 Mist 3 1009 93 4000 2.6 160 07:58 26.11.2019
3726 Mist 3 1009 93 4000 2.6 160 07:40 26.11.2019
3727 Mist 3 1009 93 3300 2.6 150 07:21 26.11.2019
3728 Mist 3 1010 100 4000 1.5 190 06:50 26.11.2019
3729 Fog 3 1009 100 800 2.1 260 05:59 26.11.2019
3730 Fog 3 1009 100 800 1.5 280 05:26 26.11.2019
3731 Fog 3 1010 90 400 0.5 10 03:22 26.11.2019
3732 Clouds 3 1010 91 8000 1.5 290 01:42 26.11.2019
3733 Fog 3 1010 100 9000 1 0 01:22 26.11.2019
3734 Clouds 3 1010 100 9000 1.5 260 00:41 26.11.2019
3735 Fog 3 1010 100 6000 1.5 260 00:18 26.11.2019
3736 Mist 3 1010 100 5000 0.5 0 23:39 25.11.2019
3737 Mist 3 1010 100 3500 0.5 0 23:19 25.11.2019
3738 Mist 3 1010 100 3000 1 0 22:54 25.11.2019
3739 Mist 3 1010 100 3000 1 0 22:36 25.11.2019
3740 Mist 3 1010 100 3300 0.5 0 22:18 25.11.2019
3741 Clouds 3 1010 100 6000 1 0 21:54 25.11.2019
3742 Clouds 3 1010 100 6000 1 0 21:36 25.11.2019
3743 Clouds 3 1010 100 7000 2.1 150 21:18 25.11.2019
3744 Clouds 3 1010 93 7000 1 0 20:54 25.11.2019
3745 Clouds 3 1010 93 7000 1 0 20:36 25.11.2019
3746 Clouds 3 1010 100 6000 0.5 150 20:18 25.11.2019
3747 Clouds 4 1010 93 9000 2.1 150 19:54 25.11.2019
3748 Clouds 4 1010 93 9000 2.1 150 19:36 25.11.2019
3749 Clouds 4 1010 86 9000 2.6 140 19:18 25.11.2019
3750 Clouds 4 1010 86 9000 2.6 140 19:18 25.11.2019
3751 Clouds 4 1010 86 10000 3.1 130 18:54 25.11.2019
3752 Clouds 4 1010 86 10000 3.1 130 18:36 25.11.2019
3753 Clouds 4 1010 86 10000 2.1 130 18:18 25.11.2019
3754 Clouds 5 1010 86 10000 2.1 130 17:55 25.11.2019
3755 Clouds 5 1010 86 10000 2.1 130 17:36 25.11.2019
3756 Clouds 5 1010 86 10000 1.5 140 17:18 25.11.2019
3757 Clouds 5 1010 86 10000 2.6 130 16:41 25.11.2019
3758 Clouds 5 1010 86 10000 2.6 130 16:23 25.11.2019
3759 Clouds 5 1010 87 10000 2.1 130 15:57 25.11.2019
3760 Clouds 6 1010 87 10000 3.6 140 15:38 25.11.2019
3761 Clouds 6 1010 81 10000 4.1 140 15:19 25.11.2019
3762 Clouds 6 1010 81 10000 4.1 140 14:56 25.11.2019
3763 Clouds 6 1010 81 10000 3.6 130 14:37 25.11.2019
3764 Clouds 7 1010 81 10000 4.6 140 14:19 25.11.2019
3765 Clouds 7 1010 81 10000 3.1 130 13:39 25.11.2019
3766 Clouds 7 1010 75 10000 3.1 120 13:21 25.11.2019
3767 Clouds 8 1010 75 10000 3.1 120 12:59 25.11.2019
3768 Clouds 8 1010 81 10000 3.1 120 12:40 25.11.2019
3769 Clouds 7 1010 81 10000 3.1 110 12:20 25.11.2019
3770 Clouds 7 1011 81 10000 3.6 120 11:57 25.11.2019
3771 Clouds 7 1011 81 10000 3.6 120 11:38 25.11.2019
3772 Clouds 6 1011 81 10000 4.6 130 11:19 25.11.2019
3773 Clouds 5 1011 87 10000 4.1 130 10:44 25.11.2019
3774 Clouds 5 1011 87 10000 4.1 130 10:26 25.11.2019
3775 Clouds 5 1011 87 10000 2.6 130 09:58 25.11.2019
3776 Clouds 5 1011 93 10000 1.5 130 09:39 25.11.2019
3777 Clouds 5 1011 93 8000 2.6 130 09:21 25.11.2019
3778 Clouds 5 1011 86 8000 2.6 120 08:41 25.11.2019
3779 Clouds 3 1011 93 6000 2.6 140 08:22 25.11.2019
3780 Clouds 3 1011 93 6000 2.1 130 07:44 25.11.2019
3781 Mist 3 1010 93 5000 1.5 140 07:24 25.11.2019
3782 Mist 3 1010 100 4300 1 130 06:51 25.11.2019
3783 Clouds 3 1010 93 7000 1.5 160 06:22 25.11.2019
3784 Clouds 3 1010 93 7000 1.5 160 06:22 25.11.2019
3785 Clouds 3 1010 93 8000 2.1 130 05:49 25.11.2019
3786 Clouds 3 1010 93 8000 2.1 120 05:28 25.11.2019
3787 Clouds 2 1010 93 10000 2.1 100 03:26 25.11.2019
3788 Clouds 3 1010 86 10000 2.6 140 02:32 25.11.2019
3789 Clouds 3 1010 86 10000 3.1 140 01:42 25.11.2019
3790 Clear 3 1010 86 10000 3.1 140 01:23 25.11.2019
3791 Clear 3 1010 86 10000 3.1 130 00:37 25.11.2019
3792 Clear 3 1010 86 10000 3.1 150 00:18 25.11.2019
3793 Clear 3 1010 86 10000 3.1 150 00:18 25.11.2019
3794 Clear 3 1010 86 10000 3.1 140 23:43 24.11.2019
3795 Clear 3 1010 86 10000 2.1 120 23:20 24.11.2019
3796 Clear 3 1010 86 10000 3.1 140 22:56 24.11.2019
3797 Clear 3 1010 86 10000 3.1 140 22:37 24.11.2019
3798 Clear 3 1010 86 10000 3.6 140 22:19 24.11.2019
3799 Clear 4 1010 86 10000 3.6 140 21:56 24.11.2019
3800 Clear 3 1010 86 10000 3.6 140 21:37 24.11.2019
3801 Clear 4 1010 86 10000 3.1 150 21:19 24.11.2019
3802 Clear 4 1010 86 10000 3.1 130 20:56 24.11.2019
3803 Clear 4 1010 86 10000 3.1 130 20:37 24.11.2019
3804 Clear 4 1010 86 10000 3.1 130 20:37 24.11.2019
3805 Clouds 4 1010 93 10000 3.6 140 20:18 24.11.2019
3806 Clouds 4 1010 93 10000 3.6 140 19:55 24.11.2019
3807 Clouds 4 1010 93 10000 3.6 140 19:55 24.11.2019
3808 Clouds 4 1010 93 10000 3.1 140 19:37 24.11.2019
3809 Clouds 5 1010 87 10000 3.6 140 19:19 24.11.2019
3810 Clouds 5 1010 87 10000 3.6 140 19:19 24.11.2019
3811 Clouds 5 1010 93 10000 3.6 140 18:56 24.11.2019
3812 Clouds 5 1010 93 10000 3.6 140 18:36 24.11.2019
3813 Clouds 5 1010 87 10000 2.6 140 18:18 24.11.2019
3814 Clouds 5 1009 87 10000 3.6 140 17:55 24.11.2019
3815 Clouds 5 1009 87 10000 3.6 140 17:37 24.11.2019
3816 Clouds 5 1009 87 10000 3.6 140 17:37 24.11.2019
3817 Clear 5 1009 87 10000 3.1 130 17:18 24.11.2019
3818 Clear 5 1009 87 10000 3.1 130 17:18 24.11.2019
3819 Clear 6 1009 87 10000 2.6 130 16:54 24.11.2019
3820 Clear 6 1009 87 10000 2.6 130 16:36 24.11.2019
3821 Clear 6 1009 81 10000 4.6 140 16:18 24.11.2019
3822 Clear 7 1009 81 10000 5.7 140 15:43 24.11.2019
3823 Clear 7 1009 75 10000 5.7 140 15:25 24.11.2019
3824 Clear 8 1009 75 10000 6.2 140 14:57 24.11.2019
3825 Clear 8 1009 75 10000 6.2 140 14:38 24.11.2019
3826 Clouds 9 1008 70 10000 5.1 130 14:18 24.11.2019
3827 Clouds 9 1008 70 10000 6.2 140 13:41 24.11.2019
3828 Clouds 10 1008 76 10000 6.2 150 13:22 24.11.2019
3829 Clouds 10 1008 76 10000 6.2 150 12:59 24.11.2019
3830 Clouds 10 1008 76 10000 5.7 140 12:40 24.11.2019
3831 Clouds 9 1008 76 10000 5.1 140 12:18 24.11.2019
3832 Clouds 9 1008 70 10000 6.7 150 11:56 24.11.2019
3833 Clouds 9 1008 70 10000 6.7 150 11:37 24.11.2019
3834 Clouds 9 1008 70 10000 6.2 140 11:18 24.11.2019
3835 Clouds 8 1008 75 10000 5.7 160 10:47 24.11.2019
3836 Clouds 8 1008 75 10000 5.7 160 10:29 24.11.2019
3837 Clouds 8 1008 75 10000 5.1 140 09:57 24.11.2019
3838 Clouds 7 1008 75 10000 4.6 140 09:37 24.11.2019
3839 Clouds 7 1008 81 10000 5.1 150 09:18 24.11.2019
3840 Clouds 7 1008 81 10000 4.1 140 08:44 24.11.2019
3841 Clouds 6 1007 81 10000 4.1 150 08:22 24.11.2019
3842 Clouds 6 1007 81 10000 4.1 150 07:58 24.11.2019
3843 Clouds 6 1007 81 10000 4.6 140 07:38 24.11.2019
3844 Clouds 6 1007 81 10000 5.1 140 07:19 24.11.2019
3845 Clouds 6 1007 81 10000 5.1 140 06:20 24.11.2019
3846 Clouds 6 1007 81 10000 5.1 140 06:20 24.11.2019
3847 Clouds 6 1007 81 10000 5.1 140 06:20 24.11.2019
3848 Clouds 6 1006 81 10000 4.6 140 04:49 24.11.2019
3849 Clouds 6 1006 81 10000 5.1 140 03:37 24.11.2019
3850 Clouds 6 1006 81 10000 5.1 140 02:26 24.11.2019
3851 Clouds 6 1006 81 10000 5.1 130 01:41 24.11.2019
3852 Clouds 6 1006 81 10000 6.2 140 01:22 24.11.2019
3853 Clouds 6 1006 81 10000 4.6 140 00:47 24.11.2019
3854 Clouds 6 1006 81 10000 4.6 130 00:24 24.11.2019
3855 Clouds 6 1006 81 10000 5.1 130 23:54 23.11.2019
3856 Clouds 6 1006 81 10000 5.1 130 23:36 23.11.2019
3857 Clouds 6 1006 81 10000 5.7 140 23:18 23.11.2019
3858 Clouds 7 1006 75 10000 5.1 140 22:54 23.11.2019
3859 Clouds 7 1006 75 10000 5.1 140 22:36 23.11.2019
3860 Clouds 7 1006 75 10000 6.2 140 22:18 23.11.2019
3861 Clouds 7 1006 75 10000 6.2 140 21:42 23.11.2019
3862 Clouds 7 1006 75 10000 5.1 140 21:22 23.11.2019
3863 Clouds 7 1006 75 10000 5.7 130 20:59 23.11.2019
3864 Clouds 7 1006 75 10000 5.7 130 20:37 23.11.2019
3865 Clouds 7 1006 75 10000 5.7 140 20:18 23.11.2019
3866 Clouds 7 1006 75 10000 5.7 140 19:56 23.11.2019
3867 Clouds 7 1005 75 10000 6.2 140 19:37 23.11.2019
3868 Clouds 7 1005 75 10000 6.2 140 19:37 23.11.2019
3869 Clouds 7 1005 75 10000 6.2 140 19:37 23.11.2019
3870 Clouds 7 1005 75 10000 7.2 140 19:18 23.11.2019
3871 Clouds 7 1005 75 10000 7.2 140 19:18 23.11.2019
3872 Clouds 7 1005 75 10000 7.2 140 19:18 23.11.2019
3873 Clouds 7 1005 81 10000 5.7 140 18:41 23.11.2019
3874 Clouds 7 1005 75 10000 6.2 140 18:21 23.11.2019
3875 Clouds 7 1005 75 10000 6.2 140 18:21 23.11.2019
3876 Clouds 7 1005 75 10000 6.2 140 18:21 23.11.2019
3877 Clouds 7 1005 75 10000 6.2 140 17:59 23.11.2019
3878 Clouds 7 1005 75 10000 6.2 140 17:40 23.11.2019
3879 Clouds 7 1005 75 10000 7.7 140 17:21 23.11.2019
3880 Clouds 7 1005 75 10000 6.7 140 16:56 23.11.2019
3881 Clouds 7 1005 75 10000 6.7 140 16:38 23.11.2019
3882 Clouds 7 1006 75 10000 6.2 140 16:20 23.11.2019
3883 Clouds 7 1006 75 10000 6.2 140 15:57 23.11.2019
3884 Clouds 8 1005 75 10000 5.1 140 15:38 23.11.2019
3885 Clouds 8 1005 75 10000 6.2 130 15:19 23.11.2019
3886 Clouds 8 1005 75 10000 6.2 130 14:56 23.11.2019
3887 Clouds 8 1005 75 10000 6.2 150 14:37 23.11.2019
3888 Clouds 8 1005 81 10000 5.7 140 14:18 23.11.2019
3889 Clouds 8 1005 75 10000 6.2 130 13:42 23.11.2019
3890 Clouds 8 1005 75 10000 7.2 130 13:20 23.11.2019
3891 Clouds 8 1005 75 10000 7.2 130 12:58 23.11.2019
3892 Clouds 9 1005 75 10000 6.2 140 12:40 23.11.2019
3893 Clouds 9 1006 75 10000 7.2 130 12:22 23.11.2019
3894 Clouds 9 1006 75 10000 7.7 140 11:42 23.11.2019
3895 Clouds 9 1006 75 10000 6.7 140 11:20 23.11.2019
3896 Clouds 9 1006 70 10000 8.2 140 10:45 23.11.2019
3897 Clouds 9 1006 70 10000 8.7 150 10:22 23.11.2019
3898 Clouds 8 1006 76 10000 7.2 150 09:43 23.11.2019
3899 Clouds 9 1006 76 10000 6.7 150 09:21 23.11.2019
3900 Clouds 8 1006 76 10000 6.7 150 08:56 23.11.2019
3901 Clouds 8 1006 76 10000 6.7 140 08:37 23.11.2019
3902 Clouds 8 1006 76 10000 5.1 130 08:18 23.11.2019
3903 Clouds 8 1006 81 10000 5.1 140 07:39 23.11.2019
3904 Clouds 8 1006 81 10000 4.6 130 06:50 23.11.2019
3905 Clouds 8 1006 76 10000 5.1 130 06:23 23.11.2019
3906 Clouds 8 1006 76 10000 5.1 130 05:53 23.11.2019
3907 Clouds 8 1007 76 10000 5.1 130 05:31 23.11.2019
3908 Clouds 8 1007 76 10000 4.1 130 04:50 23.11.2019
3909 Clouds 8 1007 76 10000 4.1 130 04:31 23.11.2019
3910 Clouds 8 1007 76 10000 4.1 130 03:21 23.11.2019
3911 Clouds 8 1007 76 10000 4.1 130 02:27 23.11.2019
3912 Clouds 8 1007 76 10000 3.6 130 01:38 23.11.2019
3913 Clouds 8 1008 81 10000 4.1 120 00:45 23.11.2019
3914 Clouds 8 1008 81 10000 3.6 130 00:19 23.11.2019
3915 Clouds 7 1008 87 10000 3.6 110 23:54 22.11.2019
3916 Clouds 7 1008 87 10000 3.6 110 23:36 22.11.2019
3917 Clouds 7 1009 87 10000 3.6 110 23:18 22.11.2019
3918 Clouds 6 1009 87 10000 3.6 110 22:42 22.11.2019
3919 Clouds 6 1009 87 10000 3.6 110 22:23 22.11.2019
3920 Clouds 6 1009 87 10000 3.1 120 21:59 22.11.2019
3921 Clouds 6 1009 87 10000 2.6 100 21:40 22.11.2019
3922 Clouds 6 1009 87 10000 3.1 110 21:21 22.11.2019
3923 Clouds 6 1009 87 10000 3.1 110 20:55 22.11.2019
3924 Clouds 6 1009 81 10000 3.1 110 20:37 22.11.2019
3925 Clouds 7 1009 81 10000 3.1 120 20:19 22.11.2019
3926 Clouds 7 1009 81 10000 2.6 120 19:39 22.11.2019
3927 Clouds 7 1009 87 10000 2.1 120 19:20 22.11.2019
3928 Clouds 7 1009 87 10000 2.1 120 18:59 22.11.2019
3929 Clouds 7 1009 87 10000 2.6 120 18:38 22.11.2019
3930 Clouds 7 1009 81 10000 2.6 140 18:20 22.11.2019
3931 Clouds 7 1009 87 10000 3.1 130 17:42 22.11.2019
3932 Clouds 7 1009 81 10000 2.1 110 17:23 22.11.2019
3933 Clouds 8 1009 81 10000 2.1 110 16:55 22.11.2019
3934 Clouds 8 1009 81 10000 2.6 130 16:37 22.11.2019
3935 Clouds 8 1009 81 10000 1.5 130 16:18 22.11.2019
3936 Clouds 9 1009 76 10000 3.6 150 15:39 22.11.2019
3937 Clouds 9 1009 71 10000 4.6 150 15:20 22.11.2019
3938 Clouds 10 1010 71 10000 5.7 160 14:54 22.11.2019
3939 Clouds 10 1010 71 10000 5.7 160 14:36 22.11.2019
3940 Clouds 10 1010 71 10000 5.7 160 14:36 22.11.2019
3941 Clouds 10 1010 71 10000 5.7 160 14:18 22.11.2019
3942 Clouds 10 1010 71 10000 5.1 160 13:39 22.11.2019
3943 Clouds 10 1010 76 10000 5.7 160 13:20 22.11.2019
3944 Clouds 10 1010 76 10000 5.7 160 12:58 22.11.2019
3945 Clouds 10 1010 81 10000 6.7 160 12:40 22.11.2019
3946 Clouds 10 1010 81 10000 6.7 160 12:40 22.11.2019
3947 Clouds 10 1010 81 10000 6.7 160 12:40 22.11.2019
3948 Clouds 10 1010 81 10000 5.7 150 12:20 22.11.2019
3949 Clouds 10 1010 81 10000 5.7 150 12:20 22.11.2019
3950 Clouds 9 1010 81 10000 5.7 150 11:58 22.11.2019
3951 Clouds 9 1010 81 10000 5.7 150 11:58 22.11.2019
3952 Clouds 9 1010 71 10000 8.2 160 11:38 22.11.2019
3953 Clouds 9 1010 81 10000 6.7 160 11:19 22.11.2019
3954 Clouds 9 1010 81 10000 6.7 160 11:19 22.11.2019
3955 Clouds 9 1010 81 10000 6.7 160 10:57 22.11.2019
3956 Clouds 9 1010 81 10000 5.1 160 10:39 22.11.2019
3957 Clouds 8 1010 87 10000 4.6 160 10:20 22.11.2019
3958 Clouds 8 1010 87 10000 4.6 160 09:55 22.11.2019
3959 Clouds 7 1010 87 10000 5.1 160 09:37 22.11.2019
3960 Clouds 6 1010 87 10000 4.6 160 09:18 22.11.2019
3961 Clouds 6 1010 93 10000 5.7 150 08:42 22.11.2019
3962 Clouds 5 1010 93 10000 4.1 150 08:22 22.11.2019
3963 Clouds 5 1010 93 10000 2.1 130 07:44 22.11.2019
3964 Clouds 5 1010 93 10000 1.5 120 07:22 22.11.2019
3965 Clouds 6 1010 87 10000 3.6 160 06:49 22.11.2019
3966 Clouds 6 1010 87 10000 3.6 160 06:29 22.11.2019
3967 Clouds 6 1010 87 10000 4.1 160 05:45 22.11.2019
3968 Clouds 7 1010 93 6000 2.6 150 04:19 22.11.2019
3969 Clouds 7 1009 100 10000 1 0 02:48 22.11.2019
3970 Clouds 7 1009 100 10000 1 0 02:29 22.11.2019
3971 Mist 7 1009 100 5000 3.1 240 01:45 22.11.2019
3972 Fog 8 1009 93 800 2.6 240 01:19 22.11.2019
3973 Drizzle 8 1008 100 800 3.1 270 00:50 22.11.2019
3974 Drizzle 8 1008 100 800 3.1 270 00:23 22.11.2019
3975 Rain 8 1008 93 7000 2.1 160 23:46 21.11.2019
3976 Rain 8 1008 93 7000 2.1 160 23:28 21.11.2019
3977 Rain 8 1008 93 7000 2.1 140 22:59 21.11.2019
3978 Clouds 8 1008 93 6000 2.1 140 22:39 21.11.2019
3979 Mist 8 1008 93 4500 2.1 130 22:21 21.11.2019
3980 Mist 8 1008 93 4500 2.1 130 21:57 21.11.2019
3981 Mist 8 1008 93 4000 2.6 120 21:37 21.11.2019
3982 Mist 8 1008 100 3500 1 110 21:19 21.11.2019
3983 Mist 8 1008 100 3500 1 110 20:58 21.11.2019
3984 Mist 8 1008 100 3000 1 90 20:38 21.11.2019
3985 Mist 8 1008 100 3000 1.5 110 20:19 21.11.2019
3986 Mist 8 1008 100 3000 1.5 110 19:59 21.11.2019
3987 Mist 8 1008 100 3000 2.6 90 19:59 21.11.2019
3988 Mist 8 1008 100 3000 2.6 90 19:40 21.11.2019
3989 Rain 8 1008 100 2800 3.1 90 19:21 21.11.2019
3990 Rain 8 1008 100 2800 3.1 90 18:57 21.11.2019
3991 Mist 8 1008 100 2500 2.6 90 18:38 21.11.2019
3992 Mist 8 1008 100 2500 2.1 70 18:19 21.11.2019
3993 Rain 8 1008 100 2500 2.1 70 17:57 21.11.2019
3994 Rain 8 1008 100 2500 2.1 70 17:38 21.11.2019
3995 Mist 8 1008 100 2500 2.1 70 17:19 21.11.2019
3996 Mist 8 1008 100 2500 2.1 70 17:19 21.11.2019
3997 Mist 8 1008 100 2500 2.1 60 16:42 21.11.2019
3998 Mist 8 1008 100 2500 2.1 60 16:42 21.11.2019
3999 Rain 9 1009 100 2500 2.1 50 16:22 21.11.2019
4000 Rain 9 1009 100 2500 2.1 50 15:58 21.11.2019
4001 Rain 9 1009 93 3500 2.1 40 15:40 21.11.2019
4002 Clouds 9 1009 93 6000 1.5 50 15:20 21.11.2019
4003 Clouds 9 1009 93 6000 1.5 50 14:56 21.11.2019
4004 Clouds 9 1009 93 6000 1.5 50 14:37 21.11.2019
4005 Clouds 9 1009 93 6000 2.6 70 14:18 21.11.2019
4006 Clouds 9 1009 93 6000 3.1 70 13:40 21.11.2019
4007 Clouds 9 1009 93 6000 2.6 70 13:21 21.11.2019
4008 Clouds 9 1009 93 6000 2.6 70 12:59 21.11.2019
4009 Clouds 9 1010 93 6000 1.5 60 12:39 21.11.2019
4010 Clouds 9 1010 87 6000 1.5 70 12:21 21.11.2019
4011 Mist 8 1010 93 5000 2.1 90 11:55 21.11.2019
4012 Mist 8 1010 93 5000 2.1 90 11:36 21.11.2019
4013 Rain 8 1010 93 3500 1.5 100 11:18 21.11.2019
4014 Mist 7 1011 93 3000 2.1 90 10:42 21.11.2019
4015 Mist 7 1011 93 3000 2.1 90 10:23 21.11.2019
4016 Mist 7 1011 93 3000 2.1 90 10:23 21.11.2019
4017 Mist 6 1011 100 3000 2.6 100 09:57 21.11.2019
4018 Mist 6 1011 100 3000 2.6 100 09:57 21.11.2019
4019 Mist 6 1011 100 2000 2.6 100 09:39 21.11.2019
4020 Mist 6 1011 93 2000 2.1 80 09:20 21.11.2019
4021 Mist 6 1011 93 2000 2.1 80 09:20 21.11.2019
4022 Mist 6 1011 93 1400 1.5 110 08:44 21.11.2019
4023 Mist 5 1011 100 1400 1 70 08:23 21.11.2019
4024 Drizzle 5 1011 100 1400 1 50 07:45 21.11.2019
4025 Drizzle 5 1011 100 2400 1 50 07:20 21.11.2019
4026 Drizzle 5 1011 100 2400 1 50 06:58 21.11.2019
4027 Drizzle 5 1011 100 2400 1.5 60 06:37 21.11.2019
4028 Drizzle 5 1011 100 2800 1.5 60 06:19 21.11.2019
4029 Mist 5 1012 100 1100 1 0 03:42 21.11.2019
4030 Fog 5 1013 100 100 1.5 60 02:42 21.11.2019
4031 Fog 5 1013 100 150 2.1 60 02:24 21.11.2019
4032 Fog 5 1013 100 150 2.1 60 02:24 21.11.2019
4033 Fog 5 1013 100 150 2.1 50 01:52 21.11.2019
4034 Fog 5 1014 100 100 2.1 30 01:21 21.11.2019
4035 Fog 5 1014 100 150 1.5 30 00:41 21.11.2019
4036 Fog 5 1014 100 200 1.5 40 00:20 21.11.2019
4037 Fog 5 1014 100 300 1.5 30 23:51 20.11.2019
4038 Fog 5 1014 100 350 1.5 40 23:22 20.11.2019
4039 Fog 5 1014 100 600 1.5 40 22:58 20.11.2019
4040 Fog 5 1014 100 600 1.5 40 22:40 20.11.2019
4041 Fog 5 1015 100 300 1.5 60 22:20 20.11.2019
4042 Fog 5 1015 100 300 1.5 60 21:58 20.11.2019
4043 Fog 5 1015 100 200 1 0 21:39 20.11.2019
4044 Fog 4 1015 100 300 2.1 80 21:21 20.11.2019
4045 Fog 4 1015 100 300 2.1 80 20:57 20.11.2019
4046 Fog 4 1015 100 400 1.5 60 20:39 20.11.2019
4047 Mist 5 1015 100 1200 2.1 40 20:21 20.11.2019
4048 Mist 5 1015 100 1200 2.1 40 19:57 20.11.2019
4049 Mist 5 1015 100 3200 2.1 60 19:37 20.11.2019
4050 Mist 4 1016 100 2600 2.6 70 19:19 20.11.2019
4051 Mist 5 1016 100 2600 2.6 70 18:59 20.11.2019
4052 Fog 4 1016 100 450 2.6 60 18:40 20.11.2019
4053 Fog 4 1016 100 600 2.6 60 18:21 20.11.2019
4054 Fog 4 1016 100 800 2.6 40 17:57 20.11.2019
4055 Fog 4 1016 100 800 2.6 40 17:39 20.11.2019
4056 Mist 4 1016 100 4800 2.1 40 17:20 20.11.2019
4057 Mist 4 1016 100 4800 2.1 40 16:57 20.11.2019
4058 Mist 4 1016 100 4800 2.1 40 16:57 20.11.2019
4059 Clouds 4 1016 100 7000 2.1 40 16:39 20.11.2019
4060 Drizzle 4 1016 100 7000 2.1 20 16:18 20.11.2019
4061 Drizzle 5 1016 100 7000 2.1 20 15:56 20.11.2019
4062 Drizzle 5 1016 100 7000 2.1 20 15:56 20.11.2019
4063 Drizzle 5 1016 100 4700 2.1 30 15:38 20.11.2019
4064 Drizzle 5 1016 100 4000 2.6 20 15:18 20.11.2019
4065 Drizzle 5 1016 100 4000 1.5 20 14:40 20.11.2019
4066 Drizzle 5 1016 100 3700 2.1 350 14:22 20.11.2019
4067 Drizzle 5 1016 100 3700 2.1 350 14:22 20.11.2019
4068 Drizzle 5 1016 100 3700 2.1 350 14:22 20.11.2019
4069 Drizzle 5 1016 100 3700 2.1 350 14:22 20.11.2019
4070 Drizzle 5 1016 100 3700 2.1 350 14:22 20.11.2019
4071 Drizzle 5 1016 100 3700 2.1 350 13:58 20.11.2019
4072 Drizzle 5 1016 100 3700 2.1 350 13:58 20.11.2019
4073 Drizzle 5 1017 100 4000 1 0 13:39 20.11.2019
4074 Drizzle 4 1017 100 4700 1.5 360 13:20 20.11.2019
4075 Drizzle 4 1017 100 4700 1.5 360 12:57 20.11.2019
4076 Drizzle 4 1017 100 6000 1.5 360 12:37 20.11.2019
4077 Drizzle 4 1017 100 7000 1 0 12:19 20.11.2019
4078 Drizzle 4 1017 100 7000 0.5 0 11:45 20.11.2019
4079 Drizzle 4 1018 93 7000 1 0 11:22 20.11.2019
4080 Drizzle 4 1018 100 4000 1.5 40 10:57 20.11.2019
4081 Drizzle 4 1018 100 4000 1.5 40 10:57 20.11.2019
4082 Drizzle 4 1018 100 4000 1.5 40 10:39 20.11.2019
4083 Drizzle 4 1018 100 3200 1.5 30 10:20 20.11.2019
4084 Drizzle 4 1018 100 3200 1.5 30 09:56 20.11.2019
4085 Drizzle 4 1018 100 2500 1.5 350 09:37 20.11.2019
4086 Drizzle 4 1018 100 2500 1.5 340 09:19 20.11.2019
4087 Drizzle 4 1018 100 2500 1.5 340 08:42 20.11.2019
4088 Drizzle 4 1018 93 2500 2.1 10 08:24 20.11.2019
4089 Drizzle 4 1018 93 2500 1.5 340 07:50 20.11.2019
4090 Drizzle 4 1018 93 2500 1.5 340 07:30 20.11.2019
4091 Drizzle 4 1018 100 2500 1.5 340 06:55 20.11.2019
4092 Drizzle 4 1017 100 2500 1.5 350 06:37 20.11.2019
4093 Drizzle 4 1018 93 2700 2.1 360 06:18 20.11.2019
4094 Drizzle 4 1018 100 2400 2.1 340 04:40 20.11.2019
4095 Drizzle 4 1018 100 3700 2.1 350 02:28 20.11.2019
4096 Rain 4 1018 100 4300 2.6 340 01:37 20.11.2019
4097 Rain 4 1018 100 6000 2.1 330 00:46 20.11.2019
4098 Rain 5 1018 100 6000 2.6 300 00:18 20.11.2019
4099 Rain 5 1018 100 7000 1.5 310 23:41 19.11.2019
4100 Rain 5 1018 100 7000 1.5 310 23:41 19.11.2019
4101 Rain 5 1018 100 10000 2.1 40 23:22 19.11.2019
4102 Rain 5 1018 100 10000 2.1 40 22:56 19.11.2019
4103 Rain 5 1018 100 10000 2.1 60 22:37 19.11.2019
4104 Rain 5 1018 93 10000 2.6 50 22:18 19.11.2019
4105 Rain 5 1018 93 10000 2.6 50 21:54 19.11.2019
4106 Rain 5 1018 93 10000 1 0 21:36 19.11.2019
4107 Rain 5 1018 100 10000 1 0 21:18 19.11.2019
4108 Rain 5 1018 100 10000 1 0 20:54 19.11.2019
4109 Rain 5 1018 86 10000 2.6 320 20:36 19.11.2019
4110 Rain 5 1018 86 10000 1 0 20:18 19.11.2019
4111 Rain 5 1018 75 10000 1.5 60 19:41 19.11.2019
4112 Rain 5 1018 75 10000 0.5 60 19:20 19.11.2019
4113 Rain 5 1018 75 10000 0.5 60 19:20 19.11.2019
4114 Rain 5 1018 75 10000 0.5 60 19:20 19.11.2019
4115 Rain 5 1018 75 10000 0.5 60 18:58 19.11.2019
4116 Clouds 5 1017 80 10000 1 0 18:40 19.11.2019
4117 Clouds 5 1017 75 10000 1.5 60 18:20 19.11.2019
4118 Clouds 6 1017 75 10000 2.1 40 17:58 19.11.2019
4119 Clouds 6 1017 75 10000 2.1 40 17:39 19.11.2019
4120 Clouds 6 1017 75 10000 1.5 350 17:20 19.11.2019
4121 Clouds 6 1017 75 10000 1.5 350 16:59 19.11.2019
4122 Clouds 6 1017 75 10000 1 20 16:39 19.11.2019
4123 Clouds 6 1017 75 10000 1 0 16:19 19.11.2019
4124 Clouds 7 1016 70 10000 1.5 340 15:47 19.11.2019
4125 Clouds 7 1016 70 10000 1.5 340 15:26 19.11.2019
4126 Clouds 8 1017 70 10000 0.5 0 14:58 19.11.2019
4127 Clouds 8 1017 65 10000 1.5 340 14:39 19.11.2019
4128 Clouds 8 1016 61 10000 1.5 330 14:20 19.11.2019
4129 Clouds 8 1017 61 10000 1 0 13:42 19.11.2019
4130 Clouds 8 1017 61 10000 2.1 160 13:21 19.11.2019
4131 Clouds 8 1017 61 10000 2.1 160 12:57 19.11.2019
4132 Clouds 8 1017 65 10000 2.1 150 12:39 19.11.2019
4133 Clouds 8 1017 65 10000 2.6 140 12:20 19.11.2019
4134 Clouds 8 1017 65 10000 2.6 140 11:55 19.11.2019
4135 Clouds 8 1017 65 10000 3.1 200 11:36 19.11.2019
4136 Clouds 7 1017 70 10000 4.1 180 11:18 19.11.2019
4137 Clouds 6 1017 75 10000 3.6 180 10:44 19.11.2019
4138 Clouds 6 1017 69 10000 4.6 200 10:21 19.11.2019
4139 Clouds 5 1016 69 10000 4.1 210 09:45 19.11.2019
4140 Clouds 4 1016 69 10000 4.6 210 09:21 19.11.2019
4141 Clouds 4 1016 69 10000 4.6 210 08:58 19.11.2019
4142 Clouds 4 1016 69 10000 4.1 220 08:40 19.11.2019
4143 Clouds 3 1015 76 10000 4.1 220 08:21 19.11.2019
4144 Clouds 3 1015 76 10000 4.1 220 07:56 19.11.2019
4145 Clouds 3 1015 76 10000 2.6 190 07:36 19.11.2019
4146 Clouds 3 1015 76 10000 5.1 190 07:18 19.11.2019
4147 Clouds 4 1014 76 10000 3.6 170 06:42 19.11.2019
4148 Clouds 4 1014 76 10000 7.2 190 06:19 19.11.2019
4149 Clouds 4 1014 77 10000 8.2 200 05:19 19.11.2019
4150 Clouds 4 1013 77 10000 6.2 180 03:41 19.11.2019
4151 Clouds 4 1013 77 10000 5.1 180 03:19 19.11.2019
4152 Clouds 4 1014 80 10000 3.6 170 02:50 19.11.2019
4153 Clouds 4 1013 75 10000 5.1 150 01:49 19.11.2019
4154 Clouds 3 1013 75 10000 5.1 160 00:49 19.11.2019
4155 Clouds 4 1013 80 10000 5.1 170 00:20 19.11.2019
4156 Clouds 4 1013 80 10000 5.1 180 23:40 18.11.2019
4157 Clear 3 1013 86 10000 4.6 170 23:20 18.11.2019
4158 Clear 3 1012 86 10000 4.6 170 22:48 18.11.2019
4159 Clear 3 1012 86 10000 4.6 170 22:24 18.11.2019
4160 Clear 3 1012 86 10000 4.6 170 21:59 18.11.2019
4161 Clear 3 1012 86 10000 4.1 160 21:40 18.11.2019
4162 Clear 3 1012 86 10000 4.1 160 21:40 18.11.2019
4163 Clear 2 1011 86 10000 4.1 150 21:22 18.11.2019
4164 Clear 3 1011 86 10000 4.1 150 20:59 18.11.2019
4165 Clear 3 1011 80 10000 3.6 160 20:41 18.11.2019
4166 Clouds 3 1011 80 10000 3.6 160 20:19 18.11.2019
4167 Clouds 4 1011 80 10000 3.6 160 19:58 18.11.2019
4168 Clouds 4 1011 80 10000 3.6 160 19:38 18.11.2019
4169 Clouds 4 1011 80 10000 4.1 180 19:20 18.11.2019
4170 Clouds 4 1011 80 10000 4.1 180 18:56 18.11.2019
4171 Clouds 4 1011 80 10000 4.1 180 18:56 18.11.2019
4172 Clouds 4 1011 80 10000 4.6 190 18:38 18.11.2019
4173 Clouds 5 1010 86 10000 4.1 200 18:19 18.11.2019
4174 Clouds 5 1010 86 10000 4.1 200 17:59 18.11.2019
4175 Clouds 5 1010 87 10000 4.1 200 17:37 18.11.2019
4176 Clouds 6 1009 100 10000 2.1 260 17:19 18.11.2019
4177 Clouds 6 1009 100 10000 2.1 300 16:43 18.11.2019
4178 Clouds 7 1009 100 10000 2.1 300 16:25 18.11.2019
4179 Clouds 7 1008 93 10000 0.5 0 15:59 18.11.2019
4180 Clouds 7 1008 93 10000 0.5 0 15:59 18.11.2019
4181 Rain 8 1008 93 9000 1.5 280 15:41 18.11.2019
4182 Rain 8 1008 93 9000 1 0 15:22 18.11.2019
4183 Rain 8 1008 93 9000 1 0 14:58 18.11.2019
4184 Rain 8 1008 93 9000 1 0 14:58 18.11.2019
4185 Rain 8 1007 93 9000 2.1 260 14:40 18.11.2019
4186 Rain 8 1007 93 8000 1 0 14:22 18.11.2019
4187 Drizzle 8 1006 93 5000 1.5 360 13:44 18.11.2019
4188 Drizzle 8 1006 93 5000 1.5 360 13:26 18.11.2019
4189 Rain 8 1006 100 5000 1 0 12:57 18.11.2019
4190 Rain 8 1006 100 5000 1.5 290 12:37 18.11.2019
4191 Rain 8 1006 100 4500 2.6 290 12:18 18.11.2019
4192 Rain 9 1006 100 2500 4.1 300 11:43 18.11.2019
4193 Rain 9 1006 100 2500 4.1 300 11:25 18.11.2019
4194 Clouds 10 1005 76 10000 6.2 170 10:46 18.11.2019
4195 Clouds 10 1005 76 10000 6.2 170 10:27 18.11.2019
4196 Clouds 10 1005 76 10000 6.2 160 09:59 18.11.2019
4197 Rain 10 1004 76 10000 6.7 150 09:39 18.11.2019
4198 Rain 10 1004 76 10000 5.1 140 09:21 18.11.2019
4199 Rain 10 1004 76 10000 5.1 140 08:59 18.11.2019
4200 Rain 10 1004 76 10000 4.6 140 08:41 18.11.2019
4201 Clouds 10 1004 76 10000 3.6 150 08:20 18.11.2019
4202 Clouds 11 1004 76 10000 4.6 150 07:47 18.11.2019
4203 Clouds 11 1004 76 10000 4.6 150 07:27 18.11.2019
4204 Clouds 11 1003 76 10000 7.2 150 06:52 18.11.2019
4205 Clouds 11 1003 76 10000 7.2 150 06:32 18.11.2019
4206 Clouds 11 1003 76 10000 6.7 150 05:47 18.11.2019
4207 Clouds 11 1003 76 10000 5.7 170 04:39 18.11.2019
4208 Clouds 12 1003 71 10000 5.1 160 01:56 18.11.2019
4209 Clouds 12 1004 71 10000 5.7 150 01:31 18.11.2019
4210 Clouds 12 1004 71 10000 6.2 150 00:23 18.11.2019
4211 Clouds 12 1004 71 10000 6.2 140 23:44 17.11.2019
4212 Clouds 12 1004 71 10000 6.2 140 23:24 17.11.2019
4213 Clouds 12 1004 71 10000 2.6 160 22:58 17.11.2019
4214 Clouds 12 1004 71 10000 4.6 150 22:40 17.11.2019
4215 Clouds 12 1004 71 10000 6.7 140 22:22 17.11.2019
4216 Clouds 13 1004 71 10000 6.7 140 21:59 17.11.2019
4217 Clouds 13 1004 71 10000 6.2 130 21:40 17.11.2019
4218 Clouds 11 1004 71 10000 4.6 140 21:19 17.11.2019
4219 Clouds 12 1004 71 10000 4.6 140 20:57 17.11.2019
4220 Clouds 11 1004 76 10000 6.2 140 20:38 17.11.2019
4221 Clouds 10 1004 76 10000 6.2 130 20:19 17.11.2019
4222 Clouds 10 1004 76 10000 6.2 130 19:56 17.11.2019
4223 Clouds 10 1004 76 10000 6.2 130 19:56 17.11.2019
4224 Clouds 10 1004 81 10000 5.1 110 19:37 17.11.2019
4225 Clouds 10 1004 81 10000 5.1 110 19:37 17.11.2019
4226 Clouds 10 1005 87 10000 5.1 90 19:19 17.11.2019
4227 Clouds 9 1005 87 10000 5.1 90 18:55 17.11.2019
4228 Clouds 9 1005 93 10000 3.6 60 18:55 17.11.2019
4229 Clouds 9 1005 93 10000 3.6 60 18:37 17.11.2019
4230 Clouds 9 1005 93 10000 3.6 60 18:37 17.11.2019
4231 Clouds 9 1005 100 10000 3.1 70 18:19 17.11.2019
4232 Clouds 9 1006 100 10000 2.1 30 17:57 17.11.2019
4233 Clouds 9 1005 100 10000 3.1 70 17:57 17.11.2019
4234 Clouds 9 1006 100 10000 2.1 30 17:39 17.11.2019
4235 Clouds 9 1006 93 10000 3.1 30 17:20 17.11.2019
4236 Clouds 9 1006 93 10000 3.1 30 16:57 17.11.2019
4237 Clouds 10 1006 93 10000 2.1 30 16:39 17.11.2019
4238 Clouds 10 1006 87 10000 2.6 40 16:21 17.11.2019
4239 Clouds 11 1006 87 10000 2.6 40 15:55 17.11.2019
4240 Clouds 11 1007 87 10000 3.1 50 15:37 17.11.2019
4241 Clouds 12 1007 81 10000 4.1 50 15:18 17.11.2019
4242 Clouds 12 1007 81 10000 4.1 50 14:55 17.11.2019
4243 Clouds 12 1007 81 10000 4.6 50 14:37 17.11.2019
4244 Clouds 10 1007 87 10000 4.6 30 14:19 17.11.2019
4245 Clouds 9 1007 87 10000 4.6 30 13:55 17.11.2019
4246 Clouds 9 1008 81 10000 3.6 30 13:37 17.11.2019
4247 Clouds 9 1008 87 10000 3.6 40 13:18 17.11.2019
4248 Clouds 10 1008 87 10000 4.1 50 12:42 17.11.2019
4249 Clouds 9 1009 87 10000 4.1 60 12:22 17.11.2019
4250 Rain 9 1009 87 10000 4.1 60 11:57 17.11.2019
4251 Rain 9 1009 93 10000 3.6 50 11:38 17.11.2019
4252 Rain 6 1010 87 10000 4.1 50 11:20 17.11.2019
4253 Clouds 6 1010 93 10000 2.6 40 10:44 17.11.2019
4254 Clouds 6 1010 87 10000 3.6 40 10:23 17.11.2019
4255 Clouds 5 1010 87 10000 3.6 40 09:57 17.11.2019
4256 Clouds 5 1011 93 10000 3.6 50 09:39 17.11.2019
4257 Clouds 5 1011 93 10000 3.1 40 09:21 17.11.2019
4258 Rain 5 1012 87 9000 2.1 30 08:40 17.11.2019
4259 Rain 4 1012 87 10000 1.5 50 08:21 17.11.2019
4260 Rain 5 1012 87 10000 1.5 50 07:55 17.11.2019
4261 Rain 4 1012 81 10000 3.1 90 07:37 17.11.2019
4262 Rain 4 1012 81 10000 2.6 80 07:18 17.11.2019
4263 Clouds 4 1012 81 10000 3.1 100 06:44 17.11.2019
4264 Clouds 5 1012 81 10000 3.1 100 06:25 17.11.2019
4265 Clouds 3 1014 86 10000 3.6 90 04:38 17.11.2019
4266 Clouds 3 1014 86 10000 3.6 90 04:38 17.11.2019
4267 Clouds 3 1014 80 10000 2.1 90 03:51 17.11.2019
4268 Clouds 2 1014 80 10000 2.1 90 03:32 17.11.2019
4269 Clouds 2 1015 86 10000 1 80 02:36 17.11.2019
4270 Clouds 2 1015 93 10000 1 110 01:43 17.11.2019
4271 Clouds 2 1015 93 10000 2.1 110 00:55 17.11.2019
4272 Clouds 1 1015 93 10000 0.5 0 00:23 17.11.2019
4273 Clouds 1 1015 93 10000 0.5 0 23:54 16.11.2019
4274 Clouds 1 1015 86 10000 0.5 150 23:20 16.11.2019
4275 Clouds 1 1015 86 10000 0.5 150 22:59 16.11.2019
4276 Clouds 2 1014 86 10000 1.5 120 22:41 16.11.2019
4277 Clouds 2 1014 86 10000 0.5 0 22:20 16.11.2019
4278 Clouds 2 1014 86 10000 0.5 0 21:57 16.11.2019
4279 Clouds 2 1014 86 10000 1 0 21:38 16.11.2019
4280 Clouds 2 1014 86 10000 1.5 170 21:20 16.11.2019
4281 Clouds 2 1014 86 10000 1.5 170 20:57 16.11.2019
4282 Clouds 2 1014 86 10000 0.5 0 20:38 16.11.2019
4283 Clouds 2 1013 80 10000 0.5 0 20:18 16.11.2019
4284 Clouds 3 1013 80 10000 1.5 190 19:41 16.11.2019
4285 Clouds 3 1013 75 10000 2.1 170 19:22 16.11.2019
4286 Clouds 3 1013 75 10000 2.1 170 18:56 16.11.2019
4287 Clouds 4 1012 70 10000 1 0 18:38 16.11.2019
4288 Clouds 4 1012 75 10000 1 0 18:20 16.11.2019
4289 Clouds 4 1012 75 10000 2.1 230 17:55 16.11.2019
4290 Clouds 4 1012 75 10000 2.1 230 17:36 16.11.2019
4291 Clouds 5 1011 75 10000 2.6 220 17:18 16.11.2019
4292 Clouds 6 1011 70 10000 2.6 250 16:43 16.11.2019
4293 Clouds 6 1011 70 10000 2.6 250 16:25 16.11.2019
4294 Clouds 7 1010 65 10000 3.6 240 15:54 16.11.2019
4295 Clouds 7 1010 65 10000 3.6 240 15:36 16.11.2019
4296 Clouds 8 1010 65 10000 4.1 250 15:18 16.11.2019
4297 Clouds 8 1010 70 10000 4.1 240 14:40 16.11.2019
4298 Clouds 9 1009 70 10000 5.7 260 14:21 16.11.2019
4299 Clouds 9 1009 70 10000 5.7 260 13:56 16.11.2019
4300 Clouds 9 1009 70 10000 6.7 270 13:38 16.11.2019
4301 Clouds 9 1008 66 10000 6.7 270 13:19 16.11.2019
4302 Clouds 9 1008 66 10000 6.7 270 12:58 16.11.2019
4303 Clouds 9 1007 70 10000 5.1 260 12:40 16.11.2019
4304 Clouds 9 1007 70 10000 4.6 270 12:20 16.11.2019
4305 Clouds 9 1007 75 10000 4.1 270 11:45 16.11.2019
4306 Clouds 9 1007 81 10000 4.6 270 11:26 16.11.2019
4307 Clouds 9 1007 81 10000 4.6 270 10:57 16.11.2019
4308 Clouds 9 1006 81 10000 4.1 280 10:39 16.11.2019
4309 Clouds 10 1005 66 10000 8.2 190 10:20 16.11.2019
4310 Clouds 9 1005 76 10000 8.7 190 09:43 16.11.2019
4311 Clouds 9 1004 76 10000 6.7 190 09:21 16.11.2019
4312 Clouds 9 1004 76 10000 6.7 190 08:58 16.11.2019
4313 Clouds 9 1004 81 10000 6.2 170 08:38 16.11.2019
4314 Clouds 9 1003 87 10000 4.6 190 08:19 16.11.2019
4315 Clouds 9 1003 87 10000 6.2 190 07:43 16.11.2019
4316 Clouds 9 1003 87 10000 6.2 190 07:43 16.11.2019
4317 Clouds 9 1003 81 10000 5.1 180 07:21 16.11.2019
4318 Clouds 9 1002 81 10000 5.7 190 06:54 16.11.2019
4319 Clouds 9 1002 81 10000 5.7 190 06:33 16.11.2019
4320 Clouds 9 1002 76 10000 4.1 140 05:40 16.11.2019
4321 Clouds 8 1002 76 10000 3.1 130 03:50 16.11.2019
4322 Clouds 8 1002 76 10000 3.1 130 03:25 16.11.2019
4323 Clouds 8 1002 76 10000 3.1 130 03:25 16.11.2019
4324 Clouds 8 1002 76 10000 4.1 150 01:55 16.11.2019
4325 Clouds 8 1003 76 10000 5.1 150 01:21 16.11.2019
4326 Clouds 8 1003 76 10000 5.1 160 00:46 16.11.2019
4327 Clouds 8 1003 76 10000 7.2 160 00:27 16.11.2019
4328 Clouds 8 1003 81 10000 5.1 140 23:40 15.11.2019
4329 Clouds 8 1003 76 10000 4.6 150 23:21 15.11.2019
4330 Clouds 8 1003 76 10000 4.6 150 22:58 15.11.2019
4331 Clouds 9 1003 76 10000 5.1 150 22:39 15.11.2019
4332 Clouds 9 1003 76 10000 7.2 150 22:19 15.11.2019
4333 Clouds 9 1003 76 10000 7.2 150 21:54 15.11.2019
4334 Clouds 9 1003 76 10000 6.2 150 21:36 15.11.2019
4335 Clouds 8 1003 81 10000 5.1 150 21:18 15.11.2019
4336 Clouds 9 1003 81 10000 5.1 150 20:55 15.11.2019
4337 Clouds 9 1004 81 10000 5.1 150 20:37 15.11.2019
4338 Clouds 9 1004 81 10000 4.6 160 20:19 15.11.2019
4339 Clouds 9 1004 81 10000 4.6 160 19:56 15.11.2019
4340 Clouds 9 1004 81 10000 3.6 150 19:37 15.11.2019
4341 Clouds 9 1004 81 10000 3.6 150 19:18 15.11.2019
4342 Clouds 8 1004 76 10000 3.6 150 18:42 15.11.2019
4343 Clouds 8 1004 76 10000 3.6 150 18:24 15.11.2019
4344 Clouds 9 1004 76 10000 3.6 150 17:58 15.11.2019
4345 Clouds 9 1003 76 10000 3.6 110 17:39 15.11.2019
4346 Clouds 9 1003 76 10000 3.1 120 17:20 15.11.2019
4347 Clouds 9 1003 76 10000 3.1 120 16:54 15.11.2019
4348 Clouds 9 1003 76 10000 3.1 120 16:36 15.11.2019
4349 Clouds 10 1003 71 10000 2.6 130 16:18 15.11.2019
4350 Clouds 11 1003 71 10000 2.6 110 15:38 15.11.2019
4351 Clouds 11 1002 71 10000 2.6 110 15:19 15.11.2019
4352 Clouds 11 1002 71 10000 2.6 110 14:56 15.11.2019
4353 Clouds 11 1002 71 10000 4.6 130 14:38 15.11.2019
4354 Clouds 11 1002 71 10000 3.6 130 14:19 15.11.2019
4355 Clouds 11 1002 71 10000 3.6 130 13:56 15.11.2019
4356 Clouds 11 1002 71 10000 6.7 140 13:38 15.11.2019
4357 Clouds 11 1002 71 10000 7.7 140 13:20 15.11.2019
4358 Clouds 11 1002 71 10000 7.7 140 12:57 15.11.2019
4359 Clouds 11 1002 71 10000 4.6 120 12:38 15.11.2019
4360 Clouds 11 1002 76 10000 6.7 130 12:19 15.11.2019
4361 Clouds 10 1002 71 10000 4.6 90 11:56 15.11.2019
4362 Clouds 10 1002 71 10000 4.6 90 11:37 15.11.2019
4363 Clouds 10 1002 71 10000 6.2 120 11:19 15.11.2019
4364 Clouds 10 1002 71 10000 6.2 120 11:19 15.11.2019
4365 Clouds 9 1003 76 10000 6.2 110 10:40 15.11.2019
4366 Clouds 9 1002 76 10000 5.7 100 10:22 15.11.2019
4367 Clouds 8 1002 76 10000 5.7 100 09:58 15.11.2019
4368 Clouds 8 1003 81 10000 5.7 110 09:40 15.11.2019
4369 Clouds 8 1003 81 10000 5.7 130 09:19 15.11.2019
4370 Clouds 7 1003 75 10000 3.1 70 08:43 15.11.2019
4371 Clouds 7 1003 86 10000 4.1 50 08:22 15.11.2019
4372 Clouds 6 1003 93 10000 3.6 40 07:47 15.11.2019
4373 Clouds 5 1003 93 10000 3.6 40 07:28 15.11.2019
4374 Clouds 4 1003 86 10000 5.7 80 06:44 15.11.2019
4375 Clouds 5 1004 93 10000 4.1 80 06:25 15.11.2019
4376 Clouds 4 1004 86 10000 6.2 90 05:39 15.11.2019
4377 Clouds 4 1004 86 10000 5.7 90 05:20 15.11.2019
4378 Clouds 3 1005 100 7000 5.7 90 03:50 15.11.2019
4379 Clouds 3 1005 93 7000 6.2 90 03:22 15.11.2019
4380 Clouds 3 1005 86 9000 5.1 80 02:18 15.11.2019
4381 Clouds 3 1005 86 10000 4.6 80 01:33 15.11.2019
4382 Clouds 3 1005 86 10000 4.6 80 01:33 15.11.2019
4383 Clouds 3 1006 86 10000 4.6 80 00:51 15.11.2019
4384 Clouds 3 1006 86 10000 4.6 80 00:32 15.11.2019
4385 Clouds 3 1006 86 10000 4.6 80 23:52 14.11.2019
4386 Clouds 3 1006 87 10000 5.1 90 23:28 14.11.2019
4387 Clouds 3 1006 83 10000 5.1 90 22:59 14.11.2019
4388 Clouds 3 1007 83 10000 4.6 80 22:39 14.11.2019
4389 Clouds 3 1007 80 10000 5.1 90 22:21 14.11.2019
4390 Clouds 3 1007 80 10000 5.1 90 21:55 14.11.2019
4391 Clouds 3 1007 74 10000 4.6 100 21:37 14.11.2019
4392 Clouds 3 1007 74 10000 3.6 90 21:19 14.11.2019
4393 Clouds 3 1008 83 10000 2.6 100 20:42 14.11.2019
4394 Clouds 3 1008 79 10000 2.6 120 20:23 14.11.2019
4395 Clouds 3 1008 79 10000 2.6 120 19:59 14.11.2019
4396 Clouds 3 1008 79 10000 2.6 120 19:59 14.11.2019
4397 Clouds 3 1008 79 10000 3.1 90 19:40 14.11.2019
4398 Clouds 3 1008 79 10000 2.6 80 19:18 14.11.2019
4399 Clouds 3 1008 79 10000 2.6 80 19:18 14.11.2019
4400 Clouds 3 1008 79 10000 2.6 80 19:18 14.11.2019
4401 Clouds 3 1008 79 10000 2.6 90 18:56 14.11.2019
4402 Clouds 3 1008 79 10000 2.6 90 18:38 14.11.2019
4403 Clouds 3 1008 80 10000 2.6 120 18:19 14.11.2019
4404 Clouds 3 1008 80 10000 2.6 120 17:55 14.11.2019
4405 Clouds 4 1008 80 10000 2.6 120 17:37 14.11.2019
4406 Clouds 4 1008 75 10000 2.6 100 17:18 14.11.2019
4407 Clouds 4 1009 70 10000 3.1 120 16:57 14.11.2019
4408 Clouds 4 1009 70 10000 3.1 120 16:36 14.11.2019
4409 Clouds 5 1008 70 10000 3.1 120 16:18 14.11.2019
4410 Clouds 6 1008 70 10000 3.1 120 15:54 14.11.2019
4411 Clouds 6 1008 70 10000 3.6 100 15:36 14.11.2019
4412 Clouds 7 1008 65 10000 4.6 130 15:18 14.11.2019
4413 Clouds 7 1008 75 10000 4.1 120 14:43 14.11.2019
4414 Clear 7 1008 70 10000 4.1 120 14:22 14.11.2019
4415 Clear 7 1008 70 10000 4.1 120 13:56 14.11.2019
4416 Clear 7 1009 70 10000 4.6 140 13:37 14.11.2019
4417 Clouds 7 1009 70 10000 5.1 130 13:19 14.11.2019
4418 Clouds 7 1009 75 10000 4.6 140 12:46 14.11.2019
4419 Clouds 6 1009 75 10000 5.1 140 12:26 14.11.2019
4420 Clouds 6 1009 75 10000 5.1 140 11:58 14.11.2019
4421 Clouds 6 1009 80 10000 5.1 150 11:38 14.11.2019
4422 Clear 6 1009 75 10000 5.1 140 11:19 14.11.2019
4423 Clear 6 1009 75 10000 5.1 140 10:58 14.11.2019
4424 Clear 5 1009 75 10000 5.1 160 10:38 14.11.2019
4425 Clear 5 1008 75 10000 5.1 160 10:20 14.11.2019
4426 Clear 4 1008 75 10000 5.1 160 09:56 14.11.2019
4427 Clear 4 1008 80 10000 5.7 150 09:37 14.11.2019
4428 Clear 2 1008 93 10000 3.1 130 09:18 14.11.2019
4429 Clear 2 1008 93 10000 3.1 130 08:47 14.11.2019
4430 Clear 2 1008 93 10000 3.1 130 08:47 14.11.2019
4431 Clouds 2 1007 93 10000 4.1 140 08:25 14.11.2019
4432 Clouds 1 1007 83 9000 4.1 150 07:44 14.11.2019
4433 Clouds 2 1007 83 10000 4.1 150 07:25 14.11.2019
4434 Clouds 2 1007 83 10000 4.1 150 06:56 14.11.2019
4435 Clouds 2 1007 93 10000 3.6 140 06:37 14.11.2019
4436 Clouds 2 1006 93 10000 4.1 150 06:18 14.11.2019
4437 Clouds 2 1006 85 10000 3.6 140 04:40 14.11.2019
4438 Clouds 4 1005 80 10000 4.1 180 04:19 14.11.2019
4439 Clouds 3 1005 86 10000 3.1 190 02:45 14.11.2019
4440 Clouds 3 1005 86 10000 3.6 180 01:44 14.11.2019
4441 Clouds 3 1005 86 10000 3.6 180 01:26 14.11.2019
4442 Clouds 3 1005 86 10000 3.6 200 00:49 14.11.2019
4443 Clouds 3 1005 86 10000 3.6 200 00:29 14.11.2019
4444 Clouds 3 1005 86 10000 3.1 190 23:41 13.11.2019
4445 Clouds 3 1005 86 10000 3.6 190 23:22 13.11.2019
4446 Clouds 3 1005 86 10000 3.6 190 22:57 13.11.2019
4447 Clouds 3 1005 86 10000 3.6 210 22:39 13.11.2019
4448 Clouds 3 1004 86 10000 3.6 200 22:21 13.11.2019
4449 Clouds 3 1004 86 10000 3.6 200 21:56 13.11.2019
4450 Clouds 3 1004 93 10000 3.1 190 21:37 13.11.2019
4451 Clouds 3 1004 93 10000 3.1 190 21:19 13.11.2019
4452 Clouds 3 1004 93 10000 3.1 190 20:56 13.11.2019
4453 Clouds 3 1004 93 10000 3.6 200 20:37 13.11.2019
4454 Clouds 3 1004 93 10000 2.6 200 20:19 13.11.2019
4455 Clouds 3 1004 93 10000 2.6 200 19:56 13.11.2019
4456 Clouds 3 1004 86 10000 3.1 170 19:37 13.11.2019
4457 Clouds 3 1003 86 10000 3.1 180 19:18 13.11.2019
4458 Clouds 3 1003 86 10000 3.1 180 18:54 13.11.2019
4459 Clouds 3 1003 86 10000 3.6 170 18:36 13.11.2019
4460 Clouds 4 1003 86 10000 3.1 170 18:18 13.11.2019
4461 Clouds 4 1003 86 10000 3.1 170 18:18 13.11.2019
4462 Clouds 4 1003 93 10000 2.6 160 17:40 13.11.2019
4463 Rain 4 1003 93 10000 2.6 160 17:22 13.11.2019
4464 Rain 5 1003 93 10000 2.6 160 17:00 13.11.2019
4465 Rain 5 1003 93 10000 3.1 170 16:40 13.11.2019
4466 Rain 5 1003 86 10000 3.1 150 16:22 13.11.2019
4467 Rain 5 1003 86 10000 3.1 150 15:58 13.11.2019
4468 Rain 5 1003 86 10000 3.1 160 15:40 13.11.2019
4469 Rain 5 1003 93 10000 2.6 180 15:22 13.11.2019
4470 Rain 5 1003 93 10000 2.6 180 14:59 13.11.2019
4471 Rain 5 1003 86 10000 3.1 180 14:37 13.11.2019
4472 Rain 6 1002 86 10000 1.5 190 14:19 13.11.2019
4473 Rain 5 1003 93 10000 3.1 170 13:38 13.11.2019
4474 Rain 5 1003 93 10000 2.6 180 13:19 13.11.2019
4475 Rain 5 1003 93 10000 2.6 180 12:58 13.11.2019
4476 Rain 5 1003 93 10000 2.6 180 12:38 13.11.2019
4477 Rain 5 1003 93 10000 3.6 170 12:20 13.11.2019
4478 Rain 5 1003 93 10000 3.6 160 11:55 13.11.2019
4479 Rain 5 1003 93 10000 3.6 160 11:36 13.11.2019
4480 Rain 5 1003 93 10000 3.1 170 11:18 13.11.2019
4481 Rain 5 1003 93 10000 3.1 170 10:54 13.11.2019
4482 Rain 4 1003 93 10000 2.1 170 10:36 13.11.2019
4483 Rain 4 1003 86 10000 1.5 160 10:18 13.11.2019
4484 Rain 4 1003 86 10000 2.1 140 09:40 13.11.2019
4485 Rain 4 1003 86 10000 2.1 140 09:40 13.11.2019
4486 Clouds 4 1003 93 10000 2.1 180 09:20 13.11.2019
4487 Clouds 4 1003 93 10000 2.1 180 09:20 13.11.2019
4488 Rain 3 1003 93 10000 1.5 230 08:41 13.11.2019
4489 Rain 3 1003 93 10000 1.5 180 08:22 13.11.2019
4490 Rain 3 1003 93 10000 1.5 180 07:57 13.11.2019
4491 Clouds 3 1003 100 10000 1.5 190 07:38 13.11.2019
4492 Clouds 3 1002 100 10000 2.1 130 07:18 13.11.2019
4493 Clouds 3 1002 100 10000 1.5 220 06:40 13.11.2019
4494 Clouds 3 1002 93 10000 2.1 160 06:18 13.11.2019
4495 Clouds 3 1002 93 10000 2.6 160 05:46 13.11.2019
4496 Rain 3 1002 93 10000 2.6 150 04:56 13.11.2019
4497 Clouds 4 1003 86 10000 3.1 150 03:51 13.11.2019
4498 Clouds 4 1004 86 10000 3.1 170 01:50 13.11.2019
4499 Clouds 4 1004 86 10000 3.1 170 01:25 13.11.2019
4500 Clouds 4 1003 86 10000 4.1 160 00:42 13.11.2019
4501 Clouds 4 1004 86 10000 4.6 160 23:56 12.11.2019
4502 Clouds 4 1004 80 10000 4.1 160 23:37 12.11.2019
4503 Clouds 4 1005 80 10000 3.6 130 23:18 12.11.2019
4504 Clouds 4 1005 86 10000 4.1 140 22:42 12.11.2019
4505 Clouds 4 1005 86 10000 4.6 160 22:18 12.11.2019
4506 Clouds 4 1005 86 10000 4.6 160 21:56 12.11.2019
4507 Clouds 4 1005 86 10000 4.1 160 21:37 12.11.2019
4508 Clouds 4 1005 80 10000 4.1 160 21:19 12.11.2019
4509 Clouds 4 1005 80 10000 4.1 160 20:55 12.11.2019
4510 Clouds 4 1005 80 10000 3.6 160 20:36 12.11.2019
4511 Clouds 4 1006 86 10000 4.1 160 20:18 12.11.2019
4512 Clouds 4 1006 86 10000 4.1 160 19:55 12.11.2019
4513 Clouds 4 1006 86 10000 3.1 150 19:37 12.11.2019
4514 Clouds 4 1006 86 10000 3.6 150 19:18 12.11.2019
4515 Clouds 4 1006 86 10000 3.6 150 18:55 12.11.2019
4516 Clouds 4 1006 80 10000 4.6 160 18:36 12.11.2019
4517 Clouds 4 1006 80 10000 4.1 160 18:18 12.11.2019
4518 Clouds 5 1006 80 10000 4.1 160 17:55 12.11.2019
4519 Clouds 5 1006 80 10000 4.6 160 17:36 12.11.2019
4520 -273 0 0 0 0 0 17:18 12.11.2019
4521 Clouds 5 1006 80 10000 4.6 150 17:18 12.11.2019
4522 Clouds 5 1006 80 10000 5.7 150 16:43 12.11.2019
4523 Clouds 5 1006 80 10000 4.6 150 16:25 12.11.2019
4524 Clouds 5 1006 80 10000 4.6 150 15:57 12.11.2019
4525 Clouds 5 1006 80 10000 4.6 150 15:57 12.11.2019
4526 Clouds 5 1007 80 10000 5.1 150 15:37 12.11.2019
4527 Clouds 5 1007 80 10000 4.6 150 15:18 12.11.2019
4528 Clouds 5 1007 80 10000 4.6 150 14:55 12.11.2019
4529 Clouds 5 1007 80 10000 4.6 150 14:36 12.11.2019
4530 Clouds 5 1007 80 10000 4.6 150 14:18 12.11.2019
4531 Clouds 6 1007 80 10000 4.6 150 13:54 12.11.2019
4532 Clouds 6 1007 80 10000 4.1 160 13:36 12.11.2019
4533 Clouds 6 1007 80 10000 4.6 150 13:18 12.11.2019
4534 Clouds 6 1007 80 10000 5.1 160 12:39 12.11.2019
4535 Clouds 5 1008 80 10000 3.6 150 12:19 12.11.2019
4536 Clouds 5 1008 80 10000 3.6 150 11:55 12.11.2019
4537 Clouds 5 1008 75 10000 3.6 150 11:36 12.11.2019
4538 Clouds 5 1008 75 10000 3.6 150 11:18 12.11.2019
4539 Clouds 5 1008 75 10000 3.6 170 10:55 12.11.2019
4540 Clouds 5 1008 75 10000 3.6 170 10:36 12.11.2019
4541 Clouds 5 1008 75 10000 3.6 170 10:18 12.11.2019
4542 Clouds 4 1008 75 10000 4.1 170 09:39 12.11.2019
4543 Clouds 4 1007 80 10000 3.6 170 09:19 12.11.2019
4544 Clouds 4 1008 80 10000 4.1 160 08:49 12.11.2019
4545 Clouds 4 1008 80 10000 4.1 160 08:29 12.11.2019
4546 Clouds 4 1007 80 10000 2.6 140 07:43 12.11.2019
4547 Clouds 4 1007 80 10000 2.6 140 07:25 12.11.2019
4548 Clouds 4 1007 80 10000 3.1 170 06:54 12.11.2019
4549 Clouds 4 1007 80 10000 3.1 170 06:28 12.11.2019
4550 Clouds 4 1007 80 10000 3.6 160 05:57 12.11.2019
4551 Clouds 4 1006 75 10000 2.6 140 04:59 12.11.2019
4552 Clouds 4 1006 75 10000 3.1 140 04:39 12.11.2019
4553 Clouds 3 1006 80 10000 2.6 170 02:48 12.11.2019
4554 Clouds 4 1006 80 10000 4.6 170 01:38 12.11.2019
4555 Clouds 4 1006 80 10000 3.6 150 01:18 12.11.2019
4556 Clouds 4 1006 80 10000 2.6 150 00:44 12.11.2019
4557 Clouds 3 1006 80 10000 4.1 150 00:21 12.11.2019
4558 Clouds 3 1006 80 10000 4.6 160 23:42 11.11.2019
4559 Clouds 3 1006 80 10000 5.7 170 23:21 11.11.2019
4560 Clouds 3 1007 80 10000 4.1 170 22:40 11.11.2019
4561 Clouds 2 1007 81 10000 6.2 160 22:20 11.11.2019
4562 Clouds 2 1007 81 10000 6.2 160 21:59 11.11.2019
4563 Clouds 2 1007 81 10000 6.2 160 21:59 11.11.2019
4564 Clouds 2 1007 81 10000 7.2 160 21:40 11.11.2019
4565 Clouds 2 1007 81 10000 6.7 160 21:21 11.11.2019
4566 Clouds 2 1007 81 10000 6.7 160 20:59 11.11.2019
4567 Clouds 2 1007 81 10000 7.7 160 20:41 11.11.2019
4568 Clouds 2 1007 76 10000 8.2 160 20:20 11.11.2019
4569 Clouds 2 1007 76 10000 8.2 160 19:56 11.11.2019
4570 Clouds 1 1007 76 10000 7.2 170 19:38 11.11.2019
4571 Clouds 1 1007 76 10000 7.2 170 19:38 11.11.2019
4572 Clouds 2 1008 76 10000 7.7 170 19:18 11.11.2019
4573 Clouds 2 1008 76 10000 7.7 170 19:18 11.11.2019
4574 Clouds 2 1008 76 10000 8.2 160 18:54 11.11.2019
4575 Clouds 2 1008 76 10000 8.2 160 18:36 11.11.2019
4576 Clouds 2 1008 76 10000 8.7 170 18:18 11.11.2019
4577 Clouds 2 1008 76 10000 9.3 160 17:41 11.11.2019
4578 Clouds 2 1009 86 10000 9.3 160 17:23 11.11.2019
4579 Clouds 2 1009 86 10000 7.2 160 16:41 11.11.2019
4580 Clouds 2 1009 86 10000 6.7 160 16:21 11.11.2019
4581 Clouds 3 1009 86 10000 6.7 160 15:57 11.11.2019
4582 Clouds 3 1009 80 10000 8.7 150 15:39 11.11.2019
4583 Clouds 4 1009 74 10000 7.7 160 15:19 11.11.2019
4584 Clouds 4 1009 74 10000 7.7 160 15:19 11.11.2019
4585 Clouds 5 1010 69 10000 6.2 140 14:43 11.11.2019
4586 Clouds 5 1010 69 10000 6.2 140 14:25 11.11.2019
4587 Clouds 5 1010 54 10000 6.7 150 13:58 11.11.2019
4588 Clouds 5 1011 54 10000 7.7 160 13:38 11.11.2019
4589 Clouds 5 1011 55 10000 6.7 150 13:19 11.11.2019
4590 Clouds 5 1011 55 10000 6.7 150 13:19 11.11.2019
4591 Clouds 5 1011 55 10000 6.7 150 12:57 11.11.2019
4592 Clouds 5 1011 55 10000 6.2 140 12:39 11.11.2019
4593 Clouds 5 1012 55 10000 8.2 160 12:20 11.11.2019
4594 Clear 4 1012 55 10000 7.2 160 11:42 11.11.2019
4595 Clear 4 1013 86 10000 5.7 150 11:22 11.11.2019
4596 Clear 4 1013 86 10000 5.7 150 10:57 11.11.2019
4597 Clear 4 1013 86 10000 6.2 150 10:38 11.11.2019
4598 Clear 3 1013 61 10000 5.7 150 10:18 11.11.2019
4599 Clear 2 1013 61 10000 5.7 150 09:55 11.11.2019
4600 Clear 1 1014 61 10000 5.7 150 09:36 11.11.2019
4601 Clear 1 1014 61 10000 5.1 140 09:18 11.11.2019
4602 Clear 1 1014 61 10000 4.1 150 08:38 11.11.2019
4603 Fog -1 1014 81 10000 3.1 140 08:20 11.11.2019
4604 Fog -2 1014 81 10000 3.1 140 07:55 11.11.2019
4605 Fog -2 1014 100 10000 2.6 140 07:36 11.11.2019
4606 Fog -2 1014 100 8000 2.6 140 07:18 11.11.2019
4607 Fog -2 1014 100 8000 2.1 140 06:41 11.11.2019
4608 Fog -2 1014 100 150 2.6 170 06:21 11.11.2019
4609 Fog -2 1014 100 200 3.1 190 05:50 11.11.2019
4610 Fog -1 1015 82 100 2.6 180 04:29 11.11.2019
4611 Fog -1 1015 82 100 3.6 160 03:22 11.11.2019
4612 Fog 0 1015 78 100 2.1 170 02:20 11.11.2019
4613 Fog 0 1015 78 100 2.1 170 01:55 11.11.2019
4614 Fog 0 1015 78 100 2.1 160 01:34 11.11.2019
4615 Fog 0 1016 76 100 3.1 250 00:47 11.11.2019
4616 Fog 0 1015 76 100 3.6 170 00:19 11.11.2019
4617 Fog 0 1015 76 100 3.6 170 00:19 11.11.2019
4618 Fog 0 1015 100 100 2.6 170 23:39 10.11.2019
4619 Fog 0 1015 100 100 3.1 190 23:20 10.11.2019
4620 Fog 0 1015 100 100 3.1 190 22:57 10.11.2019
4621 Fog 0 1015 100 100 3.1 190 22:38 10.11.2019
4622 Fog 0 1015 77 100 3.1 190 22:20 10.11.2019
4623 Fog 0 1015 77 100 3.1 190 22:20 10.11.2019
4624 Fog -1 1015 77 100 3.1 190 21:58 10.11.2019
4625 Fog 0 1015 77 150 1.5 220 21:39 10.11.2019
4626 Fog 0 1015 100 150 2.1 190 21:21 10.11.2019
4627 Fog 0 1015 100 150 2.1 190 20:56 10.11.2019
4628 Fog 0 1015 100 3000 2.1 190 20:38 10.11.2019
4629 Clear 1 1015 100 10000 2.6 190 20:20 10.11.2019
4630 Clear 1 1015 100 10000 2.6 190 19:54 10.11.2019
4631 Clear 1 1015 100 10000 2.6 210 19:36 10.11.2019
4632 Clear 1 1016 86 0 1.17 147 19:18 10.11.2019
4633 Clear 2 1015 93 10000 1.5 220 18:54 10.11.2019
4634 Clear 2 1015 93 10000 1.5 220 18:54 10.11.2019
4635 Clear 2 977 93 0 1.17 147 18:36 10.11.2019
4636 Clear 2 977 91 0 0.45 127 18:18 10.11.2019
4637 Clear 3 1015 80 10000 1.17 147 17:55 10.11.2019
4638 Clear 3 976 90 0 1.17 147 17:36 10.11.2019
4639 Clear 4 1014 75 10000 0.5 0 17:18 10.11.2019
4640 Clear 5 1014 65 10000 0.5 0 16:43 10.11.2019
4641 Clear 5 1014 65 10000 0.5 0 16:25 10.11.2019
4642 Clear 6 1014 61 10000 0.5 290 15:56 10.11.2019
4643 Clear 7 1014 61 10000 1 0 15:38 10.11.2019
4644 Clear 7 1014 61 10000 1 0 15:37 10.11.2019
4645 Clear 7 1013 61 10000 1 0 15:19 10.11.2019
4646 Clear 7 1013 61 10000 1 0 14:58 10.11.2019
4647 Clouds 7 1013 61 10000 0.5 210 14:38 10.11.2019
4648 Clouds 8 1013 65 10000 0.5 0 14:20 10.11.2019
4649 Clouds 8 1013 65 10000 0.5 0 13:55 10.11.2019
4650 Clear 8 1013 70 10000 0.5 0 13:37 10.11.2019
4651 Clouds 7 1013 65 10000 0.5 0 13:19 10.11.2019
4652 Clouds 8 1013 70 10000 1 260 12:41 10.11.2019
4653 Clouds 7 1013 86 10000 1 0 12:19 10.11.2019
4654 Clouds 7 1013 86 10000 1 0 12:19 10.11.2019
4655 Clouds 7 1013 86 10000 1 0 11:56 10.11.2019
4656 Clouds 6 1013 93 10000 1 0 11:38 10.11.2019
4657 Mist 5 1013 93 2800 2.1 170 11:19 10.11.2019
4658 Fog 4 1013 100 200 2.6 210 10:42 10.11.2019
4659 Fog 4 1013 100 200 2.6 210 10:22 10.11.2019
4660 Fog 3 1013 100 150 2.6 220 09:59 10.11.2019
4661 Clear 3 974 84 0 0.45 163 09:40 10.11.2019
4662 Fog 2 1013 66 150 2.1 190 09:21 10.11.2019
4663 Fog 2 1012 66 100 2.1 180 08:40 10.11.2019
4664 Fog 0 1011 100 150 1.5 160 08:21 10.11.2019
4665 Fog 0 1011 100 150 1.5 160 07:53 10.11.2019
4666 Fog 0 1011 100 50 1.5 230 07:34 10.11.2019
4667 Fog 0 1011 100 100 1.5 200 06:59 10.11.2019
4668 Fog 0 1011 100 300 2.1 200 06:22 10.11.2019
4669 Clouds 0 1011 86 10000 3.1 150 03:55 10.11.2019
4670 Clear 0 1010 86 10000 1.5 160 02:51 10.11.2019
4671 Clouds 1 1010 93 10000 1.5 190 01:41 10.11.2019
4672 Clouds 1 1010 93 10000 0.5 0 01:18 10.11.2019
4673 Clouds 2 1010 86 10000 1.5 170 00:37 10.11.2019
4674 Clouds 2 1010 93 10000 3.1 200 23:43 09.11.2019
4675 Clouds 3 1010 93 10000 2.6 210 23:20 09.11.2019
4676 Clouds 3 1010 93 10000 2.6 210 22:55 09.11.2019
4677 Clouds 3 1010 86 10000 2.1 180 22:37 09.11.2019
4678 Clouds 4 1010 86 10000 2.6 220 22:18 09.11.2019
4679 Clouds 4 1010 86 10000 2.6 220 21:55 09.11.2019
4680 Clouds 4 1010 86 10000 2.1 190 21:37 09.11.2019
4681 Clouds 5 1010 86 10000 3.6 190 21:19 09.11.2019
4682 Clouds 5 1010 93 10000 3.1 180 20:41 09.11.2019
4683 Clouds 5 1010 93 10000 3.1 180 20:22 09.11.2019
4684 Clouds 5 1010 93 10000 3.1 210 19:57 09.11.2019
4685 Clouds 5 1010 86 10000 1.5 230 19:37 09.11.2019
4686 Clouds 5 1009 93 10000 2.6 230 19:18 09.11.2019
4687 Rain 5 1009 93 10000 2.6 220 18:40 09.11.2019
4688 Rain 5 1009 93 10000 2.6 230 18:19 09.11.2019
4689 Rain 5 1009 93 10000 2.6 230 18:19 09.11.2019
4690 Rain 5 1009 93 10000 2.6 230 17:58 09.11.2019
4691 Rain 5 1009 93 10000 2.6 230 17:58 09.11.2019
4692 Rain 5 1009 93 10000 2.6 240 17:40 09.11.2019
4693 Rain 5 1009 93 10000 3.6 250 17:22 09.11.2019
4694 Rain 5 1009 86 10000 3.6 250 16:42 09.11.2019
4695 Rain 5 1009 86 10000 3.6 250 16:21 09.11.2019
4696 Rain 5 1008 93 10000 4.1 250 15:58 09.11.2019
4697 Rain 5 1008 93 10000 3.1 260 15:39 09.11.2019
4698 Clouds 5 1008 87 0 4.6 260 15:21 09.11.2019
4699 Rain 5 1007 87 10000 3.6 260 14:43 09.11.2019
4700 Rain 6 1007 87 10000 3.6 260 14:22 09.11.2019
4701 Rain 6 1007 87 8000 4.1 260 13:57 09.11.2019
4702 Rain 6 1007 93 5000 3.6 260 13:38 09.11.2019
4703 Rain 6 1007 93 5000 3.6 260 13:19 09.11.2019
4704 Rain 6 1007 93 5000 3.6 260 12:55 09.11.2019
4705 Rain 6 1007 100 4500 4.1 260 12:37 09.11.2019
4706 Rain 6 1007 93 5000 3.6 260 12:18 09.11.2019
4707 Rain 6 1006 93 4800 3.6 250 11:47 09.11.2019
4708 Rain 6 1006 93 4500 4.6 270 11:20 09.11.2019
4709 Clouds 6 1006 93 8000 4.1 280 10:56 09.11.2019
4710 Clouds 6 1006 93 8000 4.1 280 10:37 09.11.2019
4711 Clouds 6 1006 93 8000 4.1 270 10:18 09.11.2019
4712 Clouds 6 1006 93 8000 3.6 260 09:42 09.11.2019
4713 Clouds 6 1006 93 6000 3.1 260 09:20 09.11.2019
4714 Clouds 6 1006 93 10000 3.1 260 08:45 09.11.2019
4715 Clouds 7 1006 93 10000 3.1 260 08:25 09.11.2019
4716 Clouds 7 1005 93 10000 3.6 280 07:57 09.11.2019
4717 Clouds 7 1005 93 10000 1.5 250 07:38 09.11.2019
4718 Clouds 7 1005 93 10000 2.1 260 07:19 09.11.2019
4719 Clouds 7 1005 93 9000 3.1 270 06:45 09.11.2019
4720 Clouds 7 1005 93 9000 3.1 270 06:27 09.11.2019
4721 Clouds 7 1005 93 6000 1.5 270 05:40 09.11.2019
4722 Clouds 7 1005 93 6000 1.5 240 04:30 09.11.2019
4723 Mist 7 1004 93 4200 2.1 260 02:55 09.11.2019
4724 Mist 7 1004 93 3800 2.6 270 02:36 09.11.2019
4725 Rain 7 1004 93 3000 2.1 260 01:18 09.11.2019
4726 Mist 7 1004 93 3500 1.5 250 00:43 09.11.2019
4727 Mist 7 1004 93 3500 1.5 250 00:25 09.11.2019
4728 Mist 7 1004 93 5000 1.5 280 23:41 08.11.2019
4729 Clouds 7 1004 93 7000 1 0 23:23 08.11.2019
4730 Clouds 7 1004 93 7000 1 0 22:59 08.11.2019
4731 Clouds 7 1004 93 8000 1.5 270 22:40 08.11.2019
4732 Clouds 7 1004 93 9000 1 0 22:21 08.11.2019
4733 Clouds 7 1004 93 9000 1 0 21:55 08.11.2019
4734 Clouds 7 1004 93 10000 1 0 21:36 08.11.2019
4735 Clouds 7 1004 93 10000 1.5 320 21:18 08.11.2019
4736 Clouds 7 1003 93 10000 1.5 290 20:41 08.11.2019
4737 Clouds 8 1003 87 10000 1.5 310 20:20 08.11.2019
4738 Clouds 8 1003 87 10000 1.5 310 19:58 08.11.2019
4739 Clouds 8 1003 87 10000 1.5 30 19:37 08.11.2019
4740 Clouds 8 1003 87 10000 1.5 30 19:37 08.11.2019
4741 Rain 8 1003 87 10000 2.6 60 19:18 08.11.2019
4742 Rain 8 1003 87 10000 2.6 60 18:55 08.11.2019
4743 Rain 8 1004 87 10000 1.5 60 18:37 08.11.2019
4744 Clouds 8 1004 87 10000 2.6 50 18:19 08.11.2019
4745 Clouds 8 1003 81 10000 2.6 50 17:55 08.11.2019
4746 Clouds 8 1003 81 10000 2.6 50 17:36 08.11.2019
4747 Clouds 8 1004 81 10000 3.1 50 17:18 08.11.2019
4748 Clouds 8 1004 81 10000 3.1 50 16:57 08.11.2019
4749 Clouds 8 1004 81 10000 3.6 40 16:39 08.11.2019
4750 Clouds 8 1004 76 10000 4.6 50 16:19 08.11.2019
4751 Clouds 9 1004 76 10000 4.6 50 15:56 08.11.2019
4752 Clouds 9 1004 76 10000 4.1 50 15:38 08.11.2019
4753 Clouds 9 1004 76 10000 3.6 50 15:19 08.11.2019
4754 Clouds 9 1004 76 10000 3.6 50 14:55 08.11.2019
4755 Clouds 9 1004 81 10000 4.1 50 14:36 08.11.2019
4756 Clouds 9 1004 76 10000 4.6 60 14:18 08.11.2019
4757 Clouds 9 1005 81 10000 4.6 50 13:43 08.11.2019
4758 Clouds 10 1005 81 10000 3.6 40 13:23 08.11.2019
4759 Clouds 10 1005 81 10000 3.6 40 12:59 08.11.2019
4760 Clouds 10 1005 81 10000 3.6 30 12:41 08.11.2019
4761 Clouds 9 1006 76 10000 2.6 60 12:23 08.11.2019
4762 Clouds 10 1006 76 10000 2.6 60 11:56 08.11.2019
4763 Clouds 9 1006 76 10000 2.6 70 11:37 08.11.2019
4764 Clouds 9 1006 81 10000 1.5 50 11:19 08.11.2019
4765 Clouds 9 1006 81 10000 1.5 50 11:19 08.11.2019
4766 Clouds 8 1007 87 10000 1.5 70 10:54 08.11.2019
4767 Clouds 8 1007 87 10000 1.5 70 10:36 08.11.2019
4768 Clouds 7 1007 81 10000 1.5 60 10:18 08.11.2019
4769 Clouds 7 1007 87 10000 2.6 150 09:41 08.11.2019
4770 Clouds 7 1007 87 10000 1.5 120 09:20 08.11.2019
4771 Clouds 7 1007 87 10000 1.5 120 08:58 08.11.2019
4772 Clouds 7 1007 87 10000 1.5 150 08:37 08.11.2019
4773 Clouds 6 1007 93 10000 1.5 130 08:18 08.11.2019
4774 Clouds 6 1007 93 8000 2.1 160 07:40 08.11.2019
4775 Clouds 6 1007 93 8000 3.1 160 07:22 08.11.2019
4776 Clouds 6 1007 93 10000 3.1 150 06:41 08.11.2019
4777 Clouds 6 1007 93 10000 3.1 150 06:21 08.11.2019
4778 Clouds 6 1007 93 10000 3.1 150 05:55 08.11.2019
4779 Clouds 5 1006 93 10000 1.5 80 05:21 08.11.2019
4780 Clouds 6 1007 87 10000 3.6 170 03:44 08.11.2019
4781 Clouds 6 1007 81 10000 4.1 170 03:23 08.11.2019
4782 Clouds 6 1007 81 10000 1.5 180 02:46 08.11.2019
4783 Clouds 7 1007 75 10000 4.1 160 01:48 08.11.2019
4784 Clouds 7 1007 75 10000 4.1 160 01:30 08.11.2019
4785 Clouds 5 1006 75 10000 4.6 160 00:37 08.11.2019
4786 Clouds 5 1006 75 10000 3.1 150 00:18 08.11.2019
4787 Clouds 6 1006 75 10000 4.6 160 23:43 07.11.2019
4788 Clouds 6 1005 81 10000 4.6 150 23:24 07.11.2019
4789 Clouds 6 1005 81 10000 4.1 160 22:43 07.11.2019
4790 Clouds 6 1005 75 10000 4.1 150 22:22 07.11.2019
4791 Clouds 7 1005 75 10000 4.1 150 21:58 07.11.2019
4792 Clouds 7 1005 75 10000 3.6 150 21:38 07.11.2019
4793 Clouds 7 1005 75 10000 3.6 150 21:20 07.11.2019
4794 Clouds 7 1005 75 10000 3.6 150 20:58 07.11.2019
4795 Clouds 7 1005 75 10000 3.1 150 20:40 07.11.2019
4796 Clouds 7 1005 75 10000 3.1 150 20:40 07.11.2019
4797 Clouds 7 1004 81 10000 2.6 150 20:21 07.11.2019
4798 Clouds 7 1004 81 10000 2.6 150 19:56 07.11.2019
4799 Clouds 7 1004 76 10000 2.1 150 19:37 07.11.2019
4800 Clouds 7 1004 81 10000 2.6 140 19:19 07.11.2019
4801 Clouds 7 1004 81 10000 2.6 140 18:56 07.11.2019
4802 Clouds 7 1004 76 10000 2.6 150 18:37 07.11.2019
4803 Clouds 7 1004 75 10000 2.1 150 18:19 07.11.2019
4804 Clouds 7 1004 75 10000 2.6 160 17:41 07.11.2019
4805 Clouds 7 1004 75 10000 2.6 160 17:23 07.11.2019
4806 Clouds 8 1004 70 10000 2.6 170 16:59 07.11.2019
4807 Clouds 8 1004 66 10000 4.1 190 16:40 07.11.2019
4808 Clouds 9 1004 66 10000 4.1 190 16:22 07.11.2019
4809 Clouds 9 1004 66 10000 5.7 180 15:59 07.11.2019
4810 -273 0 0 0 0 0 15:39 07.11.2019
4811 Clouds 11 1003 62 10000 4.6 160 15:19 07.11.2019
4812 Clouds 11 1003 62 10000 5.7 170 14:54 07.11.2019
4813 Clouds 11 1003 66 10000 5.7 160 14:36 07.11.2019
4814 Clouds 11 1003 66 10000 5.7 160 14:18 07.11.2019
4815 Clouds 12 1003 58 10000 3.6 140 13:54 07.11.2019
4816 Clouds 12 1003 58 10000 3.1 210 13:36 07.11.2019
4817 Clouds 12 1003 58 10000 3.1 210 13:18 07.11.2019
4818 Clouds 12 1003 58 10000 3.1 200 12:54 07.11.2019
4819 Clouds 12 1003 62 10000 2.6 220 12:36 07.11.2019
4820 Clouds 11 1003 62 10000 2.6 220 12:18 07.11.2019
4821 Clouds 11 1004 62 10000 3.6 180 11:40 07.11.2019
4822 Clouds 11 1004 62 10000 3.6 180 11:22 07.11.2019
4823 Clouds 10 1004 71 10000 3.6 170 10:42 07.11.2019
4824 Clouds 10 1004 71 10000 3.6 170 10:42 07.11.2019
4825 Clouds 10 1004 76 10000 4.1 170 10:19 07.11.2019
4826 Clouds 9 1003 76 10000 4.1 160 09:45 07.11.2019
4827 Clouds 8 1003 75 10000 2.6 150 09:26 07.11.2019
4828 -273 0 0 0 0 0 09:25 07.11.2019
4829 Clouds 8 1003 75 10000 2.6 150 09:24 07.11.2019
4830 Clouds 7 1003 87 10000 3.1 160 08:59 07.11.2019
4831 Clouds 7 1004 93 10000 3.6 160 08:40 07.11.2019
4832 Clouds 7 1004 93 10000 3.6 160 08:40 07.11.2019
4833 Clouds 6 1004 93 10000 3.6 160 08:22 07.11.2019
4834 Clouds 5 1003 87 10000 3.1 160 07:56 07.11.2019
4835 Clouds 5 1003 93 10000 2.6 150 07:37 07.11.2019
4836 Clouds 5 1003 93 10000 2.6 150 07:19 07.11.2019
4837 Clouds 5 1003 93 10000 3.6 160 06:44 07.11.2019
4838 Clouds 5 1003 93 10000 2.6 150 06:23 07.11.2019
4839 Clouds 5 1003 93 10000 2.6 150 06:23 07.11.2019
4840 Clouds 5 1003 87 10000 3.1 150 05:48 07.11.2019
4841 Clouds 5 1003 87 10000 3.1 150 05:30 07.11.2019
4842 Clouds 6 1003 87 10000 2.6 170 04:50 07.11.2019
4843 Rain 6 1003 87 10000 2.6 180 04:28 07.11.2019
4844 Clouds 6 1004 87 10000 2.6 210 01:28 07.11.2019
4845 Clouds 7 1004 87 10000 3.1 220 00:30 07.11.2019
4846 Rain 7 1004 87 10000 2.6 220 23:56 06.11.2019
4847 Drizzle 7 1004 87 10000 2.6 220 23:38 06.11.2019
4848 Drizzle 7 1004 87 10000 2.6 220 23:18 06.11.2019
4849 Rain 7 1004 87 10000 3.1 220 22:40 06.11.2019
4850 Rain 7 1004 87 10000 3.1 220 22:21 06.11.2019
4851 Rain 7 1004 81 10000 4.1 200 21:57 06.11.2019
4852 Drizzle 7 1004 87 10000 3.1 210 21:39 06.11.2019
4853 Drizzle 7 1004 87 10000 3.1 210 21:39 06.11.2019
4854 Drizzle 7 1004 87 10000 3.1 210 21:20 06.11.2019
4855 Rain 8 1003 81 10000 3.1 210 20:57 06.11.2019
4856 Rain 8 1003 75 10000 3.6 200 20:39 06.11.2019
4857 Rain 8 1003 75 10000 3.6 200 20:20 06.11.2019
4858 Clouds 7 1003 81 10000 3.6 200 19:58 06.11.2019
4859 Clouds 7 1003 81 10000 3.1 220 19:37 06.11.2019
4860 Clouds 7 1003 81 10000 3.1 220 19:19 06.11.2019
4861 Clouds 7 1003 81 10000 3.1 220 18:56 06.11.2019
4862 Clouds 7 1003 75 10000 3.1 220 18:38 06.11.2019
4863 Rain 7 1002 75 10000 3.1 220 18:18 06.11.2019
4864 Rain 7 1002 75 10000 4.1 220 17:42 06.11.2019
4865 -273 0 0 0 0 0 17:24 06.11.2019
4866 -273 0 0 0 0 0 17:24 06.11.2019
4867 Rain 9 1002 70 10000 3.6 230 16:58 06.11.2019
4868 Rain 9 1002 70 10000 4.6 240 16:39 06.11.2019
4869 Clouds 9 1002 71 10000 4.6 230 16:21 06.11.2019
4870 Clouds 9 1002 71 10000 4.6 230 16:21 06.11.2019
4871 Clouds 9 1002 71 10000 4.6 230 15:59 06.11.2019
4872 Clouds 10 1001 66 10000 4.6 240 15:38 06.11.2019
4873 Clouds 10 1001 66 10000 3.1 260 15:19 06.11.2019
4874 Clouds 10 1001 66 10000 3.1 260 14:59 06.11.2019
4875 Clouds 11 1001 62 10000 5.1 240 14:41 06.11.2019
4876 Clouds 11 1001 62 10000 5.1 220 14:23 06.11.2019
4877 Clouds 11 1001 62 10000 5.1 220 13:59 06.11.2019
4878 Clouds 11 1001 66 10000 5.1 250 13:38 06.11.2019
4879 Clouds 11 1001 62 10000 4.6 250 13:19 06.11.2019
4880 Clouds 11 1001 62 10000 4.6 250 12:55 06.11.2019
4881 Clouds 11 1001 66 10000 4.6 260 12:37 06.11.2019
4882 Clouds 10 1001 71 10000 4.6 260 12:19 06.11.2019
4883 Clouds 11 1001 71 10000 4.6 260 11:57 06.11.2019
4884 Clouds 11 1001 71 10000 4.6 260 11:57 06.11.2019
4885 Clouds 10 1001 71 10000 5.1 240 11:37 06.11.2019
4886 Clouds 10 1001 71 10000 5.1 240 11:18 06.11.2019
4887 Clouds 10 1001 71 10000 5.1 240 10:56 06.11.2019
4888 Clouds 10 1001 66 10000 3.6 250 10:37 06.11.2019
4889 Clouds 10 1000 76 10000 4.1 220 10:19 06.11.2019
4890 Clouds 9 1000 81 10000 4.1 210 09:43 06.11.2019
4891 Clouds 9 1000 81 10000 4.1 210 09:43 06.11.2019
4892 Clouds 9 1000 81 10000 4.1 210 09:43 06.11.2019
4893 Clouds 8 1000 87 10000 4.6 200 09:21 06.11.2019
4894 Clouds 7 1000 81 10000 4.6 210 08:58 06.11.2019
4895 Clouds 7 1000 81 10000 4.6 210 08:38 06.11.2019
4896 Clouds 7 1000 87 10000 4.1 220 08:20 06.11.2019
4897 Clouds 6 1000 87 10000 4.1 220 07:56 06.11.2019
4898 Clouds 6 1000 81 10000 4.6 220 07:37 06.11.2019
4899 Clouds 6 1000 81 10000 4.6 220 07:37 06.11.2019
4900 Clouds 6 999 81 10000 4.1 220 07:19 06.11.2019
4901 Clouds 6 999 81 10000 2.6 180 06:44 06.11.2019
4902 Clouds 6 999 87 10000 3.6 180 06:23 06.11.2019
4903 Clear 5 998 87 10000 3.6 210 04:18 06.11.2019
4904 Clear 5 998 81 10000 3.6 250 02:20 06.11.2019
4905 Clear 6 999 81 10000 3.1 230 01:31 06.11.2019
4906 Clouds 5 999 81 10000 3.6 220 00:37 06.11.2019
4907 Clouds 5 999 81 10000 3.6 210 23:58 05.11.2019
4908 Clouds 5 999 81 10000 3.6 210 23:58 05.11.2019
4909 Clouds 5 998 81 10000 4.1 200 23:38 05.11.2019
4910 Clouds 5 998 81 10000 4.1 200 23:38 05.11.2019
4911 Clouds 5 998 81 10000 3.1 210 23:20 05.11.2019
4912 Clouds 4 998 81 10000 3.6 210 22:43 05.11.2019
4913 Clouds 5 998 81 10000 3.6 210 22:20 05.11.2019
4914 Clouds 5 998 81 10000 3.6 210 21:59 05.11.2019
4915 Clouds 4 998 87 10000 3.1 220 21:41 05.11.2019
4916 Clouds 4 998 87 10000 3.6 210 21:21 05.11.2019
4917 Clouds 5 998 87 10000 3.6 210 20:57 05.11.2019
4918 Clouds 5 998 87 10000 3.1 200 20:38 05.11.2019
4919 Clouds 5 961 93 0 0.89 195 20:20 05.11.2019
4920 Clouds 5 998 81 10000 3.1 210 19:57 05.11.2019
4921 Clouds 6 998 81 10000 2.6 210 19:38 05.11.2019
4922 Clouds 6 998 75 10000 2.1 230 19:20 05.11.2019
4923 Clouds 7 998 75 10000 2.1 230 18:57 05.11.2019
4924 Clouds 7 998 81 10000 2.1 190 18:39 05.11.2019
4925 Clouds 7 998 75 10000 1.5 240 18:20 05.11.2019
4926 Clouds 7 998 75 10000 1.5 240 18:20 05.11.2019
4927 Clouds 8 997 75 10000 1.5 230 17:57 05.11.2019
4928 Clouds 8 997 75 10000 1.5 230 17:38 05.11.2019
4929 Clouds 9 997 70 10000 3.1 230 17:18 05.11.2019
4930 Clouds 9 997 70 10000 3.1 230 16:54 05.11.2019
4931 Clouds 9 997 70 10000 3.1 230 16:36 05.11.2019
4932 Clouds 10 997 71 10000 4.1 230 16:18 05.11.2019
4933 Clouds 11 997 66 10000 4.6 230 15:37 05.11.2019
4934 Clouds 11 997 62 10000 5.1 230 15:19 05.11.2019
4935 Clouds 11 997 62 10000 5.1 230 14:58 05.11.2019
4936 Clouds 11 997 58 10000 5.1 250 14:38 05.11.2019
4937 Clouds 11 997 62 10000 4.6 250 14:20 05.11.2019
4938 Clouds 11 997 62 10000 7.2 240 13:44 05.11.2019
4939 Clouds 11 997 58 10000 6.2 250 13:25 05.11.2019
4940 Clouds 11 997 58 10000 6.2 250 12:59 05.11.2019
4941 Clouds 11 997 62 10000 6.7 240 12:39 05.11.2019
4942 Clouds 11 997 62 10000 6.7 240 12:39 05.11.2019
4943 Clouds 11 997 66 10000 5.1 230 12:20 05.11.2019
4944 Clouds 11 997 66 10000 5.1 230 11:55 05.11.2019
4945 Clouds 11 997 66 10000 5.1 240 11:36 05.11.2019
4946 Clouds 10 997 66 10000 6.7 220 11:18 05.11.2019
4947 Clouds 10 998 71 10000 5.1 220 10:42 05.11.2019
4948 Clouds 10 998 71 10000 5.1 220 10:24 05.11.2019
4949 Clouds 10 998 71 10000 5.1 220 10:24 05.11.2019
4950 Clouds 10 997 71 10000 5.1 200 09:58 05.11.2019
4951 Clouds 9 997 71 10000 5.1 200 09:39 05.11.2019
4952 Clouds 9 997 76 10000 4.6 210 09:19 05.11.2019
4953 Clouds 9 997 76 10000 4.6 210 08:55 05.11.2019
4954 Clouds 9 997 76 10000 4.6 210 08:55 05.11.2019
4955 Clouds 9 997 76 10000 5.1 230 08:37 05.11.2019
4956 Clouds 8 997 76 10000 4.6 220 08:18 05.11.2019
4957 Clouds 8 996 76 10000 4.1 220 07:43 05.11.2019
4958 Clouds 8 996 81 10000 4.1 220 07:24 05.11.2019
4959 Clouds 8 996 81 10000 4.1 230 06:51 05.11.2019
4960 Clouds 8 996 81 10000 4.1 230 06:26 05.11.2019
4961 Clouds 8 995 81 10000 3.6 220 05:39 05.11.2019
4962 Clouds 8 995 81 10000 2.6 190 05:19 05.11.2019
4963 Clouds 8 995 81 10000 4.1 210 04:20 05.11.2019
4964 Clouds 8 995 81 10000 3.6 220 03:24 05.11.2019
4965 Clouds 7 994 87 10000 5.7 210 02:42 05.11.2019
4966 Clouds 8 994 81 10000 4.1 230 01:52 05.11.2019
4967 Clouds 8 994 81 10000 4.1 230 01:52 05.11.2019
4968 Clouds 8 994 81 10000 4.1 230 01:52 05.11.2019
4969 Clouds 9 994 76 10000 4.1 220 00:46 05.11.2019
4970 Clouds 9 994 76 10000 4.1 220 00:25 05.11.2019
4971 Clouds 9 994 81 10000 3.6 230 23:42 04.11.2019
4972 Clouds 9 994 81 10000 3.1 230 23:19 04.11.2019
4973 Clouds 9 994 81 10000 3.1 230 22:56 04.11.2019
4974 Clouds 10 993 81 10000 4.6 230 22:37 04.11.2019
4975 Clouds 10 993 87 10000 4.6 210 22:19 04.11.2019
4976 Clouds 10 993 87 10000 4.6 210 21:55 04.11.2019
4977 Clouds 10 993 87 10000 4.6 200 21:37 04.11.2019
4978 Clouds 10 993 87 10000 4.1 190 21:18 04.11.2019
4979 Clouds 10 993 87 10000 4.1 190 20:55 04.11.2019
4980 Clouds 10 993 93 10000 4.1 200 20:37 04.11.2019
4981 Rain 10 993 93 10000 3.6 190 20:18 04.11.2019
4982 Rain 10 993 87 10000 4.1 190 19:43 04.11.2019
4983 Rain 10 993 87 10000 4.1 190 19:25 04.11.2019
4984 Rain 10 993 87 10000 3.1 210 18:59 04.11.2019
4985 Rain 10 992 81 10000 4.6 220 18:41 04.11.2019
4986 Rain 10 992 76 10000 4.1 210 18:23 04.11.2019
4987 Rain 10 992 76 10000 4.1 210 17:59 04.11.2019
4988 Clouds 11 992 71 10000 3.6 210 17:37 04.11.2019
4989 Clouds 11 992 71 10000 2.6 240 17:19 04.11.2019
4990 Clouds 11 992 71 10000 2.6 220 16:44 04.11.2019
4991 Clouds 11 992 71 10000 2.6 220 16:25 04.11.2019
4992 Clouds 12 992 66 10000 2.6 230 15:59 04.11.2019
4993 Clouds 12 992 66 10000 3.6 230 15:41 04.11.2019
4994 Clouds 13 992 62 10000 4.6 240 15:21 04.11.2019
4995 Clouds 13 992 62 10000 4.6 240 14:58 04.11.2019
4996 Clouds 13 992 62 10000 4.6 240 14:58 04.11.2019
4997 Clouds 13 992 62 10000 5.1 240 14:40 04.11.2019
4998 Clouds 13 992 66 10000 6.2 230 14:20 04.11.2019
4999 Clouds 13 992 66 10000 6.2 230 14:20 04.11.2019
5000 Clouds 13 992 66 10000 6.2 230 14:20 04.11.2019
5001 Clouds 13 992 66 10000 6.2 230 13:58 04.11.2019
5002 Clouds 13 992 66 10000 6.2 230 13:58 04.11.2019
5003 Clouds 13 992 66 10000 5.7 240 13:40 04.11.2019
5004 Clouds 13 991 66 10000 5.7 240 13:21 04.11.2019
5005 Clouds 13 991 66 10000 5.7 240 12:57 04.11.2019
5006 Clouds 13 991 71 10000 6.2 240 12:38 04.11.2019
5007 Clouds 12 992 71 10000 6.2 240 12:20 04.11.2019
5008 Clouds 12 992 71 10000 5.7 240 11:43 04.11.2019
5009 Clouds 12 992 71 10000 5.7 240 11:24 04.11.2019
5010 Clouds 11 992 71 10000 5.7 230 10:59 04.11.2019
5011 Clouds 11 992 81 10000 5.1 230 10:41 04.11.2019
5012 Clouds 11 992 81 10000 5.1 230 10:41 04.11.2019
5013 Clouds 11 992 81 10000 5.1 230 10:23 04.11.2019
5014 Clouds 11 992 81 10000 5.1 230 10:23 04.11.2019
5015 Clouds 11 991 81 10000 5.1 230 09:46 04.11.2019
5016 Clouds 11 991 81 10000 5.1 230 09:28 04.11.2019
5017 Clouds 10 991 87 10000 4.1 220 08:59 04.11.2019
5018 Clouds 10 991 93 10000 4.6 210 08:38 04.11.2019
5019 Rain 10 991 93 10000 3.6 210 08:20 04.11.2019
5020 Rain 10 991 93 10000 3.1 210 07:44 04.11.2019
5021 Rain 9 991 93 10000 3.1 210 07:24 04.11.2019
5022 Rain 10 990 93 10000 2.1 220 06:57 04.11.2019
5023 Rain 10 990 93 10000 2.1 220 06:34 04.11.2019
5024 Rain 9 990 93 10000 3.6 220 05:57 04.11.2019
5025 Drizzle 9 990 93 3400 3.6 240 04:45 04.11.2019
5026 Drizzle 9 989 100 4100 2.6 260 04:21 04.11.2019
5027 Rain 9 989 100 10000 1.5 230 02:44 04.11.2019
5028 Rain 8 989 100 7000 0.5 0 01:22 04.11.2019
5029 Rain 8 988 100 6000 0.5 0 00:49 04.11.2019
5030 Rain 8 988 93 5000 0.5 0 00:21 04.11.2019
5031 Rain 8 988 93 5000 0.5 0 23:56 03.11.2019
5032 Rain 8 988 93 7000 1.5 180 23:36 03.11.2019
5033 Rain 8 989 93 7000 1 0 23:18 03.11.2019
5034 Rain 8 989 93 7000 1 0 22:54 03.11.2019
5035 Rain 8 989 93 7000 1 0 22:54 03.11.2019
5036 Rain 8 989 93 10000 1 0 22:36 03.11.2019
5037 Rain 8 989 87 10000 1 0 22:18 03.11.2019
5038 Clouds 8 989 87 10000 2.1 180 21:41 03.11.2019
5039 Clouds 8 988 87 10000 2.6 130 21:21 03.11.2019
5040 Clouds 8 988 87 10000 2.6 130 20:56 03.11.2019
5041 Clouds 8 988 87 10000 3.1 150 20:37 03.11.2019
5042 Clouds 8 989 93 10000 3.1 140 20:18 03.11.2019
5043 Clouds 8 989 93 10000 3.1 140 19:57 03.11.2019
5044 Clouds 8 989 87 10000 3.1 140 19:38 03.11.2019
5045 Clouds 8 989 93 10000 4.1 160 19:20 03.11.2019
5046 Clouds 9 989 87 10000 4.1 160 18:39 03.11.2019
5047 Clouds 9 989 87 10000 4.6 150 18:19 03.11.2019
5048 Clouds 9 989 87 10000 4.6 150 17:59 03.11.2019
5049 Clouds 10 989 81 10000 4.6 140 17:41 03.11.2019
5050 Clouds 10 989 81 10000 4.6 140 17:41 03.11.2019
5051 Clouds 10 990 81 10000 4.1 160 17:20 03.11.2019
5052 Clouds 10 990 81 10000 5.1 160 16:56 03.11.2019
5053 Clouds 10 990 81 10000 5.1 160 16:38 03.11.2019
5054 Clouds 11 990 81 10000 5.1 160 16:20 03.11.2019
5055 Clouds 11 990 81 10000 5.1 160 15:57 03.11.2019
5056 Clouds 11 990 81 10000 5.7 150 15:39 03.11.2019
5057 Clouds 11 990 81 10000 4.6 150 15:20 03.11.2019
5058 Clouds 12 990 81 10000 6.2 150 14:42 03.11.2019
5059 Clouds 12 990 76 10000 3.6 150 14:19 03.11.2019
5060 Clouds 11 990 76 10000 3.6 150 13:58 03.11.2019
5061 Clouds 11 990 76 10000 3.6 140 13:40 03.11.2019
5062 Clouds 12 991 71 10000 4.6 140 13:18 03.11.2019
5063 Rain 11 991 76 10000 5.1 150 12:39 03.11.2019
5064 Rain 11 991 76 10000 4.1 150 12:20 03.11.2019
5065 Rain 11 991 76 10000 4.1 150 11:59 03.11.2019
5066 Rain 11 992 81 10000 4.6 150 11:41 03.11.2019
5067 Clouds 10 992 81 10000 5.7 140 11:20 03.11.2019
5068 Clouds 10 992 87 10000 7.2 150 10:55 03.11.2019
5069 Clouds 10 992 87 10000 7.2 150 10:37 03.11.2019
5070 Clouds 10 992 87 10000 7.2 150 10:18 03.11.2019
5071 Clouds 10 992 87 10000 7.2 150 10:18 03.11.2019
5072 Clouds 10 992 87 10000 8.2 160 09:42 03.11.2019
5073 Clouds 10 992 87 10000 8.2 160 09:24 03.11.2019
5074 Clouds 10 992 87 10000 7.2 150 08:56 03.11.2019
5075 Clouds 10 992 81 10000 7.2 150 08:36 03.11.2019
5076 Rain 10 992 81 10000 5.7 150 08:18 03.11.2019
5077 Rain 10 992 87 10000 5.7 150 07:44 03.11.2019
5078 Rain 10 992 81 10000 6.2 150 07:20 03.11.2019
5079 Rain 10 992 87 10000 6.2 160 06:39 03.11.2019
5080 Rain 11 992 87 10000 6.7 160 05:54 03.11.2019
5081 Rain 11 992 81 10000 7.2 160 05:34 03.11.2019
5082 Rain 11 993 81 10000 6.7 160 04:52 03.11.2019
5083 Clouds 11 993 81 10000 7.7 170 03:58 03.11.2019
5084 Rain 11 993 87 10000 6.2 160 03:21 03.11.2019
5085 Clouds 11 993 87 10000 5.1 160 02:23 03.11.2019
5086 Clouds 11 994 81 10000 7.2 160 01:49 03.11.2019
5087 Clouds 11 994 81 10000 7.2 160 01:27 03.11.2019
5088 Clouds 12 994 81 10000 7.7 170 00:59 03.11.2019
5089 Clouds 12 995 87 10000 6.2 170 00:38 03.11.2019
5090 Clouds 12 995 87 10000 6.7 180 00:20 03.11.2019
5091 Clouds 12 995 87 10000 6.7 180 23:54 02.11.2019
5092 Clouds 11 995 87 10000 6.7 180 23:36 02.11.2019
5093 Clouds 11 995 87 10000 5.1 160 23:18 02.11.2019
5094 Clouds 11 995 87 10000 5.1 160 23:18 02.11.2019
5095 Clouds 11 995 87 10000 5.1 160 22:54 02.11.2019
5096 Clouds 11 995 81 10000 5.1 160 22:36 02.11.2019
5097 Clouds 11 996 81 10000 5.7 140 22:18 02.11.2019
5098 Clouds 11 996 81 10000 5.7 140 21:55 02.11.2019
5099 Clouds 11 996 81 10000 5.1 150 21:36 02.11.2019
5100 Clouds 11 996 81 10000 4.1 160 21:18 02.11.2019
5101 Clouds 11 996 81 10000 4.1 160 21:18 02.11.2019
5102 Clouds 11 996 81 10000 4.1 160 21:18 02.11.2019
5103 Clouds 12 996 76 10000 5.1 150 20:41 02.11.2019
5104 Clouds 12 996 76 10000 6.2 170 20:22 02.11.2019
5105 Clouds 12 996 76 10000 6.2 170 19:59 02.11.2019
5106 Clouds 12 996 81 10000 6.7 170 19:38 02.11.2019
5107 Clouds 12 996 81 10000 6.7 160 19:20 02.11.2019
5108 Clouds 13 996 81 10000 6.7 160 18:55 02.11.2019
5109 Clouds 13 996 81 10000 6.7 160 18:36 02.11.2019
5110 Clouds 13 996 81 10000 6.2 170 18:18 02.11.2019
5111 Clouds 13 996 81 10000 6.2 170 17:55 02.11.2019
5112 Clouds 13 995 81 10000 6.2 170 17:37 02.11.2019
5113 Clouds 13 995 76 10000 5.7 150 17:18 02.11.2019
5114 Clouds 14 995 76 10000 5.1 150 16:40 02.11.2019
5115 Clouds 14 995 71 10000 4.1 150 16:21 02.11.2019
5116 Clouds 14 995 71 10000 4.1 150 15:44 02.11.2019
5117 Clouds 15 995 71 10000 5.1 170 15:22 02.11.2019
5118 Clouds 15 995 71 10000 5.1 170 14:59 02.11.2019
5119 Clouds 15 995 71 10000 4.6 170 14:41 02.11.2019
5120 Clouds 15 995 71 10000 4.1 170 14:22 02.11.2019
5121 Clouds 14 995 76 10000 4.6 160 13:56 02.11.2019
5122 Clouds 14 995 76 10000 4.6 160 13:37 02.11.2019
5123 Clouds 13 995 76 10000 5.7 170 13:18 02.11.2019
5124 Rain 14 995 76 10000 5.7 160 12:41 02.11.2019
5125 Rain 14 995 76 10000 7.2 160 12:22 02.11.2019
5126 Rain 12 995 76 10000 7.2 160 11:57 02.11.2019
5127 Rain 12 996 81 10000 6.7 160 11:39 02.11.2019
5128 Clouds 11 996 81 10000 6.7 160 11:20 02.11.2019
5129 Clouds 11 996 81 10000 6.7 150 10:46 02.11.2019
5130 Rain 10 996 87 10000 7.7 160 10:27 02.11.2019
5131 Rain 10 996 87 10000 7.7 160 09:57 02.11.2019
5132 Clouds 10 996 87 10000 7.7 160 09:39 02.11.2019
5133 Clouds 9 996 87 10000 7.7 160 09:19 02.11.2019
5134 Clouds 9 996 87 10000 7.7 160 08:44 02.11.2019
5135 Clouds 8 996 87 10000 7.2 160 08:22 02.11.2019
5136 Rain 8 997 93 10000 7.2 160 07:47 02.11.2019
5137 Rain 8 997 93 10000 7.2 160 07:28 02.11.2019
5138 Rain 7 997 87 10000 6.7 160 06:55 02.11.2019
5139 Clouds 7 997 87 10000 7.2 160 06:30 02.11.2019
5140 Clouds 7 997 87 10000 7.7 160 05:56 02.11.2019
5141 Rain 7 998 93 10000 8.2 160 05:20 02.11.2019
5142 Rain 7 999 81 10000 7.7 160 04:21 02.11.2019
5143 Clouds 7 999 81 10000 7.2 160 03:49 02.11.2019
5144 Clouds 7 1000 87 10000 8.2 160 02:42 02.11.2019
5145 Clouds 6 1001 86 10000 6.2 160 01:44 02.11.2019
5146 Clouds 6 1001 86 10000 6.2 160 01:23 02.11.2019
5147 Clouds 6 1002 86 10000 8.7 160 00:51 02.11.2019
5148 Clouds 6 1002 86 10000 8.7 160 00:26 02.11.2019
5149 Clouds 6 1003 86 10000 8.7 170 23:48 01.11.2019
5150 Clouds 6 1004 86 10000 9.3 170 23:22 01.11.2019
5151 Clouds 6 1004 86 10000 9.3 170 22:58 01.11.2019
5152 Rain 6 1004 86 10000 8.2 160 22:39 01.11.2019
5153 Rain 6 1005 93 10000 8.2 160 22:20 01.11.2019
5154 Rain 6 1005 93 10000 7.7 160 21:42 01.11.2019
5155 Rain 6 1005 93 10000 8.2 160 21:23 01.11.2019
5156 Rain 6 1005 93 10000 8.2 160 20:58 01.11.2019
5157 Rain 6 1006 93 9000 9.3 160 20:40 01.11.2019
5158 Rain 6 1006 87 10000 8.7 160 20:20 01.11.2019
5159 Rain 6 1006 87 10000 8.7 160 19:56 01.11.2019
5160 Rain 6 1006 87 10000 8.2 160 19:38 01.11.2019
5161 Rain 6 1007 86 9000 7.2 160 19:20 01.11.2019
5162 Rain 6 1008 75 9000 7.7 170 18:40 01.11.2019
5163 Rain 6 1008 70 10000 9.3 170 18:21 01.11.2019
5164 Clouds 6 1008 70 10000 9.3 170 17:56 01.11.2019
5165 Rain 6 1008 70 10000 8.7 170 17:37 01.11.2019
5166 Clouds 6 1008 73 10000 8.2 160 17:19 01.11.2019
5167 Clouds 6 1009 73 10000 7.7 160 16:38 01.11.2019
5168 Clouds 6 1009 73 10000 7.2 170 16:20 01.11.2019
5169 Clouds 6 1009 73 10000 7.2 170 15:55 01.11.2019
5170 Clouds 6 1010 73 10000 7.7 160 15:37 01.11.2019
5171 Clouds 7 1011 73 10000 7.2 160 15:19 01.11.2019
5172 Clouds 7 1011 73 10000 8.2 160 14:42 01.11.2019
5173 Clouds 7 1011 73 10000 8.2 160 14:24 01.11.2019
5174 Clouds 7 1012 62 10000 8.2 160 13:57 01.11.2019
5175 Clouds 7 1012 65 10000 8.7 170 13:39 01.11.2019
5176 Clouds 7 1013 65 10000 6.2 160 13:20 01.11.2019
5177 Clouds 7 1013 60 10000 8.2 160 12:44 01.11.2019
5178 Clouds 7 1013 60 10000 8.2 160 12:26 01.11.2019
5179 Clouds 7 1014 60 10000 9.8 150 11:59 01.11.2019
5180 Clouds 6 1015 65 10000 8.2 160 11:40 01.11.2019
5181 Clouds 6 1015 65 10000 8.2 160 11:40 01.11.2019
5182 Clouds 6 1015 65 10000 9.3 160 11:22 01.11.2019
5183 Clouds 5 1016 65 10000 7.2 170 10:42 01.11.2019
5184 Clouds 5 1016 65 10000 7.2 170 10:24 01.11.2019
5185 Clouds 5 1016 65 10000 9.3 170 09:58 01.11.2019
5186 Clouds 5 1016 65 10000 9.3 170 09:58 01.11.2019
5187 Clouds 4 1016 69 10000 8.7 160 09:40 01.11.2019
5188 Clouds 4 1017 69 10000 7.2 150 09:20 01.11.2019
5189 Clouds 4 1017 69 10000 7.2 150 09:20 01.11.2019
5190 Clouds 3 1017 69 10000 7.2 150 08:45 01.11.2019
5191 Clear 2 1017 69 10000 6.2 150 08:22 01.11.2019
5192 Clear 0 1017 69 10000 6.2 150 07:57 01.11.2019
5193 Clear 0 1017 69 10000 6.2 150 07:57 01.11.2019
5194 Clear -1 1018 74 10000 5.1 140 07:39 01.11.2019
5195 Clear -1 1018 69 10000 5.1 150 07:20 01.11.2019
5196 Clear -1 1018 74 10000 6.2 140 06:49 01.11.2019
5197 Clear -1 1018 74 10000 4.6 140 06:22 01.11.2019
5198 Clear -2 1019 74 10000 4.1 150 05:44 01.11.2019
5199 Clear -2 1019 80 10000 4.6 140 04:39 01.11.2019
5200 Clear -2 1020 80 10000 3.1 140 03:32 01.11.2019
5201 Clouds -2 1022 74 10000 2.1 140 01:43 01.11.2019
5202 Clouds -2 1022 74 10000 2.6 110 00:58 01.11.2019
5203 Clouds -2 1022 69 10000 2.1 110 00:20 01.11.2019
5204 Clouds -1 1023 69 10000 2.6 110 23:44 31.10.2019
5205 Clouds -1 1023 69 10000 2.1 110 23:23 31.10.2019
5206 Clouds -1 1023 69 10000 2.1 110 22:58 31.10.2019
5207 Clouds -2 1023 66 10000 1.5 120 22:40 31.10.2019
5208 Clouds -1 1024 66 10000 3.1 160 22:21 31.10.2019
5209 Clouds -1 1024 74 10000 2.1 150 21:45 31.10.2019
5210 Clouds 0 1024 74 10000 2.1 150 21:23 31.10.2019
5211 Clouds 0 1024 80 10000 2.1 140 20:59 31.10.2019
5212 Clouds 0 1024 74 10000 2.6 120 20:40 31.10.2019
5213 Clouds 0 1024 74 10000 2.6 120 20:22 31.10.2019
5214 Clouds 0 1024 74 10000 2.6 110 19:45 31.10.2019
5215 Clouds 0 1024 74 10000 2.6 110 19:27 31.10.2019
5216 Clouds 1 1024 69 10000 2.6 110 18:59 31.10.2019
5217 Clouds 1 1025 79 0 2.28 152 18:41 31.10.2019
5218 Clouds 1 985 76 0 0.89 168 18:22 31.10.2019
5219 Clouds 2 1024 69 10000 2.6 90 17:56 31.10.2019
5220 Clouds 2 985 73 0 0.89 135 17:37 31.10.2019
5221 Clouds 3 985 73 0 0.89 176 17:19 31.10.2019
5222 Clouds 5 1024 48 10000 2.1 120 16:41 31.10.2019
5223 Clouds 6 1024 45 10000 3.1 110 16:20 31.10.2019
5224 Clouds 7 1024 45 10000 3.1 110 15:59 31.10.2019
5225 Clouds 7 1024 45 10000 3.6 90 15:40 31.10.2019
5226 Clouds 7 1024 42 10000 2.1 80 15:20 31.10.2019
5227 Clouds 8 1024 42 10000 2.1 80 14:58 31.10.2019
5228 Clouds 8 1025 42 10000 3.1 80 14:40 31.10.2019
5229 Clear 8 1025 42 10000 2.1 0 14:21 31.10.2019
5230 Clear 8 1025 42 10000 2.1 0 14:21 31.10.2019
5231 Clear 8 1025 42 10000 2.1 0 13:59 31.10.2019
5232 Clear 8 1025 45 10000 2.1 150 13:38 31.10.2019
5233 Clear 8 1025 45 10000 2.1 130 13:19 31.10.2019
5234 Clear 8 1025 45 10000 2.1 130 13:19 31.10.2019
5235 Clear 7 1025 45 10000 2.1 130 12:55 31.10.2019
5236 Clear 7 1025 45 10000 3.1 150 12:37 31.10.2019
5237 Clear 7 1026 44 10000 3.6 160 12:18 31.10.2019
5238 Clear 6 1026 44 10000 2.6 150 11:45 31.10.2019
5239 Clear 5 1026 57 10000 2.6 150 11:20 31.10.2019
5240 Clear 5 1026 57 10000 2.6 150 10:58 31.10.2019
5241 Clear 4 1026 57 10000 2.6 150 10:39 31.10.2019
5242 Clear 3 1027 80 10000 2.1 150 10:20 31.10.2019
5243 Clear 2 1027 57 10000 1.5 160 09:46 31.10.2019
5244 Clear 1 1026 92 10000 1 0 09:20 31.10.2019
5245 Clear 1 1026 92 10000 1 0 09:20 31.10.2019
5246 Clear 1 1026 92 10000 1 0 08:58 31.10.2019
5247 Clear -2 1027 92 10000 1.5 220 08:39 31.10.2019
5248 Clear -3 1027 100 10000 0.5 160 08:21 31.10.2019
5249 Fog -4 1027 100 10000 1.43 162 07:46 31.10.2019
5250 Fog -4 1027 100 10000 1.43 162 07:26 31.10.2019
5251 Fog -4 1026 100 8000 0.5 20 06:53 31.10.2019
5252 Fog -4 1026 100 8000 0.5 20 06:32 31.10.2019
5253 Fog -4 1026 100 800 0.5 0 05:20 31.10.2019
5254 Clouds -3 1027 100 10000 0.5 0 02:50 31.10.2019
5255 Clouds -3 1027 100 10000 0.5 0 02:27 31.10.2019
5256 Clouds -2 1027 100 10000 0.5 170 01:21 31.10.2019
5257 Clouds -2 1028 92 10000 1.5 160 00:26 31.10.2019
5258 Clouds -2 988 96 0 0.45 126 23:52 30.10.2019
5259 Clouds -1 1028 86 10000 1 0 23:27 30.10.2019
5260 Clouds -1 1028 86 10000 2.1 100 22:43 30.10.2019
5261 Clouds -1 1028 77 10000 1.5 90 22:20 30.10.2019
5262 Clouds -1 1028 77 10000 1.5 90 21:55 30.10.2019
5263 Clouds -1 1029 77 10000 1.5 150 21:37 30.10.2019
5264 Clouds -1 1029 77 10000 1.5 150 21:37 30.10.2019
5265 Clouds -1 1029 77 10000 1.5 150 21:37 30.10.2019
5266 Clouds 0 1029 77 10000 0.5 0 21:18 30.10.2019
5267 Clouds 0 1029 77 10000 0.5 0 20:58 30.10.2019
5268 Clouds 0 1028 77 10000 0.5 0 20:58 30.10.2019
5269 Clouds 0 1028 77 10000 0.5 0 20:39 30.10.2019
5270 Clouds 0 1028 77 10000 0.5 0 20:39 30.10.2019
5271 Clear 0 1028 73 10000 1 130 20:21 30.10.2019
5272 Clear 1 1028 73 10000 1 130 19:57 30.10.2019
5273 Clear 1 1028 73 10000 1 110 19:37 30.10.2019
5274 Clear 1 1028 86 10000 2.6 100 19:19 30.10.2019
5275 Clear 2 1028 86 10000 2.6 110 18:39 30.10.2019
5276 Clear 2 1028 86 10000 2.1 90 18:20 30.10.2019
5277 Clear 3 1028 86 10000 2.1 90 17:58 30.10.2019
5278 Clear 3 1028 73 10000 2.6 70 17:40 30.10.2019
5279 Clear 3 1028 86 10000 3.1 50 17:19 30.10.2019
5280 Clear 4 1028 86 10000 3.1 50 16:55 30.10.2019
5281 Clear 4 1028 80 10000 4.1 60 16:37 30.10.2019
5282 Clear 5 1028 75 10000 4.6 70 16:19 30.10.2019
5283 Clear 6 1028 70 10000 4.6 60 15:55 30.10.2019
5284 Clear 6 1028 70 10000 4.6 60 15:37 30.10.2019
5285 Clear 6 1028 65 10000 4.6 60 15:19 30.10.2019
5286 Clouds 7 1028 70 10000 3.6 60 14:42 30.10.2019
5287 Clouds 7 1029 81 10000 3.1 30 14:22 30.10.2019
5288 Clouds 7 1029 81 10000 3.1 30 13:58 30.10.2019
5289 Clouds 7 1029 81 10000 3.6 20 13:40 30.10.2019
5290 Clouds 7 1029 93 10000 3.6 10 13:20 30.10.2019
5291 Clouds 7 1029 93 10000 3.6 10 12:57 30.10.2019
5292 Mist 7 1029 93 3000 2.6 20 12:39 30.10.2019
5293 Fog 6 1030 100 500 1.5 20 12:21 30.10.2019
5294 Fog 6 1030 100 500 1.5 60 11:42 30.10.2019
5295 Fog 5 1030 100 300 1 0 11:23 30.10.2019
5296 Fog 5 1030 100 100 1.5 40 10:46 30.10.2019
5297 Fog 5 1030 100 100 1.5 40 10:27 30.10.2019
5298 Fog 4 1030 100 100 1 0 09:59 30.10.2019
5299 Fog 4 1030 100 100 1 0 09:39 30.10.2019
5300 Clouds 3 989 93 0 1.91 60 09:21 30.10.2019
5301 Fog 2 1029 82 100 1 0 08:42 30.10.2019
5302 Clouds 2 989 93 0 0.59 70 08:23 30.10.2019
5303 Fog 1 1029 100 100 1.5 70 07:59 30.10.2019
5304 Fog 1 1029 100 100 1.5 70 07:59 30.10.2019
5305 Fog 1 1029 100 100 1.5 30 07:39 30.10.2019
5306 Fog 1 1028 96 300 0.5 300 06:48 30.10.2019
5307 Fog 1 1028 96 300 0.5 300 06:29 30.10.2019
5308 Fog 1 1028 96 100 1 0 05:55 30.10.2019
5309 Fog 2 1028 100 100 1 330 05:37 30.10.2019
5310 Mist 3 1028 100 4500 0.56 11 03:51 30.10.2019
5311 Clouds 3 1028 100 6000 0.5 0 03:21 30.10.2019
5312 Clouds 3 1028 100 6000 1 0 02:48 30.10.2019
5313 Clouds 3 1028 93 9000 1.5 10 01:49 30.10.2019
5314 Clouds 3 1028 93 10000 1.5 340 00:37 30.10.2019
5315 Clouds 3 1028 93 10000 0.5 0 00:19 30.10.2019
5316 Clouds 3 1028 93 10000 1 340 23:39 29.10.2019
5317 Clouds 3 1027 93 10000 1.59 353 23:19 29.10.2019
5318 Clouds 3 1027 93 10000 1.59 353 22:42 29.10.2019
5319 Clouds 3 1027 86 10000 0.5 0 22:19 29.10.2019
5320 Clouds 3 1027 86 10000 0.5 0 22:19 29.10.2019
5321 Clouds 3 1027 86 10000 0.5 0 21:55 29.10.2019
5322 Clouds 3 1027 93 10000 1 0 21:37 29.10.2019
5323 Clouds 3 1027 80 10000 0.5 0 21:19 29.10.2019
5324 Clouds 2 1027 93 10000 0.5 0 20:42 29.10.2019
5325 Clouds 3 1027 86 10000 0.5 0 20:23 29.10.2019
5326 Clouds 3 1027 86 10000 0.5 0 19:59 29.10.2019
5327 Clouds 3 1026 86 10000 1.02 336 19:40 29.10.2019
5328 Clouds 3 1026 86 10000 0.5 0 19:22 29.10.2019
5329 Clouds 3 1026 86 10000 0.5 0 18:59 29.10.2019
5330 Clouds 4 1026 86 10000 1 0 18:40 29.10.2019
5331 Clouds 4 1026 86 10000 2.1 40 18:21 29.10.2019
5332 Clouds 4 1026 86 10000 2.1 40 17:58 29.10.2019
5333 Clouds 4 1025 80 10000 2.6 40 17:40 29.10.2019
5334 Clouds 5 1025 75 10000 2.1 340 17:21 29.10.2019
5335 Clouds 5 1025 75 10000 2.1 340 16:58 29.10.2019
5336 Clouds 6 1024 81 10000 2.6 350 16:38 29.10.2019
5337 Clouds 7 1024 75 10000 3.6 360 16:18 29.10.2019
5338 Clouds 7 1024 70 10000 2.1 320 15:42 29.10.2019
5339 Clouds 8 1024 75 10000 3.1 310 15:22 29.10.2019
5340 Clouds 8 1024 75 10000 3.1 310 14:59 29.10.2019
5341 Clouds 8 1024 70 10000 2.6 310 14:41 29.10.2019
5342 Clouds 8 1024 81 10000 3.6 310 14:23 29.10.2019
5343 Clouds 8 1024 81 10000 3.6 310 13:58 29.10.2019
5344 Clouds 7 1024 75 10000 3.6 350 13:39 29.10.2019
5345 Clouds 7 1024 81 10000 2.6 330 13:21 29.10.2019
5346 Clouds 7 1023 87 10000 3.1 310 12:43 29.10.2019
5347 Clouds 7 1023 87 10000 3.1 310 12:43 29.10.2019
5348 Clouds 7 1023 87 10000 3.1 310 12:43 29.10.2019
5349 Clouds 8 1024 83 0 3.04 340 12:25 29.10.2019
5350 Clouds 7 1023 93 10000 3.1 320 11:56 29.10.2019
5351 Clouds 7 1023 87 10000 2.6 340 11:38 29.10.2019
5352 Clouds 7 1023 93 10000 2.6 320 11:18 29.10.2019
5353 Clouds 6 1023 93 10000 2.6 320 10:57 29.10.2019
5354 Clouds 6 1023 87 9000 2.6 330 10:38 29.10.2019
5355 Clouds 6 1023 87 9000 2.6 340 10:19 29.10.2019
5356 Clouds 6 1023 87 9000 2.6 340 10:19 29.10.2019
5357 Clouds 6 1023 93 8000 2.1 300 09:42 29.10.2019
5358 Clouds 5 1022 93 8000 2.1 280 09:23 29.10.2019
5359 Clouds 5 1022 93 8000 2.1 280 09:23 29.10.2019
5360 Clouds 5 1022 93 8000 2.1 280 09:23 29.10.2019
5361 Clouds 5 1022 93 8000 2.1 280 08:57 29.10.2019
5362 Clouds 5 1022 93 8000 2.1 290 08:39 29.10.2019
5363 Clouds 5 1022 93 9000 2.1 290 08:21 29.10.2019
5364 Clouds 4 1021 93 10000 2.1 260 07:48 29.10.2019
5365 Clouds 4 1021 93 10000 2.1 270 07:21 29.10.2019
5366 Clouds 4 1021 93 10000 2.1 270 06:55 29.10.2019
5367 Clouds 4 1021 93 10000 1.5 300 06:36 29.10.2019
5368 Clouds 3 1020 93 10000 1 270 06:18 29.10.2019
5369 Clouds 3 1020 93 10000 1.5 240 05:48 29.10.2019
5370 Clouds 4 1020 93 10000 1.5 240 05:18 29.10.2019
5371 Clouds 4 1020 93 10000 1.5 240 03:34 29.10.2019
5372 Clouds 4 1020 86 10000 1.5 250 02:32 29.10.2019
5373 Clouds 4 1021 93 10000 2.6 240 01:43 29.10.2019
5374 Clouds 4 1021 93 10000 2.1 240 00:57 29.10.2019
5375 Clouds 4 1021 93 10000 2.1 230 00:30 29.10.2019
5376 Clouds 4 1021 93 10000 3.1 220 23:42 28.10.2019
5377 Clouds 4 1021 93 10000 3.1 220 23:20 28.10.2019
5378 Clouds 4 1021 93 10000 3.1 220 22:57 28.10.2019
5379 Clouds 4 1021 93 10000 2.6 220 22:37 28.10.2019
5380 Clouds 4 1021 87 10000 3.1 220 22:18 28.10.2019
5381 Clouds 4 1021 87 10000 3.1 220 21:55 28.10.2019
5382 Clouds 4 1021 87 10000 3.1 220 21:37 28.10.2019
5383 Clouds 4 1021 87 10000 2.1 240 21:18 28.10.2019
5384 Clouds 4 1021 87 10000 2.1 240 21:18 28.10.2019
5385 Clear 4 1021 87 10000 2.1 240 20:44 28.10.2019
5386 Clouds 4 1021 87 10000 2.1 240 20:24 28.10.2019
5387 Clear 4 1021 87 10000 1.5 240 19:59 28.10.2019
5388 Clear 4 1021 87 10000 2.1 250 19:39 28.10.2019
5389 Clear 5 1021 87 10000 2.1 240 19:21 28.10.2019
5390 Clear 5 1021 87 10000 2.1 240 18:58 28.10.2019
5391 Clear 5 1021 87 10000 2.1 230 18:39 28.10.2019
5392 Clear 6 1021 87 10000 1.5 230 18:21 28.10.2019
5393 Clear 6 1021 87 10000 1.5 230 17:56 28.10.2019
5394 Clear 7 1021 87 10000 2.1 230 17:38 28.10.2019
5395 Clouds 7 1020 87 10000 2.1 230 17:19 28.10.2019
5396 Rain 8 1020 87 10000 2.1 230 16:57 28.10.2019
5397 Rain 8 1021 76 10000 1 0 16:39 28.10.2019
5398 Clouds 9 1021 76 10000 1.5 330 16:20 28.10.2019
5399 Clouds 9 1021 76 10000 1.5 330 15:58 28.10.2019
5400 Clouds 9 1021 76 10000 2.1 300 15:39 28.10.2019
5401 Clouds 9 1021 76 10000 3.6 270 15:20 28.10.2019
5402 Clouds 9 1021 76 10000 3.6 270 14:57 28.10.2019
5403 Clouds 9 1021 76 10000 3.1 270 14:38 28.10.2019
5404 Clouds 9 1021 76 10000 3.6 270 14:18 28.10.2019
5405 Clouds 9 1021 76 10000 3.6 270 13:55 28.10.2019
5406 Clouds 10 1021 76 10000 4.1 270 13:37 28.10.2019
5407 Clouds 9 1021 76 10000 4.1 270 13:18 28.10.2019
5408 Clouds 9 1021 76 10000 4.1 280 12:42 28.10.2019
5409 Clouds 10 1022 76 10000 4.6 270 12:20 28.10.2019
5410 Clouds 9 1022 76 10000 3.6 270 11:40 28.10.2019
5411 Clouds 9 1022 81 10000 4.1 260 11:22 28.10.2019
5412 Clouds 9 1022 81 10000 4.1 260 10:58 28.10.2019
5413 Rain 8 1022 75 10000 4.1 250 10:39 28.10.2019
5414 Rain 8 1021 81 10000 3.6 250 10:20 28.10.2019
5415 Clouds 7 1021 81 10000 3.6 250 09:57 28.10.2019
5416 Clouds 7 1021 81 10000 3.6 240 09:38 28.10.2019
5417 Clouds 7 1021 81 10000 3.6 240 09:19 28.10.2019
5418 Clouds 6 1021 81 10000 3.6 240 08:56 28.10.2019
5419 Clear 5 1021 87 10000 2.6 220 08:37 28.10.2019
5420 Clear 5 1021 87 10000 2.6 220 08:37 28.10.2019
5421 Clouds 4 1021 86 10000 3.1 210 08:18 28.10.2019
5422 Clouds 3 1021 86 10000 3.1 210 07:55 28.10.2019
5423 Clouds 3 1021 93 10000 3.1 230 07:36 28.10.2019
5424 Clouds 3 1021 93 10000 3.1 240 07:18 28.10.2019
5425 Clouds 3 1020 86 10000 2.6 240 06:39 28.10.2019
5426 Clouds 3 1020 86 10000 2.6 250 05:34 28.10.2019
5427 Clouds 4 1020 93 10000 1.5 260 03:45 28.10.2019
5428 Clouds 4 1020 87 10000 2.1 260 02:46 28.10.2019
5429 Clouds 5 1020 87 10000 2.1 250 01:52 28.10.2019
5430 Clouds 5 1020 87 10000 2.1 250 01:52 28.10.2019
5431 Clouds 6 1021 87 10000 2.1 250 00:53 28.10.2019
5432 Clouds 6 1021 87 10000 2.1 250 00:31 28.10.2019
5433 Clouds 6 1020 87 10000 2.6 250 23:47 27.10.2019
5434 Rain 6 1020 81 10000 2.6 260 23:23 27.10.2019
5435 Rain 6 1020 81 10000 2.6 260 22:57 27.10.2019
5436 Rain 6 1020 81 10000 3.6 260 22:39 27.10.2019
5437 Rain 6 1020 81 10000 3.6 250 22:21 27.10.2019
5438 Rain 6 1020 81 10000 3.6 250 21:57 27.10.2019
5439 Rain 7 1020 87 10000 2.1 250 21:39 27.10.2019
5440 Rain 6 1020 87 10000 2.1 240 21:20 27.10.2019
5441 Rain 6 1020 81 10000 2.1 220 20:56 27.10.2019
5442 Rain 6 1020 81 10000 2.1 220 20:37 27.10.2019
5443 Rain 6 1020 81 10000 2.1 220 20:19 27.10.2019
5444 Rain 6 1020 81 10000 2.1 220 19:54 27.10.2019
5445 Clouds 6 1020 87 10000 2.6 230 19:36 27.10.2019
5446 Rain 6 1020 81 10000 2.6 240 19:18 27.10.2019
5447 Rain 6 1020 93 10000 3.6 220 18:54 27.10.2019
5448 Rain 7 1020 93 10000 3.6 220 18:36 27.10.2019
5449 Rain 7 1020 93 10000 1.5 240 18:18 27.10.2019
5450 Rain 7 1020 81 10000 2.1 240 17:40 27.10.2019
5451 Rain 7 1020 81 10000 2.1 250 17:19 27.10.2019
5452 Rain 7 1020 81 10000 3.1 280 16:58 27.10.2019
5453 Rain 7 1020 81 10000 3.1 280 16:39 27.10.2019
5454 Rain 8 1019 81 10000 4.6 300 16:21 27.10.2019
5455 Rain 8 1019 81 10000 4.6 300 15:56 27.10.2019
5456 Rain 8 1019 87 10000 4.1 320 15:37 27.10.2019
5457 Rain 8 1019 76 10000 4.1 320 15:19 27.10.2019
5458 Drizzle 9 1018 87 10000 4.6 320 14:42 27.10.2019
5459 Drizzle 10 1018 93 4800 5.1 340 14:21 27.10.2019
5460 Drizzle 11 1018 93 4800 5.1 340 13:58 27.10.2019
5461 Clouds 11 1018 87 10000 5.1 320 13:39 27.10.2019
5462 Clouds 12 1017 87 10000 4.6 320 13:20 27.10.2019
5463 Clouds 13 1017 82 10000 6.2 310 12:57 27.10.2019
5464 Clouds 14 1017 82 10000 6.2 310 12:38 27.10.2019
5465 Clouds 14 1017 72 10000 4.6 290 12:19 27.10.2019
5466 Clouds 16 1016 67 10000 6.2 270 11:41 27.10.2019
5467 Clouds 16 1016 59 10000 6.2 270 11:21 27.10.2019
5468 Clouds 17 1016 55 10000 5.7 260 10:45 27.10.2019
5469 Clouds 17 1016 55 10000 5.7 260 10:26 27.10.2019
5470 Clouds 17 1015 52 10000 5.7 250 09:58 27.10.2019
5471 Clouds 17 1015 52 10000 5.7 250 09:39 27.10.2019
5472 Clouds 17 1015 55 10000 4.1 220 09:18 27.10.2019
5473 Clouds 17 1014 51 10000 4.1 210 08:56 27.10.2019
5474 Clouds 16 1014 51 10000 4.1 210 08:37 27.10.2019
5475 Clouds 16 1014 58 10000 4.1 200 08:18 27.10.2019
5476 Clouds 15 1014 62 10000 3.6 180 07:44 27.10.2019
5477 Clouds 15 1014 62 10000 3.6 180 07:24 27.10.2019
5478 Clouds 14 1014 58 10000 4.6 190 06:51 27.10.2019
5479 Clouds 14 1014 58 10000 4.6 190 06:27 27.10.2019
5480 Clouds 14 1014 54 10000 3.6 210 05:41 27.10.2019
5481 Clouds 14 1014 54 10000 4.1 220 04:55 27.10.2019
5482 Clouds 15 1014 51 10000 5.1 220 03:24 27.10.2019
5483 Clouds 14 1015 54 10000 4.1 210 02:21 27.10.2019
5484 Clouds 14 1015 51 10000 5.7 200 01:54 27.10.2019
5485 Clouds 13 1015 62 10000 6.2 190 01:23 27.10.2019
5486 Clouds 13 1015 67 10000 5.7 190 00:51 27.10.2019
5487 Clouds 13 1015 67 10000 5.7 190 00:29 27.10.2019
5488 Clear 14 1016 62 10000 4.1 200 23:57 26.10.2019
5489 Clear 14 1016 67 10000 3.1 190 23:39 26.10.2019
5490 Clear 14 1016 62 10000 2.6 190 23:21 26.10.2019
5491 Clear 14 1016 62 10000 2.6 190 22:56 26.10.2019
5492 Clear 14 1016 67 10000 3.6 180 22:38 26.10.2019
5493 Clear 14 1016 67 10000 4.6 180 22:19 26.10.2019
5494 Clear 13 1016 67 10000 6.2 180 21:44 26.10.2019
5495 Clouds 14 1016 67 10000 5.7 180 21:23 26.10.2019
5496 Clouds 14 1016 67 10000 5.7 180 20:59 26.10.2019
5497 Clouds 14 1016 67 10000 6.2 180 20:40 26.10.2019
5498 Clouds 14 1016 67 10000 6.7 190 20:19 26.10.2019
5499 Clouds 14 1016 67 10000 5.7 180 19:42 26.10.2019
5500 Clouds 14 1017 67 10000 5.7 180 19:21 26.10.2019
5501 Clouds 15 1017 67 10000 5.7 180 18:58 26.10.2019
5502 Clouds 15 1017 63 10000 4.1 170 18:39 26.10.2019
5503 Clouds 16 1017 63 10000 3.1 160 18:20 26.10.2019
5504 Clouds 16 1016 59 10000 2.6 150 17:58 26.10.2019
5505 Clouds 17 1016 59 10000 2.6 150 17:39 26.10.2019
5506 Clouds 17 980 68 0 3.58 197 17:20 26.10.2019
5507 Clouds 19 1017 52 10000 2.1 180 16:47 26.10.2019
5508 Clouds 20 1017 52 10000 2.1 180 16:25 26.10.2019
5509 Clouds 20 1017 49 10000 2.6 190 15:59 26.10.2019
5510 Clouds 21 1017 46 10000 2.6 220 15:40 26.10.2019
5511 Clouds 21 1017 49 10000 2.1 200 15:18 26.10.2019
5512 Clouds 21 1018 52 10000 2.1 200 14:40 26.10.2019
5513 Clouds 20 1018 55 10000 2.6 180 14:20 26.10.2019
5514 Clouds 20 1018 53 0 4.52 228 13:59 26.10.2019
5515 Clouds 20 1018 53 0 4.52 228 13:39 26.10.2019
5516 Clouds 19 1019 63 10000 2.6 190 13:20 26.10.2019
5517 Clouds 18 1019 67 10000 3.1 170 12:46 26.10.2019
5518 Clouds 17 1020 72 10000 5.7 180 12:22 26.10.2019
5519 Clouds 17 1020 72 10000 5.7 180 11:48 26.10.2019
5520 Clouds 16 1020 72 10000 5.7 180 11:27 26.10.2019
5521 Clouds 16 1020 72 10000 5.7 180 11:27 26.10.2019
5522 Clouds 15 1020 72 10000 5.7 180 10:47 26.10.2019
5523 Clouds 15 1020 72 10000 5.7 180 10:27 26.10.2019
5524 Clouds 13 1020 82 10000 3.1 170 09:59 26.10.2019
5525 Clouds 13 1020 76 10000 4.1 170 09:41 26.10.2019
5526 Clouds 11 1020 87 10000 4.6 170 09:22 26.10.2019
5527 Clouds 10 1020 87 10000 4.1 170 08:43 26.10.2019
5528 Clouds 10 1020 87 10000 4.1 170 08:25 26.10.2019
5529 Clouds 9 1019 93 10000 2.1 160 07:44 26.10.2019
5530 Clouds 9 1019 93 10000 2.1 160 07:44 26.10.2019
5531 Clouds 10 1019 87 10000 1 0 07:25 26.10.2019
5532 Clouds 10 1019 87 10000 2.6 150 06:43 26.10.2019
5533 Clouds 10 1019 87 10000 2.6 150 06:24 26.10.2019
5534 Clouds 11 1020 81 10000 3.1 150 05:19 26.10.2019
5535 Clouds 11 1020 81 10000 3.1 160 04:24 26.10.2019
5536 Clouds 9 1021 76 10000 3.6 180 02:46 26.10.2019
5537 Clouds 9 1021 81 10000 3.1 170 01:54 26.10.2019
5538 Clouds 9 1021 81 10000 4.6 190 01:22 26.10.2019
5539 Clouds 9 1022 87 10000 4.6 180 00:24 26.10.2019
5540 Clouds 9 1022 81 10000 3.6 180 23:43 25.10.2019
5541 Clouds 9 1022 81 10000 4.6 170 23:20 25.10.2019
5542 Clouds 9 1022 81 10000 4.1 180 22:41 25.10.2019
5543 Clouds 10 1022 81 10000 3.6 180 22:23 25.10.2019
5544 Clouds 10 1022 81 10000 3.6 180 21:58 25.10.2019
5545 Clouds 10 1023 81 10000 2.6 200 21:40 25.10.2019
5546 Clouds 10 1022 76 10000 2.6 190 21:19 25.10.2019
5547 Clouds 11 1022 76 10000 2.6 170 20:56 25.10.2019
5548 Clouds 11 1022 76 10000 2.6 170 20:38 25.10.2019
5549 Clouds 11 1022 76 10000 2.6 200 20:18 25.10.2019
5550 Clouds 12 1022 76 10000 3.6 200 19:43 25.10.2019
5551 Clouds 12 1022 76 10000 3.6 200 19:25 25.10.2019
5552 Clouds 13 1022 71 10000 2.6 230 18:45 25.10.2019
5553 Clouds 14 1022 67 10000 3.1 240 18:23 25.10.2019
5554 Clouds 15 1022 63 10000 3.1 240 17:42 25.10.2019
5555 Clouds 16 1022 67 10000 3.1 250 17:22 25.10.2019
5556 Clouds 16 1022 67 10000 3.1 250 16:58 25.10.2019
5557 Clouds 17 1022 59 10000 3.6 260 16:40 25.10.2019
5558 Clouds 17 1021 63 10000 3.6 270 16:19 25.10.2019
5559 Clouds 18 1021 63 10000 3.6 270 15:41 25.10.2019
5560 Clouds 17 1021 59 10000 5.1 250 15:23 25.10.2019
5561 Clouds 18 1021 59 10000 5.1 250 14:59 25.10.2019
5562 Clouds 18 1021 59 10000 5.1 260 14:40 25.10.2019
5563 Clouds 18 1021 59 10000 5.7 250 14:21 25.10.2019
5564 Clouds 18 1021 59 10000 5.1 250 13:44 25.10.2019
5565 Clouds 18 1021 59 10000 5.1 250 13:44 25.10.2019
5566 Clouds 18 1021 59 10000 5.1 250 13:25 25.10.2019
5567 Clouds 18 1021 59 10000 5.7 260 12:58 25.10.2019
5568 Clouds 18 1021 59 10000 5.7 250 12:39 25.10.2019
5569 Clouds 18 1021 59 10000 4.1 250 12:20 25.10.2019
5570 Clouds 17 1020 67 10000 3.1 200 11:42 25.10.2019
5571 Clouds 17 1020 67 10000 3.1 200 11:23 25.10.2019
5572 Clouds 17 1020 72 10000 4.1 210 10:59 25.10.2019
5573 Clouds 16 1020 77 10000 4.6 190 10:39 25.10.2019
5574 Clouds 15 1020 76 10000 4.1 210 10:21 25.10.2019
5575 Clouds 14 1020 76 10000 4.1 210 09:57 25.10.2019
5576 Clouds 14 1019 76 10000 4.1 220 09:38 25.10.2019
5577 Clouds 14 1019 76 10000 4.1 220 09:38 25.10.2019
5578 Clouds 12 1019 82 10000 3.6 220 09:19 25.10.2019
5579 Clouds 12 1018 82 10000 3.6 210 08:44 25.10.2019
5580 Clouds 12 1018 82 10000 3.6 210 08:24 25.10.2019
5581 Clouds 12 1018 82 10000 3.1 200 07:52 25.10.2019
5582 Clouds 12 1018 82 10000 3.1 200 07:34 25.10.2019
5583 Clouds 12 1017 87 10000 3.6 210 06:41 25.10.2019
5584 Clouds 11 1017 87 10000 3.1 220 05:51 25.10.2019
5585 Clouds 11 1017 87 10000 3.1 220 05:32 25.10.2019
5586 Clouds 11 1016 87 10000 2.6 220 04:42 25.10.2019
5587 Clouds 11 1016 87 10000 3.6 220 03:30 25.10.2019
5588 Clouds 10 1015 93 8000 4.1 220 01:54 25.10.2019
5589 Clouds 11 1014 87 10000 3.1 210 00:50 25.10.2019
5590 Clouds 11 1013 87 10000 3.1 210 00:20 25.10.2019
5591 Clouds 11 1013 93 8000 3.1 190 23:40 24.10.2019
5592 Clouds 11 1013 87 8000 2.1 200 23:22 24.10.2019
5593 Clouds 11 1013 87 8000 2.1 200 22:54 24.10.2019
5594 Clouds 11 1013 87 8000 1 0 22:36 24.10.2019
5595 Clouds 11 1012 93 9000 3.6 220 22:18 24.10.2019
5596 Clouds 11 1012 93 9000 3.6 220 22:18 24.10.2019
5597 Clouds 11 1012 93 9000 3.6 220 21:56 24.10.2019
5598 Clouds 12 1012 87 9000 1.5 180 21:37 24.10.2019
5599 Clouds 12 1012 87 10000 1.5 220 21:19 24.10.2019
5600 Clouds 12 1012 87 10000 1.5 220 20:56 24.10.2019
5601 Clouds 12 1012 82 10000 3.1 240 20:38 24.10.2019
5602 Clouds 13 1012 82 10000 1.5 230 20:19 24.10.2019
5603 Clouds 13 1011 76 10000 1 0 19:44 24.10.2019
5604 Clouds 14 1011 76 10000 1 0 19:23 24.10.2019
5605 Clouds 14 1011 76 10000 2.1 190 18:59 24.10.2019
5606 Clouds 15 1011 77 10000 1 0 18:40 24.10.2019
5607 Clouds 15 1011 77 10000 1 0 18:40 24.10.2019
5608 Clouds 15 1010 72 10000 2.1 190 18:21 24.10.2019
5609 Clouds 16 1010 72 10000 2.1 190 17:59 24.10.2019
5610 Clouds 16 1009 72 10000 3.1 140 17:39 24.10.2019
5611 Clouds 17 1009 67 10000 2.6 160 17:19 24.10.2019
5612 Clouds 17 1009 67 10000 2.6 160 16:55 24.10.2019
5613 Clouds 18 1009 63 10000 2.6 150 16:37 24.10.2019
5614 Clouds 19 1009 59 10000 4.1 130 16:18 24.10.2019
5615 Clouds 19 1009 59 10000 4.1 130 15:54 24.10.2019
5616 Clouds 19 1010 63 10000 4.1 150 15:36 24.10.2019
5617 Clouds 19 1009 60 10000 3.6 160 15:18 24.10.2019
5618 Clouds 20 1009 60 10000 3.6 130 14:44 24.10.2019
5619 Clouds 20 1009 60 10000 3.6 130 14:26 24.10.2019
5620 Clouds 20 1009 68 10000 3.6 140 13:59 24.10.2019
5621 Clouds 20 1009 63 10000 4.1 150 13:38 24.10.2019
5622 Clouds 19 1009 63 10000 4.1 150 13:19 24.10.2019
5623 Clouds 19 1009 63 10000 4.1 150 13:19 24.10.2019
5624 Clouds 19 1010 68 10000 3.1 140 12:56 24.10.2019
5625 Clouds 19 1010 68 10000 3.1 140 12:38 24.10.2019
5626 Clouds 18 1010 72 10000 4.1 140 12:19 24.10.2019
5627 Clouds 17 1010 72 10000 4.1 140 11:56 24.10.2019
5628 Clouds 16 1010 77 10000 4.6 170 11:36 24.10.2019
5629 Clouds 16 1010 77 10000 4.6 170 11:36 24.10.2019
5630 Clouds 16 1010 82 9000 2.6 160 11:18 24.10.2019
5631 Clouds 16 1010 82 9000 3.1 160 10:42 24.10.2019
5632 Clouds 14 1010 82 7000 4.1 150 10:23 24.10.2019
5633 Clouds 14 1010 82 7000 4.1 150 09:58 24.10.2019
5634 Mist 13 1010 93 5000 3.1 140 09:37 24.10.2019
5635 Mist 12 1010 87 5000 3.1 140 09:18 24.10.2019
5636 Mist 12 1010 87 5000 3.1 140 09:18 24.10.2019
5637 Mist 10 1010 93 4500 1.5 130 08:42 24.10.2019
5638 Mist 10 1010 93 4100 1 0 08:20 24.10.2019
5639 Mist 9 1010 93 3500 2.6 150 07:48 24.10.2019
5640 Mist 9 1010 93 3500 1.5 140 07:24 24.10.2019
5641 Mist 9 1010 93 3500 1.5 140 06:59 24.10.2019
5642 Mist 9 1011 100 2500 1.5 140 06:37 24.10.2019
5643 Mist 9 1011 100 2500 0.5 0 05:56 24.10.2019
5644 Mist 9 1011 100 4000 0.5 0 05:36 24.10.2019
5645 Mist 9 1011 93 5000 2.1 130 04:44 24.10.2019
5646 Mist 9 1012 100 4500 1 0 03:36 24.10.2019
5647 Mist 10 1012 100 4500 2.1 80 02:50 24.10.2019
5648 Mist 10 1013 93 5000 3.1 100 02:21 24.10.2019
5649 Clear 10 1013 93 6000 3.1 80 01:32 24.10.2019
5650 Clear 10 1013 93 7000 3.1 80 00:57 24.10.2019
5651 Clear 10 1013 87 8000 3.1 100 00:37 24.10.2019
5652 Clear 11 1013 87 8000 2.6 100 00:18 24.10.2019
5653 Clear 11 1014 87 8000 2.6 110 23:41 23.10.2019
5654 Clouds 11 1014 93 9000 2.6 90 23:21 23.10.2019
5655 Clouds 11 1014 93 9000 2.6 90 22:57 23.10.2019
5656 Clouds 12 1014 87 10000 2.6 90 22:37 23.10.2019
5657 Clouds 12 1015 93 10000 3.1 100 22:18 23.10.2019
5658 Clouds 12 1015 93 10000 3.1 100 21:57 23.10.2019
5659 Clouds 12 1015 87 10000 2.6 110 21:38 23.10.2019
5660 Clouds 13 1015 87 10000 2.6 110 21:19 23.10.2019
5661 Clouds 13 1015 87 10000 2.6 110 20:56 23.10.2019
5662 Clouds 13 1015 87 10000 2.6 110 20:56 23.10.2019
5663 Clouds 13 1015 87 10000 2.1 100 20:37 23.10.2019
5664 Clouds 13 1015 87 10000 2.1 100 20:37 23.10.2019
5665 Clouds 14 1016 82 10000 2.1 120 20:19 23.10.2019
5666 Clouds 14 1016 82 10000 1.5 110 19:55 23.10.2019
5667 Clouds 14 1016 82 10000 1.5 110 19:36 23.10.2019
5668 Clouds 14 1016 77 10000 2.1 130 19:18 23.10.2019
5669 Clouds 15 1016 77 10000 2.1 130 18:54 23.10.2019
5670 Clouds 15 1016 72 10000 2.1 130 18:36 23.10.2019
5671 Clouds 16 1016 72 10000 2.6 120 18:18 23.10.2019
5672 Clouds 17 1016 72 10000 3.1 130 17:41 23.10.2019
5673 Clouds 17 1016 72 10000 3.1 140 17:20 23.10.2019
5674 Clouds 18 1016 72 10000 3.1 140 16:55 23.10.2019
5675 Clouds 18 1016 72 10000 4.1 150 16:36 23.10.2019
5676 Clouds 18 1016 72 10000 4.1 150 16:36 23.10.2019
5677 Clouds 18 1017 72 10000 2.6 120 16:18 23.10.2019
5678 Clouds 19 1017 72 10000 3.6 140 15:41 23.10.2019
5679 Clouds 19 1017 68 10000 4.1 140 15:21 23.10.2019
5680 Clouds 19 1017 68 10000 4.1 140 14:58 23.10.2019
5681 Clouds 19 1017 68 10000 3.6 150 14:38 23.10.2019
5682 Clouds 19 1018 68 10000 3.1 110 14:19 23.10.2019
5683 Clouds 19 1018 68 10000 3.1 110 13:57 23.10.2019
5684 Clouds 19 1018 68 10000 3.1 110 13:57 23.10.2019
5685 Clouds 19 1018 68 10000 2.6 140 13:38 23.10.2019
5686 Clouds 19 1018 68 10000 2.6 140 13:20 23.10.2019
5687 Clouds 19 1018 68 10000 2.6 140 12:55 23.10.2019
5688 Clouds 18 1019 72 10000 2.6 150 12:36 23.10.2019
5689 Clouds 18 1019 77 10000 1.5 70 12:18 23.10.2019
5690 Clouds 17 1019 77 10000 1.5 70 11:55 23.10.2019
5691 Clouds 16 1020 82 10000 1 0 11:37 23.10.2019
5692 Clouds 16 1020 82 10000 1.5 80 11:19 23.10.2019
5693 Clouds 14 1020 93 10000 1.5 50 10:42 23.10.2019
5694 Clouds 14 1020 87 9000 1 0 10:24 23.10.2019
5695 Clouds 13 1020 93 9000 1 60 09:42 23.10.2019
5696 Clouds 12 1021 93 8000 1 0 09:24 23.10.2019
5697 Clouds 12 1021 93 8000 1 0 08:59 23.10.2019
5698 Clouds 12 1021 93 7000 1.03 72 08:41 23.10.2019
5699 Clouds 12 1021 93 7000 1.03 72 08:41 23.10.2019
5700 Clouds 12 1021 93 7000 1.03 72 08:41 23.10.2019
5701 Clouds 11 1021 93 6000 0.5 330 08:22 23.10.2019
5702 Clouds 11 1021 100 8000 1 0 07:46 23.10.2019
5703 Clouds 11 1021 93 10000 1 20 07:22 23.10.2019
5704 Clouds 11 1021 93 10000 0.5 0 06:47 23.10.2019
5705 Clouds 11 1021 93 10000 2.1 160 06:22 23.10.2019
5706 Clouds 11 1021 93 10000 1.5 160 05:45 23.10.2019
5707 Clouds 10 1022 93 7000 1.5 93 04:41 23.10.2019
5708 Mist 10 1023 100 4500 1 340 03:35 23.10.2019
5709 Clouds 10 1023 100 10000 0.5 0 02:40 23.10.2019
5710 Clouds 10 1023 93 8000 1 350 01:33 23.10.2019
5711 Clouds 9 1024 100 10000 1 200 00:56 23.10.2019
5712 Clouds 9 1024 100 10000 1.5 220 00:28 23.10.2019
5713 Clouds 10 1024 93 10000 1 170 23:40 22.10.2019
5714 Clouds 10 1024 87 10000 0.5 330 23:18 22.10.2019
5715 Clouds 9 1024 94 0 0.97 12 22:57 22.10.2019
5716 Clouds 10 1023 87 10000 0.97 12 22:39 22.10.2019
5717 Clouds 10 1024 82 10000 1.5 140 22:20 22.10.2019
5718 Clouds 10 986 97 0 0.97 12 21:56 22.10.2019
5719 Clouds 11 1024 93 10000 0.58 24 21:37 22.10.2019
5720 Clouds 11 1024 87 10000 0.5 330 21:18 22.10.2019
5721 Clouds 11 1023 87 10000 0.5 0 20:56 22.10.2019
5722 Clouds 12 1023 87 10000 0.5 0 20:38 22.10.2019
5723 Clouds 12 1023 91 0 0.09 357 20:20 22.10.2019
5724 Clouds 12 985 90 0 0.09 357 19:54 22.10.2019
5725 Clouds 12 985 90 0 0.09 357 19:54 22.10.2019
5726 Clouds 12 985 92 0 0.89 118 19:36 22.10.2019
5727 Clouds 13 986 88 0 0.09 357 19:18 22.10.2019
5728 Clouds 14 1023 77 10000 0.5 0 18:40 22.10.2019
5729 Clouds 14 1023 72 10000 0.5 330 18:22 22.10.2019
5730 Clouds 15 1023 72 10000 0.5 330 17:58 22.10.2019
5731 Clouds 16 1023 72 10000 0.5 350 17:39 22.10.2019
5732 Clouds 16 1023 72 10000 1 0 17:20 22.10.2019
5733 Clouds 16 1023 72 10000 1 0 16:57 22.10.2019
5734 Clouds 17 1023 67 10000 0.5 0 16:38 22.10.2019
5735 Clouds 17 1023 63 10000 0.5 0 16:19 22.10.2019
5736 Clouds 17 1023 63 10000 0.5 0 16:19 22.10.2019
5737 Clouds 17 1023 63 10000 0.5 0 15:58 22.10.2019
5738 Clouds 18 1024 72 10000 2.1 330 15:39 22.10.2019
5739 Clouds 18 1024 72 10000 2.6 330 15:18 22.10.2019
5740 Clouds 18 1024 68 10000 2.1 330 14:43 22.10.2019
5741 Clouds 18 1024 72 10000 2.6 340 14:20 22.10.2019
5742 Clouds 18 1024 72 10000 1.5 0 13:43 22.10.2019
5743 Clouds 18 1024 67 10000 1 0 13:22 22.10.2019
5744 Clouds 18 1024 67 10000 1 0 13:22 22.10.2019
5745 Clouds 18 1024 67 10000 1 0 12:59 22.10.2019
5746 Clouds 17 1025 72 10000 1 0 12:40 22.10.2019
5747 Clouds 17 1025 77 10000 2.1 10 12:21 22.10.2019
5748 Clouds 16 1025 77 10000 2.1 10 11:56 22.10.2019
5749 Clouds 15 1025 77 10000 3.1 310 11:38 22.10.2019
5750 Clouds 15 1025 77 10000 2.6 260 11:20 22.10.2019
5751 Clouds 15 1025 77 10000 2.6 260 10:56 22.10.2019
5752 Clouds 14 1024 82 10000 2.6 260 10:37 22.10.2019
5753 Clouds 13 1023 87 10000 1 0 10:18 22.10.2019
5754 Clouds 12 1023 87 10000 1 0 09:55 22.10.2019
5755 Clouds 12 1023 93 10000 1 0 09:36 22.10.2019
5756 Clouds 10 1023 93 10000 1.5 160 09:18 22.10.2019
5757 Clouds 9 1023 100 10000 1.5 190 08:42 22.10.2019
5758 Clouds 8 1023 93 10000 1.5 220 08:21 22.10.2019
5759 Clouds 8 1023 93 10000 1.5 220 08:21 22.10.2019
5760 Fog 8 1023 100 10000 2.1 220 07:46 22.10.2019
5761 Fog 8 1023 100 10000 2.1 220 07:26 22.10.2019
5762 Fog 8 1023 100 10000 2.1 220 07:26 22.10.2019
5763 Clouds 8 1023 100 10000 1.5 210 06:51 22.10.2019
5764 Clouds 8 1023 100 10000 1.5 210 06:31 22.10.2019
5765 Clear 8 1022 100 10000 1 0 05:57 22.10.2019
5766 Clear 9 1022 100 10000 1 170 05:21 22.10.2019
5767 Clouds 9 1022 94 0 1.06 234 02:48 22.10.2019
5768 Clouds 10 1022 93 10000 2.1 190 02:28 22.10.2019
5769 Clouds 10 1022 93 10000 1.5 180 01:29 22.10.2019
5770 Clouds 10 1022 94 0 1.06 239 00:58 22.10.2019
5771 Clouds 10 984 88 0 1.06 239 00:40 22.10.2019
5772 Clouds 11 1021 93 10000 2.6 190 00:21 22.10.2019
5773 Clouds 11 1021 93 10000 2.6 190 23:55 21.10.2019
5774 Clouds 11 1021 93 10000 1.5 220 23:37 21.10.2019
5775 Clouds 11 1021 93 10000 1.5 170 23:18 21.10.2019
5776 Clouds 11 1021 93 10000 1.5 170 23:18 21.10.2019
5777 Clouds 11 1021 93 0 1 223 22:56 21.10.2019
5778 Clouds 11 983 91 0 1 223 22:38 21.10.2019
5779 Clouds 12 983 93 0 1 223 22:19 21.10.2019
5780 Clouds 12 1021 87 10000 1 0 21:54 21.10.2019
5781 Clouds 12 983 91 0 0.98 234 21:36 21.10.2019
5782 Clouds 12 984 90 0 0.86 214 21:18 21.10.2019
5783 Clouds 13 1021 92 0 0.86 214 20:55 21.10.2019
5784 Clouds 13 983 89 0 0.86 214 20:37 21.10.2019
5785 Clouds 13 1020 90 0 0.86 214 20:18 21.10.2019
5786 Clouds 14 1020 90 0 0.86 214 19:41 21.10.2019
5787 Clouds 15 1020 72 10000 0.5 0 19:22 21.10.2019
5788 Clouds 15 1020 72 10000 0.5 0 18:57 21.10.2019
5789 Clouds 15 1020 72 10000 0.5 0 18:57 21.10.2019
5790 Clouds 16 1020 72 10000 0.5 0 18:38 21.10.2019
5791 Clouds 16 1020 72 10000 0.5 0 18:38 21.10.2019
5792 Clouds 16 1019 68 10000 0.5 0 18:19 21.10.2019
5793 Clouds 17 1019 68 10000 0.5 0 17:59 21.10.2019
5794 Clouds 18 1019 63 10000 0.5 260 17:38 21.10.2019
5795 Clouds 18 1019 68 10000 1 0 17:19 21.10.2019
5796 Clouds 18 1019 68 10000 1 0 16:57 21.10.2019
5797 Clouds 19 1020 68 10000 1.5 280 16:39 21.10.2019
5798 Clouds 19 1019 60 10000 1 0 16:21 21.10.2019
5799 Clouds 19 1019 64 10000 1 0 15:47 21.10.2019
5800 Clouds 20 1019 64 10000 1 0 15:27 21.10.2019
5801 Clouds 20 1019 64 10000 2.6 290 14:59 21.10.2019
5802 Clouds 20 1019 60 10000 2.6 290 14:40 21.10.2019
5803 Clouds 20 1019 60 10000 2.6 280 14:21 21.10.2019
5804 Clouds 19 1019 60 10000 2.6 280 13:57 21.10.2019
5805 Clouds 19 1019 60 10000 2.1 260 13:39 21.10.2019
5806 Clouds 19 1018 68 10000 2.1 260 13:20 21.10.2019
5807 Clouds 19 1018 68 10000 2.1 260 12:57 21.10.2019
5808 Clouds 19 1018 63 10000 2.1 210 12:39 21.10.2019
5809 Clear 19 1018 68 10000 2.1 250 12:19 21.10.2019
5810 Clear 18 1018 63 10000 3.1 280 11:40 21.10.2019
5811 Clear 17 1018 72 10000 2.1 240 11:22 21.10.2019
5812 Clear 17 1018 72 10000 2.1 240 10:58 21.10.2019
5813 Clear 16 1017 77 10000 1.5 250 10:38 21.10.2019
5814 Clear 16 1016 82 10000 1.5 170 10:19 21.10.2019
5815 Clear 14 1016 82 10000 1.5 170 09:57 21.10.2019
5816 Clear 14 1016 93 10000 2.1 180 09:37 21.10.2019
5817 Clear 13 1016 87 10000 2.1 170 09:19 21.10.2019
5818 Clear 11 1015 93 10000 1.5 220 08:41 21.10.2019
5819 Clear 10 1015 100 10000 2.6 150 08:22 21.10.2019
5820 Clear 10 1014 100 10000 2.6 150 07:45 21.10.2019
5821 Clear 10 1014 93 10000 2.1 160 07:23 21.10.2019
5822 Clear 11 1014 93 10000 2.1 160 06:59 21.10.2019
5823 Clear 10 1014 93 10000 3.6 160 06:41 21.10.2019
5824 Clear 11 1014 93 10000 4.1 150 06:18 21.10.2019
5825 Clear 11 1014 87 10000 1.5 270 05:22 21.10.2019
5826 Clear 12 1012 87 10000 3.1 130 03:40 21.10.2019
5827 Clear 12 1012 82 10000 3.1 150 02:39 21.10.2019
5828 Clear 12 1012 77 10000 2.6 160 02:20 21.10.2019
5829 Clear 12 1012 77 10000 2.6 160 02:20 21.10.2019
5830 Clear 12 1012 82 10000 3.1 150 01:45 21.10.2019
5831 Clear 12 1012 82 10000 3.1 150 01:45 21.10.2019
5832 Clear 13 1012 82 10000 5.1 140 00:54 21.10.2019
5833 Clear 13 1011 77 10000 7.7 140 00:28 21.10.2019
5834 Clear 13 1011 77 10000 7.7 150 23:58 20.10.2019
5835 Clear 13 1011 77 10000 7.7 160 23:39 20.10.2019
5836 Clear 13 1011 82 10000 7.2 150 23:21 20.10.2019
5837 Clear 13 1011 82 10000 7.2 150 22:54 20.10.2019
5838 Clear 13 1011 82 10000 7.2 160 22:36 20.10.2019
5839 Clear 14 1011 82 10000 6.2 170 22:18 20.10.2019
5840 Clear 14 1011 82 10000 8.2 160 21:40 20.10.2019
5841 Clear 14 1011 82 10000 8.2 160 21:22 20.10.2019
5842 Clear 14 1011 82 10000 8.2 160 20:57 20.10.2019
5843 Clear 14 1011 77 10000 7.2 160 20:39 20.10.2019
5844 Clear 14 1011 77 10000 6.2 160 20:18 20.10.2019
5845 Clear 14 1011 77 10000 6.2 160 20:18 20.10.2019
5846 Clear 14 1011 77 10000 6.2 160 19:55 20.10.2019
5847 Clear 13 1011 82 10000 6.2 150 19:37 20.10.2019
5848 Clear 13 1011 82 10000 6.7 160 19:19 20.10.2019
5849 Clear 13 1011 82 10000 7.2 160 18:41 20.10.2019
5850 Clear 14 1011 82 10000 7.2 150 18:22 20.10.2019
5851 Clear 14 1011 82 10000 7.2 150 17:58 20.10.2019
5852 Clear 15 1011 76 10000 6.7 140 17:39 20.10.2019
5853 Clear 15 1011 76 10000 6.7 140 17:39 20.10.2019
5854 Clear 15 1011 77 10000 5.1 140 17:21 20.10.2019
5855 Clear 16 1011 77 10000 5.1 140 16:55 20.10.2019
5856 Clear 16 1011 77 10000 6.7 140 16:37 20.10.2019
5857 Clear 16 1011 72 10000 4.6 140 16:18 20.10.2019
5858 Clear 17 1011 72 10000 4.6 140 15:54 20.10.2019
5859 Clear 17 1011 72 10000 5.1 140 15:36 20.10.2019
5860 Clear 18 1011 72 10000 4.6 130 15:18 20.10.2019
5861 Clear 18 1012 72 10000 6.2 150 14:39 20.10.2019
5862 Clear 18 1011 72 10000 5.1 140 14:21 20.10.2019
5863 Clear 18 1011 72 10000 5.1 140 13:56 20.10.2019
5864 Clear 19 1011 72 10000 4.6 150 13:37 20.10.2019
5865 Clear 19 1011 72 10000 4.1 140 13:19 20.10.2019
5866 Clear 18 1011 72 10000 4.1 140 12:58 20.10.2019
5867 Clear 18 1012 67 10000 4.1 150 12:39 20.10.2019
5868 Clear 18 1012 67 10000 5.7 160 12:21 20.10.2019
5869 Clear 18 1012 67 10000 5.7 160 11:59 20.10.2019
5870 Clear 17 1012 67 10000 6.2 150 11:40 20.10.2019
5871 Clear 17 1012 67 10000 5.1 150 11:22 20.10.2019
5872 Clear 17 1012 67 10000 5.1 150 11:22 20.10.2019
5873 Clear 16 1012 67 10000 5.1 150 10:58 20.10.2019
5874 Clear 16 1012 67 10000 5.1 160 10:39 20.10.2019
5875 Clear 15 1011 76 10000 5.1 170 10:20 20.10.2019
5876 Clear 15 1011 76 10000 5.1 170 09:55 20.10.2019
5877 Clear 14 1011 76 10000 6.7 160 09:37 20.10.2019
5878 Clear 13 1011 82 10000 5.1 170 09:18 20.10.2019
5879 Clear 12 1010 82 10000 6.2 160 08:39 20.10.2019
5880 Clear 12 1010 81 10000 5.7 150 08:20 20.10.2019
5881 Clear 12 1010 81 10000 5.1 150 07:47 20.10.2019
5882 Clear 12 1010 81 10000 5.1 150 07:26 20.10.2019
5883 Clear 12 1011 87 10000 5.7 150 06:30 20.10.2019
5884 Clear 11 1011 76 10000 5.1 160 04:29 20.10.2019
5885 Clouds 12 1011 76 10000 5.1 160 03:50 20.10.2019
5886 Rain 11 1011 76 10000 4.6 160 03:22 20.10.2019
5887 Clouds 11 1011 76 10000 3.1 160 02:49 20.10.2019
5888 Clouds 11 1011 76 10000 3.6 150 02:22 20.10.2019
5889 Clear 12 1011 76 10000 4.6 150 01:49 20.10.2019
5890 Clear 11 1011 81 10000 3.6 160 01:21 20.10.2019
5891 Clear 11 1011 81 10000 2.6 160 00:48 20.10.2019
5892 Clear 11 1010 81 10000 3.6 160 00:20 20.10.2019
5893 Clear 11 1010 81 10000 3.6 160 23:54 19.10.2019
5894 Clear 12 1010 76 10000 3.6 160 23:36 19.10.2019
5895 Clear 11 1010 82 10000 3.1 170 23:18 19.10.2019
5896 Clear 11 1010 76 10000 4.6 160 22:40 19.10.2019
5897 Clear 12 1010 76 10000 5.1 160 22:22 19.10.2019
5898 Clear 11 1010 76 10000 5.1 160 21:57 19.10.2019
5899 Clear 12 1010 76 10000 5.1 160 21:39 19.10.2019
5900 Clear 12 1010 76 10000 5.1 170 21:20 19.10.2019
5901 Clear 12 1010 76 10000 4.6 180 20:42 19.10.2019
5902 Clear 12 1010 71 10000 4.1 170 20:21 19.10.2019
5903 Clear 12 1010 71 10000 4.6 170 19:45 19.10.2019
5904 Clear 13 1010 71 10000 4.6 170 19:26 19.10.2019
5905 Clear 13 1010 76 10000 4.6 170 18:59 19.10.2019
5906 Clear 13 1010 72 10000 5.7 180 18:41 19.10.2019
5907 Clear 13 1010 72 10000 5.1 170 18:22 19.10.2019
5908 Clear 14 1010 72 10000 3.6 160 17:41 19.10.2019
5909 Clear 14 1010 72 10000 3.6 160 17:41 19.10.2019
5910 Clear 15 1010 72 10000 3.1 150 17:23 19.10.2019
5911 Clear 15 1010 72 10000 3.1 150 16:59 19.10.2019
5912 Clear 15 1010 72 10000 3.6 170 16:38 19.10.2019
5913 Clear 15 1010 72 10000 3.6 170 16:38 19.10.2019
5914 Clear 15 1011 77 10000 3.6 160 16:19 19.10.2019
5915 Clear 15 1011 77 10000 4.1 160 15:43 19.10.2019
5916 Clear 15 1011 77 10000 4.1 160 15:25 19.10.2019
5917 Clear 15 1011 87 10000 2.6 160 14:40 19.10.2019
5918 Clear 14 1011 87 10000 3.6 140 14:21 19.10.2019
5919 Clear 14 1011 87 10000 3.6 140 13:59 19.10.2019
5920 Clear 14 1011 87 10000 3.6 150 13:41 19.10.2019
5921 Clear 14 1012 87 10000 3.1 160 13:23 19.10.2019
5922 Clear 14 1012 87 10000 3.1 160 12:59 19.10.2019
5923 Clear 13 1012 87 10000 4.1 160 12:39 19.10.2019
5924 Clouds 13 1012 93 10000 3.6 150 12:21 19.10.2019
5925 Rain 13 1012 93 10000 4.1 160 11:42 19.10.2019
5926 Rain 12 1012 93 10000 4.6 150 11:23 19.10.2019
5927 Rain 12 1012 87 10000 3.6 160 10:58 19.10.2019
5928 Rain 12 1012 87 10000 3.1 150 10:40 19.10.2019
5929 Rain 12 1012 87 10000 3.1 150 10:22 19.10.2019
5930 Rain 12 1012 87 10000 3.6 170 09:57 19.10.2019
5931 Rain 11 1012 87 10000 3.1 160 09:39 19.10.2019
5932 Rain 11 1012 87 10000 3.1 160 09:20 19.10.2019
5933 Rain 11 1012 81 10000 3.6 160 08:41 19.10.2019
5934 Rain 11 1012 81 10000 3.6 160 08:22 19.10.2019
5935 Clouds 11 1012 76 10000 3.6 160 07:46 19.10.2019
5936 Rain 10 1012 89 0 2.77 153.453 07:26 19.10.2019
5937 Clear 11 1012 71 10000 4.1 150 06:52 19.10.2019
5938 Clear 10 1012 76 10000 3.1 160 06:32 19.10.2019
5939 Clear 10 1012 81 10000 3.6 160 05:35 19.10.2019
5940 Clear 10 1012 81 10000 1 180 04:26 19.10.2019
5941 Clouds 10 1013 81 10000 2.6 210 02:57 19.10.2019
5942 Clear 10 1012 81 10000 2.6 230 02:20 19.10.2019
5943 Clear 10 1012 81 10000 2.6 220 01:48 19.10.2019
5944 Clear 11 1012 81 10000 2.6 220 00:52 19.10.2019
5945 Clear 11 1012 81 10000 2.6 220 00:29 19.10.2019
5946 Clear 12 1012 76 10000 3.6 220 23:59 18.10.2019
5947 Clear 12 1012 82 10000 4.6 220 23:38 18.10.2019
5948 Clear 12 1012 82 10000 4.1 220 23:20 18.10.2019
5949 Clear 13 1012 82 10000 4.1 220 22:55 18.10.2019
5950 Clear 13 1011 76 10000 4.6 230 22:36 18.10.2019
5951 Clear 13 1011 76 10000 4.1 220 22:18 18.10.2019
5952 Clear 14 1011 76 10000 4.1 220 21:55 18.10.2019
5953 Clear 14 1011 77 10000 4.6 220 21:36 18.10.2019
5954 Clear 14 1011 77 10000 5.7 210 21:18 18.10.2019
5955 Clear 14 1011 77 10000 5.7 210 21:18 18.10.2019
5956 Clear 14 1011 82 10000 5.1 210 20:43 18.10.2019
5957 Rain 15 1011 82 10000 3.6 230 20:23 18.10.2019
5958 Rain 15 1011 82 10000 3.6 230 19:58 18.10.2019
5959 Rain 15 1011 77 10000 3.6 230 19:40 18.10.2019
5960 Rain 15 1011 77 10000 3.6 230 19:40 18.10.2019
5961 Rain 15 1010 72 10000 4.6 190 19:22 18.10.2019
5962 Rain 15 1010 72 10000 4.6 190 18:59 18.10.2019
5963 Rain 15 1010 72 10000 4.6 190 18:59 18.10.2019
5964 Clear 15 1010 72 10000 4.6 180 18:41 18.10.2019
5965 Clear 16 1010 67 10000 4.6 180 18:23 18.10.2019
5966 Clear 17 1010 67 10000 4.6 180 17:57 18.10.2019
5967 Clear 17 1010 67 10000 4.1 170 17:37 18.10.2019
5968 Clear 17 1010 67 10000 5.1 170 17:19 18.10.2019
5969 Clouds 18 1010 63 10000 5.7 170 16:44 18.10.2019
5970 Clouds 18 1010 63 10000 6.2 160 16:22 18.10.2019
5971 Clouds 18 1010 63 10000 6.2 160 15:59 18.10.2019
5972 Clouds 19 1010 63 10000 5.1 170 15:39 18.10.2019
5973 Clouds 19 1010 63 10000 4.1 150 15:20 18.10.2019
5974 Clouds 19 1010 63 10000 4.1 150 14:58 18.10.2019
5975 Clouds 19 1010 68 10000 4.6 130 14:39 18.10.2019
5976 Clouds 19 1011 63 10000 3.6 140 14:21 18.10.2019
5977 Clouds 18 1011 63 10000 3.6 140 13:59 18.10.2019
5978 Clouds 19 1011 63 10000 3.1 170 13:40 18.10.2019
5979 Clouds 19 1012 63 10000 2.6 140 13:22 18.10.2019
5980 Clouds 18 1012 63 10000 2.6 140 12:56 18.10.2019
5981 Clouds 18 1012 59 10000 3.6 150 12:38 18.10.2019
5982 Clouds 17 1012 63 10000 3.1 140 12:20 18.10.2019
5983 Clouds 17 1012 63 10000 3.1 140 11:55 18.10.2019
5984 Clear 17 1012 67 10000 3.6 170 11:37 18.10.2019
5985 Clear 16 1013 77 10000 4.1 170 11:18 18.10.2019
5986 Clear 16 1013 77 10000 4.1 170 10:42 18.10.2019
5987 Clear 15 1013 82 10000 4.1 170 10:22 18.10.2019
5988 Clear 15 1013 82 10000 4.1 170 09:59 18.10.2019
5989 Clear 14 1013 82 10000 3.6 170 09:40 18.10.2019
5990 Clear 13 1013 87 10000 3.6 160 09:20 18.10.2019
5991 Clear 13 1013 87 10000 3.6 160 08:58 18.10.2019
5992 Clear 13 1013 87 10000 4.1 170 08:39 18.10.2019
5993 Clouds 12 1013 87 10000 4.1 170 08:20 18.10.2019
5994 Clouds 12 1013 93 10000 3.6 170 07:42 18.10.2019
5995 Rain 12 1013 87 10000 3.1 160 07:21 18.10.2019
5996 Rain 12 1013 87 10000 3.6 150 06:39 18.10.2019
5997 Rain 12 1013 87 10000 4.1 160 06:21 18.10.2019
5998 Rain 12 1013 87 10000 4.1 160 05:56 18.10.2019
5999 Rain 12 1013 76 10000 4.1 150 05:23 18.10.2019
6000 Rain 12 1013 76 10000 4.6 150 04:25 18.10.2019
6001 Rain 12 1013 76 10000 4.1 150 03:32 18.10.2019
6002 Clear 12 1013 76 10000 4.1 160 02:33 18.10.2019
6003 Clear 12 1013 81 10000 3.6 160 01:46 18.10.2019
6004 Clear 11 1013 81 10000 3.6 160 01:28 18.10.2019
6005 Clear 11 1014 81 10000 3.6 150 00:45 18.10.2019
6006 Clear 11 1014 81 10000 3.1 150 00:21 18.10.2019
6007 Clear 11 1014 81 10000 3.1 150 00:21 18.10.2019
6008 Clear 10 1014 81 10000 3.1 150 23:57 17.10.2019
6009 Clear 10 1014 81 10000 3.1 160 23:36 17.10.2019
6010 Clear 11 1014 76 10000 1 0 23:18 17.10.2019
6011 Clear 11 1014 76 10000 1 0 22:55 17.10.2019
6012 Clear 10 1014 76 10000 2.6 170 22:37 17.10.2019
6013 Clear 10 1014 76 10000 4.1 180 22:18 17.10.2019
6014 Clear 11 1014 76 10000 4.1 180 21:55 17.10.2019
6015 Clear 11 1014 71 10000 2.1 170 21:37 17.10.2019
6016 Clear 11 1014 71 10000 2.6 170 21:19 17.10.2019
6017 Clear 11 1014 71 10000 2.6 170 20:56 17.10.2019
6018 Clear 11 1014 71 10000 2.6 170 20:56 17.10.2019
6019 Clear 12 1014 71 10000 3.6 170 20:37 17.10.2019
6020 Clear 12 1014 76 10000 3.6 150 20:18 17.10.2019
6021 Clear 13 1014 76 10000 3.1 150 19:42 17.10.2019
6022 Clear 14 1014 71 10000 2.1 110 19:21 17.10.2019
6023 Clear 14 1014 71 10000 2.1 110 18:59 17.10.2019
6024 Clear 15 1014 67 10000 1.5 0 18:39 17.10.2019
6025 Clouds 15 977 77 0 1.34 133 18:21 17.10.2019
6026 Clouds 16 1014 63 10000 2.1 250 17:55 17.10.2019
6027 Clouds 16 1014 63 10000 2.1 250 17:55 17.10.2019
6028 Clouds 16 1014 59 10000 2.6 260 17:37 17.10.2019
6029 Clouds 17 1014 55 10000 2.1 240 17:19 17.10.2019
6030 Clouds 17 1014 55 10000 3.6 260 16:42 17.10.2019
6031 Clouds 17 1014 55 10000 3.1 230 16:19 17.10.2019
6032 Clouds 18 1014 55 10000 3.1 230 15:59 17.10.2019
6033 Clouds 18 1014 55 10000 2.1 250 15:41 17.10.2019
6034 Clouds 18 1014 52 10000 3.6 230 15:20 17.10.2019
6035 Clouds 18 1014 52 10000 3.6 230 14:58 17.10.2019
6036 Rain 18 1014 48 10000 4.1 240 14:39 17.10.2019
6037 Clouds 18 1014 52 10000 4.1 230 14:21 17.10.2019
6038 Clouds 17 1014 54 0 2.34 201 13:42 17.10.2019
6039 Clouds 17 1015 59 10000 4.1 190 13:21 17.10.2019
6040 Clouds 17 1015 59 10000 4.1 190 12:59 17.10.2019
6041 Clouds 16 1015 59 10000 4.6 190 12:40 17.10.2019
6042 Clouds 16 1015 55 10000 5.1 180 12:20 17.10.2019
6043 Clouds 16 1015 55 10000 5.1 180 11:57 17.10.2019
6044 Clouds 16 1015 55 10000 5.1 180 11:39 17.10.2019
6045 Clouds 15 1015 62 10000 4.6 180 11:19 17.10.2019
6046 -273 0 0 0 0 0 10:54 17.10.2019
6047 Clouds 15 1015 62 10000 4.6 180 10:54 17.10.2019
6048 Rain 14 1015 62 10000 4.6 180 10:36 17.10.2019
6049 Rain 13 1015 62 10000 4.6 170 10:18 17.10.2019
6050 Rain 13 1015 62 10000 4.6 170 09:41 17.10.2019
6051 Clouds 13 1014 62 10000 5.1 170 09:21 17.10.2019
6052 Clouds 12 1014 62 10000 5.1 170 08:58 17.10.2019
6053 Clouds 12 1014 62 10000 5.1 170 08:58 17.10.2019
6054 Clouds 12 1014 66 10000 4.1 160 08:39 17.10.2019
6055 Clouds 11 1014 66 10000 5.1 170 08:20 17.10.2019
6056 Clouds 11 1014 66 10000 5.1 170 07:55 17.10.2019
6057 Clouds 10 1014 66 10000 5.1 180 07:36 17.10.2019
6058 Clouds 11 1014 62 10000 6.2 180 07:18 17.10.2019
6059 Clouds 11 1014 62 10000 6.2 180 06:39 17.10.2019
6060 Clouds 11 1014 62 10000 6.2 180 06:20 17.10.2019
6061 Clouds 12 1014 66 10000 5.7 180 05:51 17.10.2019
6062 Clouds 12 1014 66 10000 5.7 180 05:31 17.10.2019
6063 Clouds 12 1013 66 10000 6.2 200 04:52 17.10.2019
6064 Clouds 12 1013 66 10000 5.7 190 03:55 17.10.2019
6065 Clouds 13 1013 67 10000 4.6 180 02:36 17.10.2019
6066 Clouds 13 1014 67 10000 4.6 180 01:27 17.10.2019
6067 Clouds 13 1014 67 10000 4.1 200 00:38 17.10.2019
6068 Clouds 13 1014 67 10000 5.1 200 00:19 17.10.2019
6069 Clouds 13 1014 71 10000 5.1 190 23:42 16.10.2019
6070 Clouds 13 1014 71 10000 4.6 200 23:21 16.10.2019
6071 Clouds 13 1014 71 10000 4.6 200 22:56 16.10.2019
6072 Clouds 13 1014 71 10000 4.6 200 22:56 16.10.2019
6073 Clouds 13 1014 71 10000 4.1 200 22:37 16.10.2019
6074 Clouds 13 1014 67 10000 4.6 220 22:19 16.10.2019
6075 Clouds 13 1014 67 10000 4.6 220 21:56 16.10.2019
6076 Clouds 13 1014 62 10000 5.7 210 21:37 16.10.2019
6077 Clouds 13 1013 66 10000 4.1 200 21:19 16.10.2019
6078 Clouds 13 1013 66 10000 4.1 200 20:58 16.10.2019
6079 Clouds 13 1013 66 10000 3.1 210 20:39 16.10.2019
6080 Clouds 13 1013 66 10000 3.6 220 20:21 16.10.2019
6081 Clouds 13 1013 66 10000 3.6 220 19:59 16.10.2019
6082 Clouds 13 1013 66 10000 4.1 220 19:39 16.10.2019
6083 Clouds 13 1013 66 10000 3.6 220 19:20 16.10.2019
6084 Clouds 13 1013 66 10000 3.6 220 18:54 16.10.2019
6085 Clouds 13 1013 66 10000 4.1 220 18:36 16.10.2019
6086 Rain 13 1013 66 10000 3.6 230 18:18 16.10.2019
6087 Rain 13 1013 66 10000 3.6 230 17:54 16.10.2019
6088 Clouds 14 1013 58 10000 5.1 240 17:36 16.10.2019
6089 Clouds 14 1012 54 10000 7.7 240 17:18 16.10.2019
6090 Clouds 14 1012 58 10000 6.2 240 16:41 16.10.2019
6091 Clouds 15 1013 67 10000 6.2 230 16:21 16.10.2019
6092 Clouds 15 1013 67 10000 6.2 230 16:21 16.10.2019
6093 Clouds 14 1013 67 10000 6.2 230 15:57 16.10.2019
6094 Rain 15 1013 71 10000 6.7 230 15:38 16.10.2019
6095 Rain 15 976 76 0 3.58 240 15:18 16.10.2019
6096 Rain 15 1012 79 0 8.956 251 14:58 16.10.2019
6097 Rain 14 1012 76 10000 6.7 240 14:38 16.10.2019
6098 Rain 14 1012 67 10000 4.6 240 14:19 16.10.2019
6099 Rain 14 1012 67 10000 4.6 240 13:57 16.10.2019
6100 Rain 14 1012 67 10000 4.6 240 13:56 16.10.2019
6101 Clouds 14 1012 67 10000 6.2 250 13:38 16.10.2019
6102 Clouds 14 1012 67 10000 6.2 250 13:38 16.10.2019
6103 Clouds 14 1012 67 10000 6.2 250 13:19 16.10.2019
6104 Clouds 14 1012 67 10000 4.1 250 12:42 16.10.2019
6105 Clouds 14 1012 67 10000 7.2 260 12:19 16.10.2019
6106 Clouds 13 1012 71 10000 6.7 270 11:45 16.10.2019
6107 Clouds 13 1011 76 10000 4.6 260 11:19 16.10.2019
6108 Clouds 12 1011 81 10000 6.7 250 10:41 16.10.2019
6109 Clouds 12 1011 81 10000 6.7 250 10:23 16.10.2019
6110 Clouds 12 1011 76 10000 7.7 260 09:58 16.10.2019
6111 Clouds 12 1010 81 10000 9.3 260 09:39 16.10.2019
6112 Rain 12 1010 82 10000 7.7 240 09:21 16.10.2019
6113 Rain 12 1009 93 10000 5.1 240 08:46 16.10.2019
6114 Rain 13 1009 93 10000 5.1 240 08:26 16.10.2019
6115 Rain 13 1009 93 10000 5.1 240 07:58 16.10.2019
6116 Rain 13 1009 93 10000 4.1 250 07:40 16.10.2019
6117 Rain 13 1008 82 10000 6.2 260 07:21 16.10.2019
6118 Clouds 14 1008 77 10000 6.2 240 06:46 16.10.2019
6119 Clouds 14 1008 77 10000 6.2 240 06:27 16.10.2019
6120 Clouds 14 1007 82 10000 5.7 230 04:25 16.10.2019
6121 Clouds 13 1005 87 10000 2.1 170 02:51 16.10.2019
6122 Clouds 12 1005 87 10000 2.6 160 01:20 16.10.2019
6123 Clouds 12 1005 87 10000 2.6 160 00:59 16.10.2019
6124 Clouds 12 1005 87 10000 3.1 160 00:39 16.10.2019
6125 Clouds 12 1005 87 10000 3.1 170 23:58 15.10.2019
6126 Clouds 12 1005 87 10000 2.6 160 23:38 15.10.2019
6127 Clouds 12 1005 87 10000 3.6 170 23:19 15.10.2019
6128 Clouds 11 1005 87 10000 3.6 170 22:55 15.10.2019
6129 Clouds 11 1005 87 10000 3.6 170 22:55 15.10.2019
6130 Clouds 11 1005 87 10000 5.1 180 22:37 15.10.2019
6131 Clouds 12 1005 82 10000 5.1 180 22:18 15.10.2019
6132 Clouds 12 1005 82 10000 5.1 180 21:54 15.10.2019
6133 Clouds 12 1006 82 10000 5.1 190 21:36 15.10.2019
6134 Clouds 12 1005 76 10000 6.2 160 21:18 15.10.2019
6135 Clouds 13 1005 76 10000 6.2 160 20:55 15.10.2019
6136 Clouds 13 1006 76 10000 5.1 180 20:37 15.10.2019
6137 Clouds 13 1006 76 10000 4.6 170 20:19 15.10.2019
6138 Clouds 13 1006 76 10000 4.6 170 19:55 15.10.2019
6139 Clouds 14 1006 82 10000 3.6 160 19:36 15.10.2019
6140 Clouds 14 1006 77 10000 5.1 160 19:18 15.10.2019
6141 Clouds 15 1005 77 10000 4.6 160 18:43 15.10.2019
6142 Clouds 15 1005 77 10000 4.6 160 18:25 15.10.2019
6143 Clear 16 1005 77 10000 4.6 150 17:55 15.10.2019
6144 Clear 17 1006 72 10000 6.2 150 17:37 15.10.2019
6145 Clear 17 1006 72 10000 6.2 150 17:37 15.10.2019
6146 Clear 18 1006 72 10000 5.7 140 17:18 15.10.2019
6147 Clear 18 1006 72 10000 6.7 150 16:45 15.10.2019
6148 Clear 19 1006 72 10000 6.7 150 16:22 15.10.2019
6149 Clear 19 1006 68 10000 6.7 140 15:58 15.10.2019
6150 Clear 19 1006 63 10000 6.7 150 15:39 15.10.2019
6151 Clouds 20 1006 63 10000 7.7 150 15:19 15.10.2019
6152 Clouds 20 1006 63 10000 7.7 150 14:56 15.10.2019
6153 Clouds 20 1007 63 10000 6.2 160 14:37 15.10.2019
6154 Clouds 20 1007 63 10000 6.2 160 14:37 15.10.2019
6155 Clouds 20 1007 63 10000 6.7 140 14:19 15.10.2019
6156 Clouds 20 1007 63 10000 6.2 150 13:43 15.10.2019
6157 Clouds 20 1007 63 10000 6.2 150 13:43 15.10.2019
6158 Clouds 20 1008 68 10000 6.2 160 13:21 15.10.2019
6159 Clouds 20 1008 68 10000 6.2 160 12:59 15.10.2019
6160 Clouds 19 1008 63 10000 6.2 150 12:38 15.10.2019
6161 Clouds 19 1008 68 10000 6.2 150 12:20 15.10.2019
6162 Clouds 19 1008 68 10000 6.2 150 11:44 15.10.2019
6163 Clouds 18 1009 68 10000 6.7 160 11:21 15.10.2019
6164 Clouds 18 1009 68 10000 6.7 160 10:58 15.10.2019
6165 Clear 17 1009 72 10000 5.7 170 10:39 15.10.2019
6166 Clear 16 1009 77 10000 4.6 160 10:19 15.10.2019
6167 Clear 16 1009 77 10000 4.6 160 09:57 15.10.2019
6168 Clear 15 1009 77 10000 5.1 150 09:37 15.10.2019
6169 Clear 14 1009 82 10000 5.7 150 09:19 15.10.2019
6170 Clear 13 1009 87 0 5.7 160 08:41 15.10.2019
6171 Clear 12 1009 87 10000 5.1 160 08:21 15.10.2019
6172 Clear 11 1009 87 10000 5.1 160 07:56 15.10.2019
6173 Clear 11 1009 87 10000 5.1 160 07:56 15.10.2019
6174 Clear 11 1009 87 10000 5.1 160 07:56 15.10.2019
6175 Clear 11 1009 87 10000 4.6 160 07:38 15.10.2019
6176 Clear 11 1009 93 10000 4.1 160 07:19 15.10.2019
6177 Clear 11 1009 87 10000 2.6 170 06:44 15.10.2019
6178 Clear 11 1009 87 10000 2.6 170 06:25 15.10.2019
6179 Clear 12 1010 93 10000 2.6 150 05:41 15.10.2019
6180 Clear 12 1010 87 10000 2.6 170 05:22 15.10.2019
6181 Clear 12 1010 87 10000 2.6 160 04:25 15.10.2019
6182 Clear 13 1010 82 10000 4.6 140 03:37 15.10.2019
6183 Clear 13 1010 82 10000 4.6 140 03:37 15.10.2019
6184 Clear 14 1011 77 10000 4.1 140 02:24 15.10.2019
6185 Clear 14 1011 77 10000 5.7 150 01:47 15.10.2019
6186 Clear 14 1011 77 10000 4.6 150 01:19 15.10.2019
6187 Clear 15 1012 77 10000 6.2 160 00:49 15.10.2019
6188 Clear 15 1012 77 10000 8.2 160 00:21 15.10.2019
6189 Clear 16 1012 72 10000 7.2 160 23:44 14.10.2019
6190 Clear 16 1012 77 10000 6.2 160 23:20 14.10.2019
6191 Clear 16 1012 77 10000 6.2 160 22:55 14.10.2019
6192 Clear 16 1012 82 0 3.64 161.47 22:37 14.10.2019
6193 Clear 16 1013 72 10000 6.2 160 22:18 14.10.2019
6194 Clear 16 1013 72 10000 6.2 160 21:41 14.10.2019
6195 Clear 16 1013 72 10000 6.2 160 21:22 14.10.2019
6196 Clear 16 1013 72 10000 4.6 150 20:59 14.10.2019
6197 Clear 16 1013 68 10000 5.1 150 20:40 14.10.2019
6198 Clear 17 1013 68 10000 5.7 150 20:22 14.10.2019
6199 Clear 17 1013 68 10000 5.7 150 19:59 14.10.2019
6200 Clouds 17 1014 68 10000 5.1 150 19:41 14.10.2019
6201 Clouds 17 1014 68 10000 5.1 150 19:23 14.10.2019
6202 Clear 18 1014 72 10000 4.6 140 18:58 14.10.2019
6203 Clear 19 1014 68 10000 4.6 150 18:39 14.10.2019
6204 Clear 19 1014 64 10000 4.6 140 18:19 14.10.2019
6205 Clear 20 1014 60 10000 3.6 130 17:57 14.10.2019
6206 Clear 21 1014 60 10000 3.6 130 17:38 14.10.2019
6207 Clear 21 1014 60 10000 3.6 130 17:38 14.10.2019
6208 Clear 22 1014 60 10000 4.6 140 17:19 14.10.2019
6209 Clear 23 1014 56 10000 5.7 140 16:43 14.10.2019
6210 Clear 23 1014 56 10000 5.7 140 16:21 14.10.2019
6211 Clear 23 1015 56 10000 4.1 140 15:43 14.10.2019
6212 Clear 24 1015 56 10000 4.1 140 15:24 14.10.2019
6213 Clear 24 1015 53 10000 3.6 130 14:58 14.10.2019
6214 Clear 23 1015 53 10000 4.1 130 14:39 14.10.2019
6215 Clear 23 1016 56 10000 3.6 140 14:20 14.10.2019
6216 Clear 23 1016 56 10000 3.6 150 13:44 14.10.2019
6217 Clear 23 1016 60 10000 4.1 150 13:22 14.10.2019
6218 Clear 22 1016 60 10000 4.1 150 12:59 14.10.2019
6219 Clear 22 1017 60 10000 4.1 140 12:40 14.10.2019
6220 Clear 21 1016 64 10000 4.1 150 12:19 14.10.2019
6221 Clear 20 1017 60 10000 3.1 140 11:46 14.10.2019
6222 Clear 20 1017 60 10000 3.1 140 11:26 14.10.2019
6223 Clear 20 1017 60 10000 3.1 140 11:26 14.10.2019
6224 Clear 19 1017 63 10000 3.1 140 10:58 14.10.2019
6225 Clear 18 1017 68 10000 3.1 140 10:38 14.10.2019
6226 Clear 18 1017 67 10000 4.1 160 10:20 14.10.2019
6227 Clear 17 1017 72 10000 3.6 160 09:55 14.10.2019
6228 Clear 16 1017 72 10000 3.6 160 09:36 14.10.2019
6229 Clear 15 1017 77 10000 3.1 180 09:18 14.10.2019
6230 Clear 13 1016 82 10000 2.6 180 08:43 14.10.2019
6231 Clear 13 1016 82 10000 1 0 08:22 14.10.2019
6232 Clear 12 1016 82 10000 3.1 0 07:42 14.10.2019
6233 Clear 12 1016 76 10000 2.6 160 07:19 14.10.2019
6234 Clear 13 1015 76 10000 3.6 0 06:48 14.10.2019
6235 Clear 13 1015 76 10000 4.1 150 06:20 14.10.2019
6236 Clear 13 1015 76 10000 2.6 0 05:49 14.10.2019
6237 Clear 14 1015 72 10000 2.6 170 04:48 14.10.2019
6238 Clear 15 1015 72 10000 4.6 150 03:28 14.10.2019
6239 Clear 15 1014 67 10000 6.2 160 02:49 14.10.2019
6240 Clear 17 1014 68 10000 5.1 160 01:24 14.10.2019
6241 Clear 17 1014 68 10000 5.1 160 00:58 14.10.2019
6242 Clear 17 1014 72 10000 6.2 160 00:21 14.10.2019
6243 Clear 17 1014 68 10000 5.7 160 23:45 13.10.2019
6244 Clear 18 1014 68 10000 6.2 160 23:21 13.10.2019
6245 Clear 18 1014 68 10000 6.2 160 22:59 13.10.2019
6246 Clear 17 1014 68 10000 5.7 160 22:41 13.10.2019
6247 Clear 18 1014 68 10000 6.2 160 22:21 13.10.2019
6248 Clear 18 1014 68 10000 6.2 160 21:58 13.10.2019
6249 Clear 18 1014 68 10000 6.7 150 21:38 13.10.2019
6250 Clear 19 1014 68 10000 6.2 150 21:19 13.10.2019
6251 Clear 19 1014 68 10000 6.2 150 20:58 13.10.2019
6252 Clear 19 1014 68 10000 6.2 150 20:58 13.10.2019
6253 Clear 19 1014 68 10000 6.2 150 20:58 13.10.2019
6254 Clear 19 1014 68 10000 6.2 150 20:39 13.10.2019
6255 Clear 19 1014 68 10000 6.2 150 20:39 13.10.2019
6256 Clear 19 1014 68 10000 6.2 160 20:21 13.10.2019
6257 Clear 19 1014 68 10000 6.2 160 20:21 13.10.2019
6258 Clear 19 1014 68 10000 6.2 160 19:59 13.10.2019
6259 Clear 19 1014 64 10000 4.6 150 19:39 13.10.2019
6260 Clear 19 1014 64 10000 4.6 150 19:39 13.10.2019
6261 Clear 18 1014 64 10000 5.1 150 19:21 13.10.2019
6262 Clear 19 1014 64 10000 5.1 150 18:59 13.10.2019
6263 Clear 19 1014 64 10000 5.1 150 18:59 13.10.2019
6264 Clear 19 1014 64 10000 5.1 150 18:59 13.10.2019
6265 Clear 19 1014 64 10000 5.1 150 18:58 13.10.2019
6266 -273 0 0 0 0 0 18:58 13.10.2019
6267 Clear 19 1014 68 10000 6.7 170 18:38 13.10.2019
6268 Clear 19 1014 68 10000 6.7 170 18:38 13.10.2019
6269 -273 0 0 0 0 0 18:19 13.10.2019
6270 Clear 20 1014 64 10000 5.1 150 17:58 13.10.2019
6271 Clear 21 1014 60 10000 5.7 150 17:39 13.10.2019
6272 Clear 22 1014 60 10000 5.1 150 17:21 13.10.2019
6273 Clear 23 1014 56 10000 4.6 140 16:43 13.10.2019
6274 Clear 24 1014 56 10000 4.1 150 16:19 13.10.2019
6275 -273 0 0 0 0 0 15:57 13.10.2019
6276 Clear 24 1014 57 10000 4.1 150 15:39 13.10.2019
6277 Clear 24 1015 50 10000 3.1 140 15:20 13.10.2019
6278 Clear 25 1015 50 10000 3.1 140 14:57 13.10.2019
6279 Clear 24 1015 53 10000 2.1 180 14:39 13.10.2019
6280 Clouds 24 1015 57 10000 2.6 210 14:20 13.10.2019
6281 Clouds 24 1015 57 10000 2.6 210 13:55 13.10.2019
6282 Clouds 24 1015 57 10000 4.1 220 13:37 13.10.2019
6283 Clouds 23 1015 57 10000 4.1 190 13:18 13.10.2019
6284 Clouds 23 1015 56 10000 3.6 210 12:55 13.10.2019
6285 Clouds 22 1015 56 10000 3.6 210 12:37 13.10.2019
6286 Clear 22 1015 60 10000 4.6 210 12:18 13.10.2019
6287 Clear 21 1015 64 10000 4.6 190 11:55 13.10.2019
6288 Clear 21 1015 64 10000 4.6 190 11:37 13.10.2019
6289 Clear 21 1015 64 10000 3.6 180 11:18 13.10.2019
6290 Clear 20 1015 64 10000 4.1 180 10:41 13.10.2019
6291 Clear 19 1015 72 10000 3.1 170 10:22 13.10.2019
6292 Clear 17 1015 72 10000 3.6 150 09:41 13.10.2019
6293 Clear 16 1015 72 10000 2.1 150 09:21 13.10.2019
6294 Clear 15 1015 72 10000 2.1 150 08:58 13.10.2019
6295 Clear 15 1015 72 10000 2.1 150 08:58 13.10.2019
6296 Clear 15 1015 72 10000 4.6 170 08:38 13.10.2019
6297 Clear 15 1014 72 10000 4.6 160 08:19 13.10.2019
6298 Clear 14 1014 72 10000 5.1 160 07:46 13.10.2019
6299 Clear 15 1014 67 10000 5.1 160 07:21 13.10.2019
6300 Clear 15 1014 67 10000 3.6 170 06:41 13.10.2019
6301 Clear 15 1014 67 10000 3.6 170 06:41 13.10.2019
6302 Clear 16 1014 63 10000 5.1 180 05:46 13.10.2019
6303 Clear 16 1014 63 10000 4.1 180 04:49 13.10.2019
6304 Clear 16 1014 63 10000 4.1 180 04:29 13.10.2019
6305 Clear 17 1014 63 10000 5.7 190 02:42 13.10.2019
6306 Clear 17 1014 63 10000 5.1 190 01:54 13.10.2019
6307 Clear 16 1014 63 10000 5.1 200 01:30 13.10.2019
6308 Clear 16 1014 68 10000 5.1 200 00:49 13.10.2019
6309 Clear 17 1014 68 10000 3.6 220 00:22 13.10.2019
6310 Clear 17 1014 68 10000 3.6 220 23:57 12.10.2019
6311 Rain 17 1014 68 10000 4.6 230 23:39 12.10.2019
6312 Rain 17 1014 63 10000 4.6 200 23:20 12.10.2019
6313 Rain 17 1014 63 10000 4.6 200 22:57 12.10.2019
6314 Clear 17 1014 63 10000 3.6 190 22:38 12.10.2019
6315 Clear 18 1014 63 10000 4.6 210 22:20 12.10.2019
6316 Clear 18 1014 63 10000 4.6 210 21:55 12.10.2019
6317 Clear 17 1014 63 10000 5.1 200 21:37 12.10.2019
6318 Clear 17 1014 59 10000 4.1 190 21:18 12.10.2019
6319 Clear 17 1014 55 10000 3.6 210 20:41 12.10.2019
6320 Clear 17 1014 59 10000 4.1 220 20:23 12.10.2019
6321 Clear 17 1014 63 10000 3.6 210 19:40 12.10.2019
6322 Clear 17 1013 63 10000 4.1 220 19:22 12.10.2019
6323 Clear 17 1013 52 10000 4.1 230 18:59 12.10.2019
6324 Clear 17 1013 52 10000 4.1 230 18:40 12.10.2019
6325 Clear 19 1013 49 10000 4.1 230 18:22 12.10.2019
6326 Clear 21 1013 49 10000 5.1 240 17:44 12.10.2019
6327 Clear 21 1012 46 10000 5.7 240 17:19 12.10.2019
6328 Clear 22 1012 46 10000 6.2 240 16:55 12.10.2019
6329 Clear 22 1012 46 10000 6.2 240 16:36 12.10.2019
6330 Clear 22 1012 46 10000 6.2 240 16:36 12.10.2019
6331 Clear 22 1012 46 10000 7.2 240 16:18 12.10.2019
6332 Clear 22 1012 46 10000 5.7 240 15:44 12.10.2019
6333 Clear 22 1012 46 10000 5.7 240 15:25 12.10.2019
6334 Clear 22 1012 46 10000 5.7 240 14:55 12.10.2019
6335 Clear 22 1012 46 10000 7.7 240 14:37 12.10.2019
6336 Clear 22 1012 46 10000 7.2 240 14:18 12.10.2019
6337 Clear 22 1013 46 10000 6.2 250 13:43 12.10.2019
6338 Clear 22 1013 46 10000 6.2 250 13:43 12.10.2019
6339 Clear 21 1013 46 10000 6.2 250 13:25 12.10.2019
6340 Clear 20 1013 52 10000 4.6 240 12:40 12.10.2019
6341 Clear 20 1013 56 10000 5.7 220 12:22 12.10.2019
6342 Clear 20 1013 56 10000 5.7 220 11:59 12.10.2019
6343 Clear 19 1013 59 10000 3.6 190 11:40 12.10.2019
6344 Clear 18 1013 63 10000 4.1 190 11:22 12.10.2019
6345 -273 0 0 0 0 0 10:56 12.10.2019
6346 Clear 18 1013 67 10000 5.1 170 10:36 12.10.2019
6347 Clear 16 1013 72 10000 5.1 180 10:18 12.10.2019
6348 Clear 15 1012 71 10000 5.1 170 09:54 12.10.2019
6349 Clear 15 1012 71 10000 5.1 170 09:36 12.10.2019
6350 Clear 14 1013 76 10000 4.6 170 09:18 12.10.2019
6351 Clear 14 1013 76 10000 4.6 170 09:18 12.10.2019
6352 Clear 12 1013 81 10000 5.7 170 08:41 12.10.2019
6353 Clear 12 1012 81 10000 5.1 170 08:20 12.10.2019
6354 Clear 12 1012 81 10000 5.1 170 08:20 12.10.2019
6355 Clear 12 1012 81 10000 5.1 170 08:20 12.10.2019
6356 Clear 12 1012 81 10000 5.1 170 08:20 12.10.2019
6357 Clear 12 1012 81 10000 4.1 170 07:35 12.10.2019
6358 Clear 12 1012 81 10000 3.6 180 06:59 12.10.2019
6359 Clear 12 1012 87 10000 5.7 170 05:49 12.10.2019
6360 Clear 12 1012 87 10000 5.7 170 05:24 12.10.2019
6361 Clear 12 1012 76 10000 4.1 170 04:26 12.10.2019
6362 Clear 12 1012 76 10000 4.1 170 04:26 12.10.2019
6363 Clear 12 1013 81 10000 2.6 160 03:41 12.10.2019
6364 Clear 12 1013 76 10000 4.1 190 02:28 12.10.2019
6365 Clear 13 1013 76 10000 3.1 180 01:30 12.10.2019
6366 Clear 13 1013 71 10000 2.6 210 00:43 12.10.2019
6367 Clear 13 1013 71 10000 2.6 210 00:19 12.10.2019
6368 Clear 12 1013 76 10000 3.1 190 23:40 11.10.2019
6369 Clear 12 1013 76 10000 3.1 190 23:40 11.10.2019
6370 Clear 13 1013 71 10000 4.6 200 23:21 11.10.2019
6371 Clear 13 1013 71 10000 4.6 200 22:59 11.10.2019
6372 Clear 13 1013 76 10000 4.6 180 22:37 11.10.2019
6373 Clear 13 1013 76 10000 4.6 180 22:37 11.10.2019
6374 Clear 13 1013 76 10000 4.1 170 22:18 11.10.2019
6375 Clear 13 1013 76 10000 5.7 180 21:40 11.10.2019
6376 Clear 13 1013 76 10000 5.1 180 21:21 11.10.2019
6377 Clear 13 1013 76 10000 5.1 180 20:55 11.10.2019
6378 Clear 13 1014 71 10000 4.6 190 20:37 11.10.2019
6379 Clouds 13 1014 71 10000 5.7 200 20:18 11.10.2019
6380 Clouds 13 1014 71 10000 5.7 200 19:54 11.10.2019
6381 Clouds 14 1014 67 10000 6.7 200 19:36 11.10.2019
6382 Clouds 14 1014 67 10000 5.7 200 19:18 11.10.2019
6383 Clouds 14 1015 72 10000 4.6 210 18:39 11.10.2019
6384 Clouds 14 977 84 0 1.79 190 18:19 11.10.2019
6385 Clouds 15 1015 67 10000 5.7 210 17:59 11.10.2019
6386 Clouds 15 1015 63 10000 6.2 210 17:38 11.10.2019
6387 Clouds 15 1015 63 10000 6.2 200 17:20 11.10.2019
6388 Clouds 15 1015 63 10000 6.2 200 16:59 11.10.2019
6389 Clouds 15 1015 63 10000 6.7 200 16:39 11.10.2019
6390 Clear 16 1015 59 10000 5.7 210 16:19 11.10.2019
6391 Clear 16 1015 59 10000 5.7 210 15:57 11.10.2019
6392 Clear 16 1015 59 10000 6.7 220 15:37 11.10.2019
6393 Clear 16 1015 55 10000 6.2 230 15:18 11.10.2019
6394 Clouds 16 1015 59 10000 7.7 220 14:44 11.10.2019
6395 Clouds 16 1015 59 10000 7.7 220 14:25 11.10.2019
6396 Clouds 16 1016 59 10000 5.7 240 13:47 11.10.2019
6397 Clouds 16 1016 59 10000 5.7 240 13:27 11.10.2019
6398 Clouds 15 1017 63 10000 5.7 230 12:59 11.10.2019
6399 Clouds 15 1017 59 10000 5.7 230 12:41 11.10.2019
6400 Clouds 14 1017 62 10000 6.2 240 12:22 11.10.2019
6401 Clouds 14 1017 62 10000 6.2 240 11:59 11.10.2019
6402 Clouds 14 1017 71 10000 5.7 230 11:39 11.10.2019
6403 Clouds 13 1017 67 10000 7.2 220 11:21 11.10.2019
6404 Clear 13 1017 67 10000 7.2 220 10:56 11.10.2019
6405 Clouds 13 1017 67 10000 7.2 220 10:56 11.10.2019
6406 Clear 13 1017 67 10000 7.2 220 10:38 11.10.2019
6407 Clear 13 1017 71 10000 8.2 210 10:20 11.10.2019
6408 Clear 12 1017 71 10000 6.7 220 09:54 11.10.2019
6409 Clear 12 1017 71 10000 6.7 220 09:54 11.10.2019
6410 Clear 12 1017 71 10000 6.7 220 09:36 11.10.2019
6411 Clear 11 1017 76 10000 7.2 200 09:18 11.10.2019
6412 Clear 10 1017 76 10000 6.2 200 08:40 11.10.2019
6413 Clear 9 1017 76 10000 6.2 200 08:21 11.10.2019
6414 Clear 9 1017 76 10000 6.2 200 07:59 11.10.2019
6415 Clear 9 1017 76 10000 6.7 210 07:40 11.10.2019
6416 Clear 9 1017 76 10000 6.2 210 07:20 11.10.2019
6417 Clear 8 1017 81 10000 5.7 210 06:44 11.10.2019
6418 Clear 8 1018 81 10000 5.1 210 06:21 11.10.2019
6419 Clear 9 1018 81 10000 5.1 220 05:37 11.10.2019
6420 Clear 9 1018 81 10000 3.6 220 04:59 11.10.2019
6421 Clear 9 1018 81 10000 4.1 220 04:24 11.10.2019
6422 Clear 9 1018 76 10000 5.1 240 02:18 11.10.2019
6423 Clear 10 1017 71 10000 4.6 240 00:43 11.10.2019
6424 Clear 10 1017 71 10000 4.1 240 00:25 11.10.2019
6425 Clear 10 1017 71 10000 4.6 240 23:43 10.10.2019
6426 Clear 10 1017 71 10000 3.6 240 23:21 10.10.2019
6427 Clear 10 1017 71 10000 4.1 230 22:57 10.10.2019
6428 Clear 10 1017 71 10000 4.1 230 22:39 10.10.2019
6429 Clear 10 1016 71 10000 4.6 230 22:20 10.10.2019
6430 Clear 9 1016 71 10000 4.6 230 21:57 10.10.2019
6431 Clear 9 1016 76 10000 4.6 230 21:38 10.10.2019
6432 Clear 9 1016 76 10000 4.1 240 21:20 10.10.2019
6433 Clear 10 1016 76 10000 4.1 240 20:42 10.10.2019
6434 Clear 10 1016 76 10000 4.6 240 20:22 10.10.2019
6435 Clear 10 1016 76 10000 4.6 240 20:22 10.10.2019
6436 Clear 10 1016 76 10000 4.6 240 19:59 10.10.2019
6437 Clear 10 1015 76 10000 4.6 240 19:41 10.10.2019
6438 Rain 10 1015 76 10000 4.1 250 19:20 10.10.2019
6439 Rain 11 1014 71 10000 3.6 300 18:57 10.10.2019
6440 Rain 11 1014 71 10000 3.6 300 18:39 10.10.2019
6441 Rain 11 977 90 0 3.13 222 18:20 10.10.2019
6442 Clouds 12 1013 62 10000 4.6 270 17:55 10.10.2019
6443 Clouds 12 1013 62 10000 4.6 270 17:36 10.10.2019
6444 Clouds 13 1013 58 10000 5.7 280 17:18 10.10.2019
6445 Rain 13 1013 58 10000 5.1 260 16:44 10.10.2019
6446 Rain 13 1013 62 10000 6.2 270 16:26 10.10.2019
6447 Clouds 13 1013 62 10000 5.1 280 15:54 10.10.2019
6448 Clouds 13 1013 62 10000 5.1 280 15:36 10.10.2019
6449 Clouds 13 1013 62 10000 5.1 280 15:36 10.10.2019
6450 Clouds 13 1012 66 10000 6.2 290 15:18 10.10.2019
6451 Rain 13 1012 66 10000 6.2 290 14:54 10.10.2019
6452 Rain 13 1012 71 10000 4.6 300 14:36 10.10.2019
6453 Rain 12 1012 71 10000 3.6 270 14:18 10.10.2019
6454 Rain 12 1012 76 10000 5.1 270 13:41 10.10.2019
6455 Rain 11 1011 81 10000 3.6 250 13:23 10.10.2019
6456 Rain 11 1011 81 10000 3.6 250 12:57 10.10.2019
6457 Rain 10 1011 81 10000 3.6 250 12:39 10.10.2019
6458 Rain 10 1011 93 10000 3.6 230 12:20 10.10.2019
6459 Rain 10 1011 93 10000 3.6 230 11:58 10.10.2019
6460 Rain 10 1011 93 10000 3.1 230 11:38 10.10.2019
6461 Rain 10 1011 87 10000 2.6 240 11:19 10.10.2019
6462 Rain 9 1011 87 10000 3.1 230 10:44 10.10.2019
6463 Rain 10 1011 81 10000 4.1 230 10:26 10.10.2019
6464 Rain 10 1011 81 10000 4.1 230 09:58 10.10.2019
6465 Clouds 10 1010 76 10000 3.6 210 09:39 10.10.2019
6466 Clear 10 1010 76 10000 5.1 220 09:21 10.10.2019
6467 Clear 10 1010 76 10000 5.1 220 08:57 10.10.2019
6468 Clear 10 1010 76 10000 3.6 220 08:38 10.10.2019
6469 Clear 9 1009 81 10000 4.1 230 08:18 10.10.2019
6470 Clear 9 1009 76 10000 3.6 240 07:45 10.10.2019
6471 Clear 9 1009 76 10000 5.1 240 07:22 10.10.2019
6472 Clear 10 1009 81 10000 4.6 240 06:48 10.10.2019
6473 Clear 10 1009 81 10000 4.6 240 06:29 10.10.2019
6474 Clouds 10 1008 76 10000 5.1 250 05:28 10.10.2019
6475 Clouds 10 1008 76 10000 5.1 240 04:48 10.10.2019
6476 Clouds 11 1008 76 10000 5.1 240 04:26 10.10.2019
6477 Clouds 11 1007 71 10000 5.7 230 01:46 10.10.2019
6478 Clouds 11 1007 71 10000 5.7 230 01:26 10.10.2019
6479 Clouds 11 1007 71 10000 4.6 230 01:00 10.10.2019
6480 Clear 11 1007 71 10000 5.7 230 00:24 10.10.2019
6481 Clouds 11 1007 76 10000 5.1 220 23:41 09.10.2019
6482 Clouds 11 1007 76 10000 3.6 220 23:23 09.10.2019
6483 Clouds 11 1007 76 10000 3.6 220 22:59 09.10.2019
6484 Clouds 11 1007 71 10000 5.7 230 22:40 09.10.2019
6485 Clouds 11 1007 71 10000 7.7 220 22:22 09.10.2019
6486 Clouds 11 1007 66 10000 6.2 210 21:42 09.10.2019
6487 Rain 11 1007 76 10000 6.7 210 21:21 09.10.2019
6488 Rain 11 1007 76 10000 6.7 210 21:21 09.10.2019
6489 Rain 12 1007 76 10000 6.7 210 20:58 09.10.2019
6490 Clear 12 1007 66 10000 5.7 210 20:39 09.10.2019
6491 Clear 12 1007 76 10000 5.1 200 20:21 09.10.2019
6492 Clear 12 1007 76 10000 5.1 200 19:59 09.10.2019
6493 Clear 12 1007 76 10000 5.1 200 19:59 09.10.2019
6494 Clear 12 1007 76 10000 5.1 200 19:59 09.10.2019
6495 Clear 12 1007 71 10000 5.1 200 19:40 09.10.2019
6496 Clear 12 1007 71 10000 4.6 200 19:22 09.10.2019
6497 Clear 12 1007 66 10000 4.6 210 18:39 09.10.2019
6498 Clear 13 1007 71 10000 3.1 210 18:21 09.10.2019
6499 Clear 13 1007 71 10000 3.1 210 17:58 09.10.2019
6500 Clouds 13 1008 67 10000 3.1 210 17:40 09.10.2019
6501 Clouds 13 1008 67 10000 4.6 220 17:22 09.10.2019
6502 Clouds 13 1008 67 10000 4.6 220 16:57 09.10.2019
6503 Clouds 14 1008 62 10000 3.6 230 16:39 09.10.2019
6504 Clouds 14 1008 62 10000 2.6 240 16:20 09.10.2019
6505 Clouds 14 1008 62 10000 2.6 240 16:20 09.10.2019
6506 Clouds 14 1008 62 10000 2.6 240 15:56 09.10.2019
6507 Clouds 15 1008 62 10000 3.1 260 15:37 09.10.2019
6508 Clouds 15 1008 62 10000 3.1 260 15:37 09.10.2019
6509 Clouds 14 1008 62 10000 3.1 260 15:18 09.10.2019
6510 Clouds 15 1008 62 10000 3.1 270 14:45 09.10.2019
6511 Clouds 15 1009 62 10000 5.1 230 14:19 09.10.2019
6512 Clouds 15 1009 62 10000 5.1 230 14:00 09.10.2019
6513 Clouds 15 1009 62 10000 3.1 240 13:38 09.10.2019
6514 Clouds 15 1009 62 10000 3.1 240 13:38 09.10.2019
6515 Clouds 15 1009 62 10000 4.6 250 13:19 09.10.2019
6516 Clouds 15 1010 62 10000 4.6 260 12:55 09.10.2019
6517 Clouds 15 1010 62 10000 4.6 260 12:37 09.10.2019
6518 Clouds 15 1010 67 10000 5.1 240 12:18 09.10.2019
6519 Clouds 14 1010 67 10000 5.1 250 11:40 09.10.2019
6520 Rain 14 1011 71 10000 4.6 240 11:21 09.10.2019
6521 Rain 13 1011 71 10000 4.6 240 10:59 09.10.2019
6522 Rain 13 1011 71 10000 4.1 240 10:40 09.10.2019
6523 Clear 12 1011 76 10000 4.1 240 10:19 09.10.2019
6524 Clear 12 1011 76 10000 4.6 230 09:56 09.10.2019
6525 Clear 11 1011 76 10000 4.6 230 09:38 09.10.2019
6526 Clear 11 1011 76 10000 4.6 230 09:38 09.10.2019
6527 Clear 11 1011 81 10000 4.6 230 09:18 09.10.2019
6528 Rain 10 1011 81 10000 4.1 230 08:39 09.10.2019
6529 Rain 10 1010 87 10000 3.6 220 08:20 09.10.2019
6530 Rain 9 1010 93 10000 4.6 220 07:47 09.10.2019
6531 Clear 9 1010 93 10000 4.6 220 07:25 09.10.2019
6532 Rain 9 1010 87 10000 3.6 240 07:25 09.10.2019
6533 Clear 9 1010 93 10000 4.6 220 07:25 09.10.2019
6534 Rain 9 1010 87 10000 3.6 240 06:59 09.10.2019
6535 Rain 9 1009 87 10000 2.6 260 06:41 09.10.2019
6536 Rain 10 1009 93 10000 3.1 250 05:53 09.10.2019
6537 Rain 10 1008 87 10000 3.6 250 05:18 09.10.2019
6538 Rain 11 1007 93 10000 3.6 250 03:49 09.10.2019
6539 Rain 11 1007 93 10000 1 0 02:35 09.10.2019
6540 Rain 11 1007 93 10000 4.1 210 01:39 09.10.2019
6541 Rain 11 1007 93 6000 3.1 220 01:19 09.10.2019
6542 Rain 11 1007 93 10000 2.6 220 00:55 09.10.2019
6543 Rain 11 1007 93 10000 2.6 220 00:37 09.10.2019
6544 Rain 11 1007 100 10000 3.1 220 00:19 09.10.2019
6545 Rain 11 1007 100 10000 3.1 210 23:39 08.10.2019
6546 Rain 11 1007 100 10000 3.1 210 23:39 08.10.2019
6547 Rain 11 1007 93 10000 4.1 200 23:18 08.10.2019
6548 Rain 11 1007 93 10000 2.6 220 22:55 08.10.2019
6549 Rain 11 1007 93 10000 2.6 220 22:37 08.10.2019
6550 Rain 11 1007 100 10000 4.1 210 22:18 08.10.2019
6551 Rain 11 1007 100 10000 4.1 210 21:56 08.10.2019
6552 Rain 11 1007 100 10000 4.6 190 21:37 08.10.2019
6553 Rain 11 1007 100 10000 4.1 210 21:18 08.10.2019
6554 Rain 11 1008 100 10000 3.6 220 20:55 08.10.2019
6555 Rain 11 1008 100 10000 3.6 220 20:37 08.10.2019
6556 Rain 11 1008 93 10000 2.6 230 20:18 08.10.2019
6557 Rain 11 1008 93 10000 2.6 230 19:55 08.10.2019
6558 Rain 11 1007 93 10000 3.1 220 19:36 08.10.2019
6559 Rain 11 1007 87 10000 4.6 220 19:18 08.10.2019
6560 Clouds 11 1007 87 10000 4.1 230 18:45 08.10.2019
6561 Clouds 11 1007 87 10000 4.1 230 18:25 08.10.2019
6562 Clouds 11 1007 87 10000 4.1 230 17:58 08.10.2019
6563 Rain 11 1008 87 10000 4.1 240 17:39 08.10.2019
6564 Rain 12 1007 82 10000 4.1 230 17:20 08.10.2019
6565 Rain 12 1007 82 10000 4.1 230 16:56 08.10.2019
6566 Rain 12 1007 87 10000 4.1 230 16:37 08.10.2019
6567 Rain 12 1008 87 10000 3.6 220 16:19 08.10.2019
6568 Clouds 11 1008 93 10000 4.1 200 15:40 08.10.2019
6569 Rain 11 1008 100 10000 3.1 200 15:20 08.10.2019
6570 Rain 11 1008 100 10000 3.1 200 15:20 08.10.2019
6571 Rain 11 1008 100 10000 3.1 200 14:57 08.10.2019
6572 Rain 11 1008 100 4000 4.1 190 14:38 08.10.2019
6573 Rain 10 1008 93 3500 5.1 190 14:20 08.10.2019
6574 Rain 10 1008 93 3500 5.1 190 13:55 08.10.2019
6575 Rain 10 1008 100 4800 5.7 180 13:37 08.10.2019
6576 Rain 10 1008 100 4500 6.2 180 13:18 08.10.2019
6577 Rain 10 1009 100 3600 5.7 170 12:42 08.10.2019
6578 Rain 10 1009 100 5000 6.2 170 12:21 08.10.2019
6579 Rain 10 1009 100 5000 6.2 170 11:59 08.10.2019
6580 Rain 10 1009 93 7000 6.2 180 11:40 08.10.2019
6581 Rain 9 1010 87 10000 5.7 180 11:21 08.10.2019
6582 Rain 9 1010 87 10000 5.7 180 10:55 08.10.2019
6583 Rain 9 1010 87 10000 5.1 170 10:36 08.10.2019
6584 Rain 9 1010 93 10000 5.7 170 10:18 08.10.2019
6585 Rain 10 1011 81 10000 5.7 180 09:41 08.10.2019
6586 Clouds 10 1011 76 10000 6.2 190 09:23 08.10.2019
6587 Clouds 9 1011 76 10000 6.2 190 08:57 08.10.2019
6588 Clouds 9 1011 81 10000 5.7 180 08:39 08.10.2019
6589 Clouds 8 1011 81 10000 6.2 180 08:21 08.10.2019
6590 Clouds 8 1012 81 10000 5.1 170 07:41 08.10.2019
6591 Clouds 8 1012 81 10000 5.1 180 07:20 08.10.2019
6592 Clouds 8 1012 81 10000 5.1 180 07:20 08.10.2019
6593 Clouds 7 1012 81 10000 4.6 170 06:47 08.10.2019
6594 Clouds 7 1012 81 10000 4.6 170 06:26 08.10.2019
6595 Clear 6 1013 81 10000 3.6 170 05:44 08.10.2019
6596 Clear 5 1013 81 10000 3.6 170 05:24 08.10.2019
6597 Clear 4 1015 86 10000 2.1 170 03:32 08.10.2019
6598 Clear 4 1016 75 10000 3.1 170 02:46 08.10.2019
6599 Clear 4 1016 75 10000 3.1 170 02:26 08.10.2019
6600 Clear 3 1017 86 10000 3.6 170 01:42 08.10.2019
6601 Clear 3 1017 86 10000 4.1 180 01:19 08.10.2019
6602 Clear 3 1017 86 10000 1.5 160 00:38 08.10.2019
6603 Clear 3 1018 80 10000 2.1 160 00:19 08.10.2019
6604 Clear 2 1018 80 10000 1.5 190 23:39 07.10.2019
6605 Clear 2 1018 80 10000 2.1 190 23:19 07.10.2019
6606 Clear 2 1018 80 10000 1.5 190 22:55 07.10.2019
6607 Clear 2 1018 80 10000 1.5 190 22:37 07.10.2019
6608 Clear 2 1019 80 10000 1.5 200 22:19 07.10.2019
6609 Clear 3 1019 80 10000 1.5 200 21:55 07.10.2019
6610 Clouds 3 980 86 0 0.89 129 21:37 07.10.2019
6611 Clear 3 981 86 0 0.45 162 21:18 07.10.2019
6612 Clear 4 1019 66 10000 1.5 130 20:57 07.10.2019
6613 Clear 3 980 68 0 1.02 154.622 20:38 07.10.2019
6614 Clear 4 980 80 0 1.02 154.622 20:19 07.10.2019
6615 Clear 5 980 66 0 1.02 154.622 19:56 07.10.2019
6616 Clear 5 980 67 0 1.02 154.622 19:38 07.10.2019
6617 Clear 5 980 67 0 1.02 154.622 19:38 07.10.2019
6618 Clear 5 981 59 0 1.02 154.622 19:18 07.10.2019
6619 Clear 6 1019 66 10000 0.5 0 18:55 07.10.2019
6620 Clear 7 1019 57 10000 1.5 320 18:37 07.10.2019
6621 Clouds 9 1019 53 10000 1.5 300 18:18 07.10.2019
6622 Clouds 10 1019 53 10000 1 0 17:41 07.10.2019
6623 Clouds 11 1019 40 10000 1.5 50 17:19 07.10.2019
6624 Clouds 11 1019 40 10000 1.5 50 16:55 07.10.2019
6625 Clouds 11 1019 43 10000 1 0 16:37 07.10.2019
6626 Clouds 11 1019 43 10000 1.5 20 16:19 07.10.2019
6627 Clouds 12 1019 43 10000 1.5 0 15:43 07.10.2019
6628 Clouds 12 1019 43 10000 1.5 0 15:24 07.10.2019
6629 Clouds 11 1020 50 10000 1.5 0 14:42 07.10.2019
6630 -273 0 0 0 0 0 14:24 07.10.2019
6631 -273 0 0 0 0 0 14:24 07.10.2019
6632 Clouds 11 1020 50 10000 1 0 13:59 07.10.2019
6633 Clouds 11 1020 53 10000 1 0 13:41 07.10.2019
6634 Clouds 10 1020 53 10000 2.1 0 13:19 07.10.2019
6635 Clouds 10 1020 53 10000 2.1 0 12:55 07.10.2019
6636 Clouds 10 1020 50 10000 1.5 0 12:37 07.10.2019
6637 Clouds 9 1020 62 10000 1 340 12:18 07.10.2019
6638 Clear 9 1020 61 10000 1 0 11:56 07.10.2019
6639 Clear 9 1020 61 10000 1 0 11:37 07.10.2019
6640 Clear 8 1020 70 10000 1 0 11:18 07.10.2019
6641 Clear 7 1020 70 10000 1.5 210 10:41 07.10.2019
6642 Clear 5 1020 80 10000 2.1 230 10:20 07.10.2019
6643 Clear 4 1019 86 10000 1.5 180 09:42 07.10.2019
6644 Clear 3 1019 93 10000 0.5 0 09:23 07.10.2019
6645 Clear 1 1019 93 10000 0.5 0 08:57 07.10.2019
6646 Clear 1 1019 81 10000 1 100 08:39 07.10.2019
6647 Clouds 0 980 92 0 0.48 129.111 08:19 07.10.2019
6648 Clear 0 1019 86 10000 0.5 0 07:43 07.10.2019
6649 Clouds -1 1020 94 0 0.48 129.111 07:25 07.10.2019
6650 Clear 0 1018 80 10000 2.1 120 06:54 07.10.2019
6651 Clear 0 1018 80 10000 2.1 120 06:34 07.10.2019
6652 Clear 0 1018 80 10000 1 0 05:50 07.10.2019
6653 Clear 0 1018 80 10000 1 70 05:24 07.10.2019
6654 Clear 1 1018 80 10000 2.1 110 04:42 07.10.2019
6655 Clear 2 1017 80 10000 2.1 100 03:45 07.10.2019
6656 Clear 2 1017 80 10000 2.1 100 03:45 07.10.2019
6657 Clear 2 1017 74 10000 1.5 100 03:23 07.10.2019
6658 Clear 2 1017 86 10000 2.1 130 02:23 07.10.2019
6659 Clear 2 1017 86 10000 2.1 130 01:57 07.10.2019
6660 Clear 3 1017 86 10000 2.6 90 01:22 07.10.2019
6661 Clear 4 1017 86 10000 2.6 80 00:45 07.10.2019
6662 Clear 4 1016 86 10000 2.6 100 00:23 07.10.2019
6663 Clear 4 1016 86 10000 2.6 100 23:59 06.10.2019
6664 Clear 5 1016 80 10000 2.1 110 23:39 06.10.2019
6665 Clear 4 1016 80 10000 3.1 100 23:18 06.10.2019
6666 Clear 5 1016 80 10000 3.1 100 22:54 06.10.2019
6667 Clear 5 1016 80 10000 2.6 90 22:36 06.10.2019
6668 Clear 5 1016 75 10000 3.6 80 22:18 06.10.2019
6669 -273 0 0 0 0 0 21:54 06.10.2019
6670 Clear 6 1016 75 10000 4.1 70 21:36 06.10.2019
6671 Clear 6 1016 75 10000 4.6 90 21:18 06.10.2019
6672 Clear 6 1016 75 10000 4.1 80 20:54 06.10.2019
6673 Clear 6 1016 75 10000 4.1 80 20:36 06.10.2019
6674 Clear 6 1016 70 10000 4.1 80 20:18 06.10.2019
6675 Clear 7 1016 70 10000 4.1 80 19:54 06.10.2019
6676 Clear 7 1016 70 10000 4.1 80 19:36 06.10.2019
6677 Clear 7 1017 75 10000 4.6 80 19:18 06.10.2019
6678 Clear 7 1017 65 10000 4.6 80 18:54 06.10.2019
6679 Clear 8 1017 65 10000 4.6 80 18:36 06.10.2019
6680 Clear 8 1017 65 10000 4.1 70 18:18 06.10.2019
6681 Clear 9 1017 61 10000 4.6 90 17:42 06.10.2019
6682 Clear 9 1017 61 10000 4.1 90 17:20 06.10.2019
6683 Clear 10 1017 61 10000 4.1 90 16:55 06.10.2019
6684 Clear 10 1017 61 10000 4.1 90 16:55 06.10.2019
6685 Clear 9 1017 61 10000 4.6 80 16:36 06.10.2019
6686 Clear 9 1018 61 10000 5.7 80 16:18 06.10.2019
6687 Clear 10 1018 61 10000 5.1 80 15:42 06.10.2019
6688 Clear 10 1018 66 10000 4.1 80 15:19 06.10.2019
6689 Clear 10 1018 66 10000 4.1 80 15:19 06.10.2019
6690 Clear 10 1018 66 10000 4.1 80 15:19 06.10.2019
6691 Clear 10 1018 66 10000 4.1 80 15:19 06.10.2019
6692 Clouds 10 1019 66 10000 4.6 90 14:44 06.10.2019
6693 Clouds 10 1019 66 10000 4.6 90 14:25 06.10.2019
6694 Clouds 10 1019 70 10000 4.1 60 13:59 06.10.2019
6695 Clouds 10 1019 66 10000 4.6 70 13:40 06.10.2019
6696 Rain 10 1020 70 10000 3.6 80 13:21 06.10.2019
6697 Rain 10 1020 70 10000 3.6 80 12:58 06.10.2019
6698 Rain 9 1020 70 10000 3.6 120 12:39 06.10.2019
6699 Clouds 9 1020 81 10000 3.6 120 12:21 06.10.2019
6700 Clouds 9 1020 81 10000 3.6 120 11:59 06.10.2019
6701 Clouds 8 1021 81 10000 3.1 80 11:40 06.10.2019
6702 Clouds 8 1021 87 10000 2.1 120 11:21 06.10.2019
6703 Clouds 7 1021 87 10000 2.1 120 10:55 06.10.2019
6704 Clouds 7 1021